<?xml version="1.0" encoding="UTF-8" standalone="no" ?>
<gpx xmlns="http://www.topografix.com/GPX/1/1" xmlns:xsi="http://www.w3.org/2001/XMLSchema-instance" xsi:schemaLocation="http://www.topografix.com/GPX/1/1 http://www.topografix.com/GPX/1/1/gpx.xsd" version="1.1" creator="VisuGPX - https://www.visugpx.com">
  <metadata>
    <name>Forêt de Bord - GR des Roches</name>
    <desc><![CDATA[
]]></desc>
  </metadata>
  <trk>
    <name><![CDATA[37- 17 JUIL 5:30 Bord GR des Roches]]></name>
    <trkseg>
      <trkpt lat="49.25444" lon="1.20248">
        <ele>-20.05</ele>
        <time>2015-07-17T11:23:00Z</time>
      </trkpt>
      <trkpt lat="49.25449" lon="1.2026">
        <ele>-20.05</ele>
        <time>2015-07-17T11:23:03Z</time>
      </trkpt>
      <trkpt lat="49.2545" lon="1.20338">
        <ele>-19.57</ele>
        <time>2015-07-17T11:23:17Z</time>
      </trkpt>
      <trkpt lat="49.2545" lon="1.20345">
        <ele>-19.57</ele>
        <time>2015-07-17T11:23:18Z</time>
      </trkpt>
      <trkpt lat="49.2545" lon="1.20351">
        <ele>-19.57</ele>
        <time>2015-07-17T11:23:19Z</time>
      </trkpt>
      <trkpt lat="49.25448" lon="1.2037">
        <ele>-19.09</ele>
        <time>2015-07-17T11:23:22Z</time>
      </trkpt>
      <trkpt lat="49.25448" lon="1.20376">
        <ele>-19.57</ele>
        <time>2015-07-17T11:23:23Z</time>
      </trkpt>
      <trkpt lat="49.25448" lon="1.20382">
        <ele>-19.57</ele>
        <time>2015-07-17T11:23:24Z</time>
      </trkpt>
      <trkpt lat="49.25448" lon="1.20387">
        <ele>-19.57</ele>
        <time>2015-07-17T11:23:25Z</time>
      </trkpt>
      <trkpt lat="49.25447" lon="1.2039">
        <ele>-19.09</ele>
        <time>2015-07-17T11:23:26Z</time>
      </trkpt>
      <trkpt lat="49.25452" lon="1.20412">
        <ele>-13.32</ele>
        <time>2015-07-17T11:23:30Z</time>
      </trkpt>
      <trkpt lat="49.25458" lon="1.20422">
        <ele>-7.55</ele>
        <time>2015-07-17T11:23:32Z</time>
      </trkpt>
      <trkpt lat="49.25464" lon="1.20434">
        <ele>-3.23</ele>
        <time>2015-07-17T11:23:34Z</time>
      </trkpt>
      <trkpt lat="49.25467" lon="1.20445">
        <ele>1.58</ele>
        <time>2015-07-17T11:23:36Z</time>
      </trkpt>
      <trkpt lat="49.25471" lon="1.20457">
        <ele>5.42</ele>
        <time>2015-07-17T11:23:38Z</time>
      </trkpt>
      <trkpt lat="49.25475" lon="1.20469">
        <ele>8.79</ele>
        <time>2015-07-17T11:23:40Z</time>
      </trkpt>
      <trkpt lat="49.25478" lon="1.20481">
        <ele>12.15</ele>
        <time>2015-07-17T11:23:42Z</time>
      </trkpt>
      <trkpt lat="49.25482" lon="1.20493">
        <ele>15.04</ele>
        <time>2015-07-17T11:23:44Z</time>
      </trkpt>
      <trkpt lat="49.25486" lon="1.20505">
        <ele>18.4</ele>
        <time>2015-07-17T11:23:46Z</time>
      </trkpt>
      <trkpt lat="49.2549" lon="1.20516">
        <ele>20.32</ele>
        <time>2015-07-17T11:23:48Z</time>
      </trkpt>
      <trkpt lat="49.25501" lon="1.20527">
        <ele>23.69</ele>
        <time>2015-07-17T11:23:51Z</time>
      </trkpt>
      <trkpt lat="49.25527" lon="1.20526">
        <ele>27.05</ele>
        <time>2015-07-17T11:23:55Z</time>
      </trkpt>
      <trkpt lat="49.25538" lon="1.20553">
        <ele>26.57</ele>
        <time>2015-07-17T11:24:00Z</time>
      </trkpt>
      <trkpt lat="49.2554" lon="1.20559">
        <ele>26.57</ele>
        <time>2015-07-17T11:24:01Z</time>
      </trkpt>
      <trkpt lat="49.25542" lon="1.20563">
        <ele>26.57</ele>
        <time>2015-07-17T11:24:02Z</time>
      </trkpt>
      <trkpt lat="49.25545" lon="1.20566">
        <ele>27.05</ele>
        <time>2015-07-17T11:24:03Z</time>
      </trkpt>
      <trkpt lat="49.25549" lon="1.20565">
        <ele>26.57</ele>
        <time>2015-07-17T11:24:04Z</time>
      </trkpt>
      <trkpt lat="49.25552" lon="1.20561">
        <ele>26.57</ele>
        <time>2015-07-17T11:24:05Z</time>
      </trkpt>
      <trkpt lat="49.25555" lon="1.20556">
        <ele>26.57</ele>
        <time>2015-07-17T11:24:06Z</time>
      </trkpt>
      <trkpt lat="49.25558" lon="1.20551">
        <ele>26.57</ele>
        <time>2015-07-17T11:24:07Z</time>
      </trkpt>
      <trkpt lat="49.25583" lon="1.20507">
        <ele>26.57</ele>
        <time>2015-07-17T11:24:19Z</time>
      </trkpt>
      <trkpt lat="49.25585" lon="1.20502">
        <ele>27.05</ele>
        <time>2015-07-17T11:24:24Z</time>
      </trkpt>
      <trkpt lat="49.25587" lon="1.20501">
        <ele>27.05</ele>
        <time>2015-07-17T11:24:25Z</time>
      </trkpt>
      <trkpt lat="49.25588" lon="1.205">
        <ele>27.05</ele>
        <time>2015-07-17T11:24:26Z</time>
      </trkpt>
      <trkpt lat="49.25589" lon="1.20499">
        <ele>27.05</ele>
        <time>2015-07-17T11:24:27Z</time>
      </trkpt>
      <trkpt lat="49.2559" lon="1.20497">
        <ele>27.53</ele>
        <time>2015-07-17T11:24:28Z</time>
      </trkpt>
      <trkpt lat="49.25598" lon="1.20483">
        <ele>26.57</ele>
        <time>2015-07-17T11:24:39Z</time>
      </trkpt>
      <trkpt lat="49.25599" lon="1.20482">
        <ele>26.57</ele>
        <time>2015-07-17T11:24:40Z</time>
      </trkpt>
      <trkpt lat="49.25601" lon="1.2048">
        <ele>27.05</ele>
        <time>2015-07-17T11:24:41Z</time>
      </trkpt>
      <trkpt lat="49.25602" lon="1.20478">
        <ele>25.61</ele>
        <time>2015-07-17T11:24:42Z</time>
      </trkpt>
      <trkpt lat="49.25603" lon="1.20476">
        <ele>28.02</ele>
        <time>2015-07-17T11:24:43Z</time>
      </trkpt>
      <trkpt lat="49.25623" lon="1.20431">
        <ele>27.05</ele>
        <time>2015-07-17T11:24:58Z</time>
      </trkpt>
      <trkpt lat="49.25643" lon="1.20392">
        <ele>27.53</ele>
        <time>2015-07-17T11:25:08Z</time>
      </trkpt>
      <trkpt lat="49.25666" lon="1.20348">
        <ele>26.57</ele>
        <time>2015-07-17T11:25:17Z</time>
      </trkpt>
      <trkpt lat="49.25668" lon="1.20343">
        <ele>26.57</ele>
        <time>2015-07-17T11:25:18Z</time>
      </trkpt>
      <trkpt lat="49.25675" lon="1.20327">
        <ele>26.57</ele>
        <time>2015-07-17T11:25:21Z</time>
      </trkpt>
      <trkpt lat="49.25677" lon="1.20322">
        <ele>26.57</ele>
        <time>2015-07-17T11:25:22Z</time>
      </trkpt>
      <trkpt lat="49.25682" lon="1.20312">
        <ele>27.05</ele>
        <time>2015-07-17T11:25:24Z</time>
      </trkpt>
      <trkpt lat="49.25698" lon="1.2028">
        <ele>26.57</ele>
        <time>2015-07-17T11:25:30Z</time>
      </trkpt>
      <trkpt lat="49.257" lon="1.20274">
        <ele>26.57</ele>
        <time>2015-07-17T11:25:31Z</time>
      </trkpt>
      <trkpt lat="49.25703" lon="1.20269">
        <ele>26.57</ele>
        <time>2015-07-17T11:25:32Z</time>
      </trkpt>
      <trkpt lat="49.25706" lon="1.20263">
        <ele>26.57</ele>
        <time>2015-07-17T11:25:33Z</time>
      </trkpt>
      <trkpt lat="49.25709" lon="1.20258">
        <ele>26.57</ele>
        <time>2015-07-17T11:25:34Z</time>
      </trkpt>
      <trkpt lat="49.25734" lon="1.20208">
        <ele>26.09</ele>
        <time>2015-07-17T11:25:43Z</time>
      </trkpt>
      <trkpt lat="49.25737" lon="1.20202">
        <ele>26.09</ele>
        <time>2015-07-17T11:25:44Z</time>
      </trkpt>
      <trkpt lat="49.2575" lon="1.20175">
        <ele>26.57</ele>
        <time>2015-07-17T11:25:49Z</time>
      </trkpt>
      <trkpt lat="49.25753" lon="1.2017">
        <ele>26.57</ele>
        <time>2015-07-17T11:25:50Z</time>
      </trkpt>
      <trkpt lat="49.25759" lon="1.20159">
        <ele>26.57</ele>
        <time>2015-07-17T11:25:52Z</time>
      </trkpt>
      <trkpt lat="49.25772" lon="1.2013">
        <ele>26.57</ele>
        <time>2015-07-17T11:25:57Z</time>
      </trkpt>
      <trkpt lat="49.25794" lon="1.20087">
        <ele>27.05</ele>
        <time>2015-07-17T11:26:05Z</time>
      </trkpt>
      <trkpt lat="49.25818" lon="1.20031">
        <ele>27.05</ele>
        <time>2015-07-17T11:26:15Z</time>
      </trkpt>
      <trkpt lat="49.25854" lon="1.19947">
        <ele>27.05</ele>
        <time>2015-07-17T11:26:29Z</time>
      </trkpt>
      <trkpt lat="49.25865" lon="1.19922">
        <ele>27.05</ele>
        <time>2015-07-17T11:26:33Z</time>
      </trkpt>
      <trkpt lat="49.25869" lon="1.1991">
        <ele>27.05</ele>
        <time>2015-07-17T11:26:35Z</time>
      </trkpt>
      <trkpt lat="49.259" lon="1.19839">
        <ele>27.05</ele>
        <time>2015-07-17T11:26:47Z</time>
      </trkpt>
      <trkpt lat="49.25922" lon="1.19783">
        <ele>27.05</ele>
        <time>2015-07-17T11:27:01Z</time>
      </trkpt>
      <trkpt lat="49.25921" lon="1.19782">
        <ele>26.57</ele>
        <time>2015-07-17T11:27:18Z</time>
      </trkpt>
      <trkpt lat="49.25925" lon="1.19786">
        <ele>26.57</ele>
        <time>2015-07-17T11:27:46Z</time>
      </trkpt>
      <trkpt lat="49.25935" lon="1.19766">
        <ele>26.57</ele>
        <time>2015-07-17T11:27:56Z</time>
      </trkpt>
      <trkpt lat="49.25939" lon="1.19754">
        <ele>26.09</ele>
        <time>2015-07-17T11:27:58Z</time>
      </trkpt>
      <trkpt lat="49.25983" lon="1.19652">
        <ele>26.57</ele>
        <time>2015-07-17T11:28:15Z</time>
      </trkpt>
      <trkpt lat="49.26021" lon="1.1957">
        <ele>27.05</ele>
        <time>2015-07-17T11:28:30Z</time>
      </trkpt>
      <trkpt lat="49.26024" lon="1.1957">
        <ele>27.05</ele>
        <time>2015-07-17T11:28:31Z</time>
      </trkpt>
      <trkpt lat="49.26028" lon="1.19571">
        <ele>27.53</ele>
        <time>2015-07-17T11:28:32Z</time>
      </trkpt>
      <trkpt lat="49.26102" lon="1.196">
        <ele>27.05</ele>
        <time>2015-07-17T11:28:48Z</time>
      </trkpt>
      <trkpt lat="49.26179" lon="1.19624">
        <ele>26.57</ele>
        <time>2015-07-17T11:29:03Z</time>
      </trkpt>
      <trkpt lat="49.26243" lon="1.19647">
        <ele>27.53</ele>
        <time>2015-07-17T11:29:16Z</time>
      </trkpt>
      <trkpt lat="49.26248" lon="1.1965">
        <ele>27.53</ele>
        <time>2015-07-17T11:29:17Z</time>
      </trkpt>
      <trkpt lat="49.26252" lon="1.19652">
        <ele>27.53</ele>
        <time>2015-07-17T11:29:18Z</time>
      </trkpt>
      <trkpt lat="49.26256" lon="1.19653">
        <ele>27.53</ele>
        <time>2015-07-17T11:29:19Z</time>
      </trkpt>
      <trkpt lat="49.2626" lon="1.19654">
        <ele>28.02</ele>
        <time>2015-07-17T11:29:20Z</time>
      </trkpt>
      <trkpt lat="49.26265" lon="1.19654">
        <ele>28.02</ele>
        <time>2015-07-17T11:29:21Z</time>
      </trkpt>
      <trkpt lat="49.26269" lon="1.19655">
        <ele>28.02</ele>
        <time>2015-07-17T11:29:22Z</time>
      </trkpt>
      <trkpt lat="49.26273" lon="1.19657">
        <ele>28.02</ele>
        <time>2015-07-17T11:29:23Z</time>
      </trkpt>
      <trkpt lat="49.2634" lon="1.1968">
        <ele>28.5</ele>
        <time>2015-07-17T11:29:38Z</time>
      </trkpt>
      <trkpt lat="49.26349" lon="1.19681">
        <ele>28.98</ele>
        <time>2015-07-17T11:29:40Z</time>
      </trkpt>
      <trkpt lat="49.26352" lon="1.19678">
        <ele>29.46</ele>
        <time>2015-07-17T11:29:41Z</time>
      </trkpt>
      <trkpt lat="49.26355" lon="1.19672">
        <ele>29.46</ele>
        <time>2015-07-17T11:29:42Z</time>
      </trkpt>
      <trkpt lat="49.26357" lon="1.19666">
        <ele>29.46</ele>
        <time>2015-07-17T11:29:43Z</time>
      </trkpt>
      <trkpt lat="49.26358" lon="1.1966">
        <ele>29.46</ele>
        <time>2015-07-17T11:29:44Z</time>
      </trkpt>
      <trkpt lat="49.26368" lon="1.19596">
        <ele>32.34</ele>
        <time>2015-07-17T11:29:56Z</time>
      </trkpt>
      <trkpt lat="49.26378" lon="1.19537">
        <ele>35.71</ele>
        <time>2015-07-17T11:30:08Z</time>
      </trkpt>
      <trkpt lat="49.26385" lon="1.19466">
        <ele>38.59</ele>
        <time>2015-07-17T11:30:23Z</time>
      </trkpt>
      <trkpt lat="49.26391" lon="1.19414">
        <ele>41.47</ele>
        <time>2015-07-17T11:30:35Z</time>
      </trkpt>
      <trkpt lat="49.26394" lon="1.19413">
        <ele>41.47</ele>
        <time>2015-07-17T11:30:36Z</time>
      </trkpt>
      <trkpt lat="49.26396" lon="1.19414">
        <ele>41.95</ele>
        <time>2015-07-17T11:30:37Z</time>
      </trkpt>
      <trkpt lat="49.26398" lon="1.19414">
        <ele>41.95</ele>
        <time>2015-07-17T11:30:38Z</time>
      </trkpt>
      <trkpt lat="49.264" lon="1.19414">
        <ele>41.47</ele>
        <time>2015-07-17T11:30:39Z</time>
      </trkpt>
      <trkpt lat="49.26402" lon="1.19415">
        <ele>41.47</ele>
        <time>2015-07-17T11:30:54Z</time>
      </trkpt>
      <trkpt lat="49.26402" lon="1.19414">
        <ele>41.47</ele>
        <time>2015-07-17T11:31:27Z</time>
      </trkpt>
      <trkpt lat="49.26403" lon="1.19416">
        <ele>40.99</ele>
        <time>2015-07-17T11:31:54Z</time>
      </trkpt>
      <trkpt lat="49.26404" lon="1.19416">
        <ele>40.99</ele>
        <time>2015-07-17T11:31:55Z</time>
      </trkpt>
      <trkpt lat="49.26406" lon="1.19417">
        <ele>40.99</ele>
        <time>2015-07-17T11:31:56Z</time>
      </trkpt>
      <trkpt lat="49.26408" lon="1.19418">
        <ele>40.99</ele>
        <time>2015-07-17T11:31:57Z</time>
      </trkpt>
      <trkpt lat="49.26439" lon="1.19437">
        <ele>40.51</ele>
        <time>2015-07-17T11:32:07Z</time>
      </trkpt>
      <trkpt lat="49.26481" lon="1.19454">
        <ele>38.59</ele>
        <time>2015-07-17T11:32:16Z</time>
      </trkpt>
      <trkpt lat="49.26485" lon="1.19457">
        <ele>38.59</ele>
        <time>2015-07-17T11:32:17Z</time>
      </trkpt>
      <trkpt lat="49.26505" lon="1.19478">
        <ele>39.07</ele>
        <time>2015-07-17T11:32:22Z</time>
      </trkpt>
      <trkpt lat="49.26509" lon="1.19483">
        <ele>39.07</ele>
        <time>2015-07-17T11:32:23Z</time>
      </trkpt>
      <trkpt lat="49.26545" lon="1.19496">
        <ele>41.95</ele>
        <time>2015-07-17T11:32:34Z</time>
      </trkpt>
      <trkpt lat="49.26553" lon="1.19487">
        <ele>41.47</ele>
        <time>2015-07-17T11:32:37Z</time>
      </trkpt>
      <trkpt lat="49.26555" lon="1.19482">
        <ele>41.47</ele>
        <time>2015-07-17T11:32:38Z</time>
      </trkpt>
      <trkpt lat="49.26557" lon="1.19477">
        <ele>41.47</ele>
        <time>2015-07-17T11:32:39Z</time>
      </trkpt>
      <trkpt lat="49.26559" lon="1.1947">
        <ele>41.47</ele>
        <time>2015-07-17T11:32:40Z</time>
      </trkpt>
      <trkpt lat="49.26559" lon="1.19464">
        <ele>41.47</ele>
        <time>2015-07-17T11:32:41Z</time>
      </trkpt>
      <trkpt lat="49.2656" lon="1.19458">
        <ele>41.47</ele>
        <time>2015-07-17T11:32:42Z</time>
      </trkpt>
      <trkpt lat="49.26569" lon="1.194">
        <ele>41.95</ele>
        <time>2015-07-17T11:32:52Z</time>
      </trkpt>
      <trkpt lat="49.2657" lon="1.19375">
        <ele>41.95</ele>
        <time>2015-07-17T11:32:56Z</time>
      </trkpt>
      <trkpt lat="49.26573" lon="1.19277">
        <ele>41.95</ele>
        <time>2015-07-17T11:33:11Z</time>
      </trkpt>
      <trkpt lat="49.26578" lon="1.19204">
        <ele>42.92</ele>
        <time>2015-07-17T11:33:22Z</time>
      </trkpt>
      <trkpt lat="49.26578" lon="1.19182">
        <ele>42.44</ele>
        <time>2015-07-17T11:33:25Z</time>
      </trkpt>
      <trkpt lat="49.26586" lon="1.19094">
        <ele>42.44</ele>
        <time>2015-07-17T11:33:38Z</time>
      </trkpt>
      <trkpt lat="49.26586" lon="1.19086">
        <ele>42.44</ele>
        <time>2015-07-17T11:33:39Z</time>
      </trkpt>
      <trkpt lat="49.26591" lon="1.1904">
        <ele>42.92</ele>
        <time>2015-07-17T11:33:46Z</time>
      </trkpt>
      <trkpt lat="49.26595" lon="1.19027">
        <ele>42.92</ele>
        <time>2015-07-17T11:33:48Z</time>
      </trkpt>
      <trkpt lat="49.26599" lon="1.19006">
        <ele>42.44</ele>
        <time>2015-07-17T11:33:51Z</time>
      </trkpt>
      <trkpt lat="49.266" lon="1.18999">
        <ele>42.44</ele>
        <time>2015-07-17T11:33:52Z</time>
      </trkpt>
      <trkpt lat="49.266" lon="1.18948">
        <ele>42.44</ele>
        <time>2015-07-17T11:33:59Z</time>
      </trkpt>
      <trkpt lat="49.26598" lon="1.18941">
        <ele>42.44</ele>
        <time>2015-07-17T11:34:00Z</time>
      </trkpt>
      <trkpt lat="49.26597" lon="1.18934">
        <ele>42.44</ele>
        <time>2015-07-17T11:34:01Z</time>
      </trkpt>
      <trkpt lat="49.26596" lon="1.18927">
        <ele>42.44</ele>
        <time>2015-07-17T11:34:02Z</time>
      </trkpt>
      <trkpt lat="49.26596" lon="1.1892">
        <ele>42.44</ele>
        <time>2015-07-17T11:34:03Z</time>
      </trkpt>
      <trkpt lat="49.26597" lon="1.18913">
        <ele>42.44</ele>
        <time>2015-07-17T11:34:04Z</time>
      </trkpt>
      <trkpt lat="49.26599" lon="1.18906">
        <ele>42.44</ele>
        <time>2015-07-17T11:34:05Z</time>
      </trkpt>
      <trkpt lat="49.26603" lon="1.18893">
        <ele>42.92</ele>
        <time>2015-07-17T11:34:07Z</time>
      </trkpt>
      <trkpt lat="49.26608" lon="1.18881">
        <ele>42.92</ele>
        <time>2015-07-17T11:34:09Z</time>
      </trkpt>
      <trkpt lat="49.26608" lon="1.18874">
        <ele>42.44</ele>
        <time>2015-07-17T11:34:10Z</time>
      </trkpt>
      <trkpt lat="49.26607" lon="1.18866">
        <ele>42.44</ele>
        <time>2015-07-17T11:34:11Z</time>
      </trkpt>
      <trkpt lat="49.26606" lon="1.18859">
        <ele>42.44</ele>
        <time>2015-07-17T11:34:12Z</time>
      </trkpt>
      <trkpt lat="49.26604" lon="1.18852">
        <ele>42.92</ele>
        <time>2015-07-17T11:34:13Z</time>
      </trkpt>
      <trkpt lat="49.26599" lon="1.18832">
        <ele>42.92</ele>
        <time>2015-07-17T11:34:16Z</time>
      </trkpt>
      <trkpt lat="49.26599" lon="1.18825">
        <ele>42.92</ele>
        <time>2015-07-17T11:34:17Z</time>
      </trkpt>
      <trkpt lat="49.26599" lon="1.18817">
        <ele>42.92</ele>
        <time>2015-07-17T11:34:18Z</time>
      </trkpt>
      <trkpt lat="49.26599" lon="1.18811">
        <ele>42.92</ele>
        <time>2015-07-17T11:34:19Z</time>
      </trkpt>
      <trkpt lat="49.26601" lon="1.18804">
        <ele>42.92</ele>
        <time>2015-07-17T11:34:20Z</time>
      </trkpt>
      <trkpt lat="49.26602" lon="1.18797">
        <ele>42.92</ele>
        <time>2015-07-17T11:34:21Z</time>
      </trkpt>
      <trkpt lat="49.26606" lon="1.18784">
        <ele>42.44</ele>
        <time>2015-07-17T11:34:23Z</time>
      </trkpt>
      <trkpt lat="49.26608" lon="1.1877">
        <ele>42.92</ele>
        <time>2015-07-17T11:34:25Z</time>
      </trkpt>
      <trkpt lat="49.26609" lon="1.18763">
        <ele>42.92</ele>
        <time>2015-07-17T11:34:26Z</time>
      </trkpt>
      <trkpt lat="49.26609" lon="1.18756">
        <ele>42.92</ele>
        <time>2015-07-17T11:34:27Z</time>
      </trkpt>
      <trkpt lat="49.26609" lon="1.18743">
        <ele>43.88</ele>
        <time>2015-07-17T11:34:29Z</time>
      </trkpt>
      <trkpt lat="49.2661" lon="1.18723">
        <ele>43.4</ele>
        <time>2015-07-17T11:34:32Z</time>
      </trkpt>
      <trkpt lat="49.26611" lon="1.18717">
        <ele>43.4</ele>
        <time>2015-07-17T11:34:33Z</time>
      </trkpt>
      <trkpt lat="49.26617" lon="1.18695">
        <ele>43.88</ele>
        <time>2015-07-17T11:34:37Z</time>
      </trkpt>
      <trkpt lat="49.26621" lon="1.18684">
        <ele>44.36</ele>
        <time>2015-07-17T11:34:39Z</time>
      </trkpt>
      <trkpt lat="49.26623" lon="1.18678">
        <ele>44.36</ele>
        <time>2015-07-17T11:34:40Z</time>
      </trkpt>
      <trkpt lat="49.26623" lon="1.18672">
        <ele>44.36</ele>
        <time>2015-07-17T11:34:41Z</time>
      </trkpt>
      <trkpt lat="49.26624" lon="1.18666">
        <ele>44.36</ele>
        <time>2015-07-17T11:34:42Z</time>
      </trkpt>
      <trkpt lat="49.26626" lon="1.18658">
        <ele>43.88</ele>
        <time>2015-07-17T11:34:43Z</time>
      </trkpt>
      <trkpt lat="49.26644" lon="1.18578">
        <ele>44.84</ele>
        <time>2015-07-17T11:34:56Z</time>
      </trkpt>
      <trkpt lat="49.26645" lon="1.18571">
        <ele>44.84</ele>
        <time>2015-07-17T11:34:57Z</time>
      </trkpt>
      <trkpt lat="49.26647" lon="1.18565">
        <ele>44.84</ele>
        <time>2015-07-17T11:34:58Z</time>
      </trkpt>
      <trkpt lat="49.26648" lon="1.1856">
        <ele>44.84</ele>
        <time>2015-07-17T11:34:59Z</time>
      </trkpt>
      <trkpt lat="49.26649" lon="1.18554">
        <ele>45.32</ele>
        <time>2015-07-17T11:35:00Z</time>
      </trkpt>
      <trkpt lat="49.26652" lon="1.18533">
        <ele>45.8</ele>
        <time>2015-07-17T11:35:04Z</time>
      </trkpt>
      <trkpt lat="49.2665" lon="1.18528">
        <ele>45.8</ele>
        <time>2015-07-17T11:35:05Z</time>
      </trkpt>
      <trkpt lat="49.2664" lon="1.18472">
        <ele>47.24</ele>
        <time>2015-07-17T11:35:16Z</time>
      </trkpt>
      <trkpt lat="49.26659" lon="1.18412">
        <ele>48.68</ele>
        <time>2015-07-17T11:35:29Z</time>
      </trkpt>
      <trkpt lat="49.26657" lon="1.18368">
        <ele>49.65</ele>
        <time>2015-07-17T11:35:39Z</time>
      </trkpt>
      <trkpt lat="49.26648" lon="1.18301">
        <ele>51.57</ele>
        <time>2015-07-17T11:35:53Z</time>
      </trkpt>
      <trkpt lat="49.26651" lon="1.18233">
        <ele>54.45</ele>
        <time>2015-07-17T11:36:08Z</time>
      </trkpt>
      <trkpt lat="49.26644" lon="1.18184">
        <ele>56.86</ele>
        <time>2015-07-17T11:36:20Z</time>
      </trkpt>
      <trkpt lat="49.26617" lon="1.18137">
        <ele>58.3</ele>
        <time>2015-07-17T11:36:33Z</time>
      </trkpt>
      <trkpt lat="49.26573" lon="1.18091">
        <ele>60.7</ele>
        <time>2015-07-17T11:36:49Z</time>
      </trkpt>
      <trkpt lat="49.26522" lon="1.1805">
        <ele>60.22</ele>
        <time>2015-07-17T11:37:05Z</time>
      </trkpt>
      <trkpt lat="49.26517" lon="1.18044">
        <ele>59.74</ele>
        <time>2015-07-17T11:37:07Z</time>
      </trkpt>
      <trkpt lat="49.26516" lon="1.1804">
        <ele>59.26</ele>
        <time>2015-07-17T11:37:08Z</time>
      </trkpt>
      <trkpt lat="49.26517" lon="1.18036">
        <ele>58.78</ele>
        <time>2015-07-17T11:37:09Z</time>
      </trkpt>
      <trkpt lat="49.2652" lon="1.1803">
        <ele>58.78</ele>
        <time>2015-07-17T11:37:11Z</time>
      </trkpt>
      <trkpt lat="49.26527" lon="1.18004">
        <ele>62.14</ele>
        <time>2015-07-17T11:37:22Z</time>
      </trkpt>
      <trkpt lat="49.26532" lon="1.17988">
        <ele>63.1</ele>
        <time>2015-07-17T11:37:28Z</time>
      </trkpt>
      <trkpt lat="49.26533" lon="1.17987">
        <ele>63.58</ele>
        <time>2015-07-17T11:37:29Z</time>
      </trkpt>
      <trkpt lat="49.26537" lon="1.17982">
        <ele>63.58</ele>
        <time>2015-07-17T11:37:42Z</time>
      </trkpt>
      <trkpt lat="49.26538" lon="1.17978">
        <ele>64.07</ele>
        <time>2015-07-17T11:37:58Z</time>
      </trkpt>
      <trkpt lat="49.26538" lon="1.17972">
        <ele>64.55</ele>
        <time>2015-07-17T11:38:05Z</time>
      </trkpt>
      <trkpt lat="49.26538" lon="1.17969">
        <ele>65.03</ele>
        <time>2015-07-17T11:38:06Z</time>
      </trkpt>
      <trkpt lat="49.26538" lon="1.17965">
        <ele>65.03</ele>
        <time>2015-07-17T11:38:07Z</time>
      </trkpt>
      <trkpt lat="49.26538" lon="1.17961">
        <ele>65.51</ele>
        <time>2015-07-17T11:38:08Z</time>
      </trkpt>
      <trkpt lat="49.26538" lon="1.17957">
        <ele>65.51</ele>
        <time>2015-07-17T11:38:09Z</time>
      </trkpt>
      <trkpt lat="49.26539" lon="1.17953">
        <ele>65.51</ele>
        <time>2015-07-17T11:38:10Z</time>
      </trkpt>
      <trkpt lat="49.26539" lon="1.1795">
        <ele>65.99</ele>
        <time>2015-07-17T11:38:11Z</time>
      </trkpt>
      <trkpt lat="49.2654" lon="1.17947">
        <ele>66.47</ele>
        <time>2015-07-17T11:38:12Z</time>
      </trkpt>
      <trkpt lat="49.26541" lon="1.17943">
        <ele>66.47</ele>
        <time>2015-07-17T11:38:13Z</time>
      </trkpt>
      <trkpt lat="49.26541" lon="1.17939">
        <ele>66.47</ele>
        <time>2015-07-17T11:38:14Z</time>
      </trkpt>
      <trkpt lat="49.26542" lon="1.17935">
        <ele>66.95</ele>
        <time>2015-07-17T11:38:15Z</time>
      </trkpt>
      <trkpt lat="49.26542" lon="1.17931">
        <ele>66.95</ele>
        <time>2015-07-17T11:38:16Z</time>
      </trkpt>
      <trkpt lat="49.26542" lon="1.17928">
        <ele>66.95</ele>
        <time>2015-07-17T11:38:17Z</time>
      </trkpt>
      <trkpt lat="49.26542" lon="1.17924">
        <ele>67.43</ele>
        <time>2015-07-17T11:38:18Z</time>
      </trkpt>
      <trkpt lat="49.26542" lon="1.17921">
        <ele>67.43</ele>
        <time>2015-07-17T11:38:19Z</time>
      </trkpt>
      <trkpt lat="49.26542" lon="1.17917">
        <ele>67.91</ele>
        <time>2015-07-17T11:38:20Z</time>
      </trkpt>
      <trkpt lat="49.26543" lon="1.17914">
        <ele>67.91</ele>
        <time>2015-07-17T11:38:21Z</time>
      </trkpt>
      <trkpt lat="49.26544" lon="1.17911">
        <ele>68.39</ele>
        <time>2015-07-17T11:38:22Z</time>
      </trkpt>
      <trkpt lat="49.26545" lon="1.17908">
        <ele>68.39</ele>
        <time>2015-07-17T11:38:23Z</time>
      </trkpt>
      <trkpt lat="49.26547" lon="1.17905">
        <ele>68.87</ele>
        <time>2015-07-17T11:38:24Z</time>
      </trkpt>
      <trkpt lat="49.26563" lon="1.17876">
        <ele>71.27</ele>
        <time>2015-07-17T11:38:35Z</time>
      </trkpt>
      <trkpt lat="49.26584" lon="1.1784">
        <ele>74.16</ele>
        <time>2015-07-17T11:38:48Z</time>
      </trkpt>
      <trkpt lat="49.26608" lon="1.17808">
        <ele>76.56</ele>
        <time>2015-07-17T11:39:01Z</time>
      </trkpt>
      <trkpt lat="49.26617" lon="1.17771">
        <ele>78.97</ele>
        <time>2015-07-17T11:39:11Z</time>
      </trkpt>
      <trkpt lat="49.26619" lon="1.17764">
        <ele>79.45</ele>
        <time>2015-07-17T11:39:13Z</time>
      </trkpt>
      <trkpt lat="49.26619" lon="1.1776">
        <ele>79.45</ele>
        <time>2015-07-17T11:39:14Z</time>
      </trkpt>
      <trkpt lat="49.26619" lon="1.17756">
        <ele>79.45</ele>
        <time>2015-07-17T11:39:15Z</time>
      </trkpt>
      <trkpt lat="49.2662" lon="1.17753">
        <ele>79.93</ele>
        <time>2015-07-17T11:39:16Z</time>
      </trkpt>
      <trkpt lat="49.2662" lon="1.17749">
        <ele>80.41</ele>
        <time>2015-07-17T11:39:17Z</time>
      </trkpt>
      <trkpt lat="49.2662" lon="1.17745">
        <ele>80.41</ele>
        <time>2015-07-17T11:39:18Z</time>
      </trkpt>
      <trkpt lat="49.26627" lon="1.17723">
        <ele>81.85</ele>
        <time>2015-07-17T11:39:25Z</time>
      </trkpt>
      <trkpt lat="49.26628" lon="1.1772">
        <ele>82.33</ele>
        <time>2015-07-17T11:39:26Z</time>
      </trkpt>
      <trkpt lat="49.2663" lon="1.17717">
        <ele>82.33</ele>
        <time>2015-07-17T11:39:27Z</time>
      </trkpt>
      <trkpt lat="49.2663" lon="1.17714">
        <ele>82.81</ele>
        <time>2015-07-17T11:39:28Z</time>
      </trkpt>
      <trkpt lat="49.2663" lon="1.1771">
        <ele>82.81</ele>
        <time>2015-07-17T11:39:29Z</time>
      </trkpt>
      <trkpt lat="49.26631" lon="1.17707">
        <ele>82.81</ele>
        <time>2015-07-17T11:39:30Z</time>
      </trkpt>
      <trkpt lat="49.26631" lon="1.17703">
        <ele>83.29</ele>
        <time>2015-07-17T11:39:31Z</time>
      </trkpt>
      <trkpt lat="49.26631" lon="1.177">
        <ele>83.29</ele>
        <time>2015-07-17T11:39:32Z</time>
      </trkpt>
      <trkpt lat="49.26631" lon="1.17696">
        <ele>83.77</ele>
        <time>2015-07-17T11:39:33Z</time>
      </trkpt>
      <trkpt lat="49.26632" lon="1.17693">
        <ele>83.77</ele>
        <time>2015-07-17T11:39:34Z</time>
      </trkpt>
      <trkpt lat="49.26633" lon="1.1769">
        <ele>83.77</ele>
        <time>2015-07-17T11:39:35Z</time>
      </trkpt>
      <trkpt lat="49.26634" lon="1.17688">
        <ele>84.25</ele>
        <time>2015-07-17T11:39:36Z</time>
      </trkpt>
      <trkpt lat="49.26636" lon="1.17685">
        <ele>84.25</ele>
        <time>2015-07-17T11:39:37Z</time>
      </trkpt>
      <trkpt lat="49.26637" lon="1.17682">
        <ele>84.25</ele>
        <time>2015-07-17T11:39:38Z</time>
      </trkpt>
      <trkpt lat="49.26639" lon="1.17679">
        <ele>84.73</ele>
        <time>2015-07-17T11:39:39Z</time>
      </trkpt>
      <trkpt lat="49.26641" lon="1.17677">
        <ele>84.73</ele>
        <time>2015-07-17T11:39:40Z</time>
      </trkpt>
      <trkpt lat="49.26643" lon="1.17674">
        <ele>84.73</ele>
        <time>2015-07-17T11:39:41Z</time>
      </trkpt>
      <trkpt lat="49.26654" lon="1.17664">
        <ele>85.69</ele>
        <time>2015-07-17T11:39:45Z</time>
      </trkpt>
      <trkpt lat="49.26655" lon="1.17661">
        <ele>85.69</ele>
        <time>2015-07-17T11:39:46Z</time>
      </trkpt>
      <trkpt lat="49.26656" lon="1.17657">
        <ele>86.18</ele>
        <time>2015-07-17T11:39:47Z</time>
      </trkpt>
      <trkpt lat="49.26657" lon="1.17654">
        <ele>86.66</ele>
        <time>2015-07-17T11:39:48Z</time>
      </trkpt>
      <trkpt lat="49.26658" lon="1.17652">
        <ele>86.66</ele>
        <time>2015-07-17T11:39:49Z</time>
      </trkpt>
      <trkpt lat="49.26661" lon="1.17649">
        <ele>86.66</ele>
        <time>2015-07-17T11:39:50Z</time>
      </trkpt>
      <trkpt lat="49.26662" lon="1.17649">
        <ele>87.14</ele>
        <time>2015-07-17T11:39:51Z</time>
      </trkpt>
      <trkpt lat="49.26684" lon="1.17626">
        <ele>89.54</ele>
        <time>2015-07-17T11:40:02Z</time>
      </trkpt>
      <trkpt lat="49.2669" lon="1.17599">
        <ele>91.94</ele>
        <time>2015-07-17T11:40:11Z</time>
      </trkpt>
      <trkpt lat="49.26711" lon="1.17581">
        <ele>94.35</ele>
        <time>2015-07-17T11:40:22Z</time>
      </trkpt>
      <trkpt lat="49.2672" lon="1.17573">
        <ele>95.31</ele>
        <time>2015-07-17T11:40:28Z</time>
      </trkpt>
      <trkpt lat="49.26741" lon="1.17558">
        <ele>98.19</ele>
        <time>2015-07-17T11:40:39Z</time>
      </trkpt>
      <trkpt lat="49.26754" lon="1.17545">
        <ele>100.11</ele>
        <time>2015-07-17T11:40:48Z</time>
      </trkpt>
      <trkpt lat="49.26771" lon="1.1754">
        <ele>103</ele>
        <time>2015-07-17T11:40:59Z</time>
      </trkpt>
      <trkpt lat="49.26796" lon="1.17532">
        <ele>106.36</ele>
        <time>2015-07-17T11:41:10Z</time>
      </trkpt>
      <trkpt lat="49.26814" lon="1.17524">
        <ele>109.25</ele>
        <time>2015-07-17T11:41:20Z</time>
      </trkpt>
      <trkpt lat="49.26816" lon="1.17523">
        <ele>109.73</ele>
        <time>2015-07-17T11:41:21Z</time>
      </trkpt>
      <trkpt lat="49.26818" lon="1.17522">
        <ele>109.73</ele>
        <time>2015-07-17T11:41:22Z</time>
      </trkpt>
      <trkpt lat="49.26837" lon="1.17502">
        <ele>113.09</ele>
        <time>2015-07-17T11:41:33Z</time>
      </trkpt>
      <trkpt lat="49.26854" lon="1.17489">
        <ele>115.5</ele>
        <time>2015-07-17T11:41:42Z</time>
      </trkpt>
      <trkpt lat="49.26856" lon="1.17489">
        <ele>115.5</ele>
        <time>2015-07-17T11:41:43Z</time>
      </trkpt>
      <trkpt lat="49.26858" lon="1.17488">
        <ele>115.98</ele>
        <time>2015-07-17T11:41:44Z</time>
      </trkpt>
      <trkpt lat="49.26889" lon="1.17469">
        <ele>118.86</ele>
        <time>2015-07-17T11:41:58Z</time>
      </trkpt>
      <trkpt lat="49.26912" lon="1.17451">
        <ele>120.78</ele>
        <time>2015-07-17T11:42:09Z</time>
      </trkpt>
      <trkpt lat="49.26928" lon="1.17436">
        <ele>122.71</ele>
        <time>2015-07-17T11:42:18Z</time>
      </trkpt>
      <trkpt lat="49.26953" lon="1.17409">
        <ele>125.11</ele>
        <time>2015-07-17T11:42:29Z</time>
      </trkpt>
      <trkpt lat="49.26981" lon="1.17374">
        <ele>126.07</ele>
        <time>2015-07-17T11:42:41Z</time>
      </trkpt>
      <trkpt lat="49.27016" lon="1.17329">
        <ele>126.55</ele>
        <time>2015-07-17T11:42:54Z</time>
      </trkpt>
      <trkpt lat="49.27036" lon="1.17305">
        <ele>127.03</ele>
        <time>2015-07-17T11:43:00Z</time>
      </trkpt>
      <trkpt lat="49.27074" lon="1.17254">
        <ele>127.99</ele>
        <time>2015-07-17T11:43:13Z</time>
      </trkpt>
      <trkpt lat="49.2709" lon="1.17225">
        <ele>127.99</ele>
        <time>2015-07-17T11:43:19Z</time>
      </trkpt>
      <trkpt lat="49.27093" lon="1.17212">
        <ele>127.99</ele>
        <time>2015-07-17T11:43:21Z</time>
      </trkpt>
      <trkpt lat="49.27101" lon="1.1715">
        <ele>127.99</ele>
        <time>2015-07-17T11:43:30Z</time>
      </trkpt>
      <trkpt lat="49.27103" lon="1.17128">
        <ele>127.99</ele>
        <time>2015-07-17T11:43:33Z</time>
      </trkpt>
      <trkpt lat="49.27104" lon="1.17121">
        <ele>127.99</ele>
        <time>2015-07-17T11:43:34Z</time>
      </trkpt>
      <trkpt lat="49.27121" lon="1.16999">
        <ele>127.51</ele>
        <time>2015-07-17T11:43:50Z</time>
      </trkpt>
      <trkpt lat="49.27138" lon="1.16851">
        <ele>127.99</ele>
        <time>2015-07-17T11:44:08Z</time>
      </trkpt>
      <trkpt lat="49.27146" lon="1.16786">
        <ele>127.99</ele>
        <time>2015-07-17T11:44:16Z</time>
      </trkpt>
      <trkpt lat="49.27146" lon="1.16778">
        <ele>128.47</ele>
        <time>2015-07-17T11:44:17Z</time>
      </trkpt>
      <trkpt lat="49.27147" lon="1.1677">
        <ele>128.47</ele>
        <time>2015-07-17T11:44:18Z</time>
      </trkpt>
      <trkpt lat="49.27156" lon="1.167">
        <ele>128.95</ele>
        <time>2015-07-17T11:44:27Z</time>
      </trkpt>
      <trkpt lat="49.27166" lon="1.1659">
        <ele>129.43</ele>
        <time>2015-07-17T11:44:41Z</time>
      </trkpt>
      <trkpt lat="49.27171" lon="1.16558">
        <ele>129.43</ele>
        <time>2015-07-17T11:44:45Z</time>
      </trkpt>
      <trkpt lat="49.2718" lon="1.16465">
        <ele>128.95</ele>
        <time>2015-07-17T11:44:56Z</time>
      </trkpt>
      <trkpt lat="49.27182" lon="1.16457">
        <ele>129.43</ele>
        <time>2015-07-17T11:44:57Z</time>
      </trkpt>
      <trkpt lat="49.27195" lon="1.16345">
        <ele>128.95</ele>
        <time>2015-07-17T11:45:10Z</time>
      </trkpt>
      <trkpt lat="49.27196" lon="1.16336">
        <ele>128.95</ele>
        <time>2015-07-17T11:45:11Z</time>
      </trkpt>
      <trkpt lat="49.27198" lon="1.16328">
        <ele>128.47</ele>
        <time>2015-07-17T11:45:12Z</time>
      </trkpt>
      <trkpt lat="49.27199" lon="1.16319">
        <ele>128.47</ele>
        <time>2015-07-17T11:45:13Z</time>
      </trkpt>
      <trkpt lat="49.27199" lon="1.1631">
        <ele>128.47</ele>
        <time>2015-07-17T11:45:14Z</time>
      </trkpt>
      <trkpt lat="49.27209" lon="1.16186">
        <ele>127.99</ele>
        <time>2015-07-17T11:45:28Z</time>
      </trkpt>
      <trkpt lat="49.27217" lon="1.16106">
        <ele>127.51</ele>
        <time>2015-07-17T11:45:39Z</time>
      </trkpt>
      <trkpt lat="49.27223" lon="1.16071">
        <ele>127.51</ele>
        <time>2015-07-17T11:45:45Z</time>
      </trkpt>
      <trkpt lat="49.27224" lon="1.16064">
        <ele>127.51</ele>
        <time>2015-07-17T11:45:46Z</time>
      </trkpt>
      <trkpt lat="49.27225" lon="1.16056">
        <ele>127.51</ele>
        <time>2015-07-17T11:45:47Z</time>
      </trkpt>
      <trkpt lat="49.27227" lon="1.16049">
        <ele>127.51</ele>
        <time>2015-07-17T11:45:48Z</time>
      </trkpt>
      <trkpt lat="49.27228" lon="1.16042">
        <ele>127.51</ele>
        <time>2015-07-17T11:45:49Z</time>
      </trkpt>
      <trkpt lat="49.27235" lon="1.15982">
        <ele>127.03</ele>
        <time>2015-07-17T11:45:57Z</time>
      </trkpt>
      <trkpt lat="49.27232" lon="1.15946">
        <ele>127.03</ele>
        <time>2015-07-17T11:46:06Z</time>
      </trkpt>
      <trkpt lat="49.27231" lon="1.15943">
        <ele>127.51</ele>
        <time>2015-07-17T11:46:21Z</time>
      </trkpt>
      <trkpt lat="49.27233" lon="1.1594">
        <ele>127.03</ele>
        <time>2015-07-17T11:46:22Z</time>
      </trkpt>
      <trkpt lat="49.27235" lon="1.15936">
        <ele>127.03</ele>
        <time>2015-07-17T11:46:23Z</time>
      </trkpt>
      <trkpt lat="49.27236" lon="1.15931">
        <ele>127.03</ele>
        <time>2015-07-17T11:46:24Z</time>
      </trkpt>
      <trkpt lat="49.27236" lon="1.15924">
        <ele>126.55</ele>
        <time>2015-07-17T11:46:25Z</time>
      </trkpt>
      <trkpt lat="49.27236" lon="1.15916">
        <ele>126.55</ele>
        <time>2015-07-17T11:46:26Z</time>
      </trkpt>
      <trkpt lat="49.27236" lon="1.15908">
        <ele>126.55</ele>
        <time>2015-07-17T11:46:27Z</time>
      </trkpt>
      <trkpt lat="49.27236" lon="1.159">
        <ele>126.55</ele>
        <time>2015-07-17T11:46:28Z</time>
      </trkpt>
      <trkpt lat="49.27237" lon="1.15891">
        <ele>126.07</ele>
        <time>2015-07-17T11:46:29Z</time>
      </trkpt>
      <trkpt lat="49.27238" lon="1.15869">
        <ele>126.07</ele>
        <time>2015-07-17T11:46:32Z</time>
      </trkpt>
      <trkpt lat="49.27251" lon="1.15788">
        <ele>125.59</ele>
        <time>2015-07-17T11:46:44Z</time>
      </trkpt>
      <trkpt lat="49.27258" lon="1.15766">
        <ele>125.59</ele>
        <time>2015-07-17T11:46:47Z</time>
      </trkpt>
      <trkpt lat="49.2726" lon="1.15759">
        <ele>125.59</ele>
        <time>2015-07-17T11:46:48Z</time>
      </trkpt>
      <trkpt lat="49.27261" lon="1.15751">
        <ele>126.07</ele>
        <time>2015-07-17T11:46:49Z</time>
      </trkpt>
      <trkpt lat="49.27263" lon="1.15735">
        <ele>127.03</ele>
        <time>2015-07-17T11:46:51Z</time>
      </trkpt>
      <trkpt lat="49.27263" lon="1.15717">
        <ele>126.07</ele>
        <time>2015-07-17T11:46:53Z</time>
      </trkpt>
      <trkpt lat="49.27267" lon="1.15674">
        <ele>126.07</ele>
        <time>2015-07-17T11:46:58Z</time>
      </trkpt>
      <trkpt lat="49.27267" lon="1.15666">
        <ele>126.07</ele>
        <time>2015-07-17T11:46:59Z</time>
      </trkpt>
      <trkpt lat="49.27278" lon="1.15588">
        <ele>126.55</ele>
        <time>2015-07-17T11:47:09Z</time>
      </trkpt>
      <trkpt lat="49.27285" lon="1.15507">
        <ele>127.51</ele>
        <time>2015-07-17T11:47:21Z</time>
      </trkpt>
      <trkpt lat="49.27284" lon="1.15503">
        <ele>127.51</ele>
        <time>2015-07-17T11:47:22Z</time>
      </trkpt>
      <trkpt lat="49.27281" lon="1.15482">
        <ele>127.99</ele>
        <time>2015-07-17T11:47:25Z</time>
      </trkpt>
      <trkpt lat="49.27287" lon="1.15433">
        <ele>128.95</ele>
        <time>2015-07-17T11:47:31Z</time>
      </trkpt>
      <trkpt lat="49.2729" lon="1.15413">
        <ele>129.43</ele>
        <time>2015-07-17T11:47:34Z</time>
      </trkpt>
      <trkpt lat="49.27291" lon="1.154">
        <ele>129.92</ele>
        <time>2015-07-17T11:47:36Z</time>
      </trkpt>
      <trkpt lat="49.27292" lon="1.15394">
        <ele>129.92</ele>
        <time>2015-07-17T11:47:37Z</time>
      </trkpt>
      <trkpt lat="49.27292" lon="1.15387">
        <ele>129.92</ele>
        <time>2015-07-17T11:47:38Z</time>
      </trkpt>
      <trkpt lat="49.27293" lon="1.1538">
        <ele>130.4</ele>
        <time>2015-07-17T11:47:39Z</time>
      </trkpt>
      <trkpt lat="49.27294" lon="1.15373">
        <ele>130.4</ele>
        <time>2015-07-17T11:47:40Z</time>
      </trkpt>
      <trkpt lat="49.27306" lon="1.15257">
        <ele>131.84</ele>
        <time>2015-07-17T11:47:57Z</time>
      </trkpt>
      <trkpt lat="49.27315" lon="1.15152">
        <ele>133.76</ele>
        <time>2015-07-17T11:48:12Z</time>
      </trkpt>
      <trkpt lat="49.2733" lon="1.15051">
        <ele>134.72</ele>
        <time>2015-07-17T11:48:27Z</time>
      </trkpt>
      <trkpt lat="49.27334" lon="1.15027">
        <ele>135.2</ele>
        <time>2015-07-17T11:48:31Z</time>
      </trkpt>
      <trkpt lat="49.27337" lon="1.1494">
        <ele>135.68</ele>
        <time>2015-07-17T11:48:45Z</time>
      </trkpt>
      <trkpt lat="49.27335" lon="1.14937">
        <ele>135.68</ele>
        <time>2015-07-17T11:48:46Z</time>
      </trkpt>
      <trkpt lat="49.27335" lon="1.14936">
        <ele>135.68</ele>
        <time>2015-07-17T11:48:47Z</time>
      </trkpt>
      <trkpt lat="49.27334" lon="1.14931">
        <ele>136.16</ele>
        <time>2015-07-17T11:48:49Z</time>
      </trkpt>
      <trkpt lat="49.27337" lon="1.14917">
        <ele>136.64</ele>
        <time>2015-07-17T11:48:52Z</time>
      </trkpt>
      <trkpt lat="49.27339" lon="1.14911">
        <ele>135.68</ele>
        <time>2015-07-17T11:48:53Z</time>
      </trkpt>
      <trkpt lat="49.27345" lon="1.14892">
        <ele>135.68</ele>
        <time>2015-07-17T11:48:56Z</time>
      </trkpt>
      <trkpt lat="49.27347" lon="1.14885">
        <ele>135.68</ele>
        <time>2015-07-17T11:48:57Z</time>
      </trkpt>
      <trkpt lat="49.27354" lon="1.14858">
        <ele>135.68</ele>
        <time>2015-07-17T11:49:01Z</time>
      </trkpt>
      <trkpt lat="49.27359" lon="1.14812">
        <ele>135.68</ele>
        <time>2015-07-17T11:49:07Z</time>
      </trkpt>
      <trkpt lat="49.27375" lon="1.14694">
        <ele>135.2</ele>
        <time>2015-07-17T11:49:21Z</time>
      </trkpt>
      <trkpt lat="49.27397" lon="1.14577">
        <ele>133.76</ele>
        <time>2015-07-17T11:49:34Z</time>
      </trkpt>
      <trkpt lat="49.27429" lon="1.14454">
        <ele>131.84</ele>
        <time>2015-07-17T11:49:47Z</time>
      </trkpt>
      <trkpt lat="49.27465" lon="1.14311">
        <ele>129.43</ele>
        <time>2015-07-17T11:50:01Z</time>
      </trkpt>
      <trkpt lat="49.27469" lon="1.14253">
        <ele>128.47</ele>
        <time>2015-07-17T11:50:06Z</time>
      </trkpt>
      <trkpt lat="49.27478" lon="1.14111">
        <ele>127.99</ele>
        <time>2015-07-17T11:50:19Z</time>
      </trkpt>
      <trkpt lat="49.27491" lon="1.13956">
        <ele>125.11</ele>
        <time>2015-07-17T11:50:33Z</time>
      </trkpt>
      <trkpt lat="49.27499" lon="1.13833">
        <ele>127.99</ele>
        <time>2015-07-17T11:50:46Z</time>
      </trkpt>
      <trkpt lat="49.27501" lon="1.138">
        <ele>128.95</ele>
        <time>2015-07-17T11:50:50Z</time>
      </trkpt>
      <trkpt lat="49.27502" lon="1.13792">
        <ele>128.95</ele>
        <time>2015-07-17T11:50:51Z</time>
      </trkpt>
      <trkpt lat="49.27506" lon="1.13761">
        <ele>129.43</ele>
        <time>2015-07-17T11:50:55Z</time>
      </trkpt>
      <trkpt lat="49.27507" lon="1.13753">
        <ele>129.92</ele>
        <time>2015-07-17T11:50:56Z</time>
      </trkpt>
      <trkpt lat="49.27511" lon="1.13738">
        <ele>129.92</ele>
        <time>2015-07-17T11:50:58Z</time>
      </trkpt>
      <trkpt lat="49.27507" lon="1.13611">
        <ele>130.4</ele>
        <time>2015-07-17T11:51:13Z</time>
      </trkpt>
      <trkpt lat="49.27525" lon="1.13499">
        <ele>129.92</ele>
        <time>2015-07-17T11:51:26Z</time>
      </trkpt>
      <trkpt lat="49.27526" lon="1.13471">
        <ele>129.92</ele>
        <time>2015-07-17T11:51:29Z</time>
      </trkpt>
      <trkpt lat="49.27529" lon="1.13462">
        <ele>129.92</ele>
        <time>2015-07-17T11:51:30Z</time>
      </trkpt>
      <trkpt lat="49.27536" lon="1.13444">
        <ele>129.43</ele>
        <time>2015-07-17T11:51:32Z</time>
      </trkpt>
      <trkpt lat="49.27538" lon="1.13435">
        <ele>129.43</ele>
        <time>2015-07-17T11:51:33Z</time>
      </trkpt>
      <trkpt lat="49.27546" lon="1.13349">
        <ele>127.99</ele>
        <time>2015-07-17T11:51:42Z</time>
      </trkpt>
      <trkpt lat="49.27546" lon="1.1334">
        <ele>127.99</ele>
        <time>2015-07-17T11:51:43Z</time>
      </trkpt>
      <trkpt lat="49.27549" lon="1.132">
        <ele>124.63</ele>
        <time>2015-07-17T11:51:56Z</time>
      </trkpt>
      <trkpt lat="49.27553" lon="1.13191">
        <ele>123.67</ele>
        <time>2015-07-17T11:51:57Z</time>
      </trkpt>
      <trkpt lat="49.27556" lon="1.13182">
        <ele>123.19</ele>
        <time>2015-07-17T11:51:58Z</time>
      </trkpt>
      <trkpt lat="49.2756" lon="1.13174">
        <ele>123.19</ele>
        <time>2015-07-17T11:51:59Z</time>
      </trkpt>
      <trkpt lat="49.27565" lon="1.13167">
        <ele>122.22</ele>
        <time>2015-07-17T11:52:00Z</time>
      </trkpt>
      <trkpt lat="49.2757" lon="1.1316">
        <ele>122.22</ele>
        <time>2015-07-17T11:52:01Z</time>
      </trkpt>
      <trkpt lat="49.27576" lon="1.13153">
        <ele>121.26</ele>
        <time>2015-07-17T11:52:02Z</time>
      </trkpt>
      <trkpt lat="49.27622" lon="1.13115">
        <ele>118.38</ele>
        <time>2015-07-17T11:52:08Z</time>
      </trkpt>
      <trkpt lat="49.27666" lon="1.13082">
        <ele>115.01</ele>
        <time>2015-07-17T11:52:13Z</time>
      </trkpt>
      <trkpt lat="49.27703" lon="1.13059">
        <ele>111.65</ele>
        <time>2015-07-17T11:52:17Z</time>
      </trkpt>
      <trkpt lat="49.27711" lon="1.13056">
        <ele>111.65</ele>
        <time>2015-07-17T11:52:18Z</time>
      </trkpt>
      <trkpt lat="49.27719" lon="1.13055">
        <ele>111.65</ele>
        <time>2015-07-17T11:52:19Z</time>
      </trkpt>
      <trkpt lat="49.27726" lon="1.13055">
        <ele>111.65</ele>
        <time>2015-07-17T11:52:20Z</time>
      </trkpt>
      <trkpt lat="49.27732" lon="1.13056">
        <ele>112.13</ele>
        <time>2015-07-17T11:52:21Z</time>
      </trkpt>
      <trkpt lat="49.27749" lon="1.1306">
        <ele>112.13</ele>
        <time>2015-07-17T11:52:25Z</time>
      </trkpt>
      <trkpt lat="49.27751" lon="1.13058">
        <ele>112.13</ele>
        <time>2015-07-17T11:52:26Z</time>
      </trkpt>
      <trkpt lat="49.27766" lon="1.1304">
        <ele>113.09</ele>
        <time>2015-07-17T11:52:36Z</time>
      </trkpt>
      <trkpt lat="49.27767" lon="1.1304">
        <ele>113.57</ele>
        <time>2015-07-17T11:52:58Z</time>
      </trkpt>
      <trkpt lat="49.27774" lon="1.13044">
        <ele>112.61</ele>
        <time>2015-07-17T11:53:07Z</time>
      </trkpt>
      <trkpt lat="49.27781" lon="1.13049">
        <ele>112.61</ele>
        <time>2015-07-17T11:53:09Z</time>
      </trkpt>
      <trkpt lat="49.27845" lon="1.13075">
        <ele>109.25</ele>
        <time>2015-07-17T11:53:20Z</time>
      </trkpt>
      <trkpt lat="49.27908" lon="1.1313">
        <ele>105.88</ele>
        <time>2015-07-17T11:53:29Z</time>
      </trkpt>
      <trkpt lat="49.27938" lon="1.13179">
        <ele>102.52</ele>
        <time>2015-07-17T11:53:34Z</time>
      </trkpt>
      <trkpt lat="49.27992" lon="1.13274">
        <ele>99.15</ele>
        <time>2015-07-17T11:53:43Z</time>
      </trkpt>
      <trkpt lat="49.2805" lon="1.13357">
        <ele>96.27</ele>
        <time>2015-07-17T11:53:52Z</time>
      </trkpt>
      <trkpt lat="49.28094" lon="1.13407">
        <ele>92.9</ele>
        <time>2015-07-17T11:53:58Z</time>
      </trkpt>
      <trkpt lat="49.28131" lon="1.13448">
        <ele>90.02</ele>
        <time>2015-07-17T11:54:03Z</time>
      </trkpt>
      <trkpt lat="49.28139" lon="1.13455">
        <ele>89.54</ele>
        <time>2015-07-17T11:54:04Z</time>
      </trkpt>
      <trkpt lat="49.28146" lon="1.13462">
        <ele>89.54</ele>
        <time>2015-07-17T11:54:05Z</time>
      </trkpt>
      <trkpt lat="49.28167" lon="1.13487">
        <ele>88.1</ele>
        <time>2015-07-17T11:54:08Z</time>
      </trkpt>
      <trkpt lat="49.28223" lon="1.13555">
        <ele>85.21</ele>
        <time>2015-07-17T11:54:16Z</time>
      </trkpt>
      <trkpt lat="49.28262" lon="1.136">
        <ele>81.85</ele>
        <time>2015-07-17T11:54:21Z</time>
      </trkpt>
      <trkpt lat="49.28295" lon="1.1363">
        <ele>80.89</ele>
        <time>2015-07-17T11:54:26Z</time>
      </trkpt>
      <trkpt lat="49.28298" lon="1.13628">
        <ele>80.41</ele>
        <time>2015-07-17T11:54:27Z</time>
      </trkpt>
      <trkpt lat="49.28301" lon="1.13623">
        <ele>79.93</ele>
        <time>2015-07-17T11:54:28Z</time>
      </trkpt>
      <trkpt lat="49.28304" lon="1.13617">
        <ele>79.45</ele>
        <time>2015-07-17T11:54:29Z</time>
      </trkpt>
      <trkpt lat="49.28307" lon="1.13611">
        <ele>79.45</ele>
        <time>2015-07-17T11:54:30Z</time>
      </trkpt>
      <trkpt lat="49.2831" lon="1.13605">
        <ele>79.45</ele>
        <time>2015-07-17T11:54:31Z</time>
      </trkpt>
      <trkpt lat="49.28312" lon="1.13598">
        <ele>79.45</ele>
        <time>2015-07-17T11:54:32Z</time>
      </trkpt>
      <trkpt lat="49.28313" lon="1.13592">
        <ele>78.97</ele>
        <time>2015-07-17T11:54:33Z</time>
      </trkpt>
      <trkpt lat="49.28314" lon="1.13585">
        <ele>78.97</ele>
        <time>2015-07-17T11:54:34Z</time>
      </trkpt>
      <trkpt lat="49.28314" lon="1.1358">
        <ele>78.97</ele>
        <time>2015-07-17T11:54:35Z</time>
      </trkpt>
      <trkpt lat="49.28314" lon="1.13575">
        <ele>78.97</ele>
        <time>2015-07-17T11:54:36Z</time>
      </trkpt>
      <trkpt lat="49.28314" lon="1.13571">
        <ele>78.97</ele>
        <time>2015-07-17T11:54:37Z</time>
      </trkpt>
      <trkpt lat="49.28316" lon="1.13499">
        <ele>77.52</ele>
        <time>2015-07-17T11:54:49Z</time>
      </trkpt>
      <trkpt lat="49.28321" lon="1.13391">
        <ele>75.6</ele>
        <time>2015-07-17T11:55:01Z</time>
      </trkpt>
      <trkpt lat="49.28331" lon="1.13265">
        <ele>72.24</ele>
        <time>2015-07-17T11:55:13Z</time>
      </trkpt>
      <trkpt lat="49.28344" lon="1.13121">
        <ele>73.68</ele>
        <time>2015-07-17T11:55:28Z</time>
      </trkpt>
      <trkpt lat="49.2835" lon="1.13064">
        <ele>73.68</ele>
        <time>2015-07-17T11:55:35Z</time>
      </trkpt>
      <trkpt lat="49.28351" lon="1.13056">
        <ele>73.68</ele>
        <time>2015-07-17T11:55:36Z</time>
      </trkpt>
      <trkpt lat="49.28367" lon="1.12923">
        <ele>74.16</ele>
        <time>2015-07-17T11:55:52Z</time>
      </trkpt>
      <trkpt lat="49.28375" lon="1.1283">
        <ele>72.72</ele>
        <time>2015-07-17T11:56:03Z</time>
      </trkpt>
      <trkpt lat="49.28378" lon="1.12822">
        <ele>72.72</ele>
        <time>2015-07-17T11:56:04Z</time>
      </trkpt>
      <trkpt lat="49.28381" lon="1.12816">
        <ele>72.24</ele>
        <time>2015-07-17T11:56:05Z</time>
      </trkpt>
      <trkpt lat="49.28385" lon="1.1281">
        <ele>72.72</ele>
        <time>2015-07-17T11:56:06Z</time>
      </trkpt>
      <trkpt lat="49.2839" lon="1.12804">
        <ele>72.24</ele>
        <time>2015-07-17T11:56:07Z</time>
      </trkpt>
      <trkpt lat="49.28395" lon="1.12797">
        <ele>72.24</ele>
        <time>2015-07-17T11:56:08Z</time>
      </trkpt>
      <trkpt lat="49.284" lon="1.12792">
        <ele>71.76</ele>
        <time>2015-07-17T11:56:09Z</time>
      </trkpt>
      <trkpt lat="49.2841" lon="1.12781">
        <ele>71.27</ele>
        <time>2015-07-17T11:56:11Z</time>
      </trkpt>
      <trkpt lat="49.28415" lon="1.12776">
        <ele>71.27</ele>
        <time>2015-07-17T11:56:12Z</time>
      </trkpt>
      <trkpt lat="49.2842" lon="1.12771">
        <ele>71.27</ele>
        <time>2015-07-17T11:56:13Z</time>
      </trkpt>
      <trkpt lat="49.28425" lon="1.12763">
        <ele>70.79</ele>
        <time>2015-07-17T11:56:14Z</time>
      </trkpt>
      <trkpt lat="49.2843" lon="1.12755">
        <ele>70.79</ele>
        <time>2015-07-17T11:56:15Z</time>
      </trkpt>
      <trkpt lat="49.28433" lon="1.12746">
        <ele>70.79</ele>
        <time>2015-07-17T11:56:16Z</time>
      </trkpt>
      <trkpt lat="49.28436" lon="1.12737">
        <ele>70.79</ele>
        <time>2015-07-17T11:56:17Z</time>
      </trkpt>
      <trkpt lat="49.28438" lon="1.12728">
        <ele>71.27</ele>
        <time>2015-07-17T11:56:18Z</time>
      </trkpt>
      <trkpt lat="49.2844" lon="1.12719">
        <ele>70.79</ele>
        <time>2015-07-17T11:56:19Z</time>
      </trkpt>
      <trkpt lat="49.28441" lon="1.12709">
        <ele>70.79</ele>
        <time>2015-07-17T11:56:20Z</time>
      </trkpt>
      <trkpt lat="49.2844" lon="1.127">
        <ele>70.79</ele>
        <time>2015-07-17T11:56:21Z</time>
      </trkpt>
      <trkpt lat="49.28438" lon="1.12689">
        <ele>70.79</ele>
        <time>2015-07-17T11:56:22Z</time>
      </trkpt>
      <trkpt lat="49.28433" lon="1.1266">
        <ele>71.27</ele>
        <time>2015-07-17T11:56:25Z</time>
      </trkpt>
      <trkpt lat="49.28422" lon="1.12617">
        <ele>71.27</ele>
        <time>2015-07-17T11:56:30Z</time>
      </trkpt>
      <trkpt lat="49.28417" lon="1.12598">
        <ele>71.27</ele>
        <time>2015-07-17T11:56:32Z</time>
      </trkpt>
      <trkpt lat="49.28416" lon="1.12589">
        <ele>71.27</ele>
        <time>2015-07-17T11:56:33Z</time>
      </trkpt>
      <trkpt lat="49.28415" lon="1.1258">
        <ele>71.27</ele>
        <time>2015-07-17T11:56:34Z</time>
      </trkpt>
      <trkpt lat="49.2841" lon="1.12548">
        <ele>71.27</ele>
        <time>2015-07-17T11:56:38Z</time>
      </trkpt>
      <trkpt lat="49.28402" lon="1.1249">
        <ele>71.76</ele>
        <time>2015-07-17T11:56:45Z</time>
      </trkpt>
      <trkpt lat="49.28407" lon="1.12361">
        <ele>71.27</ele>
        <time>2015-07-17T11:56:59Z</time>
      </trkpt>
      <trkpt lat="49.28418" lon="1.12242">
        <ele>69.83</ele>
        <time>2015-07-17T11:57:12Z</time>
      </trkpt>
      <trkpt lat="49.28429" lon="1.1211">
        <ele>66.95</ele>
        <time>2015-07-17T11:57:25Z</time>
      </trkpt>
      <trkpt lat="49.28431" lon="1.12089">
        <ele>65.99</ele>
        <time>2015-07-17T11:57:27Z</time>
      </trkpt>
      <trkpt lat="49.28436" lon="1.12037">
        <ele>64.07</ele>
        <time>2015-07-17T11:57:32Z</time>
      </trkpt>
      <trkpt lat="49.28447" lon="1.11891">
        <ele>63.58</ele>
        <time>2015-07-17T11:57:46Z</time>
      </trkpt>
      <trkpt lat="49.28452" lon="1.11824">
        <ele>65.03</ele>
        <time>2015-07-17T11:57:54Z</time>
      </trkpt>
      <trkpt lat="49.2846" lon="1.11704">
        <ele>65.03</ele>
        <time>2015-07-17T11:58:09Z</time>
      </trkpt>
      <trkpt lat="49.28461" lon="1.11696">
        <ele>65.03</ele>
        <time>2015-07-17T11:58:10Z</time>
      </trkpt>
      <trkpt lat="49.28466" lon="1.11646">
        <ele>65.51</ele>
        <time>2015-07-17T11:58:16Z</time>
      </trkpt>
      <trkpt lat="49.28467" lon="1.11638">
        <ele>65.99</ele>
        <time>2015-07-17T11:58:17Z</time>
      </trkpt>
      <trkpt lat="49.28467" lon="1.1163">
        <ele>65.51</ele>
        <time>2015-07-17T11:58:18Z</time>
      </trkpt>
      <trkpt lat="49.28466" lon="1.11598">
        <ele>66.47</ele>
        <time>2015-07-17T11:58:22Z</time>
      </trkpt>
      <trkpt lat="49.28477" lon="1.11469">
        <ele>66.47</ele>
        <time>2015-07-17T11:58:38Z</time>
      </trkpt>
      <trkpt lat="49.28481" lon="1.11445">
        <ele>65.99</ele>
        <time>2015-07-17T11:58:41Z</time>
      </trkpt>
      <trkpt lat="49.28483" lon="1.11411">
        <ele>65.99</ele>
        <time>2015-07-17T11:58:45Z</time>
      </trkpt>
      <trkpt lat="49.28486" lon="1.11394">
        <ele>65.99</ele>
        <time>2015-07-17T11:58:47Z</time>
      </trkpt>
      <trkpt lat="49.28487" lon="1.11385">
        <ele>65.99</ele>
        <time>2015-07-17T11:58:48Z</time>
      </trkpt>
      <trkpt lat="49.28493" lon="1.11296">
        <ele>66.47</ele>
        <time>2015-07-17T11:58:59Z</time>
      </trkpt>
      <trkpt lat="49.28493" lon="1.11288">
        <ele>66.95</ele>
        <time>2015-07-17T11:59:00Z</time>
      </trkpt>
      <trkpt lat="49.28493" lon="1.11281">
        <ele>66.95</ele>
        <time>2015-07-17T11:59:01Z</time>
      </trkpt>
      <trkpt lat="49.28493" lon="1.11273">
        <ele>67.43</ele>
        <time>2015-07-17T11:59:02Z</time>
      </trkpt>
      <trkpt lat="49.28493" lon="1.11266">
        <ele>67.43</ele>
        <time>2015-07-17T11:59:03Z</time>
      </trkpt>
      <trkpt lat="49.28499" lon="1.11172">
        <ele>67.43</ele>
        <time>2015-07-17T11:59:15Z</time>
      </trkpt>
      <trkpt lat="49.28503" lon="1.1114">
        <ele>67.43</ele>
        <time>2015-07-17T11:59:19Z</time>
      </trkpt>
      <trkpt lat="49.28514" lon="1.11054">
        <ele>67.43</ele>
        <time>2015-07-17T11:59:30Z</time>
      </trkpt>
      <trkpt lat="49.28515" lon="1.11038">
        <ele>67.43</ele>
        <time>2015-07-17T11:59:32Z</time>
      </trkpt>
      <trkpt lat="49.28525" lon="1.10925">
        <ele>66.47</ele>
        <time>2015-07-17T11:59:46Z</time>
      </trkpt>
      <trkpt lat="49.28528" lon="1.109">
        <ele>66.47</ele>
        <time>2015-07-17T11:59:49Z</time>
      </trkpt>
      <trkpt lat="49.2854" lon="1.10772">
        <ele>65.03</ele>
        <time>2015-07-17T12:00:04Z</time>
      </trkpt>
      <trkpt lat="49.2854" lon="1.10764">
        <ele>65.03</ele>
        <time>2015-07-17T12:00:05Z</time>
      </trkpt>
      <trkpt lat="49.28541" lon="1.10748">
        <ele>65.03</ele>
        <time>2015-07-17T12:00:07Z</time>
      </trkpt>
      <trkpt lat="49.28543" lon="1.10722">
        <ele>64.55</ele>
        <time>2015-07-17T12:00:10Z</time>
      </trkpt>
      <trkpt lat="49.28548" lon="1.10664">
        <ele>64.55</ele>
        <time>2015-07-17T12:00:17Z</time>
      </trkpt>
      <trkpt lat="49.28547" lon="1.10657">
        <ele>64.07</ele>
        <time>2015-07-17T12:00:18Z</time>
      </trkpt>
      <trkpt lat="49.28545" lon="1.10651">
        <ele>64.07</ele>
        <time>2015-07-17T12:00:19Z</time>
      </trkpt>
      <trkpt lat="49.28542" lon="1.10646">
        <ele>64.07</ele>
        <time>2015-07-17T12:00:20Z</time>
      </trkpt>
      <trkpt lat="49.28538" lon="1.10642">
        <ele>64.07</ele>
        <time>2015-07-17T12:00:21Z</time>
      </trkpt>
      <trkpt lat="49.28535" lon="1.10637">
        <ele>64.55</ele>
        <time>2015-07-17T12:00:22Z</time>
      </trkpt>
      <trkpt lat="49.28501" lon="1.10589">
        <ele>65.99</ele>
        <time>2015-07-17T12:00:34Z</time>
      </trkpt>
      <trkpt lat="49.28466" lon="1.10542">
        <ele>66.95</ele>
        <time>2015-07-17T12:00:46Z</time>
      </trkpt>
      <trkpt lat="49.28432" lon="1.10498">
        <ele>67.91</ele>
        <time>2015-07-17T12:00:57Z</time>
      </trkpt>
      <trkpt lat="49.28402" lon="1.10449">
        <ele>69.35</ele>
        <time>2015-07-17T12:01:09Z</time>
      </trkpt>
      <trkpt lat="49.28367" lon="1.10402">
        <ele>70.79</ele>
        <time>2015-07-17T12:01:21Z</time>
      </trkpt>
      <trkpt lat="49.2833" lon="1.10347">
        <ele>72.24</ele>
        <time>2015-07-17T12:01:35Z</time>
      </trkpt>
      <trkpt lat="49.28296" lon="1.10296">
        <ele>73.2</ele>
        <time>2015-07-17T12:01:48Z</time>
      </trkpt>
      <trkpt lat="49.28229" lon="1.10223">
        <ele>73.2</ele>
        <time>2015-07-17T12:02:03Z</time>
      </trkpt>
      <trkpt lat="49.28224" lon="1.10218">
        <ele>72.72</ele>
        <time>2015-07-17T12:02:04Z</time>
      </trkpt>
      <trkpt lat="49.28219" lon="1.10214">
        <ele>73.2</ele>
        <time>2015-07-17T12:02:05Z</time>
      </trkpt>
      <trkpt lat="49.28166" lon="1.10151">
        <ele>74.16</ele>
        <time>2015-07-17T12:02:20Z</time>
      </trkpt>
      <trkpt lat="49.28132" lon="1.10106">
        <ele>76.56</ele>
        <time>2015-07-17T12:02:33Z</time>
      </trkpt>
      <trkpt lat="49.28081" lon="1.10049">
        <ele>78.97</ele>
        <time>2015-07-17T12:02:48Z</time>
      </trkpt>
      <trkpt lat="49.28038" lon="1.09997">
        <ele>80.89</ele>
        <time>2015-07-17T12:03:02Z</time>
      </trkpt>
      <trkpt lat="49.28034" lon="1.09993">
        <ele>80.89</ele>
        <time>2015-07-17T12:03:03Z</time>
      </trkpt>
      <trkpt lat="49.28031" lon="1.09989">
        <ele>80.89</ele>
        <time>2015-07-17T12:03:04Z</time>
      </trkpt>
      <trkpt lat="49.28027" lon="1.09985">
        <ele>80.89</ele>
        <time>2015-07-17T12:03:05Z</time>
      </trkpt>
      <trkpt lat="49.28024" lon="1.0998">
        <ele>80.89</ele>
        <time>2015-07-17T12:03:06Z</time>
      </trkpt>
      <trkpt lat="49.27986" lon="1.09931">
        <ele>81.85</ele>
        <time>2015-07-17T12:03:18Z</time>
      </trkpt>
      <trkpt lat="49.2795" lon="1.09882">
        <ele>84.25</ele>
        <time>2015-07-17T12:03:31Z</time>
      </trkpt>
      <trkpt lat="49.27914" lon="1.09835">
        <ele>85.21</ele>
        <time>2015-07-17T12:03:44Z</time>
      </trkpt>
      <trkpt lat="49.2789" lon="1.09806">
        <ele>85.69</ele>
        <time>2015-07-17T12:03:51Z</time>
      </trkpt>
      <trkpt lat="49.27855" lon="1.09762">
        <ele>86.18</ele>
        <time>2015-07-17T12:04:02Z</time>
      </trkpt>
      <trkpt lat="49.27852" lon="1.09758">
        <ele>86.18</ele>
        <time>2015-07-17T12:04:03Z</time>
      </trkpt>
      <trkpt lat="49.27835" lon="1.09737">
        <ele>86.66</ele>
        <time>2015-07-17T12:04:08Z</time>
      </trkpt>
      <trkpt lat="49.27832" lon="1.09733">
        <ele>86.66</ele>
        <time>2015-07-17T12:04:09Z</time>
      </trkpt>
      <trkpt lat="49.27784" lon="1.09672">
        <ele>86.66</ele>
        <time>2015-07-17T12:04:23Z</time>
      </trkpt>
      <trkpt lat="49.2773" lon="1.09606">
        <ele>86.18</ele>
        <time>2015-07-17T12:04:37Z</time>
      </trkpt>
      <trkpt lat="49.27718" lon="1.09591">
        <ele>86.18</ele>
        <time>2015-07-17T12:04:40Z</time>
      </trkpt>
      <trkpt lat="49.27669" lon="1.09525">
        <ele>87.14</ele>
        <time>2015-07-17T12:04:54Z</time>
      </trkpt>
      <trkpt lat="49.27665" lon="1.09521">
        <ele>87.14</ele>
        <time>2015-07-17T12:04:55Z</time>
      </trkpt>
      <trkpt lat="49.27601" lon="1.09442">
        <ele>87.14</ele>
        <time>2015-07-17T12:05:12Z</time>
      </trkpt>
      <trkpt lat="49.27583" lon="1.09417">
        <ele>85.21</ele>
        <time>2015-07-17T12:05:17Z</time>
      </trkpt>
      <trkpt lat="49.27579" lon="1.09411">
        <ele>84.73</ele>
        <time>2015-07-17T12:05:18Z</time>
      </trkpt>
      <trkpt lat="49.27538" lon="1.09356">
        <ele>83.29</ele>
        <time>2015-07-17T12:05:27Z</time>
      </trkpt>
      <trkpt lat="49.27533" lon="1.0935">
        <ele>83.77</ele>
        <time>2015-07-17T12:05:28Z</time>
      </trkpt>
      <trkpt lat="49.27527" lon="1.09345">
        <ele>83.77</ele>
        <time>2015-07-17T12:05:29Z</time>
      </trkpt>
      <trkpt lat="49.27521" lon="1.0934">
        <ele>83.29</ele>
        <time>2015-07-17T12:05:30Z</time>
      </trkpt>
      <trkpt lat="49.27516" lon="1.09334">
        <ele>83.77</ele>
        <time>2015-07-17T12:05:31Z</time>
      </trkpt>
      <trkpt lat="49.275" lon="1.09318">
        <ele>84.25</ele>
        <time>2015-07-17T12:05:34Z</time>
      </trkpt>
      <trkpt lat="49.27495" lon="1.09313">
        <ele>83.77</ele>
        <time>2015-07-17T12:05:35Z</time>
      </trkpt>
      <trkpt lat="49.27482" lon="1.09297">
        <ele>84.25</ele>
        <time>2015-07-17T12:05:38Z</time>
      </trkpt>
      <trkpt lat="49.27478" lon="1.09292">
        <ele>83.77</ele>
        <time>2015-07-17T12:05:39Z</time>
      </trkpt>
      <trkpt lat="49.27474" lon="1.09287">
        <ele>84.73</ele>
        <time>2015-07-17T12:05:40Z</time>
      </trkpt>
      <trkpt lat="49.27452" lon="1.09257">
        <ele>86.18</ele>
        <time>2015-07-17T12:05:47Z</time>
      </trkpt>
      <trkpt lat="49.27449" lon="1.09252">
        <ele>86.66</ele>
        <time>2015-07-17T12:05:48Z</time>
      </trkpt>
      <trkpt lat="49.27416" lon="1.09212">
        <ele>90.02</ele>
        <time>2015-07-17T12:05:59Z</time>
      </trkpt>
      <trkpt lat="49.27405" lon="1.09198">
        <ele>90.98</ele>
        <time>2015-07-17T12:06:03Z</time>
      </trkpt>
      <trkpt lat="49.27401" lon="1.09195">
        <ele>90.98</ele>
        <time>2015-07-17T12:06:04Z</time>
      </trkpt>
      <trkpt lat="49.27398" lon="1.09192">
        <ele>91.46</ele>
        <time>2015-07-17T12:06:05Z</time>
      </trkpt>
      <trkpt lat="49.27367" lon="1.09146">
        <ele>91.94</ele>
        <time>2015-07-17T12:06:17Z</time>
      </trkpt>
      <trkpt lat="49.27353" lon="1.09129">
        <ele>91.94</ele>
        <time>2015-07-17T12:06:21Z</time>
      </trkpt>
      <trkpt lat="49.2735" lon="1.09124">
        <ele>91.94</ele>
        <time>2015-07-17T12:06:22Z</time>
      </trkpt>
      <trkpt lat="49.27347" lon="1.0912">
        <ele>91.46</ele>
        <time>2015-07-17T12:06:23Z</time>
      </trkpt>
      <trkpt lat="49.27343" lon="1.09115">
        <ele>91.46</ele>
        <time>2015-07-17T12:06:24Z</time>
      </trkpt>
      <trkpt lat="49.2734" lon="1.09112">
        <ele>91.46</ele>
        <time>2015-07-17T12:06:25Z</time>
      </trkpt>
      <trkpt lat="49.2733" lon="1.09099">
        <ele>90.5</ele>
        <time>2015-07-17T12:06:28Z</time>
      </trkpt>
      <trkpt lat="49.27325" lon="1.09094">
        <ele>90.02</ele>
        <time>2015-07-17T12:06:29Z</time>
      </trkpt>
      <trkpt lat="49.2732" lon="1.0909">
        <ele>89.54</ele>
        <time>2015-07-17T12:06:30Z</time>
      </trkpt>
      <trkpt lat="49.27317" lon="1.09085">
        <ele>89.06</ele>
        <time>2015-07-17T12:06:31Z</time>
      </trkpt>
      <trkpt lat="49.27312" lon="1.09079">
        <ele>88.58</ele>
        <time>2015-07-17T12:06:32Z</time>
      </trkpt>
      <trkpt lat="49.27289" lon="1.09047">
        <ele>86.18</ele>
        <time>2015-07-17T12:06:38Z</time>
      </trkpt>
      <trkpt lat="49.2728" lon="1.09038">
        <ele>85.21</ele>
        <time>2015-07-17T12:06:40Z</time>
      </trkpt>
      <trkpt lat="49.27278" lon="1.09032">
        <ele>85.21</ele>
        <time>2015-07-17T12:06:41Z</time>
      </trkpt>
      <trkpt lat="49.27276" lon="1.09028">
        <ele>84.73</ele>
        <time>2015-07-17T12:06:42Z</time>
      </trkpt>
      <trkpt lat="49.27275" lon="1.09025">
        <ele>85.21</ele>
        <time>2015-07-17T12:06:43Z</time>
      </trkpt>
      <trkpt lat="49.27275" lon="1.09022">
        <ele>85.69</ele>
        <time>2015-07-17T12:06:44Z</time>
      </trkpt>
      <trkpt lat="49.27274" lon="1.09019">
        <ele>85.69</ele>
        <time>2015-07-17T12:06:45Z</time>
      </trkpt>
      <trkpt lat="49.27272" lon="1.09016">
        <ele>85.69</ele>
        <time>2015-07-17T12:06:46Z</time>
      </trkpt>
      <trkpt lat="49.27273" lon="1.09013">
        <ele>85.69</ele>
        <time>2015-07-17T12:06:47Z</time>
      </trkpt>
      <trkpt lat="49.27275" lon="1.09011">
        <ele>85.69</ele>
        <time>2015-07-17T12:06:48Z</time>
      </trkpt>
      <trkpt lat="49.27276" lon="1.09009">
        <ele>85.69</ele>
        <time>2015-07-17T12:06:49Z</time>
      </trkpt>
      <trkpt lat="49.27277" lon="1.09005">
        <ele>85.21</ele>
        <time>2015-07-17T12:06:50Z</time>
      </trkpt>
      <trkpt lat="49.27278" lon="1.09">
        <ele>85.21</ele>
        <time>2015-07-17T12:06:51Z</time>
      </trkpt>
      <trkpt lat="49.27278" lon="1.08995">
        <ele>84.73</ele>
        <time>2015-07-17T12:06:52Z</time>
      </trkpt>
      <trkpt lat="49.27283" lon="1.08984">
        <ele>82.81</ele>
        <time>2015-07-17T12:06:55Z</time>
      </trkpt>
      <trkpt lat="49.27296" lon="1.08962">
        <ele>78</ele>
        <time>2015-07-17T12:07:01Z</time>
      </trkpt>
      <trkpt lat="49.273" lon="1.08952">
        <ele>74.64</ele>
        <time>2015-07-17T12:07:04Z</time>
      </trkpt>
      <trkpt lat="49.27301" lon="1.08941">
        <ele>73.68</ele>
        <time>2015-07-17T12:07:06Z</time>
      </trkpt>
      <trkpt lat="49.27301" lon="1.08931">
        <ele>72.24</ele>
        <time>2015-07-17T12:07:07Z</time>
      </trkpt>
      <trkpt lat="49.27302" lon="1.08922">
        <ele>71.27</ele>
        <time>2015-07-17T12:07:08Z</time>
      </trkpt>
      <trkpt lat="49.27307" lon="1.08894">
        <ele>68.39</ele>
        <time>2015-07-17T12:07:11Z</time>
      </trkpt>
      <trkpt lat="49.27309" lon="1.08885">
        <ele>67.43</ele>
        <time>2015-07-17T12:07:12Z</time>
      </trkpt>
      <trkpt lat="49.27312" lon="1.08876">
        <ele>66.47</ele>
        <time>2015-07-17T12:07:13Z</time>
      </trkpt>
      <trkpt lat="49.27319" lon="1.08862">
        <ele>65.03</ele>
        <time>2015-07-17T12:07:15Z</time>
      </trkpt>
      <trkpt lat="49.27326" lon="1.08851">
        <ele>64.55</ele>
        <time>2015-07-17T12:07:16Z</time>
      </trkpt>
      <trkpt lat="49.27343" lon="1.08817">
        <ele>63.58</ele>
        <time>2015-07-17T12:07:21Z</time>
      </trkpt>
      <trkpt lat="49.27345" lon="1.0881">
        <ele>63.58</ele>
        <time>2015-07-17T12:07:22Z</time>
      </trkpt>
      <trkpt lat="49.27347" lon="1.08794">
        <ele>63.1</ele>
        <time>2015-07-17T12:07:24Z</time>
      </trkpt>
      <trkpt lat="49.27348" lon="1.08784">
        <ele>63.1</ele>
        <time>2015-07-17T12:07:25Z</time>
      </trkpt>
      <trkpt lat="49.2735" lon="1.08772">
        <ele>62.62</ele>
        <time>2015-07-17T12:07:26Z</time>
      </trkpt>
      <trkpt lat="49.27359" lon="1.08707">
        <ele>63.1</ele>
        <time>2015-07-17T12:07:31Z</time>
      </trkpt>
      <trkpt lat="49.27363" lon="1.08698">
        <ele>63.1</ele>
        <time>2015-07-17T12:07:32Z</time>
      </trkpt>
      <trkpt lat="49.27366" lon="1.08688">
        <ele>63.1</ele>
        <time>2015-07-17T12:07:33Z</time>
      </trkpt>
      <trkpt lat="49.27374" lon="1.08679">
        <ele>63.58</ele>
        <time>2015-07-17T12:07:34Z</time>
      </trkpt>
      <trkpt lat="49.27384" lon="1.08669">
        <ele>63.1</ele>
        <time>2015-07-17T12:07:35Z</time>
      </trkpt>
      <trkpt lat="49.27391" lon="1.0866">
        <ele>63.1</ele>
        <time>2015-07-17T12:07:36Z</time>
      </trkpt>
      <trkpt lat="49.27438" lon="1.08565">
        <ele>60.22</ele>
        <time>2015-07-17T12:07:49Z</time>
      </trkpt>
      <trkpt lat="49.27448" lon="1.08539">
        <ele>59.74</ele>
        <time>2015-07-17T12:07:52Z</time>
      </trkpt>
      <trkpt lat="49.27477" lon="1.08412">
        <ele>56.86</ele>
        <time>2015-07-17T12:08:06Z</time>
      </trkpt>
      <trkpt lat="49.27484" lon="1.08385">
        <ele>55.89</ele>
        <time>2015-07-17T12:08:09Z</time>
      </trkpt>
      <trkpt lat="49.27485" lon="1.08375">
        <ele>55.41</ele>
        <time>2015-07-17T12:08:10Z</time>
      </trkpt>
      <trkpt lat="49.27486" lon="1.08366">
        <ele>55.41</ele>
        <time>2015-07-17T12:08:11Z</time>
      </trkpt>
      <trkpt lat="49.27488" lon="1.08357">
        <ele>54.93</ele>
        <time>2015-07-17T12:08:12Z</time>
      </trkpt>
      <trkpt lat="49.27489" lon="1.08347">
        <ele>54.45</ele>
        <time>2015-07-17T12:08:13Z</time>
      </trkpt>
      <trkpt lat="49.27509" lon="1.08251">
        <ele>51.57</ele>
        <time>2015-07-17T12:08:24Z</time>
      </trkpt>
      <trkpt lat="49.27509" lon="1.08243">
        <ele>51.57</ele>
        <time>2015-07-17T12:08:25Z</time>
      </trkpt>
      <trkpt lat="49.27508" lon="1.08209">
        <ele>50.13</ele>
        <time>2015-07-17T12:08:29Z</time>
      </trkpt>
      <trkpt lat="49.27509" lon="1.08202">
        <ele>50.13</ele>
        <time>2015-07-17T12:08:30Z</time>
      </trkpt>
      <trkpt lat="49.2751" lon="1.08195">
        <ele>49.65</ele>
        <time>2015-07-17T12:08:31Z</time>
      </trkpt>
      <trkpt lat="49.2751" lon="1.08189">
        <ele>49.65</ele>
        <time>2015-07-17T12:08:32Z</time>
      </trkpt>
      <trkpt lat="49.27509" lon="1.08184">
        <ele>50.13</ele>
        <time>2015-07-17T12:08:33Z</time>
      </trkpt>
      <trkpt lat="49.27507" lon="1.0818">
        <ele>49.65</ele>
        <time>2015-07-17T12:08:34Z</time>
      </trkpt>
      <trkpt lat="49.27505" lon="1.08176">
        <ele>49.65</ele>
        <time>2015-07-17T12:08:35Z</time>
      </trkpt>
      <trkpt lat="49.27503" lon="1.08172">
        <ele>50.13</ele>
        <time>2015-07-17T12:08:36Z</time>
      </trkpt>
      <trkpt lat="49.27473" lon="1.08122">
        <ele>51.09</ele>
        <time>2015-07-17T12:08:47Z</time>
      </trkpt>
      <trkpt lat="49.27461" lon="1.08103">
        <ele>51.09</ele>
        <time>2015-07-17T12:08:51Z</time>
      </trkpt>
      <trkpt lat="49.27433" lon="1.08062">
        <ele>51.57</ele>
        <time>2015-07-17T12:09:00Z</time>
      </trkpt>
      <trkpt lat="49.27426" lon="1.08053">
        <ele>52.05</ele>
        <time>2015-07-17T12:09:02Z</time>
      </trkpt>
      <trkpt lat="49.27423" lon="1.08048">
        <ele>52.05</ele>
        <time>2015-07-17T12:09:03Z</time>
      </trkpt>
      <trkpt lat="49.27419" lon="1.08043">
        <ele>52.05</ele>
        <time>2015-07-17T12:09:04Z</time>
      </trkpt>
      <trkpt lat="49.27386" lon="1.07994">
        <ele>51.57</ele>
        <time>2015-07-17T12:09:14Z</time>
      </trkpt>
      <trkpt lat="49.27375" lon="1.07979">
        <ele>52.05</ele>
        <time>2015-07-17T12:09:17Z</time>
      </trkpt>
      <trkpt lat="49.2735" lon="1.07948">
        <ele>52.05</ele>
        <time>2015-07-17T12:09:24Z</time>
      </trkpt>
      <trkpt lat="49.27344" lon="1.07938">
        <ele>52.05</ele>
        <time>2015-07-17T12:09:26Z</time>
      </trkpt>
      <trkpt lat="49.27327" lon="1.07915">
        <ele>52.53</ele>
        <time>2015-07-17T12:09:30Z</time>
      </trkpt>
      <trkpt lat="49.27323" lon="1.0791">
        <ele>52.05</ele>
        <time>2015-07-17T12:09:31Z</time>
      </trkpt>
      <trkpt lat="49.27286" lon="1.07859">
        <ele>52.05</ele>
        <time>2015-07-17T12:09:42Z</time>
      </trkpt>
      <trkpt lat="49.27274" lon="1.07845">
        <ele>52.53</ele>
        <time>2015-07-17T12:09:48Z</time>
      </trkpt>
      <trkpt lat="49.27272" lon="1.07845">
        <ele>52.53</ele>
        <time>2015-07-17T12:09:49Z</time>
      </trkpt>
      <trkpt lat="49.27271" lon="1.07848">
        <ele>52.53</ele>
        <time>2015-07-17T12:09:50Z</time>
      </trkpt>
      <trkpt lat="49.2726" lon="1.07859">
        <ele>53.01</ele>
        <time>2015-07-17T12:09:55Z</time>
      </trkpt>
      <trkpt lat="49.27257" lon="1.07861">
        <ele>53.49</ele>
        <time>2015-07-17T12:09:56Z</time>
      </trkpt>
      <trkpt lat="49.27255" lon="1.07861">
        <ele>53.01</ele>
        <time>2015-07-17T12:09:57Z</time>
      </trkpt>
      <trkpt lat="49.27252" lon="1.07859">
        <ele>53.49</ele>
        <time>2015-07-17T12:09:58Z</time>
      </trkpt>
      <trkpt lat="49.27248" lon="1.07856">
        <ele>53.49</ele>
        <time>2015-07-17T12:09:59Z</time>
      </trkpt>
      <trkpt lat="49.27246" lon="1.07852">
        <ele>53.49</ele>
        <time>2015-07-17T12:10:00Z</time>
      </trkpt>
      <trkpt lat="49.27243" lon="1.07848">
        <ele>53.01</ele>
        <time>2015-07-17T12:10:01Z</time>
      </trkpt>
      <trkpt lat="49.2724" lon="1.07844">
        <ele>53.49</ele>
        <time>2015-07-17T12:10:02Z</time>
      </trkpt>
      <trkpt lat="49.27238" lon="1.07839">
        <ele>53.01</ele>
        <time>2015-07-17T12:10:03Z</time>
      </trkpt>
      <trkpt lat="49.27235" lon="1.07834">
        <ele>53.01</ele>
        <time>2015-07-17T12:10:04Z</time>
      </trkpt>
      <trkpt lat="49.27232" lon="1.07829">
        <ele>53.01</ele>
        <time>2015-07-17T12:10:05Z</time>
      </trkpt>
      <trkpt lat="49.2723" lon="1.07824">
        <ele>53.01</ele>
        <time>2015-07-17T12:10:06Z</time>
      </trkpt>
      <trkpt lat="49.27213" lon="1.0778">
        <ele>52.53</ele>
        <time>2015-07-17T12:10:13Z</time>
      </trkpt>
      <trkpt lat="49.2721" lon="1.07775">
        <ele>52.53</ele>
        <time>2015-07-17T12:10:14Z</time>
      </trkpt>
      <trkpt lat="49.27165" lon="1.07718">
        <ele>52.53</ele>
        <time>2015-07-17T12:10:26Z</time>
      </trkpt>
      <trkpt lat="49.2716" lon="1.07713">
        <ele>52.53</ele>
        <time>2015-07-17T12:10:27Z</time>
      </trkpt>
      <trkpt lat="49.27121" lon="1.07648">
        <ele>52.05</ele>
        <time>2015-07-17T12:10:38Z</time>
      </trkpt>
      <trkpt lat="49.27106" lon="1.07623">
        <ele>51.57</ele>
        <time>2015-07-17T12:10:42Z</time>
      </trkpt>
      <trkpt lat="49.27065" lon="1.0757">
        <ele>51.57</ele>
        <time>2015-07-17T12:10:52Z</time>
      </trkpt>
      <trkpt lat="49.27061" lon="1.07565">
        <ele>51.57</ele>
        <time>2015-07-17T12:10:53Z</time>
      </trkpt>
      <trkpt lat="49.27058" lon="1.07559">
        <ele>52.53</ele>
        <time>2015-07-17T12:10:54Z</time>
      </trkpt>
      <trkpt lat="49.27054" lon="1.07552">
        <ele>51.57</ele>
        <time>2015-07-17T12:10:55Z</time>
      </trkpt>
      <trkpt lat="49.27051" lon="1.07546">
        <ele>51.57</ele>
        <time>2015-07-17T12:10:56Z</time>
      </trkpt>
      <trkpt lat="49.27046" lon="1.07541">
        <ele>51.57</ele>
        <time>2015-07-17T12:10:57Z</time>
      </trkpt>
      <trkpt lat="49.27038" lon="1.07531">
        <ele>51.57</ele>
        <time>2015-07-17T12:10:59Z</time>
      </trkpt>
      <trkpt lat="49.27029" lon="1.07524">
        <ele>51.57</ele>
        <time>2015-07-17T12:11:01Z</time>
      </trkpt>
      <trkpt lat="49.27025" lon="1.0752">
        <ele>52.05</ele>
        <time>2015-07-17T12:11:02Z</time>
      </trkpt>
      <trkpt lat="49.27014" lon="1.07508">
        <ele>52.05</ele>
        <time>2015-07-17T12:11:05Z</time>
      </trkpt>
      <trkpt lat="49.2701" lon="1.07503">
        <ele>52.05</ele>
        <time>2015-07-17T12:11:06Z</time>
      </trkpt>
      <trkpt lat="49.26971" lon="1.07422">
        <ele>51.09</ele>
        <time>2015-07-17T12:11:18Z</time>
      </trkpt>
      <trkpt lat="49.26962" lon="1.07396">
        <ele>50.61</ele>
        <time>2015-07-17T12:11:24Z</time>
      </trkpt>
      <trkpt lat="49.26962" lon="1.07394">
        <ele>50.61</ele>
        <time>2015-07-17T12:11:25Z</time>
      </trkpt>
      <trkpt lat="49.26964" lon="1.07391">
        <ele>50.61</ele>
        <time>2015-07-17T12:11:26Z</time>
      </trkpt>
      <trkpt lat="49.26966" lon="1.07388">
        <ele>50.13</ele>
        <time>2015-07-17T12:11:27Z</time>
      </trkpt>
      <trkpt lat="49.26968" lon="1.07387">
        <ele>50.13</ele>
        <time>2015-07-17T12:11:28Z</time>
      </trkpt>
      <trkpt lat="49.26993" lon="1.07364">
        <ele>48.68</ele>
        <time>2015-07-17T12:11:37Z</time>
      </trkpt>
      <trkpt lat="49.27004" lon="1.07352">
        <ele>47.72</ele>
        <time>2015-07-17T12:11:40Z</time>
      </trkpt>
      <trkpt lat="49.27008" lon="1.07348">
        <ele>47.72</ele>
        <time>2015-07-17T12:11:41Z</time>
      </trkpt>
      <trkpt lat="49.27013" lon="1.07345">
        <ele>47.24</ele>
        <time>2015-07-17T12:11:42Z</time>
      </trkpt>
      <trkpt lat="49.27018" lon="1.07342">
        <ele>47.24</ele>
        <time>2015-07-17T12:11:43Z</time>
      </trkpt>
      <trkpt lat="49.27023" lon="1.07338">
        <ele>46.76</ele>
        <time>2015-07-17T12:11:44Z</time>
      </trkpt>
      <trkpt lat="49.27028" lon="1.07335">
        <ele>46.76</ele>
        <time>2015-07-17T12:11:45Z</time>
      </trkpt>
      <trkpt lat="49.27034" lon="1.07331">
        <ele>46.76</ele>
        <time>2015-07-17T12:11:46Z</time>
      </trkpt>
      <trkpt lat="49.27039" lon="1.07327">
        <ele>46.28</ele>
        <time>2015-07-17T12:11:47Z</time>
      </trkpt>
      <trkpt lat="49.27076" lon="1.07298">
        <ele>44.84</ele>
        <time>2015-07-17T12:11:54Z</time>
      </trkpt>
      <trkpt lat="49.27082" lon="1.07293">
        <ele>44.36</ele>
        <time>2015-07-17T12:11:55Z</time>
      </trkpt>
      <trkpt lat="49.27147" lon="1.07246">
        <ele>42.44</ele>
        <time>2015-07-17T12:12:06Z</time>
      </trkpt>
      <trkpt lat="49.27197" lon="1.07207">
        <ele>41.47</ele>
        <time>2015-07-17T12:12:16Z</time>
      </trkpt>
      <trkpt lat="49.272" lon="1.07204">
        <ele>41.47</ele>
        <time>2015-07-17T12:12:17Z</time>
      </trkpt>
      <trkpt lat="49.27202" lon="1.072">
        <ele>41.47</ele>
        <time>2015-07-17T12:12:18Z</time>
      </trkpt>
      <trkpt lat="49.27202" lon="1.07195">
        <ele>41.47</ele>
        <time>2015-07-17T12:12:19Z</time>
      </trkpt>
      <trkpt lat="49.272" lon="1.07191">
        <ele>40.99</ele>
        <time>2015-07-17T12:12:20Z</time>
      </trkpt>
      <trkpt lat="49.27199" lon="1.07187">
        <ele>40.99</ele>
        <time>2015-07-17T12:12:21Z</time>
      </trkpt>
      <trkpt lat="49.27197" lon="1.07183">
        <ele>40.51</ele>
        <time>2015-07-17T12:12:22Z</time>
      </trkpt>
      <trkpt lat="49.27177" lon="1.07147">
        <ele>41.47</ele>
        <time>2015-07-17T12:12:30Z</time>
      </trkpt>
      <trkpt lat="49.27174" lon="1.07142">
        <ele>41.47</ele>
        <time>2015-07-17T12:12:31Z</time>
      </trkpt>
      <trkpt lat="49.2717" lon="1.07138">
        <ele>41.47</ele>
        <time>2015-07-17T12:12:32Z</time>
      </trkpt>
      <trkpt lat="49.27145" lon="1.07101">
        <ele>41.47</ele>
        <time>2015-07-17T12:12:40Z</time>
      </trkpt>
      <trkpt lat="49.27141" lon="1.07097">
        <ele>41.47</ele>
        <time>2015-07-17T12:12:41Z</time>
      </trkpt>
      <trkpt lat="49.27128" lon="1.07077">
        <ele>40.99</ele>
        <time>2015-07-17T12:12:45Z</time>
      </trkpt>
      <trkpt lat="49.27125" lon="1.07073">
        <ele>40.99</ele>
        <time>2015-07-17T12:12:46Z</time>
      </trkpt>
      <trkpt lat="49.27114" lon="1.07058">
        <ele>40.99</ele>
        <time>2015-07-17T12:12:49Z</time>
      </trkpt>
      <trkpt lat="49.2711" lon="1.07052">
        <ele>40.99</ele>
        <time>2015-07-17T12:12:50Z</time>
      </trkpt>
      <trkpt lat="49.27099" lon="1.07038">
        <ele>40.99</ele>
        <time>2015-07-17T12:12:53Z</time>
      </trkpt>
      <trkpt lat="49.27087" lon="1.07019">
        <ele>40.99</ele>
        <time>2015-07-17T12:13:01Z</time>
      </trkpt>
      <trkpt lat="49.27089" lon="1.07016">
        <ele>40.51</ele>
        <time>2015-07-17T12:13:28Z</time>
      </trkpt>
      <trkpt lat="49.27079" lon="1.07004">
        <ele>40.51</ele>
        <time>2015-07-17T12:13:43Z</time>
      </trkpt>
      <trkpt lat="49.27065" lon="1.06983">
        <ele>40.03</ele>
        <time>2015-07-17T12:13:49Z</time>
      </trkpt>
      <trkpt lat="49.27061" lon="1.06978">
        <ele>40.51</ele>
        <time>2015-07-17T12:13:50Z</time>
      </trkpt>
      <trkpt lat="49.2703" lon="1.06934">
        <ele>40.99</ele>
        <time>2015-07-17T12:13:58Z</time>
      </trkpt>
      <trkpt lat="49.27025" lon="1.06931">
        <ele>40.99</ele>
        <time>2015-07-17T12:13:59Z</time>
      </trkpt>
      <trkpt lat="49.27021" lon="1.06927">
        <ele>40.99</ele>
        <time>2015-07-17T12:14:00Z</time>
      </trkpt>
      <trkpt lat="49.27017" lon="1.06923">
        <ele>40.99</ele>
        <time>2015-07-17T12:14:01Z</time>
      </trkpt>
      <trkpt lat="49.27012" lon="1.06918">
        <ele>41.47</ele>
        <time>2015-07-17T12:14:02Z</time>
      </trkpt>
      <trkpt lat="49.27009" lon="1.06913">
        <ele>41.47</ele>
        <time>2015-07-17T12:14:03Z</time>
      </trkpt>
      <trkpt lat="49.27006" lon="1.06908">
        <ele>41.47</ele>
        <time>2015-07-17T12:14:04Z</time>
      </trkpt>
      <trkpt lat="49.27003" lon="1.06903">
        <ele>41.47</ele>
        <time>2015-07-17T12:14:05Z</time>
      </trkpt>
      <trkpt lat="49.27001" lon="1.06899">
        <ele>41.47</ele>
        <time>2015-07-17T12:14:06Z</time>
      </trkpt>
      <trkpt lat="49.26998" lon="1.06895">
        <ele>41.47</ele>
        <time>2015-07-17T12:14:07Z</time>
      </trkpt>
      <trkpt lat="49.2697" lon="1.06858">
        <ele>41.95</ele>
        <time>2015-07-17T12:14:15Z</time>
      </trkpt>
      <trkpt lat="49.26966" lon="1.06854">
        <ele>41.95</ele>
        <time>2015-07-17T12:14:16Z</time>
      </trkpt>
      <trkpt lat="49.26963" lon="1.06848">
        <ele>41.95</ele>
        <time>2015-07-17T12:14:17Z</time>
      </trkpt>
      <trkpt lat="49.26947" lon="1.06824">
        <ele>42.44</ele>
        <time>2015-07-17T12:14:23Z</time>
      </trkpt>
      <trkpt lat="49.26945" lon="1.0682">
        <ele>42.44</ele>
        <time>2015-07-17T12:14:24Z</time>
      </trkpt>
      <trkpt lat="49.26936" lon="1.06804">
        <ele>42.92</ele>
        <time>2015-07-17T12:14:27Z</time>
      </trkpt>
      <trkpt lat="49.26918" lon="1.06781">
        <ele>43.4</ele>
        <time>2015-07-17T12:14:32Z</time>
      </trkpt>
      <trkpt lat="49.26913" lon="1.06777">
        <ele>43.4</ele>
        <time>2015-07-17T12:14:33Z</time>
      </trkpt>
      <trkpt lat="49.26908" lon="1.06772">
        <ele>43.88</ele>
        <time>2015-07-17T12:14:34Z</time>
      </trkpt>
      <trkpt lat="49.26903" lon="1.06769">
        <ele>43.88</ele>
        <time>2015-07-17T12:14:35Z</time>
      </trkpt>
      <trkpt lat="49.26898" lon="1.06765">
        <ele>43.88</ele>
        <time>2015-07-17T12:14:36Z</time>
      </trkpt>
      <trkpt lat="49.26895" lon="1.0676">
        <ele>44.36</ele>
        <time>2015-07-17T12:14:37Z</time>
      </trkpt>
      <trkpt lat="49.26892" lon="1.06756">
        <ele>44.36</ele>
        <time>2015-07-17T12:14:38Z</time>
      </trkpt>
      <trkpt lat="49.26889" lon="1.06754">
        <ele>44.84</ele>
        <time>2015-07-17T12:14:39Z</time>
      </trkpt>
      <trkpt lat="49.26887" lon="1.06751">
        <ele>44.36</ele>
        <time>2015-07-17T12:14:40Z</time>
      </trkpt>
      <trkpt lat="49.26884" lon="1.06748">
        <ele>44.84</ele>
        <time>2015-07-17T12:14:41Z</time>
      </trkpt>
      <trkpt lat="49.26876" lon="1.06738">
        <ele>45.32</ele>
        <time>2015-07-17T12:14:44Z</time>
      </trkpt>
      <trkpt lat="49.26847" lon="1.06699">
        <ele>47.24</ele>
        <time>2015-07-17T12:14:55Z</time>
      </trkpt>
      <trkpt lat="49.26826" lon="1.0666">
        <ele>48.68</ele>
        <time>2015-07-17T12:15:06Z</time>
      </trkpt>
      <trkpt lat="49.26804" lon="1.0663">
        <ele>49.65</ele>
        <time>2015-07-17T12:15:16Z</time>
      </trkpt>
      <trkpt lat="49.26787" lon="1.06601">
        <ele>51.09</ele>
        <time>2015-07-17T12:15:26Z</time>
      </trkpt>
      <trkpt lat="49.26754" lon="1.06556">
        <ele>53.49</ele>
        <time>2015-07-17T12:15:38Z</time>
      </trkpt>
      <trkpt lat="49.26737" lon="1.06544">
        <ele>54.93</ele>
        <time>2015-07-17T12:15:44Z</time>
      </trkpt>
      <trkpt lat="49.26736" lon="1.06545">
        <ele>54.93</ele>
        <time>2015-07-17T12:15:45Z</time>
      </trkpt>
      <trkpt lat="49.26734" lon="1.06547">
        <ele>55.41</ele>
        <time>2015-07-17T12:15:46Z</time>
      </trkpt>
      <trkpt lat="49.2673" lon="1.06548">
        <ele>55.41</ele>
        <time>2015-07-17T12:15:47Z</time>
      </trkpt>
      <trkpt lat="49.26727" lon="1.0655">
        <ele>55.41</ele>
        <time>2015-07-17T12:15:48Z</time>
      </trkpt>
      <trkpt lat="49.26725" lon="1.06552">
        <ele>55.41</ele>
        <time>2015-07-17T12:15:49Z</time>
      </trkpt>
      <trkpt lat="49.26722" lon="1.06555">
        <ele>55.89</ele>
        <time>2015-07-17T12:15:50Z</time>
      </trkpt>
      <trkpt lat="49.267" lon="1.06593">
        <ele>56.86</ele>
        <time>2015-07-17T12:16:00Z</time>
      </trkpt>
      <trkpt lat="49.26693" lon="1.06607">
        <ele>56.86</ele>
        <time>2015-07-17T12:16:03Z</time>
      </trkpt>
      <trkpt lat="49.26651" lon="1.06678">
        <ele>55.41</ele>
        <time>2015-07-17T12:16:16Z</time>
      </trkpt>
      <trkpt lat="49.26644" lon="1.0669">
        <ele>54.93</ele>
        <time>2015-07-17T12:16:18Z</time>
      </trkpt>
      <trkpt lat="49.26641" lon="1.06696">
        <ele>54.93</ele>
        <time>2015-07-17T12:16:19Z</time>
      </trkpt>
      <trkpt lat="49.26611" lon="1.06746">
        <ele>54.45</ele>
        <time>2015-07-17T12:16:28Z</time>
      </trkpt>
      <trkpt lat="49.26606" lon="1.06758">
        <ele>53.97</ele>
        <time>2015-07-17T12:16:30Z</time>
      </trkpt>
      <trkpt lat="49.26572" lon="1.06813">
        <ele>53.01</ele>
        <time>2015-07-17T12:16:40Z</time>
      </trkpt>
      <trkpt lat="49.26569" lon="1.06819">
        <ele>53.49</ele>
        <time>2015-07-17T12:16:41Z</time>
      </trkpt>
      <trkpt lat="49.26567" lon="1.06824">
        <ele>53.49</ele>
        <time>2015-07-17T12:16:42Z</time>
      </trkpt>
      <trkpt lat="49.26564" lon="1.06826">
        <ele>53.49</ele>
        <time>2015-07-17T12:16:43Z</time>
      </trkpt>
      <trkpt lat="49.26561" lon="1.06826">
        <ele>53.49</ele>
        <time>2015-07-17T12:16:44Z</time>
      </trkpt>
      <trkpt lat="49.26557" lon="1.06822">
        <ele>53.49</ele>
        <time>2015-07-17T12:16:45Z</time>
      </trkpt>
      <trkpt lat="49.26554" lon="1.06818">
        <ele>53.49</ele>
        <time>2015-07-17T12:16:46Z</time>
      </trkpt>
      <trkpt lat="49.26551" lon="1.06813">
        <ele>53.49</ele>
        <time>2015-07-17T12:16:47Z</time>
      </trkpt>
      <trkpt lat="49.26547" lon="1.0681">
        <ele>53.97</ele>
        <time>2015-07-17T12:16:48Z</time>
      </trkpt>
      <trkpt lat="49.26543" lon="1.06805">
        <ele>53.49</ele>
        <time>2015-07-17T12:16:49Z</time>
      </trkpt>
      <trkpt lat="49.2654" lon="1.06802">
        <ele>53.97</ele>
        <time>2015-07-17T12:16:50Z</time>
      </trkpt>
      <trkpt lat="49.26536" lon="1.06798">
        <ele>54.45</ele>
        <time>2015-07-17T12:16:51Z</time>
      </trkpt>
      <trkpt lat="49.26532" lon="1.06794">
        <ele>54.45</ele>
        <time>2015-07-17T12:16:52Z</time>
      </trkpt>
      <trkpt lat="49.26529" lon="1.06789">
        <ele>54.45</ele>
        <time>2015-07-17T12:16:53Z</time>
      </trkpt>
      <trkpt lat="49.26515" lon="1.06773">
        <ele>54.45</ele>
        <time>2015-07-17T12:16:57Z</time>
      </trkpt>
      <trkpt lat="49.26511" lon="1.06769">
        <ele>54.93</ele>
        <time>2015-07-17T12:16:58Z</time>
      </trkpt>
      <trkpt lat="49.26473" lon="1.0672">
        <ele>56.86</ele>
        <time>2015-07-17T12:17:10Z</time>
      </trkpt>
      <trkpt lat="49.2647" lon="1.06716">
        <ele>56.86</ele>
        <time>2015-07-17T12:17:11Z</time>
      </trkpt>
      <trkpt lat="49.26467" lon="1.06712">
        <ele>56.86</ele>
        <time>2015-07-17T12:17:12Z</time>
      </trkpt>
      <trkpt lat="49.26457" lon="1.06699">
        <ele>57.34</ele>
        <time>2015-07-17T12:17:15Z</time>
      </trkpt>
      <trkpt lat="49.26436" lon="1.06675">
        <ele>58.3</ele>
        <time>2015-07-17T12:17:21Z</time>
      </trkpt>
      <trkpt lat="49.26433" lon="1.0667">
        <ele>58.3</ele>
        <time>2015-07-17T12:17:22Z</time>
      </trkpt>
      <trkpt lat="49.26395" lon="1.06626">
        <ele>60.7</ele>
        <time>2015-07-17T12:17:34Z</time>
      </trkpt>
      <trkpt lat="49.2637" lon="1.0659">
        <ele>61.66</ele>
        <time>2015-07-17T12:17:43Z</time>
      </trkpt>
      <trkpt lat="49.26331" lon="1.06537">
        <ele>63.58</ele>
        <time>2015-07-17T12:17:56Z</time>
      </trkpt>
      <trkpt lat="49.26324" lon="1.06528">
        <ele>64.07</ele>
        <time>2015-07-17T12:17:58Z</time>
      </trkpt>
      <trkpt lat="49.26321" lon="1.06523">
        <ele>64.07</ele>
        <time>2015-07-17T12:17:59Z</time>
      </trkpt>
      <trkpt lat="49.26291" lon="1.06496">
        <ele>65.99</ele>
        <time>2015-07-17T12:18:09Z</time>
      </trkpt>
      <trkpt lat="49.26259" lon="1.06454">
        <ele>67.43</ele>
        <time>2015-07-17T12:18:20Z</time>
      </trkpt>
      <trkpt lat="49.26223" lon="1.06403">
        <ele>68.87</ele>
        <time>2015-07-17T12:18:32Z</time>
      </trkpt>
      <trkpt lat="49.26186" lon="1.06381">
        <ele>71.76</ele>
        <time>2015-07-17T12:18:45Z</time>
      </trkpt>
      <trkpt lat="49.26181" lon="1.06384">
        <ele>72.24</ele>
        <time>2015-07-17T12:18:47Z</time>
      </trkpt>
      <trkpt lat="49.26175" lon="1.06398">
        <ele>74.16</ele>
        <time>2015-07-17T12:18:53Z</time>
      </trkpt>
      <trkpt lat="49.26174" lon="1.064">
        <ele>74.64</ele>
        <time>2015-07-17T12:18:54Z</time>
      </trkpt>
      <trkpt lat="49.26173" lon="1.06403">
        <ele>76.08</ele>
        <time>2015-07-17T12:18:55Z</time>
      </trkpt>
      <trkpt lat="49.26171" lon="1.06405">
        <ele>75.6</ele>
        <time>2015-07-17T12:18:56Z</time>
      </trkpt>
      <trkpt lat="49.2617" lon="1.06407">
        <ele>75.6</ele>
        <time>2015-07-17T12:18:57Z</time>
      </trkpt>
      <trkpt lat="49.26168" lon="1.06409">
        <ele>76.08</ele>
        <time>2015-07-17T12:18:58Z</time>
      </trkpt>
      <trkpt lat="49.26157" lon="1.06416">
        <ele>77.52</ele>
        <time>2015-07-17T12:19:04Z</time>
      </trkpt>
      <trkpt lat="49.26155" lon="1.06415">
        <ele>78</ele>
        <time>2015-07-17T12:19:05Z</time>
      </trkpt>
      <trkpt lat="49.26152" lon="1.06413">
        <ele>78</ele>
        <time>2015-07-17T12:19:06Z</time>
      </trkpt>
      <trkpt lat="49.26145" lon="1.06375">
        <ele>75.12</ele>
        <time>2015-07-17T12:19:13Z</time>
      </trkpt>
      <trkpt lat="49.26148" lon="1.06367">
        <ele>74.16</ele>
        <time>2015-07-17T12:19:14Z</time>
      </trkpt>
      <trkpt lat="49.2615" lon="1.0636">
        <ele>73.68</ele>
        <time>2015-07-17T12:19:15Z</time>
      </trkpt>
      <trkpt lat="49.26154" lon="1.06342">
        <ele>72.24</ele>
        <time>2015-07-17T12:19:17Z</time>
      </trkpt>
      <trkpt lat="49.26156" lon="1.06335">
        <ele>71.76</ele>
        <time>2015-07-17T12:19:18Z</time>
      </trkpt>
      <trkpt lat="49.26157" lon="1.06329">
        <ele>71.76</ele>
        <time>2015-07-17T12:19:19Z</time>
      </trkpt>
      <trkpt lat="49.26159" lon="1.06325">
        <ele>71.27</ele>
        <time>2015-07-17T12:19:20Z</time>
      </trkpt>
      <trkpt lat="49.26161" lon="1.06321">
        <ele>70.79</ele>
        <time>2015-07-17T12:19:21Z</time>
      </trkpt>
      <trkpt lat="49.26163" lon="1.06316">
        <ele>70.31</ele>
        <time>2015-07-17T12:19:22Z</time>
      </trkpt>
      <trkpt lat="49.26165" lon="1.06311">
        <ele>69.83</ele>
        <time>2015-07-17T12:19:23Z</time>
      </trkpt>
      <trkpt lat="49.26168" lon="1.06305">
        <ele>69.35</ele>
        <time>2015-07-17T12:19:24Z</time>
      </trkpt>
      <trkpt lat="49.26171" lon="1.06297">
        <ele>68.87</ele>
        <time>2015-07-17T12:19:25Z</time>
      </trkpt>
      <trkpt lat="49.26174" lon="1.06288">
        <ele>68.87</ele>
        <time>2015-07-17T12:19:26Z</time>
      </trkpt>
      <trkpt lat="49.26185" lon="1.06239">
        <ele>65.03</ele>
        <time>2015-07-17T12:19:30Z</time>
      </trkpt>
      <trkpt lat="49.26196" lon="1.06187">
        <ele>63.1</ele>
        <time>2015-07-17T12:19:34Z</time>
      </trkpt>
      <trkpt lat="49.26235" lon="1.06024">
        <ele>60.22</ele>
        <time>2015-07-17T12:19:48Z</time>
      </trkpt>
      <trkpt lat="49.26282" lon="1.05877">
        <ele>59.26</ele>
        <time>2015-07-17T12:20:03Z</time>
      </trkpt>
      <trkpt lat="49.26328" lon="1.05748">
        <ele>59.74</ele>
        <time>2015-07-17T12:20:18Z</time>
      </trkpt>
      <trkpt lat="49.26359" lon="1.05623">
        <ele>60.22</ele>
        <time>2015-07-17T12:20:34Z</time>
      </trkpt>
      <trkpt lat="49.26388" lon="1.05556">
        <ele>55.89</ele>
        <time>2015-07-17T12:20:42Z</time>
      </trkpt>
      <trkpt lat="49.26407" lon="1.05526">
        <ele>52.05</ele>
        <time>2015-07-17T12:20:45Z</time>
      </trkpt>
      <trkpt lat="49.26429" lon="1.05491">
        <ele>48.2</ele>
        <time>2015-07-17T12:20:48Z</time>
      </trkpt>
      <trkpt lat="49.26445" lon="1.05468">
        <ele>45.8</ele>
        <time>2015-07-17T12:20:50Z</time>
      </trkpt>
      <trkpt lat="49.26454" lon="1.05459">
        <ele>44.36</ele>
        <time>2015-07-17T12:20:51Z</time>
      </trkpt>
      <trkpt lat="49.26479" lon="1.05436">
        <ele>40.99</ele>
        <time>2015-07-17T12:20:54Z</time>
      </trkpt>
      <trkpt lat="49.26486" lon="1.0543">
        <ele>40.99</ele>
        <time>2015-07-17T12:20:55Z</time>
      </trkpt>
      <trkpt lat="49.26494" lon="1.0542">
        <ele>38.59</ele>
        <time>2015-07-17T12:20:57Z</time>
      </trkpt>
      <trkpt lat="49.26496" lon="1.05415">
        <ele>38.11</ele>
        <time>2015-07-17T12:20:58Z</time>
      </trkpt>
      <trkpt lat="49.26497" lon="1.05409">
        <ele>37.63</ele>
        <time>2015-07-17T12:20:59Z</time>
      </trkpt>
      <trkpt lat="49.26497" lon="1.05404">
        <ele>37.15</ele>
        <time>2015-07-17T12:21:00Z</time>
      </trkpt>
      <trkpt lat="49.26497" lon="1.054">
        <ele>37.15</ele>
        <time>2015-07-17T12:21:01Z</time>
      </trkpt>
      <trkpt lat="49.26496" lon="1.05396">
        <ele>37.15</ele>
        <time>2015-07-17T12:21:02Z</time>
      </trkpt>
      <trkpt lat="49.26495" lon="1.05391">
        <ele>36.67</ele>
        <time>2015-07-17T12:21:03Z</time>
      </trkpt>
      <trkpt lat="49.26495" lon="1.05385">
        <ele>36.67</ele>
        <time>2015-07-17T12:21:04Z</time>
      </trkpt>
      <trkpt lat="49.26493" lon="1.05379">
        <ele>36.19</ele>
        <time>2015-07-17T12:21:05Z</time>
      </trkpt>
      <trkpt lat="49.26492" lon="1.05372">
        <ele>35.71</ele>
        <time>2015-07-17T12:21:06Z</time>
      </trkpt>
      <trkpt lat="49.2649" lon="1.05364">
        <ele>36.19</ele>
        <time>2015-07-17T12:21:07Z</time>
      </trkpt>
      <trkpt lat="49.26489" lon="1.05356">
        <ele>36.19</ele>
        <time>2015-07-17T12:21:08Z</time>
      </trkpt>
      <trkpt lat="49.2649" lon="1.05348">
        <ele>35.23</ele>
        <time>2015-07-17T12:21:09Z</time>
      </trkpt>
      <trkpt lat="49.26493" lon="1.05341">
        <ele>35.23</ele>
        <time>2015-07-17T12:21:10Z</time>
      </trkpt>
      <trkpt lat="49.26496" lon="1.05335">
        <ele>34.26</ele>
        <time>2015-07-17T12:21:11Z</time>
      </trkpt>
      <trkpt lat="49.26498" lon="1.0533">
        <ele>34.26</ele>
        <time>2015-07-17T12:21:12Z</time>
      </trkpt>
      <trkpt lat="49.26498" lon="1.05323">
        <ele>34.26</ele>
        <time>2015-07-17T12:21:13Z</time>
      </trkpt>
      <trkpt lat="49.26498" lon="1.05316">
        <ele>34.26</ele>
        <time>2015-07-17T12:21:14Z</time>
      </trkpt>
      <trkpt lat="49.26498" lon="1.05309">
        <ele>34.26</ele>
        <time>2015-07-17T12:21:15Z</time>
      </trkpt>
      <trkpt lat="49.26498" lon="1.05301">
        <ele>34.26</ele>
        <time>2015-07-17T12:21:16Z</time>
      </trkpt>
      <trkpt lat="49.265" lon="1.05213">
        <ele>36.67</ele>
        <time>2015-07-17T12:21:29Z</time>
      </trkpt>
      <trkpt lat="49.26495" lon="1.05185">
        <ele>39.55</ele>
        <time>2015-07-17T12:21:37Z</time>
      </trkpt>
      <trkpt lat="49.26497" lon="1.05182">
        <ele>39.55</ele>
        <time>2015-07-17T12:21:38Z</time>
      </trkpt>
      <trkpt lat="49.265" lon="1.05178">
        <ele>39.55</ele>
        <time>2015-07-17T12:21:39Z</time>
      </trkpt>
      <trkpt lat="49.26503" lon="1.05176">
        <ele>39.55</ele>
        <time>2015-07-17T12:21:40Z</time>
      </trkpt>
      <trkpt lat="49.26507" lon="1.05173">
        <ele>40.03</ele>
        <time>2015-07-17T12:21:41Z</time>
      </trkpt>
      <trkpt lat="49.2651" lon="1.05169">
        <ele>40.03</ele>
        <time>2015-07-17T12:21:42Z</time>
      </trkpt>
      <trkpt lat="49.26512" lon="1.05165">
        <ele>40.51</ele>
        <time>2015-07-17T12:21:43Z</time>
      </trkpt>
      <trkpt lat="49.26517" lon="1.05156">
        <ele>40.03</ele>
        <time>2015-07-17T12:21:45Z</time>
      </trkpt>
      <trkpt lat="49.26521" lon="1.05151">
        <ele>40.03</ele>
        <time>2015-07-17T12:21:46Z</time>
      </trkpt>
      <trkpt lat="49.26547" lon="1.05126">
        <ele>38.59</ele>
        <time>2015-07-17T12:21:52Z</time>
      </trkpt>
      <trkpt lat="49.2655" lon="1.0512">
        <ele>38.59</ele>
        <time>2015-07-17T12:21:53Z</time>
      </trkpt>
      <trkpt lat="49.26553" lon="1.05113">
        <ele>38.59</ele>
        <time>2015-07-17T12:21:54Z</time>
      </trkpt>
      <trkpt lat="49.26556" lon="1.05105">
        <ele>38.59</ele>
        <time>2015-07-17T12:21:55Z</time>
      </trkpt>
      <trkpt lat="49.26558" lon="1.05097">
        <ele>38.11</ele>
        <time>2015-07-17T12:21:56Z</time>
      </trkpt>
      <trkpt lat="49.26585" lon="1.05012">
        <ele>35.23</ele>
        <time>2015-07-17T12:22:06Z</time>
      </trkpt>
      <trkpt lat="49.26591" lon="1.04994">
        <ele>34.26</ele>
        <time>2015-07-17T12:22:08Z</time>
      </trkpt>
      <trkpt lat="49.26595" lon="1.04987">
        <ele>33.78</ele>
        <time>2015-07-17T12:22:09Z</time>
      </trkpt>
      <trkpt lat="49.266" lon="1.04976">
        <ele>33.78</ele>
        <time>2015-07-17T12:22:11Z</time>
      </trkpt>
      <trkpt lat="49.26601" lon="1.04969">
        <ele>33.3</ele>
        <time>2015-07-17T12:22:12Z</time>
      </trkpt>
      <trkpt lat="49.266" lon="1.04961">
        <ele>32.82</ele>
        <time>2015-07-17T12:22:13Z</time>
      </trkpt>
      <trkpt lat="49.26597" lon="1.04953">
        <ele>32.34</ele>
        <time>2015-07-17T12:22:14Z</time>
      </trkpt>
      <trkpt lat="49.26593" lon="1.04944">
        <ele>31.86</ele>
        <time>2015-07-17T12:22:15Z</time>
      </trkpt>
      <trkpt lat="49.2659" lon="1.04935">
        <ele>31.38</ele>
        <time>2015-07-17T12:22:16Z</time>
      </trkpt>
      <trkpt lat="49.26582" lon="1.04918">
        <ele>29.94</ele>
        <time>2015-07-17T12:22:18Z</time>
      </trkpt>
      <trkpt lat="49.26577" lon="1.04912">
        <ele>30.42</ele>
        <time>2015-07-17T12:22:19Z</time>
      </trkpt>
      <trkpt lat="49.26571" lon="1.04906">
        <ele>30.42</ele>
        <time>2015-07-17T12:22:20Z</time>
      </trkpt>
      <trkpt lat="49.26565" lon="1.049">
        <ele>30.42</ele>
        <time>2015-07-17T12:22:21Z</time>
      </trkpt>
      <trkpt lat="49.26558" lon="1.04896">
        <ele>29.94</ele>
        <time>2015-07-17T12:22:22Z</time>
      </trkpt>
      <trkpt lat="49.2648" lon="1.04819">
        <ele>29.46</ele>
        <time>2015-07-17T12:22:36Z</time>
      </trkpt>
      <trkpt lat="49.26408" lon="1.04762">
        <ele>29.46</ele>
        <time>2015-07-17T12:22:50Z</time>
      </trkpt>
      <trkpt lat="49.26334" lon="1.0467">
        <ele>29.46</ele>
        <time>2015-07-17T12:23:10Z</time>
      </trkpt>
      <trkpt lat="49.26333" lon="1.04668">
        <ele>29.46</ele>
        <time>2015-07-17T12:23:11Z</time>
      </trkpt>
      <trkpt lat="49.26334" lon="1.04666">
        <ele>29.46</ele>
        <time>2015-07-17T12:23:12Z</time>
      </trkpt>
      <trkpt lat="49.26335" lon="1.04663">
        <ele>29.46</ele>
        <time>2015-07-17T12:23:13Z</time>
      </trkpt>
      <trkpt lat="49.26337" lon="1.0466">
        <ele>28.98</ele>
        <time>2015-07-17T12:23:14Z</time>
      </trkpt>
      <trkpt lat="49.26339" lon="1.04656">
        <ele>28.98</ele>
        <time>2015-07-17T12:23:15Z</time>
      </trkpt>
      <trkpt lat="49.26341" lon="1.04653">
        <ele>28.5</ele>
        <time>2015-07-17T12:23:16Z</time>
      </trkpt>
      <trkpt lat="49.26379" lon="1.04582">
        <ele>29.46</ele>
        <time>2015-07-17T12:23:31Z</time>
      </trkpt>
      <trkpt lat="49.26384" lon="1.04575">
        <ele>29.94</ele>
        <time>2015-07-17T12:23:33Z</time>
      </trkpt>
      <trkpt lat="49.26388" lon="1.04572">
        <ele>30.9</ele>
        <time>2015-07-17T12:23:35Z</time>
      </trkpt>
      <trkpt lat="49.264" lon="1.04581">
        <ele>33.3</ele>
        <time>2015-07-17T12:23:44Z</time>
      </trkpt>
      <trkpt lat="49.2641" lon="1.04573">
        <ele>35.23</ele>
        <time>2015-07-17T12:23:52Z</time>
      </trkpt>
      <trkpt lat="49.26421" lon="1.04562">
        <ele>38.11</ele>
        <time>2015-07-17T12:24:04Z</time>
      </trkpt>
      <trkpt lat="49.26422" lon="1.04562">
        <ele>40.51</ele>
        <time>2015-07-17T12:24:09Z</time>
      </trkpt>
      <trkpt lat="49.26449" lon="1.04548">
        <ele>43.4</ele>
        <time>2015-07-17T12:24:17Z</time>
      </trkpt>
      <trkpt lat="49.26452" lon="1.04547">
        <ele>43.88</ele>
        <time>2015-07-17T12:24:18Z</time>
      </trkpt>
      <trkpt lat="49.26468" lon="1.04539">
        <ele>47.72</ele>
        <time>2015-07-17T12:24:25Z</time>
      </trkpt>
      <trkpt lat="49.2647" lon="1.04537">
        <ele>48.2</ele>
        <time>2015-07-17T12:24:27Z</time>
      </trkpt>
      <trkpt lat="49.26474" lon="1.04535">
        <ele>48.2</ele>
        <time>2015-07-17T12:24:29Z</time>
      </trkpt>
      <trkpt lat="49.26487" lon="1.04534">
        <ele>48.2</ele>
        <time>2015-07-17T12:24:43Z</time>
      </trkpt>
      <trkpt lat="49.2649" lon="1.04534">
        <ele>47.72</ele>
        <time>2015-07-17T12:25:06Z</time>
      </trkpt>
      <trkpt lat="49.26491" lon="1.04534">
        <ele>47.72</ele>
        <time>2015-07-17T12:25:29Z</time>
      </trkpt>
      <trkpt lat="49.26495" lon="1.0453">
        <ele>47.72</ele>
        <time>2015-07-17T12:25:59Z</time>
      </trkpt>
      <trkpt lat="49.26495" lon="1.04532">
        <ele>47.72</ele>
        <time>2015-07-17T12:26:31Z</time>
      </trkpt>
      <trkpt lat="49.26495" lon="1.0453">
        <ele>47.72</ele>
        <time>2015-07-17T12:27:01Z</time>
      </trkpt>
      <trkpt lat="49.26497" lon="1.04531">
        <ele>47.72</ele>
        <time>2015-07-17T12:27:29Z</time>
      </trkpt>
      <trkpt lat="49.26498" lon="1.04532">
        <ele>47.72</ele>
        <time>2015-07-17T12:27:53Z</time>
      </trkpt>
      <trkpt lat="49.26498" lon="1.04532">
        <ele>47.72</ele>
        <time>2015-07-17T12:28:21Z</time>
      </trkpt>
      <trkpt lat="49.26498" lon="1.04532">
        <ele>47.72</ele>
        <time>2015-07-17T12:28:53Z</time>
      </trkpt>
      <trkpt lat="49.26497" lon="1.04533">
        <ele>47.72</ele>
        <time>2015-07-17T12:29:19Z</time>
      </trkpt>
      <trkpt lat="49.26496" lon="1.04533">
        <ele>47.72</ele>
        <time>2015-07-17T12:29:20Z</time>
      </trkpt>
      <trkpt lat="49.26496" lon="1.04534">
        <ele>47.72</ele>
        <time>2015-07-17T12:29:22Z</time>
      </trkpt>
      <trkpt lat="49.26487" lon="1.04531">
        <ele>47.72</ele>
        <time>2015-07-17T12:29:28Z</time>
      </trkpt>
      <trkpt lat="49.26485" lon="1.04523">
        <ele>51.57</ele>
        <time>2015-07-17T12:29:33Z</time>
      </trkpt>
      <trkpt lat="49.26485" lon="1.04521">
        <ele>51.57</ele>
        <time>2015-07-17T12:29:34Z</time>
      </trkpt>
      <trkpt lat="49.26487" lon="1.04506">
        <ele>55.41</ele>
        <time>2015-07-17T12:29:41Z</time>
      </trkpt>
      <trkpt lat="49.26491" lon="1.04489">
        <ele>58.3</ele>
        <time>2015-07-17T12:29:52Z</time>
      </trkpt>
      <trkpt lat="49.26492" lon="1.04479">
        <ele>60.7</ele>
        <time>2015-07-17T12:29:59Z</time>
      </trkpt>
      <trkpt lat="49.26486" lon="1.04464">
        <ele>63.1</ele>
        <time>2015-07-17T12:30:12Z</time>
      </trkpt>
      <trkpt lat="49.26484" lon="1.04449">
        <ele>65.51</ele>
        <time>2015-07-17T12:30:25Z</time>
      </trkpt>
      <trkpt lat="49.2648" lon="1.04426">
        <ele>67.91</ele>
        <time>2015-07-17T12:30:37Z</time>
      </trkpt>
      <trkpt lat="49.26485" lon="1.04419">
        <ele>67.91</ele>
        <time>2015-07-17T12:30:55Z</time>
      </trkpt>
      <trkpt lat="49.26487" lon="1.04417">
        <ele>67.91</ele>
        <time>2015-07-17T12:31:06Z</time>
      </trkpt>
      <trkpt lat="49.26487" lon="1.04403">
        <ele>68.87</ele>
        <time>2015-07-17T12:31:13Z</time>
      </trkpt>
      <trkpt lat="49.26485" lon="1.04383">
        <ele>70.31</ele>
        <time>2015-07-17T12:31:21Z</time>
      </trkpt>
      <trkpt lat="49.26492" lon="1.0435">
        <ele>72.72</ele>
        <time>2015-07-17T12:31:32Z</time>
      </trkpt>
      <trkpt lat="49.26491" lon="1.04335">
        <ele>73.2</ele>
        <time>2015-07-17T12:31:36Z</time>
      </trkpt>
      <trkpt lat="49.26489" lon="1.04307">
        <ele>76.08</ele>
        <time>2015-07-17T12:31:46Z</time>
      </trkpt>
      <trkpt lat="49.26493" lon="1.04294">
        <ele>77.04</ele>
        <time>2015-07-17T12:31:50Z</time>
      </trkpt>
      <trkpt lat="49.26519" lon="1.04251">
        <ele>78.48</ele>
        <time>2015-07-17T12:32:01Z</time>
      </trkpt>
      <trkpt lat="49.26528" lon="1.04216">
        <ele>78.97</ele>
        <time>2015-07-17T12:32:08Z</time>
      </trkpt>
      <trkpt lat="49.26528" lon="1.0419">
        <ele>79.93</ele>
        <time>2015-07-17T12:32:13Z</time>
      </trkpt>
      <trkpt lat="49.26523" lon="1.04131">
        <ele>81.37</ele>
        <time>2015-07-17T12:32:24Z</time>
      </trkpt>
      <trkpt lat="49.26512" lon="1.04078">
        <ele>83.77</ele>
        <time>2015-07-17T12:32:34Z</time>
      </trkpt>
      <trkpt lat="49.2651" lon="1.04035">
        <ele>85.69</ele>
        <time>2015-07-17T12:32:44Z</time>
      </trkpt>
      <trkpt lat="49.2651" lon="1.04015">
        <ele>86.66</ele>
        <time>2015-07-17T12:32:48Z</time>
      </trkpt>
      <trkpt lat="49.2651" lon="1.03967">
        <ele>89.06</ele>
        <time>2015-07-17T12:32:59Z</time>
      </trkpt>
      <trkpt lat="49.26505" lon="1.03927">
        <ele>90.98</ele>
        <time>2015-07-17T12:33:07Z</time>
      </trkpt>
      <trkpt lat="49.26506" lon="1.03909">
        <ele>91.46</ele>
        <time>2015-07-17T12:33:11Z</time>
      </trkpt>
      <trkpt lat="49.26499" lon="1.0387">
        <ele>93.87</ele>
        <time>2015-07-17T12:33:20Z</time>
      </trkpt>
      <trkpt lat="49.26464" lon="1.03828">
        <ele>96.75</ele>
        <time>2015-07-17T12:33:32Z</time>
      </trkpt>
      <trkpt lat="49.26457" lon="1.03815">
        <ele>97.71</ele>
        <time>2015-07-17T12:33:36Z</time>
      </trkpt>
      <trkpt lat="49.26445" lon="1.03781">
        <ele>100.11</ele>
        <time>2015-07-17T12:33:45Z</time>
      </trkpt>
      <trkpt lat="49.2644" lon="1.03725">
        <ele>102.52</ele>
        <time>2015-07-17T12:33:56Z</time>
      </trkpt>
      <trkpt lat="49.26429" lon="1.03678">
        <ele>104.92</ele>
        <time>2015-07-17T12:34:07Z</time>
      </trkpt>
      <trkpt lat="49.26421" lon="1.0366">
        <ele>105.88</ele>
        <time>2015-07-17T12:34:12Z</time>
      </trkpt>
      <trkpt lat="49.2641" lon="1.03635">
        <ele>106.36</ele>
        <time>2015-07-17T12:34:19Z</time>
      </trkpt>
      <trkpt lat="49.26388" lon="1.03575">
        <ele>107.32</ele>
        <time>2015-07-17T12:34:31Z</time>
      </trkpt>
      <trkpt lat="49.2638" lon="1.03513">
        <ele>109.25</ele>
        <time>2015-07-17T12:34:42Z</time>
      </trkpt>
      <trkpt lat="49.26383" lon="1.035">
        <ele>109.73</ele>
        <time>2015-07-17T12:34:45Z</time>
      </trkpt>
      <trkpt lat="49.26392" lon="1.03446">
        <ele>112.13</ele>
        <time>2015-07-17T12:34:57Z</time>
      </trkpt>
      <trkpt lat="49.26401" lon="1.03389">
        <ele>113.09</ele>
        <time>2015-07-17T12:35:07Z</time>
      </trkpt>
      <trkpt lat="49.264" lon="1.03324">
        <ele>115.01</ele>
        <time>2015-07-17T12:35:17Z</time>
      </trkpt>
      <trkpt lat="49.26399" lon="1.03312">
        <ele>115.01</ele>
        <time>2015-07-17T12:35:19Z</time>
      </trkpt>
      <trkpt lat="49.2639" lon="1.03276">
        <ele>115.01</ele>
        <time>2015-07-17T12:35:23Z</time>
      </trkpt>
      <trkpt lat="49.26386" lon="1.03266">
        <ele>115.01</ele>
        <time>2015-07-17T12:35:24Z</time>
      </trkpt>
      <trkpt lat="49.26382" lon="1.03253">
        <ele>115.01</ele>
        <time>2015-07-17T12:35:25Z</time>
      </trkpt>
      <trkpt lat="49.26373" lon="1.03224">
        <ele>115.5</ele>
        <time>2015-07-17T12:35:27Z</time>
      </trkpt>
      <trkpt lat="49.26361" lon="1.03161">
        <ele>115.98</ele>
        <time>2015-07-17T12:35:35Z</time>
      </trkpt>
      <trkpt lat="49.26359" lon="1.03153">
        <ele>115.98</ele>
        <time>2015-07-17T12:35:36Z</time>
      </trkpt>
      <trkpt lat="49.26357" lon="1.03146">
        <ele>115.98</ele>
        <time>2015-07-17T12:35:37Z</time>
      </trkpt>
      <trkpt lat="49.26355" lon="1.0314">
        <ele>115.98</ele>
        <time>2015-07-17T12:35:38Z</time>
      </trkpt>
      <trkpt lat="49.26353" lon="1.03133">
        <ele>115.98</ele>
        <time>2015-07-17T12:35:39Z</time>
      </trkpt>
      <trkpt lat="49.26352" lon="1.03126">
        <ele>115.98</ele>
        <time>2015-07-17T12:35:40Z</time>
      </trkpt>
      <trkpt lat="49.26342" lon="1.03087">
        <ele>115.5</ele>
        <time>2015-07-17T12:35:46Z</time>
      </trkpt>
      <trkpt lat="49.2634" lon="1.0308">
        <ele>115.5</ele>
        <time>2015-07-17T12:35:47Z</time>
      </trkpt>
      <trkpt lat="49.26339" lon="1.03074">
        <ele>115.5</ele>
        <time>2015-07-17T12:35:48Z</time>
      </trkpt>
      <trkpt lat="49.26338" lon="1.03068">
        <ele>115.5</ele>
        <time>2015-07-17T12:35:49Z</time>
      </trkpt>
      <trkpt lat="49.26337" lon="1.03062">
        <ele>115.5</ele>
        <time>2015-07-17T12:35:50Z</time>
      </trkpt>
      <trkpt lat="49.26336" lon="1.03055">
        <ele>115.01</ele>
        <time>2015-07-17T12:35:51Z</time>
      </trkpt>
      <trkpt lat="49.26336" lon="1.03049">
        <ele>115.01</ele>
        <time>2015-07-17T12:35:52Z</time>
      </trkpt>
      <trkpt lat="49.26336" lon="1.03042">
        <ele>115.01</ele>
        <time>2015-07-17T12:35:53Z</time>
      </trkpt>
      <trkpt lat="49.26329" lon="1.02989">
        <ele>116.94</ele>
        <time>2015-07-17T12:36:03Z</time>
      </trkpt>
      <trkpt lat="49.26325" lon="1.02977">
        <ele>117.9</ele>
        <time>2015-07-17T12:36:06Z</time>
      </trkpt>
      <trkpt lat="49.26324" lon="1.02973">
        <ele>118.38</ele>
        <time>2015-07-17T12:36:07Z</time>
      </trkpt>
      <trkpt lat="49.26322" lon="1.02967">
        <ele>118.38</ele>
        <time>2015-07-17T12:36:08Z</time>
      </trkpt>
      <trkpt lat="49.26321" lon="1.02963">
        <ele>118.38</ele>
        <time>2015-07-17T12:36:09Z</time>
      </trkpt>
      <trkpt lat="49.26321" lon="1.02958">
        <ele>118.38</ele>
        <time>2015-07-17T12:36:10Z</time>
      </trkpt>
      <trkpt lat="49.2632" lon="1.02954">
        <ele>118.86</ele>
        <time>2015-07-17T12:36:11Z</time>
      </trkpt>
      <trkpt lat="49.2632" lon="1.0295">
        <ele>118.86</ele>
        <time>2015-07-17T12:36:12Z</time>
      </trkpt>
      <trkpt lat="49.26319" lon="1.02945">
        <ele>118.86</ele>
        <time>2015-07-17T12:36:13Z</time>
      </trkpt>
      <trkpt lat="49.26319" lon="1.0294">
        <ele>119.34</ele>
        <time>2015-07-17T12:36:14Z</time>
      </trkpt>
      <trkpt lat="49.26319" lon="1.02935">
        <ele>119.34</ele>
        <time>2015-07-17T12:36:15Z</time>
      </trkpt>
      <trkpt lat="49.26319" lon="1.02929">
        <ele>119.34</ele>
        <time>2015-07-17T12:36:16Z</time>
      </trkpt>
      <trkpt lat="49.26312" lon="1.02866">
        <ele>120.78</ele>
        <time>2015-07-17T12:36:27Z</time>
      </trkpt>
      <trkpt lat="49.26311" lon="1.02861">
        <ele>120.78</ele>
        <time>2015-07-17T12:36:28Z</time>
      </trkpt>
      <trkpt lat="49.26311" lon="1.02857">
        <ele>120.78</ele>
        <time>2015-07-17T12:36:29Z</time>
      </trkpt>
      <trkpt lat="49.26305" lon="1.02812">
        <ele>120.78</ele>
        <time>2015-07-17T12:36:38Z</time>
      </trkpt>
      <trkpt lat="49.263" lon="1.02769">
        <ele>121.74</ele>
        <time>2015-07-17T12:36:49Z</time>
      </trkpt>
      <trkpt lat="49.263" lon="1.02739">
        <ele>122.71</ele>
        <time>2015-07-17T12:36:57Z</time>
      </trkpt>
      <trkpt lat="49.263" lon="1.02699">
        <ele>122.22</ele>
        <time>2015-07-17T12:37:08Z</time>
      </trkpt>
      <trkpt lat="49.26302" lon="1.02673">
        <ele>122.22</ele>
        <time>2015-07-17T12:37:16Z</time>
      </trkpt>
      <trkpt lat="49.26302" lon="1.02669">
        <ele>122.22</ele>
        <time>2015-07-17T12:37:17Z</time>
      </trkpt>
      <trkpt lat="49.26302" lon="1.02666">
        <ele>122.22</ele>
        <time>2015-07-17T12:37:18Z</time>
      </trkpt>
      <trkpt lat="49.26303" lon="1.02663">
        <ele>122.22</ele>
        <time>2015-07-17T12:37:19Z</time>
      </trkpt>
      <trkpt lat="49.26303" lon="1.02658">
        <ele>121.74</ele>
        <time>2015-07-17T12:37:20Z</time>
      </trkpt>
      <trkpt lat="49.26299" lon="1.02594">
        <ele>122.22</ele>
        <time>2015-07-17T12:37:32Z</time>
      </trkpt>
      <trkpt lat="49.26301" lon="1.02578">
        <ele>122.22</ele>
        <time>2015-07-17T12:37:36Z</time>
      </trkpt>
      <trkpt lat="49.26302" lon="1.02575">
        <ele>122.71</ele>
        <time>2015-07-17T12:37:37Z</time>
      </trkpt>
      <trkpt lat="49.26302" lon="1.02571">
        <ele>122.71</ele>
        <time>2015-07-17T12:37:38Z</time>
      </trkpt>
      <trkpt lat="49.26302" lon="1.02567">
        <ele>122.71</ele>
        <time>2015-07-17T12:37:39Z</time>
      </trkpt>
      <trkpt lat="49.26301" lon="1.02563">
        <ele>122.71</ele>
        <time>2015-07-17T12:37:40Z</time>
      </trkpt>
      <trkpt lat="49.26299" lon="1.02557">
        <ele>123.19</ele>
        <time>2015-07-17T12:37:41Z</time>
      </trkpt>
      <trkpt lat="49.26298" lon="1.02553">
        <ele>123.19</ele>
        <time>2015-07-17T12:37:42Z</time>
      </trkpt>
      <trkpt lat="49.26297" lon="1.02549">
        <ele>123.67</ele>
        <time>2015-07-17T12:37:43Z</time>
      </trkpt>
      <trkpt lat="49.26293" lon="1.02535">
        <ele>124.15</ele>
        <time>2015-07-17T12:37:44Z</time>
      </trkpt>
      <trkpt lat="49.26293" lon="1.02531">
        <ele>124.15</ele>
        <time>2015-07-17T12:37:45Z</time>
      </trkpt>
      <trkpt lat="49.26293" lon="1.02526">
        <ele>124.63</ele>
        <time>2015-07-17T12:37:46Z</time>
      </trkpt>
      <trkpt lat="49.2629" lon="1.02514">
        <ele>124.63</ele>
        <time>2015-07-17T12:37:47Z</time>
      </trkpt>
      <trkpt lat="49.26289" lon="1.02509">
        <ele>125.11</ele>
        <time>2015-07-17T12:37:48Z</time>
      </trkpt>
      <trkpt lat="49.26287" lon="1.02505">
        <ele>125.11</ele>
        <time>2015-07-17T12:37:49Z</time>
      </trkpt>
      <trkpt lat="49.26282" lon="1.02467">
        <ele>128.47</ele>
        <time>2015-07-17T12:37:59Z</time>
      </trkpt>
      <trkpt lat="49.26264" lon="1.02397">
        <ele>129.92</ele>
        <time>2015-07-17T12:38:10Z</time>
      </trkpt>
      <trkpt lat="49.2626" lon="1.02344">
        <ele>130.4</ele>
        <time>2015-07-17T12:38:20Z</time>
      </trkpt>
      <trkpt lat="49.2626" lon="1.02338">
        <ele>130.4</ele>
        <time>2015-07-17T12:38:21Z</time>
      </trkpt>
      <trkpt lat="49.26258" lon="1.02334">
        <ele>130.88</ele>
        <time>2015-07-17T12:38:22Z</time>
      </trkpt>
      <trkpt lat="49.26244" lon="1.02295">
        <ele>131.84</ele>
        <time>2015-07-17T12:38:31Z</time>
      </trkpt>
      <trkpt lat="49.26242" lon="1.02282">
        <ele>132.8</ele>
        <time>2015-07-17T12:38:41Z</time>
      </trkpt>
      <trkpt lat="49.26241" lon="1.02278">
        <ele>133.76</ele>
        <time>2015-07-17T12:38:42Z</time>
      </trkpt>
      <trkpt lat="49.26234" lon="1.02234">
        <ele>133.76</ele>
        <time>2015-07-17T12:38:54Z</time>
      </trkpt>
      <trkpt lat="49.26233" lon="1.02228">
        <ele>133.76</ele>
        <time>2015-07-17T12:38:55Z</time>
      </trkpt>
      <trkpt lat="49.2623" lon="1.02223">
        <ele>133.76</ele>
        <time>2015-07-17T12:38:56Z</time>
      </trkpt>
      <trkpt lat="49.26228" lon="1.02218">
        <ele>134.72</ele>
        <time>2015-07-17T12:38:57Z</time>
      </trkpt>
      <trkpt lat="49.26227" lon="1.02213">
        <ele>133.76</ele>
        <time>2015-07-17T12:38:58Z</time>
      </trkpt>
      <trkpt lat="49.26227" lon="1.02209">
        <ele>133.76</ele>
        <time>2015-07-17T12:38:59Z</time>
      </trkpt>
      <trkpt lat="49.26227" lon="1.02205">
        <ele>134.24</ele>
        <time>2015-07-17T12:39:00Z</time>
      </trkpt>
      <trkpt lat="49.26228" lon="1.02202">
        <ele>133.76</ele>
        <time>2015-07-17T12:39:01Z</time>
      </trkpt>
      <trkpt lat="49.26228" lon="1.02198">
        <ele>133.76</ele>
        <time>2015-07-17T12:39:02Z</time>
      </trkpt>
      <trkpt lat="49.26228" lon="1.02193">
        <ele>134.24</ele>
        <time>2015-07-17T12:39:03Z</time>
      </trkpt>
      <trkpt lat="49.26228" lon="1.02189">
        <ele>134.24</ele>
        <time>2015-07-17T12:39:04Z</time>
      </trkpt>
      <trkpt lat="49.26228" lon="1.02184">
        <ele>134.24</ele>
        <time>2015-07-17T12:39:05Z</time>
      </trkpt>
      <trkpt lat="49.26228" lon="1.0218">
        <ele>134.24</ele>
        <time>2015-07-17T12:39:06Z</time>
      </trkpt>
      <trkpt lat="49.26228" lon="1.02174">
        <ele>134.72</ele>
        <time>2015-07-17T12:39:07Z</time>
      </trkpt>
      <trkpt lat="49.26228" lon="1.02168">
        <ele>134.72</ele>
        <time>2015-07-17T12:39:08Z</time>
      </trkpt>
      <trkpt lat="49.26226" lon="1.0214">
        <ele>135.2</ele>
        <time>2015-07-17T12:39:13Z</time>
      </trkpt>
      <trkpt lat="49.26209" lon="1.02067">
        <ele>136.64</ele>
        <time>2015-07-17T12:39:23Z</time>
      </trkpt>
      <trkpt lat="49.26196" lon="1.02015">
        <ele>136.64</ele>
        <time>2015-07-17T12:39:30Z</time>
      </trkpt>
      <trkpt lat="49.26195" lon="1.02007">
        <ele>136.64</ele>
        <time>2015-07-17T12:39:31Z</time>
      </trkpt>
      <trkpt lat="49.2619" lon="1.01969">
        <ele>137.61</ele>
        <time>2015-07-17T12:39:37Z</time>
      </trkpt>
      <trkpt lat="49.26179" lon="1.01941">
        <ele>137.61</ele>
        <time>2015-07-17T12:39:38Z</time>
      </trkpt>
      <trkpt lat="49.26175" lon="1.01928">
        <ele>137.61</ele>
        <time>2015-07-17T12:39:39Z</time>
      </trkpt>
      <trkpt lat="49.26169" lon="1.01906">
        <ele>138.09</ele>
        <time>2015-07-17T12:39:41Z</time>
      </trkpt>
      <trkpt lat="49.26166" lon="1.01897">
        <ele>138.09</ele>
        <time>2015-07-17T12:39:42Z</time>
      </trkpt>
      <trkpt lat="49.26163" lon="1.01888">
        <ele>137.61</ele>
        <time>2015-07-17T12:39:43Z</time>
      </trkpt>
      <trkpt lat="49.26152" lon="1.0185">
        <ele>137.61</ele>
        <time>2015-07-17T12:39:47Z</time>
      </trkpt>
      <trkpt lat="49.26148" lon="1.01838">
        <ele>138.09</ele>
        <time>2015-07-17T12:39:48Z</time>
      </trkpt>
      <trkpt lat="49.26144" lon="1.01826">
        <ele>138.09</ele>
        <time>2015-07-17T12:39:49Z</time>
      </trkpt>
      <trkpt lat="49.26126" lon="1.01747">
        <ele>139.05</ele>
        <time>2015-07-17T12:39:59Z</time>
      </trkpt>
      <trkpt lat="49.26122" lon="1.01726">
        <ele>139.05</ele>
        <time>2015-07-17T12:40:02Z</time>
      </trkpt>
      <trkpt lat="49.2612" lon="1.01718">
        <ele>139.05</ele>
        <time>2015-07-17T12:40:03Z</time>
      </trkpt>
      <trkpt lat="49.26119" lon="1.01712">
        <ele>139.05</ele>
        <time>2015-07-17T12:40:04Z</time>
      </trkpt>
      <trkpt lat="49.26118" lon="1.01704">
        <ele>139.05</ele>
        <time>2015-07-17T12:40:05Z</time>
      </trkpt>
      <trkpt lat="49.26117" lon="1.01698">
        <ele>139.05</ele>
        <time>2015-07-17T12:40:06Z</time>
      </trkpt>
      <trkpt lat="49.26116" lon="1.01691">
        <ele>139.53</ele>
        <time>2015-07-17T12:40:07Z</time>
      </trkpt>
      <trkpt lat="49.26112" lon="1.01669">
        <ele>139.05</ele>
        <time>2015-07-17T12:40:10Z</time>
      </trkpt>
      <trkpt lat="49.26111" lon="1.01662">
        <ele>139.05</ele>
        <time>2015-07-17T12:40:11Z</time>
      </trkpt>
      <trkpt lat="49.26109" lon="1.01655">
        <ele>139.53</ele>
        <time>2015-07-17T12:40:12Z</time>
      </trkpt>
      <trkpt lat="49.26107" lon="1.01648">
        <ele>139.53</ele>
        <time>2015-07-17T12:40:13Z</time>
      </trkpt>
      <trkpt lat="49.26106" lon="1.01641">
        <ele>139.53</ele>
        <time>2015-07-17T12:40:14Z</time>
      </trkpt>
      <trkpt lat="49.26105" lon="1.01635">
        <ele>139.53</ele>
        <time>2015-07-17T12:40:15Z</time>
      </trkpt>
      <trkpt lat="49.26104" lon="1.01628">
        <ele>139.53</ele>
        <time>2015-07-17T12:40:16Z</time>
      </trkpt>
      <trkpt lat="49.26102" lon="1.01621">
        <ele>139.53</ele>
        <time>2015-07-17T12:40:17Z</time>
      </trkpt>
      <trkpt lat="49.261" lon="1.01615">
        <ele>139.53</ele>
        <time>2015-07-17T12:40:18Z</time>
      </trkpt>
      <trkpt lat="49.26099" lon="1.01608">
        <ele>140.01</ele>
        <time>2015-07-17T12:40:19Z</time>
      </trkpt>
      <trkpt lat="49.26097" lon="1.01601">
        <ele>139.53</ele>
        <time>2015-07-17T12:40:20Z</time>
      </trkpt>
      <trkpt lat="49.26096" lon="1.01593">
        <ele>139.53</ele>
        <time>2015-07-17T12:40:21Z</time>
      </trkpt>
      <trkpt lat="49.26094" lon="1.01585">
        <ele>140.01</ele>
        <time>2015-07-17T12:40:22Z</time>
      </trkpt>
      <trkpt lat="49.26084" lon="1.01539">
        <ele>140.01</ele>
        <time>2015-07-17T12:40:28Z</time>
      </trkpt>
      <trkpt lat="49.26083" lon="1.01532">
        <ele>140.01</ele>
        <time>2015-07-17T12:40:29Z</time>
      </trkpt>
      <trkpt lat="49.26082" lon="1.01524">
        <ele>140.01</ele>
        <time>2015-07-17T12:40:30Z</time>
      </trkpt>
      <trkpt lat="49.2608" lon="1.01516">
        <ele>140.01</ele>
        <time>2015-07-17T12:40:31Z</time>
      </trkpt>
      <trkpt lat="49.26078" lon="1.01508">
        <ele>140.01</ele>
        <time>2015-07-17T12:40:32Z</time>
      </trkpt>
      <trkpt lat="49.2607" lon="1.01461">
        <ele>140.49</ele>
        <time>2015-07-17T12:40:39Z</time>
      </trkpt>
      <trkpt lat="49.26069" lon="1.01455">
        <ele>140.49</ele>
        <time>2015-07-17T12:40:40Z</time>
      </trkpt>
      <trkpt lat="49.26057" lon="1.01379">
        <ele>140.97</ele>
        <time>2015-07-17T12:40:50Z</time>
      </trkpt>
      <trkpt lat="49.26047" lon="1.01316">
        <ele>141.45</ele>
        <time>2015-07-17T12:40:58Z</time>
      </trkpt>
      <trkpt lat="49.26046" lon="1.01301">
        <ele>141.45</ele>
        <time>2015-07-17T12:41:00Z</time>
      </trkpt>
      <trkpt lat="49.26034" lon="1.01234">
        <ele>142.41</ele>
        <time>2015-07-17T12:41:09Z</time>
      </trkpt>
      <trkpt lat="49.26029" lon="1.01204">
        <ele>142.89</ele>
        <time>2015-07-17T12:41:13Z</time>
      </trkpt>
      <trkpt lat="49.26027" lon="1.01196">
        <ele>142.89</ele>
        <time>2015-07-17T12:41:14Z</time>
      </trkpt>
      <trkpt lat="49.26025" lon="1.01188">
        <ele>143.37</ele>
        <time>2015-07-17T12:41:15Z</time>
      </trkpt>
      <trkpt lat="49.26023" lon="1.0118">
        <ele>142.89</ele>
        <time>2015-07-17T12:41:16Z</time>
      </trkpt>
      <trkpt lat="49.26022" lon="1.01173">
        <ele>143.37</ele>
        <time>2015-07-17T12:41:17Z</time>
      </trkpt>
      <trkpt lat="49.26012" lon="1.01111">
        <ele>143.85</ele>
        <time>2015-07-17T12:41:26Z</time>
      </trkpt>
      <trkpt lat="49.26004" lon="1.01054">
        <ele>144.82</ele>
        <time>2015-07-17T12:41:36Z</time>
      </trkpt>
      <trkpt lat="49.26002" lon="1.01041">
        <ele>145.78</ele>
        <time>2015-07-17T12:41:55Z</time>
      </trkpt>
      <trkpt lat="49.25996" lon="1.01023">
        <ele>147.22</ele>
        <time>2015-07-17T12:42:21Z</time>
      </trkpt>
      <trkpt lat="49.26" lon="1.01019">
        <ele>148.18</ele>
        <time>2015-07-17T12:42:42Z</time>
      </trkpt>
      <trkpt lat="49.25998" lon="1.01012">
        <ele>148.18</ele>
        <time>2015-07-17T12:43:04Z</time>
      </trkpt>
      <trkpt lat="49.25999" lon="1.0101">
        <ele>148.18</ele>
        <time>2015-07-17T12:43:05Z</time>
      </trkpt>
      <trkpt lat="49.26" lon="1.01007">
        <ele>148.66</ele>
        <time>2015-07-17T12:43:07Z</time>
      </trkpt>
      <trkpt lat="49.26002" lon="1.01006">
        <ele>148.66</ele>
        <time>2015-07-17T12:43:08Z</time>
      </trkpt>
      <trkpt lat="49.26004" lon="1.01006">
        <ele>149.14</ele>
        <time>2015-07-17T12:43:09Z</time>
      </trkpt>
      <trkpt lat="49.26007" lon="1.01007">
        <ele>149.14</ele>
        <time>2015-07-17T12:43:10Z</time>
      </trkpt>
      <trkpt lat="49.2601" lon="1.01008">
        <ele>149.14</ele>
        <time>2015-07-17T12:43:11Z</time>
      </trkpt>
      <trkpt lat="49.26012" lon="1.01009">
        <ele>149.62</ele>
        <time>2015-07-17T12:43:12Z</time>
      </trkpt>
      <trkpt lat="49.26015" lon="1.0101">
        <ele>149.62</ele>
        <time>2015-07-17T12:43:13Z</time>
      </trkpt>
      <trkpt lat="49.26047" lon="1.01017">
        <ele>150.58</ele>
        <time>2015-07-17T12:43:22Z</time>
      </trkpt>
      <trkpt lat="49.26092" lon="1.01031">
        <ele>151.54</ele>
        <time>2015-07-17T12:43:33Z</time>
      </trkpt>
      <trkpt lat="49.26106" lon="1.01034">
        <ele>151.54</ele>
        <time>2015-07-17T12:43:36Z</time>
      </trkpt>
      <trkpt lat="49.2611" lon="1.01036">
        <ele>151.54</ele>
        <time>2015-07-17T12:43:37Z</time>
      </trkpt>
      <trkpt lat="49.26149" lon="1.01047">
        <ele>152.51</ele>
        <time>2015-07-17T12:43:47Z</time>
      </trkpt>
      <trkpt lat="49.26173" lon="1.0105">
        <ele>152.99</ele>
        <time>2015-07-17T12:43:53Z</time>
      </trkpt>
      <trkpt lat="49.26215" lon="1.01044">
        <ele>153.95</ele>
        <time>2015-07-17T12:44:03Z</time>
      </trkpt>
      <trkpt lat="49.26266" lon="1.01061">
        <ele>154.43</ele>
        <time>2015-07-17T12:44:15Z</time>
      </trkpt>
      <trkpt lat="49.26327" lon="1.01064">
        <ele>153.95</ele>
        <time>2015-07-17T12:44:27Z</time>
      </trkpt>
      <trkpt lat="49.2635" lon="1.0105">
        <ele>153.95</ele>
        <time>2015-07-17T12:44:34Z</time>
      </trkpt>
      <trkpt lat="49.26352" lon="1.01048">
        <ele>153.95</ele>
        <time>2015-07-17T12:44:35Z</time>
      </trkpt>
      <trkpt lat="49.26354" lon="1.01046">
        <ele>153.47</ele>
        <time>2015-07-17T12:44:36Z</time>
      </trkpt>
      <trkpt lat="49.2636" lon="1.01044">
        <ele>153.47</ele>
        <time>2015-07-17T12:44:39Z</time>
      </trkpt>
      <trkpt lat="49.26363" lon="1.01042">
        <ele>153.47</ele>
        <time>2015-07-17T12:44:40Z</time>
      </trkpt>
      <trkpt lat="49.26365" lon="1.0104">
        <ele>153.47</ele>
        <time>2015-07-17T12:44:41Z</time>
      </trkpt>
      <trkpt lat="49.26368" lon="1.01037">
        <ele>153.47</ele>
        <time>2015-07-17T12:44:42Z</time>
      </trkpt>
      <trkpt lat="49.2637" lon="1.01035">
        <ele>152.99</ele>
        <time>2015-07-17T12:44:43Z</time>
      </trkpt>
      <trkpt lat="49.26382" lon="1.01029">
        <ele>152.99</ele>
        <time>2015-07-17T12:44:45Z</time>
      </trkpt>
      <trkpt lat="49.26391" lon="1.01022">
        <ele>152.99</ele>
        <time>2015-07-17T12:44:47Z</time>
      </trkpt>
      <trkpt lat="49.26419" lon="1.01015">
        <ele>152.99</ele>
        <time>2015-07-17T12:44:50Z</time>
      </trkpt>
      <trkpt lat="49.26429" lon="1.01012">
        <ele>152.51</ele>
        <time>2015-07-17T12:44:51Z</time>
      </trkpt>
      <trkpt lat="49.26438" lon="1.0101">
        <ele>152.99</ele>
        <time>2015-07-17T12:44:52Z</time>
      </trkpt>
      <trkpt lat="49.26449" lon="1.0101">
        <ele>152.99</ele>
        <time>2015-07-17T12:44:53Z</time>
      </trkpt>
      <trkpt lat="49.26459" lon="1.01009">
        <ele>152.51</ele>
        <time>2015-07-17T12:44:54Z</time>
      </trkpt>
      <trkpt lat="49.26471" lon="1.01009">
        <ele>152.51</ele>
        <time>2015-07-17T12:44:55Z</time>
      </trkpt>
      <trkpt lat="49.2652" lon="1.01006">
        <ele>152.51</ele>
        <time>2015-07-17T12:45:01Z</time>
      </trkpt>
      <trkpt lat="49.26527" lon="1.01005">
        <ele>152.51</ele>
        <time>2015-07-17T12:45:02Z</time>
      </trkpt>
      <trkpt lat="49.26584" lon="1.00986">
        <ele>151.54</ele>
        <time>2015-07-17T12:45:12Z</time>
      </trkpt>
      <trkpt lat="49.26635" lon="1.00966">
        <ele>149.14</ele>
        <time>2015-07-17T12:45:19Z</time>
      </trkpt>
      <trkpt lat="49.26648" lon="1.00935">
        <ele>149.14</ele>
        <time>2015-07-17T12:45:26Z</time>
      </trkpt>
      <trkpt lat="49.26651" lon="1.00932">
        <ele>149.14</ele>
        <time>2015-07-17T12:45:27Z</time>
      </trkpt>
      <trkpt lat="49.26653" lon="1.0093">
        <ele>149.62</ele>
        <time>2015-07-17T12:45:28Z</time>
      </trkpt>
      <trkpt lat="49.26663" lon="1.00919">
        <ele>150.1</ele>
        <time>2015-07-17T12:45:37Z</time>
      </trkpt>
      <trkpt lat="49.26667" lon="1.0091">
        <ele>150.1</ele>
        <time>2015-07-17T12:45:50Z</time>
      </trkpt>
      <trkpt lat="49.26668" lon="1.00908">
        <ele>150.58</ele>
        <time>2015-07-17T12:45:51Z</time>
      </trkpt>
      <trkpt lat="49.26669" lon="1.00906">
        <ele>150.58</ele>
        <time>2015-07-17T12:45:52Z</time>
      </trkpt>
      <trkpt lat="49.2667" lon="1.00903">
        <ele>150.58</ele>
        <time>2015-07-17T12:45:53Z</time>
      </trkpt>
      <trkpt lat="49.26672" lon="1.00899">
        <ele>150.58</ele>
        <time>2015-07-17T12:45:54Z</time>
      </trkpt>
      <trkpt lat="49.26674" lon="1.00896">
        <ele>150.58</ele>
        <time>2015-07-17T12:45:55Z</time>
      </trkpt>
      <trkpt lat="49.26676" lon="1.00893">
        <ele>151.06</ele>
        <time>2015-07-17T12:45:56Z</time>
      </trkpt>
      <trkpt lat="49.26678" lon="1.00889">
        <ele>151.06</ele>
        <time>2015-07-17T12:45:57Z</time>
      </trkpt>
      <trkpt lat="49.2668" lon="1.00885">
        <ele>151.06</ele>
        <time>2015-07-17T12:45:58Z</time>
      </trkpt>
      <trkpt lat="49.26682" lon="1.00881">
        <ele>151.06</ele>
        <time>2015-07-17T12:45:59Z</time>
      </trkpt>
      <trkpt lat="49.26683" lon="1.00877">
        <ele>151.06</ele>
        <time>2015-07-17T12:46:00Z</time>
      </trkpt>
      <trkpt lat="49.26696" lon="1.00851">
        <ele>151.06</ele>
        <time>2015-07-17T12:46:06Z</time>
      </trkpt>
      <trkpt lat="49.26699" lon="1.00846">
        <ele>151.06</ele>
        <time>2015-07-17T12:46:07Z</time>
      </trkpt>
      <trkpt lat="49.26701" lon="1.00841">
        <ele>151.06</ele>
        <time>2015-07-17T12:46:08Z</time>
      </trkpt>
      <trkpt lat="49.26714" lon="1.00818">
        <ele>151.06</ele>
        <time>2015-07-17T12:46:13Z</time>
      </trkpt>
      <trkpt lat="49.26722" lon="1.008">
        <ele>151.06</ele>
        <time>2015-07-17T12:46:16Z</time>
      </trkpt>
      <trkpt lat="49.26726" lon="1.00794">
        <ele>151.06</ele>
        <time>2015-07-17T12:46:17Z</time>
      </trkpt>
      <trkpt lat="49.26729" lon="1.00788">
        <ele>151.06</ele>
        <time>2015-07-17T12:46:18Z</time>
      </trkpt>
      <trkpt lat="49.26734" lon="1.00781">
        <ele>151.06</ele>
        <time>2015-07-17T12:46:19Z</time>
      </trkpt>
      <trkpt lat="49.26738" lon="1.00775">
        <ele>151.54</ele>
        <time>2015-07-17T12:46:20Z</time>
      </trkpt>
      <trkpt lat="49.26743" lon="1.00768">
        <ele>151.54</ele>
        <time>2015-07-17T12:46:21Z</time>
      </trkpt>
      <trkpt lat="49.26747" lon="1.00762">
        <ele>151.54</ele>
        <time>2015-07-17T12:46:22Z</time>
      </trkpt>
      <trkpt lat="49.2675" lon="1.00757">
        <ele>152.03</ele>
        <time>2015-07-17T12:46:23Z</time>
      </trkpt>
      <trkpt lat="49.26789" lon="1.00696">
        <ele>152.99</ele>
        <time>2015-07-17T12:46:35Z</time>
      </trkpt>
      <trkpt lat="49.26798" lon="1.00688">
        <ele>152.99</ele>
        <time>2015-07-17T12:46:37Z</time>
      </trkpt>
      <trkpt lat="49.26803" lon="1.00685">
        <ele>152.99</ele>
        <time>2015-07-17T12:46:38Z</time>
      </trkpt>
      <trkpt lat="49.26807" lon="1.00681">
        <ele>152.99</ele>
        <time>2015-07-17T12:46:39Z</time>
      </trkpt>
      <trkpt lat="49.26809" lon="1.00675">
        <ele>152.99</ele>
        <time>2015-07-17T12:46:40Z</time>
      </trkpt>
      <trkpt lat="49.26812" lon="1.00668">
        <ele>152.99</ele>
        <time>2015-07-17T12:46:41Z</time>
      </trkpt>
      <trkpt lat="49.26815" lon="1.0066">
        <ele>152.99</ele>
        <time>2015-07-17T12:46:42Z</time>
      </trkpt>
      <trkpt lat="49.26817" lon="1.00654">
        <ele>152.99</ele>
        <time>2015-07-17T12:46:43Z</time>
      </trkpt>
      <trkpt lat="49.26829" lon="1.00626">
        <ele>152.99</ele>
        <time>2015-07-17T12:46:47Z</time>
      </trkpt>
      <trkpt lat="49.26845" lon="1.00592">
        <ele>152.99</ele>
        <time>2015-07-17T12:46:52Z</time>
      </trkpt>
      <trkpt lat="49.2686" lon="1.00567">
        <ele>152.99</ele>
        <time>2015-07-17T12:46:56Z</time>
      </trkpt>
      <trkpt lat="49.26864" lon="1.00561">
        <ele>152.51</ele>
        <time>2015-07-17T12:46:57Z</time>
      </trkpt>
      <trkpt lat="49.26875" lon="1.00543">
        <ele>152.51</ele>
        <time>2015-07-17T12:47:00Z</time>
      </trkpt>
      <trkpt lat="49.26917" lon="1.00467">
        <ele>152.51</ele>
        <time>2015-07-17T12:47:12Z</time>
      </trkpt>
      <trkpt lat="49.26921" lon="1.00461">
        <ele>152.51</ele>
        <time>2015-07-17T12:47:13Z</time>
      </trkpt>
      <trkpt lat="49.26928" lon="1.00449">
        <ele>152.51</ele>
        <time>2015-07-17T12:47:15Z</time>
      </trkpt>
      <trkpt lat="49.26932" lon="1.00443">
        <ele>152.51</ele>
        <time>2015-07-17T12:47:16Z</time>
      </trkpt>
      <trkpt lat="49.26936" lon="1.00437">
        <ele>152.51</ele>
        <time>2015-07-17T12:47:17Z</time>
      </trkpt>
      <trkpt lat="49.2694" lon="1.00431">
        <ele>152.51</ele>
        <time>2015-07-17T12:47:18Z</time>
      </trkpt>
      <trkpt lat="49.26944" lon="1.00426">
        <ele>152.51</ele>
        <time>2015-07-17T12:47:19Z</time>
      </trkpt>
      <trkpt lat="49.26947" lon="1.00419">
        <ele>152.51</ele>
        <time>2015-07-17T12:47:20Z</time>
      </trkpt>
      <trkpt lat="49.2695" lon="1.00413">
        <ele>152.51</ele>
        <time>2015-07-17T12:47:21Z</time>
      </trkpt>
      <trkpt lat="49.26953" lon="1.00407">
        <ele>152.99</ele>
        <time>2015-07-17T12:47:22Z</time>
      </trkpt>
      <trkpt lat="49.26963" lon="1.00358">
        <ele>152.51</ele>
        <time>2015-07-17T12:47:31Z</time>
      </trkpt>
      <trkpt lat="49.2696" lon="1.00352">
        <ele>152.99</ele>
        <time>2015-07-17T12:47:45Z</time>
      </trkpt>
      <trkpt lat="49.26953" lon="1.00326">
        <ele>152.51</ele>
        <time>2015-07-17T12:47:57Z</time>
      </trkpt>
      <trkpt lat="49.26942" lon="1.00273">
        <ele>152.51</ele>
        <time>2015-07-17T12:48:07Z</time>
      </trkpt>
      <trkpt lat="49.26937" lon="1.00249">
        <ele>152.51</ele>
        <time>2015-07-17T12:48:12Z</time>
      </trkpt>
      <trkpt lat="49.26934" lon="1.0021">
        <ele>152.03</ele>
        <time>2015-07-17T12:48:18Z</time>
      </trkpt>
      <trkpt lat="49.26928" lon="1.00173">
        <ele>152.51</ele>
        <time>2015-07-17T12:48:27Z</time>
      </trkpt>
      <trkpt lat="49.26926" lon="1.00165">
        <ele>152.51</ele>
        <time>2015-07-17T12:48:49Z</time>
      </trkpt>
      <trkpt lat="49.26926" lon="1.00161">
        <ele>152.99</ele>
        <time>2015-07-17T12:48:54Z</time>
      </trkpt>
      <trkpt lat="49.26924" lon="1.00127">
        <ele>149.62</ele>
        <time>2015-07-17T12:49:03Z</time>
      </trkpt>
      <trkpt lat="49.26922" lon="1.00094">
        <ele>145.3</ele>
        <time>2015-07-17T12:49:07Z</time>
      </trkpt>
      <trkpt lat="49.2692" lon="1.00087">
        <ele>144.34</ele>
        <time>2015-07-17T12:49:08Z</time>
      </trkpt>
      <trkpt lat="49.26916" lon="1.00061">
        <ele>139.53</ele>
        <time>2015-07-17T12:49:13Z</time>
      </trkpt>
      <trkpt lat="49.26914" lon="1.00041">
        <ele>135.68</ele>
        <time>2015-07-17T12:49:17Z</time>
      </trkpt>
      <trkpt lat="49.26916" lon="1.00028">
        <ele>132.32</ele>
        <time>2015-07-17T12:49:20Z</time>
      </trkpt>
      <trkpt lat="49.26916" lon="1.00016">
        <ele>128.95</ele>
        <time>2015-07-17T12:49:23Z</time>
      </trkpt>
      <trkpt lat="49.26915" lon="1.00008">
        <ele>127.03</ele>
        <time>2015-07-17T12:49:25Z</time>
      </trkpt>
      <trkpt lat="49.26905" lon="0.99984">
        <ele>127.03</ele>
        <time>2015-07-17T12:49:39Z</time>
      </trkpt>
      <trkpt lat="49.26905" lon="0.99982">
        <ele>127.03</ele>
        <time>2015-07-17T12:49:44Z</time>
      </trkpt>
      <trkpt lat="49.26893" lon="0.99983">
        <ele>127.03</ele>
        <time>2015-07-17T12:49:50Z</time>
      </trkpt>
      <trkpt lat="49.26859" lon="0.99985">
        <ele>127.51</ele>
        <time>2015-07-17T12:50:00Z</time>
      </trkpt>
      <trkpt lat="49.26842" lon="0.99986">
        <ele>127.51</ele>
        <time>2015-07-17T12:50:05Z</time>
      </trkpt>
      <trkpt lat="49.26835" lon="0.99986">
        <ele>127.99</ele>
        <time>2015-07-17T12:50:09Z</time>
      </trkpt>
      <trkpt lat="49.26805" lon="0.99978">
        <ele>128.47</ele>
        <time>2015-07-17T12:50:19Z</time>
      </trkpt>
      <trkpt lat="49.26792" lon="0.99974">
        <ele>128.95</ele>
        <time>2015-07-17T12:50:23Z</time>
      </trkpt>
      <trkpt lat="49.26775" lon="0.99972">
        <ele>129.43</ele>
        <time>2015-07-17T12:50:28Z</time>
      </trkpt>
      <trkpt lat="49.26732" lon="0.99957">
        <ele>130.88</ele>
        <time>2015-07-17T12:50:40Z</time>
      </trkpt>
      <trkpt lat="49.26709" lon="0.99942">
        <ele>130.4</ele>
        <time>2015-07-17T12:50:47Z</time>
      </trkpt>
      <trkpt lat="49.26701" lon="0.99936">
        <ele>129.92</ele>
        <time>2015-07-17T12:50:49Z</time>
      </trkpt>
      <trkpt lat="49.26697" lon="0.99933">
        <ele>129.43</ele>
        <time>2015-07-17T12:50:50Z</time>
      </trkpt>
      <trkpt lat="49.26686" lon="0.99921">
        <ele>128.47</ele>
        <time>2015-07-17T12:50:53Z</time>
      </trkpt>
      <trkpt lat="49.26682" lon="0.99915">
        <ele>127.99</ele>
        <time>2015-07-17T12:50:54Z</time>
      </trkpt>
      <trkpt lat="49.26678" lon="0.9991">
        <ele>127.51</ele>
        <time>2015-07-17T12:50:55Z</time>
      </trkpt>
      <trkpt lat="49.26674" lon="0.99907">
        <ele>127.51</ele>
        <time>2015-07-17T12:50:56Z</time>
      </trkpt>
      <trkpt lat="49.26671" lon="0.99903">
        <ele>127.03</ele>
        <time>2015-07-17T12:50:57Z</time>
      </trkpt>
      <trkpt lat="49.2664" lon="0.99871">
        <ele>126.07</ele>
        <time>2015-07-17T12:51:02Z</time>
      </trkpt>
      <trkpt lat="49.26635" lon="0.99865">
        <ele>126.07</ele>
        <time>2015-07-17T12:51:03Z</time>
      </trkpt>
      <trkpt lat="49.26596" lon="0.99815">
        <ele>126.55</ele>
        <time>2015-07-17T12:51:13Z</time>
      </trkpt>
      <trkpt lat="49.26593" lon="0.99808">
        <ele>126.55</ele>
        <time>2015-07-17T12:51:14Z</time>
      </trkpt>
      <trkpt lat="49.26591" lon="0.99801">
        <ele>126.55</ele>
        <time>2015-07-17T12:51:15Z</time>
      </trkpt>
      <trkpt lat="49.26588" lon="0.99795">
        <ele>127.03</ele>
        <time>2015-07-17T12:51:16Z</time>
      </trkpt>
      <trkpt lat="49.26586" lon="0.99788">
        <ele>127.03</ele>
        <time>2015-07-17T12:51:17Z</time>
      </trkpt>
      <trkpt lat="49.26584" lon="0.99781">
        <ele>126.55</ele>
        <time>2015-07-17T12:51:18Z</time>
      </trkpt>
      <trkpt lat="49.26583" lon="0.99773">
        <ele>126.07</ele>
        <time>2015-07-17T12:51:19Z</time>
      </trkpt>
      <trkpt lat="49.26579" lon="0.99756">
        <ele>126.07</ele>
        <time>2015-07-17T12:51:21Z</time>
      </trkpt>
      <trkpt lat="49.26578" lon="0.99742">
        <ele>126.07</ele>
        <time>2015-07-17T12:51:23Z</time>
      </trkpt>
      <trkpt lat="49.26576" lon="0.99711">
        <ele>125.11</ele>
        <time>2015-07-17T12:51:27Z</time>
      </trkpt>
      <trkpt lat="49.26574" lon="0.99695">
        <ele>125.11</ele>
        <time>2015-07-17T12:51:29Z</time>
      </trkpt>
      <trkpt lat="49.26573" lon="0.99686">
        <ele>125.11</ele>
        <time>2015-07-17T12:51:30Z</time>
      </trkpt>
      <trkpt lat="49.26571" lon="0.99668">
        <ele>124.15</ele>
        <time>2015-07-17T12:51:32Z</time>
      </trkpt>
      <trkpt lat="49.26572" lon="0.9966">
        <ele>123.67</ele>
        <time>2015-07-17T12:51:33Z</time>
      </trkpt>
      <trkpt lat="49.26573" lon="0.99652">
        <ele>123.67</ele>
        <time>2015-07-17T12:51:34Z</time>
      </trkpt>
      <trkpt lat="49.26578" lon="0.99614">
        <ele>122.22</ele>
        <time>2015-07-17T12:51:39Z</time>
      </trkpt>
      <trkpt lat="49.26576" lon="0.99606">
        <ele>121.74</ele>
        <time>2015-07-17T12:51:40Z</time>
      </trkpt>
      <trkpt lat="49.26574" lon="0.99599">
        <ele>121.74</ele>
        <time>2015-07-17T12:51:41Z</time>
      </trkpt>
      <trkpt lat="49.2657" lon="0.99592">
        <ele>121.74</ele>
        <time>2015-07-17T12:51:42Z</time>
      </trkpt>
      <trkpt lat="49.26566" lon="0.99585">
        <ele>121.74</ele>
        <time>2015-07-17T12:51:43Z</time>
      </trkpt>
      <trkpt lat="49.26562" lon="0.9958">
        <ele>121.26</ele>
        <time>2015-07-17T12:51:44Z</time>
      </trkpt>
      <trkpt lat="49.26546" lon="0.99563">
        <ele>121.26</ele>
        <time>2015-07-17T12:51:47Z</time>
      </trkpt>
      <trkpt lat="49.26542" lon="0.99556">
        <ele>120.78</ele>
        <time>2015-07-17T12:51:48Z</time>
      </trkpt>
      <trkpt lat="49.26539" lon="0.99548">
        <ele>121.26</ele>
        <time>2015-07-17T12:51:49Z</time>
      </trkpt>
      <trkpt lat="49.26537" lon="0.99543">
        <ele>120.78</ele>
        <time>2015-07-17T12:51:50Z</time>
      </trkpt>
      <trkpt lat="49.26535" lon="0.99537">
        <ele>120.78</ele>
        <time>2015-07-17T12:51:51Z</time>
      </trkpt>
      <trkpt lat="49.26533" lon="0.99528">
        <ele>121.26</ele>
        <time>2015-07-17T12:51:52Z</time>
      </trkpt>
      <trkpt lat="49.26531" lon="0.99523">
        <ele>121.74</ele>
        <time>2015-07-17T12:51:53Z</time>
      </trkpt>
      <trkpt lat="49.26528" lon="0.99518">
        <ele>121.74</ele>
        <time>2015-07-17T12:51:54Z</time>
      </trkpt>
      <trkpt lat="49.26527" lon="0.99513">
        <ele>122.22</ele>
        <time>2015-07-17T12:51:55Z</time>
      </trkpt>
      <trkpt lat="49.26523" lon="0.99501">
        <ele>123.19</ele>
        <time>2015-07-17T12:51:58Z</time>
      </trkpt>
      <trkpt lat="49.26522" lon="0.99498">
        <ele>123.67</ele>
        <time>2015-07-17T12:51:59Z</time>
      </trkpt>
      <trkpt lat="49.26522" lon="0.99495">
        <ele>124.15</ele>
        <time>2015-07-17T12:52:00Z</time>
      </trkpt>
      <trkpt lat="49.26521" lon="0.99491">
        <ele>124.63</ele>
        <time>2015-07-17T12:52:01Z</time>
      </trkpt>
      <trkpt lat="49.2652" lon="0.99488">
        <ele>125.11</ele>
        <time>2015-07-17T12:52:02Z</time>
      </trkpt>
      <trkpt lat="49.26518" lon="0.99484">
        <ele>125.11</ele>
        <time>2015-07-17T12:52:03Z</time>
      </trkpt>
      <trkpt lat="49.26517" lon="0.99481">
        <ele>125.59</ele>
        <time>2015-07-17T12:52:04Z</time>
      </trkpt>
      <trkpt lat="49.26517" lon="0.99478">
        <ele>126.07</ele>
        <time>2015-07-17T12:52:05Z</time>
      </trkpt>
      <trkpt lat="49.26517" lon="0.99475">
        <ele>126.55</ele>
        <time>2015-07-17T12:52:06Z</time>
      </trkpt>
      <trkpt lat="49.26516" lon="0.99471">
        <ele>127.03</ele>
        <time>2015-07-17T12:52:07Z</time>
      </trkpt>
      <trkpt lat="49.26516" lon="0.99468">
        <ele>127.51</ele>
        <time>2015-07-17T12:52:08Z</time>
      </trkpt>
      <trkpt lat="49.26515" lon="0.99464">
        <ele>127.51</ele>
        <time>2015-07-17T12:52:09Z</time>
      </trkpt>
      <trkpt lat="49.26508" lon="0.99439">
        <ele>128.95</ele>
        <time>2015-07-17T12:52:16Z</time>
      </trkpt>
      <trkpt lat="49.26508" lon="0.99436">
        <ele>128.95</ele>
        <time>2015-07-17T12:52:17Z</time>
      </trkpt>
      <trkpt lat="49.26507" lon="0.99433">
        <ele>128.95</ele>
        <time>2015-07-17T12:52:18Z</time>
      </trkpt>
      <trkpt lat="49.26488" lon="0.99393">
        <ele>130.88</ele>
        <time>2015-07-17T12:52:30Z</time>
      </trkpt>
      <trkpt lat="49.26486" lon="0.9939">
        <ele>130.4</ele>
        <time>2015-07-17T12:52:31Z</time>
      </trkpt>
      <trkpt lat="49.26485" lon="0.99388">
        <ele>130.88</ele>
        <time>2015-07-17T12:52:32Z</time>
      </trkpt>
      <trkpt lat="49.26484" lon="0.99385">
        <ele>130.88</ele>
        <time>2015-07-17T12:52:33Z</time>
      </trkpt>
      <trkpt lat="49.26483" lon="0.99381">
        <ele>130.88</ele>
        <time>2015-07-17T12:52:34Z</time>
      </trkpt>
      <trkpt lat="49.26482" lon="0.99377">
        <ele>131.36</ele>
        <time>2015-07-17T12:52:35Z</time>
      </trkpt>
      <trkpt lat="49.26469" lon="0.99332">
        <ele>131.36</ele>
        <time>2015-07-17T12:52:48Z</time>
      </trkpt>
      <trkpt lat="49.26463" lon="0.99285">
        <ele>131.36</ele>
        <time>2015-07-17T12:52:59Z</time>
      </trkpt>
      <trkpt lat="49.26451" lon="0.9923">
        <ele>133.76</ele>
        <time>2015-07-17T12:53:10Z</time>
      </trkpt>
      <trkpt lat="49.26436" lon="0.99188">
        <ele>136.16</ele>
        <time>2015-07-17T12:53:20Z</time>
      </trkpt>
      <trkpt lat="49.26432" lon="0.99165">
        <ele>136.64</ele>
        <time>2015-07-17T12:53:27Z</time>
      </trkpt>
      <trkpt lat="49.26432" lon="0.99162">
        <ele>136.64</ele>
        <time>2015-07-17T12:53:28Z</time>
      </trkpt>
      <trkpt lat="49.26431" lon="0.99158">
        <ele>137.13</ele>
        <time>2015-07-17T12:53:29Z</time>
      </trkpt>
      <trkpt lat="49.2643" lon="0.99154">
        <ele>137.13</ele>
        <time>2015-07-17T12:53:30Z</time>
      </trkpt>
      <trkpt lat="49.2643" lon="0.9915">
        <ele>137.61</ele>
        <time>2015-07-17T12:53:31Z</time>
      </trkpt>
      <trkpt lat="49.2643" lon="0.99146">
        <ele>138.09</ele>
        <time>2015-07-17T12:53:32Z</time>
      </trkpt>
      <trkpt lat="49.2643" lon="0.99143">
        <ele>138.09</ele>
        <time>2015-07-17T12:53:33Z</time>
      </trkpt>
      <trkpt lat="49.2643" lon="0.9914">
        <ele>138.09</ele>
        <time>2015-07-17T12:53:34Z</time>
      </trkpt>
      <trkpt lat="49.26419" lon="0.9911">
        <ele>140.97</ele>
        <time>2015-07-17T12:53:45Z</time>
      </trkpt>
      <trkpt lat="49.26403" lon="0.99089">
        <ele>142.41</ele>
        <time>2015-07-17T12:53:56Z</time>
      </trkpt>
      <trkpt lat="49.26387" lon="0.99073">
        <ele>143.37</ele>
        <time>2015-07-17T12:54:06Z</time>
      </trkpt>
      <trkpt lat="49.26386" lon="0.9907">
        <ele>143.37</ele>
        <time>2015-07-17T12:54:07Z</time>
      </trkpt>
      <trkpt lat="49.26384" lon="0.99068">
        <ele>143.37</ele>
        <time>2015-07-17T12:54:08Z</time>
      </trkpt>
      <trkpt lat="49.26382" lon="0.99066">
        <ele>143.85</ele>
        <time>2015-07-17T12:54:09Z</time>
      </trkpt>
      <trkpt lat="49.2638" lon="0.99065">
        <ele>143.85</ele>
        <time>2015-07-17T12:54:10Z</time>
      </trkpt>
      <trkpt lat="49.26379" lon="0.99064">
        <ele>143.85</ele>
        <time>2015-07-17T12:54:11Z</time>
      </trkpt>
      <trkpt lat="49.26377" lon="0.99063">
        <ele>144.34</ele>
        <time>2015-07-17T12:54:12Z</time>
      </trkpt>
      <trkpt lat="49.26375" lon="0.99062">
        <ele>144.34</ele>
        <time>2015-07-17T12:54:13Z</time>
      </trkpt>
      <trkpt lat="49.26374" lon="0.99061">
        <ele>144.82</ele>
        <time>2015-07-17T12:54:14Z</time>
      </trkpt>
      <trkpt lat="49.26372" lon="0.99059">
        <ele>144.82</ele>
        <time>2015-07-17T12:54:15Z</time>
      </trkpt>
      <trkpt lat="49.26369" lon="0.99055">
        <ele>145.3</ele>
        <time>2015-07-17T12:54:18Z</time>
      </trkpt>
      <trkpt lat="49.26367" lon="0.99052">
        <ele>145.3</ele>
        <time>2015-07-17T12:54:19Z</time>
      </trkpt>
      <trkpt lat="49.26358" lon="0.99041">
        <ele>145.78</ele>
        <time>2015-07-17T12:54:22Z</time>
      </trkpt>
      <trkpt lat="49.26356" lon="0.99039">
        <ele>145.78</ele>
        <time>2015-07-17T12:54:23Z</time>
      </trkpt>
      <trkpt lat="49.26353" lon="0.99035">
        <ele>145.78</ele>
        <time>2015-07-17T12:54:24Z</time>
      </trkpt>
      <trkpt lat="49.26331" lon="0.99013">
        <ele>146.26</ele>
        <time>2015-07-17T12:54:32Z</time>
      </trkpt>
      <trkpt lat="49.26308" lon="0.9898">
        <ele>146.26</ele>
        <time>2015-07-17T12:54:44Z</time>
      </trkpt>
      <trkpt lat="49.26301" lon="0.98978">
        <ele>147.22</ele>
        <time>2015-07-17T12:54:47Z</time>
      </trkpt>
      <trkpt lat="49.26296" lon="0.9898">
        <ele>148.18</ele>
        <time>2015-07-17T12:54:50Z</time>
      </trkpt>
      <trkpt lat="49.26287" lon="0.98979">
        <ele>149.14</ele>
        <time>2015-07-17T12:54:55Z</time>
      </trkpt>
      <trkpt lat="49.26286" lon="0.98975">
        <ele>148.18</ele>
        <time>2015-07-17T12:54:58Z</time>
      </trkpt>
      <trkpt lat="49.26286" lon="0.9897">
        <ele>146.74</ele>
        <time>2015-07-17T12:55:00Z</time>
      </trkpt>
      <trkpt lat="49.26267" lon="0.98944">
        <ele>146.74</ele>
        <time>2015-07-17T12:55:10Z</time>
      </trkpt>
      <trkpt lat="49.26262" lon="0.98937">
        <ele>146.74</ele>
        <time>2015-07-17T12:55:13Z</time>
      </trkpt>
      <trkpt lat="49.26234" lon="0.98917">
        <ele>149.14</ele>
        <time>2015-07-17T12:55:25Z</time>
      </trkpt>
      <trkpt lat="49.26208" lon="0.98894">
        <ele>152.03</ele>
        <time>2015-07-17T12:55:34Z</time>
      </trkpt>
      <trkpt lat="49.26178" lon="0.98902">
        <ele>154.43</ele>
        <time>2015-07-17T12:55:45Z</time>
      </trkpt>
      <trkpt lat="49.26157" lon="0.98908">
        <ele>155.87</ele>
        <time>2015-07-17T12:55:54Z</time>
      </trkpt>
      <trkpt lat="49.26131" lon="0.98884">
        <ele>155.87</ele>
        <time>2015-07-17T12:56:05Z</time>
      </trkpt>
      <trkpt lat="49.26106" lon="0.98844">
        <ele>156.35</ele>
        <time>2015-07-17T12:56:17Z</time>
      </trkpt>
      <trkpt lat="49.26076" lon="0.98794">
        <ele>155.39</ele>
        <time>2015-07-17T12:56:29Z</time>
      </trkpt>
      <trkpt lat="49.26046" lon="0.98739">
        <ele>154.91</ele>
        <time>2015-07-17T12:56:41Z</time>
      </trkpt>
      <trkpt lat="49.26042" lon="0.98735">
        <ele>154.43</ele>
        <time>2015-07-17T12:56:42Z</time>
      </trkpt>
      <trkpt lat="49.26039" lon="0.9873">
        <ele>154.43</ele>
        <time>2015-07-17T12:56:43Z</time>
      </trkpt>
      <trkpt lat="49.26037" lon="0.98725">
        <ele>154.43</ele>
        <time>2015-07-17T12:56:44Z</time>
      </trkpt>
      <trkpt lat="49.26034" lon="0.9872">
        <ele>154.43</ele>
        <time>2015-07-17T12:56:45Z</time>
      </trkpt>
      <trkpt lat="49.26032" lon="0.98715">
        <ele>154.43</ele>
        <time>2015-07-17T12:56:46Z</time>
      </trkpt>
      <trkpt lat="49.2603" lon="0.9871">
        <ele>154.43</ele>
        <time>2015-07-17T12:56:47Z</time>
      </trkpt>
      <trkpt lat="49.26028" lon="0.98705">
        <ele>154.91</ele>
        <time>2015-07-17T12:56:48Z</time>
      </trkpt>
      <trkpt lat="49.26026" lon="0.987">
        <ele>154.91</ele>
        <time>2015-07-17T12:56:49Z</time>
      </trkpt>
      <trkpt lat="49.26024" lon="0.98696">
        <ele>154.91</ele>
        <time>2015-07-17T12:56:50Z</time>
      </trkpt>
      <trkpt lat="49.26021" lon="0.98691">
        <ele>154.91</ele>
        <time>2015-07-17T12:56:51Z</time>
      </trkpt>
      <trkpt lat="49.26019" lon="0.98687">
        <ele>154.91</ele>
        <time>2015-07-17T12:56:52Z</time>
      </trkpt>
      <trkpt lat="49.25975" lon="0.98611">
        <ele>155.87</ele>
        <time>2015-07-17T12:57:07Z</time>
      </trkpt>
      <trkpt lat="49.25956" lon="0.98573">
        <ele>155.39</ele>
        <time>2015-07-17T12:57:17Z</time>
      </trkpt>
      <trkpt lat="49.25941" lon="0.98538">
        <ele>155.87</ele>
        <time>2015-07-17T12:57:27Z</time>
      </trkpt>
      <trkpt lat="49.25929" lon="0.9852">
        <ele>155.87</ele>
        <time>2015-07-17T12:57:36Z</time>
      </trkpt>
      <trkpt lat="49.2593" lon="0.98521">
        <ele>155.87</ele>
        <time>2015-07-17T12:58:14Z</time>
      </trkpt>
      <trkpt lat="49.25928" lon="0.9852">
        <ele>155.39</ele>
        <time>2015-07-17T12:58:52Z</time>
      </trkpt>
      <trkpt lat="49.25928" lon="0.9852">
        <ele>154.91</ele>
        <time>2015-07-17T12:59:16Z</time>
      </trkpt>
      <trkpt lat="49.25943" lon="0.98498">
        <ele>153.95</ele>
        <time>2015-07-17T12:59:26Z</time>
      </trkpt>
      <trkpt lat="49.25961" lon="0.9844">
        <ele>152.03</ele>
        <time>2015-07-17T12:59:40Z</time>
      </trkpt>
      <trkpt lat="49.25962" lon="0.98426">
        <ele>152.03</ele>
        <time>2015-07-17T12:59:42Z</time>
      </trkpt>
      <trkpt lat="49.25955" lon="0.98351">
        <ele>151.06</ele>
        <time>2015-07-17T12:59:54Z</time>
      </trkpt>
      <trkpt lat="49.25952" lon="0.9834">
        <ele>151.06</ele>
        <time>2015-07-17T12:59:56Z</time>
      </trkpt>
      <trkpt lat="49.2595" lon="0.98335">
        <ele>150.58</ele>
        <time>2015-07-17T12:59:57Z</time>
      </trkpt>
      <trkpt lat="49.25941" lon="0.98298">
        <ele>150.1</ele>
        <time>2015-07-17T13:00:06Z</time>
      </trkpt>
      <trkpt lat="49.25947" lon="0.98298">
        <ele>150.1</ele>
        <time>2015-07-17T13:00:09Z</time>
      </trkpt>
      <trkpt lat="49.25966" lon="0.98336">
        <ele>148.66</ele>
        <time>2015-07-17T13:00:17Z</time>
      </trkpt>
      <trkpt lat="49.25969" lon="0.98341">
        <ele>148.66</ele>
        <time>2015-07-17T13:00:18Z</time>
      </trkpt>
      <trkpt lat="49.25974" lon="0.98352">
        <ele>148.18</ele>
        <time>2015-07-17T13:00:20Z</time>
      </trkpt>
      <trkpt lat="49.26004" lon="0.98415">
        <ele>144.82</ele>
        <time>2015-07-17T13:00:29Z</time>
      </trkpt>
      <trkpt lat="49.26009" lon="0.98423">
        <ele>144.82</ele>
        <time>2015-07-17T13:00:30Z</time>
      </trkpt>
      <trkpt lat="49.26032" lon="0.98458">
        <ele>142.41</ele>
        <time>2015-07-17T13:00:35Z</time>
      </trkpt>
      <trkpt lat="49.26039" lon="0.98462">
        <ele>142.89</ele>
        <time>2015-07-17T13:00:36Z</time>
      </trkpt>
      <trkpt lat="49.26052" lon="0.9847">
        <ele>141.45</ele>
        <time>2015-07-17T13:00:38Z</time>
      </trkpt>
      <trkpt lat="49.26059" lon="0.98475">
        <ele>141.45</ele>
        <time>2015-07-17T13:00:39Z</time>
      </trkpt>
      <trkpt lat="49.26065" lon="0.9848">
        <ele>141.45</ele>
        <time>2015-07-17T13:00:40Z</time>
      </trkpt>
      <trkpt lat="49.26085" lon="0.98497">
        <ele>143.37</ele>
        <time>2015-07-17T13:00:44Z</time>
      </trkpt>
      <trkpt lat="49.26101" lon="0.98509">
        <ele>146.26</ele>
        <time>2015-07-17T13:00:48Z</time>
      </trkpt>
      <trkpt lat="49.26106" lon="0.98511">
        <ele>146.74</ele>
        <time>2015-07-17T13:00:49Z</time>
      </trkpt>
      <trkpt lat="49.26113" lon="0.98515">
        <ele>147.22</ele>
        <time>2015-07-17T13:00:51Z</time>
      </trkpt>
      <trkpt lat="49.26128" lon="0.98522">
        <ele>149.14</ele>
        <time>2015-07-17T13:00:55Z</time>
      </trkpt>
      <trkpt lat="49.26157" lon="0.985">
        <ele>152.03</ele>
        <time>2015-07-17T13:01:05Z</time>
      </trkpt>
      <trkpt lat="49.26184" lon="0.98444">
        <ele>153.47</ele>
        <time>2015-07-17T13:01:17Z</time>
      </trkpt>
      <trkpt lat="49.26216" lon="0.98408">
        <ele>154.91</ele>
        <time>2015-07-17T13:01:28Z</time>
      </trkpt>
      <trkpt lat="49.26244" lon="0.98336">
        <ele>156.83</ele>
        <time>2015-07-17T13:01:42Z</time>
      </trkpt>
      <trkpt lat="49.26251" lon="0.98323">
        <ele>157.31</ele>
        <time>2015-07-17T13:01:45Z</time>
      </trkpt>
      <trkpt lat="49.26255" lon="0.98323">
        <ele>157.31</ele>
        <time>2015-07-17T13:01:46Z</time>
      </trkpt>
      <trkpt lat="49.26258" lon="0.98326">
        <ele>157.31</ele>
        <time>2015-07-17T13:01:47Z</time>
      </trkpt>
      <trkpt lat="49.26325" lon="0.98389">
        <ele>157.31</ele>
        <time>2015-07-17T13:02:04Z</time>
      </trkpt>
      <trkpt lat="49.26371" lon="0.9843">
        <ele>156.83</ele>
        <time>2015-07-17T13:02:14Z</time>
      </trkpt>
      <trkpt lat="49.26438" lon="0.98503">
        <ele>155.39</ele>
        <time>2015-07-17T13:02:28Z</time>
      </trkpt>
      <trkpt lat="49.26444" lon="0.98507">
        <ele>155.39</ele>
        <time>2015-07-17T13:02:29Z</time>
      </trkpt>
      <trkpt lat="49.26449" lon="0.98509">
        <ele>155.39</ele>
        <time>2015-07-17T13:02:30Z</time>
      </trkpt>
      <trkpt lat="49.26455" lon="0.9851">
        <ele>155.39</ele>
        <time>2015-07-17T13:02:31Z</time>
      </trkpt>
      <trkpt lat="49.26465" lon="0.98513">
        <ele>155.87</ele>
        <time>2015-07-17T13:02:33Z</time>
      </trkpt>
      <trkpt lat="49.26551" lon="0.98523">
        <ele>155.87</ele>
        <time>2015-07-17T13:02:49Z</time>
      </trkpt>
      <trkpt lat="49.26655" lon="0.98526">
        <ele>155.87</ele>
        <time>2015-07-17T13:03:08Z</time>
      </trkpt>
      <trkpt lat="49.2669" lon="0.98527">
        <ele>155.39</ele>
        <time>2015-07-17T13:03:14Z</time>
      </trkpt>
      <trkpt lat="49.26794" lon="0.98559">
        <ele>154.43</ele>
        <time>2015-07-17T13:03:31Z</time>
      </trkpt>
      <trkpt lat="49.26885" lon="0.98572">
        <ele>153.95</ele>
        <time>2015-07-17T13:03:46Z</time>
      </trkpt>
      <trkpt lat="49.26919" lon="0.98572">
        <ele>154.91</ele>
        <time>2015-07-17T13:03:56Z</time>
      </trkpt>
      <trkpt lat="49.2692" lon="0.98571">
        <ele>154.91</ele>
        <time>2015-07-17T13:03:59Z</time>
      </trkpt>
      <trkpt lat="49.2692" lon="0.98565">
        <ele>154.43</ele>
        <time>2015-07-17T13:04:01Z</time>
      </trkpt>
      <trkpt lat="49.26919" lon="0.98561">
        <ele>154.43</ele>
        <time>2015-07-17T13:04:02Z</time>
      </trkpt>
      <trkpt lat="49.26917" lon="0.98557">
        <ele>153.95</ele>
        <time>2015-07-17T13:04:03Z</time>
      </trkpt>
      <trkpt lat="49.26915" lon="0.98553">
        <ele>153.95</ele>
        <time>2015-07-17T13:04:04Z</time>
      </trkpt>
      <trkpt lat="49.26913" lon="0.98549">
        <ele>153.95</ele>
        <time>2015-07-17T13:04:05Z</time>
      </trkpt>
      <trkpt lat="49.26907" lon="0.98539">
        <ele>154.43</ele>
        <time>2015-07-17T13:04:07Z</time>
      </trkpt>
      <trkpt lat="49.26904" lon="0.98534">
        <ele>153.95</ele>
        <time>2015-07-17T13:04:08Z</time>
      </trkpt>
      <trkpt lat="49.26879" lon="0.98495">
        <ele>154.91</ele>
        <time>2015-07-17T13:04:17Z</time>
      </trkpt>
      <trkpt lat="49.26829" lon="0.98435">
        <ele>154.43</ele>
        <time>2015-07-17T13:04:33Z</time>
      </trkpt>
      <trkpt lat="49.26819" lon="0.98418">
        <ele>154.91</ele>
        <time>2015-07-17T13:04:37Z</time>
      </trkpt>
      <trkpt lat="49.26819" lon="0.98413">
        <ele>154.91</ele>
        <time>2015-07-17T13:04:38Z</time>
      </trkpt>
      <trkpt lat="49.26821" lon="0.98409">
        <ele>154.91</ele>
        <time>2015-07-17T13:04:39Z</time>
      </trkpt>
      <trkpt lat="49.26822" lon="0.98408">
        <ele>155.39</ele>
        <time>2015-07-17T13:04:49Z</time>
      </trkpt>
      <trkpt lat="49.26824" lon="0.98406">
        <ele>154.91</ele>
        <time>2015-07-17T13:05:03Z</time>
      </trkpt>
      <trkpt lat="49.26826" lon="0.98404">
        <ele>154.91</ele>
        <time>2015-07-17T13:05:04Z</time>
      </trkpt>
      <trkpt lat="49.26828" lon="0.98401">
        <ele>154.91</ele>
        <time>2015-07-17T13:05:05Z</time>
      </trkpt>
      <trkpt lat="49.26846" lon="0.98381">
        <ele>154.91</ele>
        <time>2015-07-17T13:05:11Z</time>
      </trkpt>
      <trkpt lat="49.2692" lon="0.98313">
        <ele>153.47</ele>
        <time>2015-07-17T13:05:28Z</time>
      </trkpt>
      <trkpt lat="49.26933" lon="0.983">
        <ele>152.51</ele>
        <time>2015-07-17T13:05:31Z</time>
      </trkpt>
      <trkpt lat="49.26938" lon="0.98297">
        <ele>152.99</ele>
        <time>2015-07-17T13:05:32Z</time>
      </trkpt>
      <trkpt lat="49.26952" lon="0.9829">
        <ele>152.99</ele>
        <time>2015-07-17T13:05:35Z</time>
      </trkpt>
      <trkpt lat="49.2696" lon="0.98292">
        <ele>152.51</ele>
        <time>2015-07-17T13:05:37Z</time>
      </trkpt>
      <trkpt lat="49.2698" lon="0.98311">
        <ele>152.51</ele>
        <time>2015-07-17T13:05:43Z</time>
      </trkpt>
      <trkpt lat="49.26982" lon="0.98316">
        <ele>152.51</ele>
        <time>2015-07-17T13:05:44Z</time>
      </trkpt>
      <trkpt lat="49.26985" lon="0.98322">
        <ele>152.03</ele>
        <time>2015-07-17T13:05:45Z</time>
      </trkpt>
      <trkpt lat="49.26987" lon="0.98328">
        <ele>149.62</ele>
        <time>2015-07-17T13:05:46Z</time>
      </trkpt>
      <trkpt lat="49.26988" lon="0.98333">
        <ele>153.47</ele>
        <time>2015-07-17T13:05:47Z</time>
      </trkpt>
      <trkpt lat="49.26988" lon="0.98337">
        <ele>152.51</ele>
        <time>2015-07-17T13:05:48Z</time>
      </trkpt>
      <trkpt lat="49.26989" lon="0.98348">
        <ele>152.51</ele>
        <time>2015-07-17T13:05:52Z</time>
      </trkpt>
      <trkpt lat="49.26989" lon="0.9835">
        <ele>152.51</ele>
        <time>2015-07-17T13:05:53Z</time>
      </trkpt>
      <trkpt lat="49.2699" lon="0.98351">
        <ele>152.51</ele>
        <time>2015-07-17T13:05:54Z</time>
      </trkpt>
      <trkpt lat="49.26991" lon="0.9835">
        <ele>152.51</ele>
        <time>2015-07-17T13:05:55Z</time>
      </trkpt>
      <trkpt lat="49.26992" lon="0.98348">
        <ele>152.51</ele>
        <time>2015-07-17T13:05:56Z</time>
      </trkpt>
      <trkpt lat="49.26991" lon="0.98345">
        <ele>152.51</ele>
        <time>2015-07-17T13:05:57Z</time>
      </trkpt>
      <trkpt lat="49.2699" lon="0.98341">
        <ele>152.51</ele>
        <time>2015-07-17T13:05:58Z</time>
      </trkpt>
      <trkpt lat="49.26988" lon="0.98337">
        <ele>152.51</ele>
        <time>2015-07-17T13:05:59Z</time>
      </trkpt>
      <trkpt lat="49.26969" lon="0.98303">
        <ele>152.51</ele>
        <time>2015-07-17T13:06:10Z</time>
      </trkpt>
      <trkpt lat="49.26968" lon="0.98301">
        <ele>152.51</ele>
        <time>2015-07-17T13:06:11Z</time>
      </trkpt>
      <trkpt lat="49.26968" lon="0.98299">
        <ele>152.51</ele>
        <time>2015-07-17T13:06:12Z</time>
      </trkpt>
      <trkpt lat="49.26968" lon="0.98297">
        <ele>152.51</ele>
        <time>2015-07-17T13:06:13Z</time>
      </trkpt>
      <trkpt lat="49.26968" lon="0.98294">
        <ele>150.58</ele>
        <time>2015-07-17T13:06:14Z</time>
      </trkpt>
      <trkpt lat="49.26969" lon="0.98292">
        <ele>152.99</ele>
        <time>2015-07-17T13:06:15Z</time>
      </trkpt>
      <trkpt lat="49.26971" lon="0.98291">
        <ele>152.51</ele>
        <time>2015-07-17T13:06:16Z</time>
      </trkpt>
      <trkpt lat="49.26972" lon="0.9829">
        <ele>152.51</ele>
        <time>2015-07-17T13:06:17Z</time>
      </trkpt>
      <trkpt lat="49.26996" lon="0.98276">
        <ele>151.06</ele>
        <time>2015-07-17T13:06:28Z</time>
      </trkpt>
      <trkpt lat="49.27033" lon="0.98274">
        <ele>150.1</ele>
        <time>2015-07-17T13:06:38Z</time>
      </trkpt>
      <trkpt lat="49.27045" lon="0.9826">
        <ele>149.62</ele>
        <time>2015-07-17T13:06:43Z</time>
      </trkpt>
      <trkpt lat="49.27046" lon="0.98256">
        <ele>149.14</ele>
        <time>2015-07-17T13:06:44Z</time>
      </trkpt>
      <trkpt lat="49.27046" lon="0.98251">
        <ele>149.14</ele>
        <time>2015-07-17T13:06:45Z</time>
      </trkpt>
      <trkpt lat="49.27046" lon="0.98247">
        <ele>149.62</ele>
        <time>2015-07-17T13:06:46Z</time>
      </trkpt>
      <trkpt lat="49.27047" lon="0.98244">
        <ele>149.62</ele>
        <time>2015-07-17T13:06:47Z</time>
      </trkpt>
      <trkpt lat="49.27048" lon="0.98242">
        <ele>149.62</ele>
        <time>2015-07-17T13:06:48Z</time>
      </trkpt>
      <trkpt lat="49.27052" lon="0.98234">
        <ele>149.62</ele>
        <time>2015-07-17T13:06:52Z</time>
      </trkpt>
      <trkpt lat="49.27053" lon="0.98232">
        <ele>149.62</ele>
        <time>2015-07-17T13:06:53Z</time>
      </trkpt>
      <trkpt lat="49.27054" lon="0.9823">
        <ele>149.62</ele>
        <time>2015-07-17T13:06:54Z</time>
      </trkpt>
      <trkpt lat="49.27054" lon="0.98226">
        <ele>149.62</ele>
        <time>2015-07-17T13:06:56Z</time>
      </trkpt>
      <trkpt lat="49.27054" lon="0.98224">
        <ele>149.62</ele>
        <time>2015-07-17T13:06:57Z</time>
      </trkpt>
      <trkpt lat="49.27054" lon="0.98222">
        <ele>149.62</ele>
        <time>2015-07-17T13:07:10Z</time>
      </trkpt>
      <trkpt lat="49.27053" lon="0.9822">
        <ele>149.14</ele>
        <time>2015-07-17T13:07:16Z</time>
      </trkpt>
      <trkpt lat="49.27053" lon="0.98218">
        <ele>149.14</ele>
        <time>2015-07-17T13:07:17Z</time>
      </trkpt>
      <trkpt lat="49.27053" lon="0.98215">
        <ele>149.14</ele>
        <time>2015-07-17T13:07:18Z</time>
      </trkpt>
      <trkpt lat="49.27053" lon="0.98211">
        <ele>148.66</ele>
        <time>2015-07-17T13:07:19Z</time>
      </trkpt>
      <trkpt lat="49.27053" lon="0.98206">
        <ele>148.66</ele>
        <time>2015-07-17T13:07:20Z</time>
      </trkpt>
      <trkpt lat="49.27054" lon="0.98201">
        <ele>148.66</ele>
        <time>2015-07-17T13:07:21Z</time>
      </trkpt>
      <trkpt lat="49.27056" lon="0.98197">
        <ele>148.18</ele>
        <time>2015-07-17T13:07:22Z</time>
      </trkpt>
      <trkpt lat="49.27058" lon="0.98191">
        <ele>147.7</ele>
        <time>2015-07-17T13:07:23Z</time>
      </trkpt>
      <trkpt lat="49.27059" lon="0.98186">
        <ele>147.7</ele>
        <time>2015-07-17T13:07:24Z</time>
      </trkpt>
      <trkpt lat="49.27061" lon="0.98181">
        <ele>147.22</ele>
        <time>2015-07-17T13:07:25Z</time>
      </trkpt>
      <trkpt lat="49.27062" lon="0.98177">
        <ele>146.74</ele>
        <time>2015-07-17T13:07:26Z</time>
      </trkpt>
      <trkpt lat="49.27063" lon="0.98173">
        <ele>146.74</ele>
        <time>2015-07-17T13:07:27Z</time>
      </trkpt>
      <trkpt lat="49.27062" lon="0.9817">
        <ele>146.26</ele>
        <time>2015-07-17T13:07:28Z</time>
      </trkpt>
      <trkpt lat="49.2706" lon="0.98169">
        <ele>145.78</ele>
        <time>2015-07-17T13:07:29Z</time>
      </trkpt>
      <trkpt lat="49.27058" lon="0.98168">
        <ele>145.78</ele>
        <time>2015-07-17T13:07:30Z</time>
      </trkpt>
      <trkpt lat="49.27056" lon="0.98167">
        <ele>145.78</ele>
        <time>2015-07-17T13:07:31Z</time>
      </trkpt>
      <trkpt lat="49.27055" lon="0.98167">
        <ele>145.78</ele>
        <time>2015-07-17T13:07:32Z</time>
      </trkpt>
      <trkpt lat="49.27042" lon="0.98156">
        <ele>145.78</ele>
        <time>2015-07-17T13:07:43Z</time>
      </trkpt>
      <trkpt lat="49.27041" lon="0.98154">
        <ele>145.78</ele>
        <time>2015-07-17T13:07:59Z</time>
      </trkpt>
      <trkpt lat="49.27039" lon="0.98151">
        <ele>146.26</ele>
        <time>2015-07-17T13:08:15Z</time>
      </trkpt>
      <trkpt lat="49.27039" lon="0.98149">
        <ele>145.78</ele>
        <time>2015-07-17T13:08:37Z</time>
      </trkpt>
      <trkpt lat="49.27047" lon="0.98144">
        <ele>144.82</ele>
        <time>2015-07-17T13:08:42Z</time>
      </trkpt>
      <trkpt lat="49.27075" lon="0.98127">
        <ele>141.93</ele>
        <time>2015-07-17T13:08:50Z</time>
      </trkpt>
      <trkpt lat="49.2709" lon="0.98121">
        <ele>137.61</ele>
        <time>2015-07-17T13:08:53Z</time>
      </trkpt>
      <trkpt lat="49.27096" lon="0.98118">
        <ele>137.13</ele>
        <time>2015-07-17T13:08:54Z</time>
      </trkpt>
      <trkpt lat="49.27101" lon="0.98116">
        <ele>137.13</ele>
        <time>2015-07-17T13:08:55Z</time>
      </trkpt>
      <trkpt lat="49.27119" lon="0.98107">
        <ele>136.16</ele>
        <time>2015-07-17T13:09:01Z</time>
      </trkpt>
      <trkpt lat="49.27125" lon="0.98106">
        <ele>136.16</ele>
        <time>2015-07-17T13:09:07Z</time>
      </trkpt>
      <trkpt lat="49.27128" lon="0.98105">
        <ele>138.09</ele>
        <time>2015-07-17T13:09:21Z</time>
      </trkpt>
      <trkpt lat="49.2713" lon="0.98105">
        <ele>136.64</ele>
        <time>2015-07-17T13:09:38Z</time>
      </trkpt>
      <trkpt lat="49.27134" lon="0.98105">
        <ele>136.64</ele>
        <time>2015-07-17T13:10:11Z</time>
      </trkpt>
      <trkpt lat="49.27136" lon="0.98105">
        <ele>136.16</ele>
        <time>2015-07-17T13:10:40Z</time>
      </trkpt>
      <trkpt lat="49.27141" lon="0.98105">
        <ele>136.64</ele>
        <time>2015-07-17T13:10:56Z</time>
      </trkpt>
      <trkpt lat="49.27164" lon="0.98096">
        <ele>136.64</ele>
        <time>2015-07-17T13:11:07Z</time>
      </trkpt>
      <trkpt lat="49.27185" lon="0.98089">
        <ele>138.09</ele>
        <time>2015-07-17T13:11:15Z</time>
      </trkpt>
      <trkpt lat="49.27195" lon="0.98088">
        <ele>139.05</ele>
        <time>2015-07-17T13:11:19Z</time>
      </trkpt>
      <trkpt lat="49.27206" lon="0.98082">
        <ele>140.97</ele>
        <time>2015-07-17T13:11:24Z</time>
      </trkpt>
      <trkpt lat="49.2721" lon="0.98073">
        <ele>141.93</ele>
        <time>2015-07-17T13:11:28Z</time>
      </trkpt>
      <trkpt lat="49.27216" lon="0.98063">
        <ele>143.37</ele>
        <time>2015-07-17T13:11:34Z</time>
      </trkpt>
      <trkpt lat="49.27223" lon="0.98039">
        <ele>144.82</ele>
        <time>2015-07-17T13:11:43Z</time>
      </trkpt>
      <trkpt lat="49.27226" lon="0.97994">
        <ele>144.34</ele>
        <time>2015-07-17T13:11:53Z</time>
      </trkpt>
      <trkpt lat="49.27225" lon="0.97986">
        <ele>145.78</ele>
        <time>2015-07-17T13:11:55Z</time>
      </trkpt>
      <trkpt lat="49.27213" lon="0.97944">
        <ele>146.26</ele>
        <time>2015-07-17T13:12:05Z</time>
      </trkpt>
      <trkpt lat="49.27219" lon="0.97921">
        <ele>147.22</ele>
        <time>2015-07-17T13:12:11Z</time>
      </trkpt>
      <trkpt lat="49.27242" lon="0.97875">
        <ele>147.22</ele>
        <time>2015-07-17T13:12:23Z</time>
      </trkpt>
      <trkpt lat="49.27269" lon="0.97822">
        <ele>146.74</ele>
        <time>2015-07-17T13:12:33Z</time>
      </trkpt>
      <trkpt lat="49.27272" lon="0.97815">
        <ele>146.74</ele>
        <time>2015-07-17T13:12:34Z</time>
      </trkpt>
      <trkpt lat="49.27275" lon="0.97809">
        <ele>146.74</ele>
        <time>2015-07-17T13:12:35Z</time>
      </trkpt>
      <trkpt lat="49.2728" lon="0.97795">
        <ele>146.26</ele>
        <time>2015-07-17T13:12:37Z</time>
      </trkpt>
      <trkpt lat="49.27282" lon="0.97788">
        <ele>146.26</ele>
        <time>2015-07-17T13:12:38Z</time>
      </trkpt>
      <trkpt lat="49.27287" lon="0.97777">
        <ele>146.26</ele>
        <time>2015-07-17T13:12:40Z</time>
      </trkpt>
      <trkpt lat="49.2729" lon="0.97771">
        <ele>146.26</ele>
        <time>2015-07-17T13:12:41Z</time>
      </trkpt>
      <trkpt lat="49.27299" lon="0.97754">
        <ele>146.26</ele>
        <time>2015-07-17T13:12:44Z</time>
      </trkpt>
      <trkpt lat="49.27301" lon="0.97749">
        <ele>146.26</ele>
        <time>2015-07-17T13:12:45Z</time>
      </trkpt>
      <trkpt lat="49.27303" lon="0.97744">
        <ele>145.78</ele>
        <time>2015-07-17T13:12:46Z</time>
      </trkpt>
      <trkpt lat="49.27336" lon="0.97668">
        <ele>145.3</ele>
        <time>2015-07-17T13:12:58Z</time>
      </trkpt>
      <trkpt lat="49.27365" lon="0.9761">
        <ele>144.34</ele>
        <time>2015-07-17T13:13:10Z</time>
      </trkpt>
      <trkpt lat="49.27389" lon="0.97566">
        <ele>141.93</ele>
        <time>2015-07-17T13:13:19Z</time>
      </trkpt>
      <trkpt lat="49.2741" lon="0.97529">
        <ele>137.61</ele>
        <time>2015-07-17T13:13:24Z</time>
      </trkpt>
      <trkpt lat="49.27416" lon="0.97522">
        <ele>136.64</ele>
        <time>2015-07-17T13:13:25Z</time>
      </trkpt>
      <trkpt lat="49.27422" lon="0.97516">
        <ele>136.64</ele>
        <time>2015-07-17T13:13:26Z</time>
      </trkpt>
      <trkpt lat="49.27428" lon="0.97512">
        <ele>136.64</ele>
        <time>2015-07-17T13:13:27Z</time>
      </trkpt>
      <trkpt lat="49.27434" lon="0.9751">
        <ele>136.64</ele>
        <time>2015-07-17T13:13:28Z</time>
      </trkpt>
      <trkpt lat="49.27439" lon="0.97509">
        <ele>136.64</ele>
        <time>2015-07-17T13:13:29Z</time>
      </trkpt>
      <trkpt lat="49.27472" lon="0.97514">
        <ele>137.61</ele>
        <time>2015-07-17T13:13:38Z</time>
      </trkpt>
      <trkpt lat="49.27491" lon="0.97518">
        <ele>137.61</ele>
        <time>2015-07-17T13:13:43Z</time>
      </trkpt>
      <trkpt lat="49.27496" lon="0.97517">
        <ele>137.61</ele>
        <time>2015-07-17T13:13:44Z</time>
      </trkpt>
      <trkpt lat="49.275" lon="0.97516">
        <ele>137.61</ele>
        <time>2015-07-17T13:13:45Z</time>
      </trkpt>
      <trkpt lat="49.27503" lon="0.97517">
        <ele>138.09</ele>
        <time>2015-07-17T13:13:46Z</time>
      </trkpt>
      <trkpt lat="49.27506" lon="0.97519">
        <ele>138.09</ele>
        <time>2015-07-17T13:13:47Z</time>
      </trkpt>
      <trkpt lat="49.2751" lon="0.9752">
        <ele>138.09</ele>
        <time>2015-07-17T13:13:48Z</time>
      </trkpt>
      <trkpt lat="49.27513" lon="0.97519">
        <ele>138.09</ele>
        <time>2015-07-17T13:13:49Z</time>
      </trkpt>
      <trkpt lat="49.27515" lon="0.97519">
        <ele>138.57</ele>
        <time>2015-07-17T13:13:50Z</time>
      </trkpt>
      <trkpt lat="49.27524" lon="0.97517">
        <ele>138.57</ele>
        <time>2015-07-17T13:14:01Z</time>
      </trkpt>
      <trkpt lat="49.27525" lon="0.97515">
        <ele>138.57</ele>
        <time>2015-07-17T13:14:02Z</time>
      </trkpt>
      <trkpt lat="49.27525" lon="0.97512">
        <ele>139.05</ele>
        <time>2015-07-17T13:14:03Z</time>
      </trkpt>
      <trkpt lat="49.27524" lon="0.97509">
        <ele>139.05</ele>
        <time>2015-07-17T13:14:04Z</time>
      </trkpt>
      <trkpt lat="49.27523" lon="0.97505">
        <ele>139.05</ele>
        <time>2015-07-17T13:14:05Z</time>
      </trkpt>
      <trkpt lat="49.27517" lon="0.97468">
        <ele>140.01</ele>
        <time>2015-07-17T13:14:15Z</time>
      </trkpt>
      <trkpt lat="49.27519" lon="0.97464">
        <ele>140.01</ele>
        <time>2015-07-17T13:14:16Z</time>
      </trkpt>
      <trkpt lat="49.27522" lon="0.97463">
        <ele>140.97</ele>
        <time>2015-07-17T13:14:17Z</time>
      </trkpt>
      <trkpt lat="49.27546" lon="0.97456">
        <ele>142.41</ele>
        <time>2015-07-17T13:14:26Z</time>
      </trkpt>
      <trkpt lat="49.27547" lon="0.97457">
        <ele>142.41</ele>
        <time>2015-07-17T13:14:27Z</time>
      </trkpt>
      <trkpt lat="49.27548" lon="0.97458">
        <ele>142.41</ele>
        <time>2015-07-17T13:14:28Z</time>
      </trkpt>
      <trkpt lat="49.27548" lon="0.97459">
        <ele>142.41</ele>
        <time>2015-07-17T13:14:29Z</time>
      </trkpt>
      <trkpt lat="49.27553" lon="0.97473">
        <ele>142.41</ele>
        <time>2015-07-17T13:14:36Z</time>
      </trkpt>
      <trkpt lat="49.27554" lon="0.97474">
        <ele>142.41</ele>
        <time>2015-07-17T13:14:37Z</time>
      </trkpt>
      <trkpt lat="49.27556" lon="0.97475">
        <ele>142.41</ele>
        <time>2015-07-17T13:14:38Z</time>
      </trkpt>
      <trkpt lat="49.27558" lon="0.97476">
        <ele>142.41</ele>
        <time>2015-07-17T13:14:39Z</time>
      </trkpt>
      <trkpt lat="49.27559" lon="0.97477">
        <ele>141.93</ele>
        <time>2015-07-17T13:14:40Z</time>
      </trkpt>
      <trkpt lat="49.27561" lon="0.97478">
        <ele>142.41</ele>
        <time>2015-07-17T13:14:41Z</time>
      </trkpt>
      <trkpt lat="49.27581" lon="0.97497">
        <ele>142.41</ele>
        <time>2015-07-17T13:14:52Z</time>
      </trkpt>
      <trkpt lat="49.27607" lon="0.97522">
        <ele>142.41</ele>
        <time>2015-07-17T13:15:03Z</time>
      </trkpt>
      <trkpt lat="49.2761" lon="0.97526">
        <ele>141.93</ele>
        <time>2015-07-17T13:15:04Z</time>
      </trkpt>
      <trkpt lat="49.27613" lon="0.97528">
        <ele>142.41</ele>
        <time>2015-07-17T13:15:05Z</time>
      </trkpt>
      <trkpt lat="49.27653" lon="0.97572">
        <ele>141.45</ele>
        <time>2015-07-17T13:15:18Z</time>
      </trkpt>
      <trkpt lat="49.27689" lon="0.97629">
        <ele>140.49</ele>
        <time>2015-07-17T13:15:29Z</time>
      </trkpt>
      <trkpt lat="49.27714" lon="0.97658">
        <ele>139.53</ele>
        <time>2015-07-17T13:15:39Z</time>
      </trkpt>
      <trkpt lat="49.27715" lon="0.97661">
        <ele>140.01</ele>
        <time>2015-07-17T13:15:40Z</time>
      </trkpt>
      <trkpt lat="49.27751" lon="0.97706">
        <ele>140.01</ele>
        <time>2015-07-17T13:15:52Z</time>
      </trkpt>
      <trkpt lat="49.27784" lon="0.97727">
        <ele>140.49</ele>
        <time>2015-07-17T13:16:03Z</time>
      </trkpt>
      <trkpt lat="49.2779" lon="0.9773">
        <ele>141.45</ele>
        <time>2015-07-17T13:16:05Z</time>
      </trkpt>
      <trkpt lat="49.27811" lon="0.97739">
        <ele>141.45</ele>
        <time>2015-07-17T13:16:12Z</time>
      </trkpt>
      <trkpt lat="49.27821" lon="0.97746">
        <ele>141.93</ele>
        <time>2015-07-17T13:16:16Z</time>
      </trkpt>
      <trkpt lat="49.27841" lon="0.97773">
        <ele>141.45</ele>
        <time>2015-07-17T13:16:22Z</time>
      </trkpt>
      <trkpt lat="49.27844" lon="0.9778">
        <ele>141.45</ele>
        <time>2015-07-17T13:16:23Z</time>
      </trkpt>
      <trkpt lat="49.27851" lon="0.97792">
        <ele>141.45</ele>
        <time>2015-07-17T13:16:25Z</time>
      </trkpt>
      <trkpt lat="49.27876" lon="0.97823">
        <ele>141.93</ele>
        <time>2015-07-17T13:16:33Z</time>
      </trkpt>
      <trkpt lat="49.27878" lon="0.97825">
        <ele>141.45</ele>
        <time>2015-07-17T13:16:34Z</time>
      </trkpt>
      <trkpt lat="49.2788" lon="0.97828">
        <ele>141.45</ele>
        <time>2015-07-17T13:16:35Z</time>
      </trkpt>
      <trkpt lat="49.27881" lon="0.97831">
        <ele>141.45</ele>
        <time>2015-07-17T13:16:36Z</time>
      </trkpt>
      <trkpt lat="49.27882" lon="0.97834">
        <ele>141.45</ele>
        <time>2015-07-17T13:16:37Z</time>
      </trkpt>
      <trkpt lat="49.27883" lon="0.97838">
        <ele>142.41</ele>
        <time>2015-07-17T13:16:38Z</time>
      </trkpt>
      <trkpt lat="49.27884" lon="0.97841">
        <ele>141.45</ele>
        <time>2015-07-17T13:16:39Z</time>
      </trkpt>
      <trkpt lat="49.27884" lon="0.97846">
        <ele>141.45</ele>
        <time>2015-07-17T13:16:40Z</time>
      </trkpt>
      <trkpt lat="49.27885" lon="0.97849">
        <ele>141.45</ele>
        <time>2015-07-17T13:16:41Z</time>
      </trkpt>
      <trkpt lat="49.27887" lon="0.97852">
        <ele>139.05</ele>
        <time>2015-07-17T13:16:42Z</time>
      </trkpt>
      <trkpt lat="49.27888" lon="0.97855">
        <ele>143.37</ele>
        <time>2015-07-17T13:16:43Z</time>
      </trkpt>
      <trkpt lat="49.27897" lon="0.97886">
        <ele>140.97</ele>
        <time>2015-07-17T13:16:49Z</time>
      </trkpt>
      <trkpt lat="49.2792" lon="0.97962">
        <ele>142.41</ele>
        <time>2015-07-17T13:17:02Z</time>
      </trkpt>
      <trkpt lat="49.27933" lon="0.98004">
        <ele>140.49</ele>
        <time>2015-07-17T13:17:09Z</time>
      </trkpt>
      <trkpt lat="49.27935" lon="0.9801">
        <ele>140.49</ele>
        <time>2015-07-17T13:17:10Z</time>
      </trkpt>
      <trkpt lat="49.27937" lon="0.98017">
        <ele>140.49</ele>
        <time>2015-07-17T13:17:11Z</time>
      </trkpt>
      <trkpt lat="49.27942" lon="0.98036">
        <ele>140.49</ele>
        <time>2015-07-17T13:17:14Z</time>
      </trkpt>
      <trkpt lat="49.27944" lon="0.98042">
        <ele>140.49</ele>
        <time>2015-07-17T13:17:15Z</time>
      </trkpt>
      <trkpt lat="49.27946" lon="0.98049">
        <ele>140.01</ele>
        <time>2015-07-17T13:17:16Z</time>
      </trkpt>
      <trkpt lat="49.27948" lon="0.98055">
        <ele>140.49</ele>
        <time>2015-07-17T13:17:17Z</time>
      </trkpt>
      <trkpt lat="49.27951" lon="0.98062">
        <ele>140.01</ele>
        <time>2015-07-17T13:17:18Z</time>
      </trkpt>
      <trkpt lat="49.27961" lon="0.98087">
        <ele>140.01</ele>
        <time>2015-07-17T13:17:22Z</time>
      </trkpt>
      <trkpt lat="49.27964" lon="0.98093">
        <ele>139.53</ele>
        <time>2015-07-17T13:17:23Z</time>
      </trkpt>
      <trkpt lat="49.27971" lon="0.98111">
        <ele>140.01</ele>
        <time>2015-07-17T13:17:26Z</time>
      </trkpt>
      <trkpt lat="49.27974" lon="0.98117">
        <ele>140.01</ele>
        <time>2015-07-17T13:17:27Z</time>
      </trkpt>
      <trkpt lat="49.27994" lon="0.98165">
        <ele>140.01</ele>
        <time>2015-07-17T13:17:35Z</time>
      </trkpt>
      <trkpt lat="49.28011" lon="0.98209">
        <ele>139.53</ele>
        <time>2015-07-17T13:17:42Z</time>
      </trkpt>
      <trkpt lat="49.28015" lon="0.98222">
        <ele>139.53</ele>
        <time>2015-07-17T13:17:44Z</time>
      </trkpt>
      <trkpt lat="49.28016" lon="0.98229">
        <ele>139.53</ele>
        <time>2015-07-17T13:17:45Z</time>
      </trkpt>
      <trkpt lat="49.28017" lon="0.98236">
        <ele>139.53</ele>
        <time>2015-07-17T13:17:46Z</time>
      </trkpt>
      <trkpt lat="49.28024" lon="0.98308">
        <ele>138.57</ele>
        <time>2015-07-17T13:17:56Z</time>
      </trkpt>
      <trkpt lat="49.28029" lon="0.98355">
        <ele>138.57</ele>
        <time>2015-07-17T13:18:02Z</time>
      </trkpt>
      <trkpt lat="49.2803" lon="0.98362">
        <ele>140.01</ele>
        <time>2015-07-17T13:18:03Z</time>
      </trkpt>
      <trkpt lat="49.28032" lon="0.98375">
        <ele>138.09</ele>
        <time>2015-07-17T13:18:05Z</time>
      </trkpt>
      <trkpt lat="49.28032" lon="0.98383">
        <ele>138.09</ele>
        <time>2015-07-17T13:18:06Z</time>
      </trkpt>
      <trkpt lat="49.28033" lon="0.98391">
        <ele>137.61</ele>
        <time>2015-07-17T13:18:07Z</time>
      </trkpt>
      <trkpt lat="49.28041" lon="0.98487">
        <ele>136.64</ele>
        <time>2015-07-17T13:18:18Z</time>
      </trkpt>
      <trkpt lat="49.28041" lon="0.98512">
        <ele>137.13</ele>
        <time>2015-07-17T13:18:25Z</time>
      </trkpt>
      <trkpt lat="49.28041" lon="0.98516">
        <ele>137.13</ele>
        <time>2015-07-17T13:18:55Z</time>
      </trkpt>
      <trkpt lat="49.28041" lon="0.98518">
        <ele>137.13</ele>
        <time>2015-07-17T13:19:27Z</time>
      </trkpt>
      <trkpt lat="49.28043" lon="0.9852">
        <ele>136.64</ele>
        <time>2015-07-17T13:19:41Z</time>
      </trkpt>
      <trkpt lat="49.28044" lon="0.98521">
        <ele>136.64</ele>
        <time>2015-07-17T13:19:42Z</time>
      </trkpt>
      <trkpt lat="49.28045" lon="0.98523">
        <ele>136.64</ele>
        <time>2015-07-17T13:19:43Z</time>
      </trkpt>
      <trkpt lat="49.28047" lon="0.98526">
        <ele>136.64</ele>
        <time>2015-07-17T13:19:44Z</time>
      </trkpt>
      <trkpt lat="49.28048" lon="0.98528">
        <ele>136.64</ele>
        <time>2015-07-17T13:19:45Z</time>
      </trkpt>
      <trkpt lat="49.28051" lon="0.98531">
        <ele>136.64</ele>
        <time>2015-07-17T13:19:46Z</time>
      </trkpt>
      <trkpt lat="49.28082" lon="0.98571">
        <ele>136.16</ele>
        <time>2015-07-17T13:19:57Z</time>
      </trkpt>
      <trkpt lat="49.28092" lon="0.98583">
        <ele>136.16</ele>
        <time>2015-07-17T13:20:00Z</time>
      </trkpt>
      <trkpt lat="49.28129" lon="0.98638">
        <ele>135.68</ele>
        <time>2015-07-17T13:20:12Z</time>
      </trkpt>
      <trkpt lat="49.28132" lon="0.98644">
        <ele>135.68</ele>
        <time>2015-07-17T13:20:13Z</time>
      </trkpt>
      <trkpt lat="49.28155" lon="0.98681">
        <ele>134.72</ele>
        <time>2015-07-17T13:20:20Z</time>
      </trkpt>
      <trkpt lat="49.28182" lon="0.98699">
        <ele>134.72</ele>
        <time>2015-07-17T13:20:26Z</time>
      </trkpt>
      <trkpt lat="49.28194" lon="0.98711">
        <ele>134.72</ele>
        <time>2015-07-17T13:20:29Z</time>
      </trkpt>
      <trkpt lat="49.28213" lon="0.98726">
        <ele>134.24</ele>
        <time>2015-07-17T13:20:33Z</time>
      </trkpt>
      <trkpt lat="49.28249" lon="0.98753">
        <ele>133.76</ele>
        <time>2015-07-17T13:20:42Z</time>
      </trkpt>
      <trkpt lat="49.28265" lon="0.98786">
        <ele>131.84</ele>
        <time>2015-07-17T13:20:49Z</time>
      </trkpt>
      <trkpt lat="49.28278" lon="0.98795">
        <ele>131.84</ele>
        <time>2015-07-17T13:20:54Z</time>
      </trkpt>
      <trkpt lat="49.2829" lon="0.98809">
        <ele>130.4</ele>
        <time>2015-07-17T13:20:58Z</time>
      </trkpt>
      <trkpt lat="49.28293" lon="0.98813">
        <ele>129.92</ele>
        <time>2015-07-17T13:20:59Z</time>
      </trkpt>
      <trkpt lat="49.28311" lon="0.98811">
        <ele>130.88</ele>
        <time>2015-07-17T13:21:04Z</time>
      </trkpt>
      <trkpt lat="49.28331" lon="0.98816">
        <ele>131.36</ele>
        <time>2015-07-17T13:21:09Z</time>
      </trkpt>
      <trkpt lat="49.2834" lon="0.98822">
        <ele>130.88</ele>
        <time>2015-07-17T13:21:11Z</time>
      </trkpt>
      <trkpt lat="49.28365" lon="0.98808">
        <ele>131.36</ele>
        <time>2015-07-17T13:21:20Z</time>
      </trkpt>
      <trkpt lat="49.28389" lon="0.98812">
        <ele>129.92</ele>
        <time>2015-07-17T13:21:26Z</time>
      </trkpt>
      <trkpt lat="49.28398" lon="0.98817">
        <ele>129.43</ele>
        <time>2015-07-17T13:21:28Z</time>
      </trkpt>
      <trkpt lat="49.28419" lon="0.9883">
        <ele>127.99</ele>
        <time>2015-07-17T13:21:33Z</time>
      </trkpt>
      <trkpt lat="49.28423" lon="0.98834">
        <ele>127.51</ele>
        <time>2015-07-17T13:21:34Z</time>
      </trkpt>
      <trkpt lat="49.28426" lon="0.98836">
        <ele>127.03</ele>
        <time>2015-07-17T13:21:35Z</time>
      </trkpt>
      <trkpt lat="49.2843" lon="0.98838">
        <ele>127.03</ele>
        <time>2015-07-17T13:21:36Z</time>
      </trkpt>
      <trkpt lat="49.28433" lon="0.9884">
        <ele>126.55</ele>
        <time>2015-07-17T13:21:37Z</time>
      </trkpt>
      <trkpt lat="49.28435" lon="0.98841">
        <ele>126.55</ele>
        <time>2015-07-17T13:21:38Z</time>
      </trkpt>
      <trkpt lat="49.28447" lon="0.98842">
        <ele>126.55</ele>
        <time>2015-07-17T13:21:52Z</time>
      </trkpt>
      <trkpt lat="49.28448" lon="0.98839">
        <ele>125.59</ele>
        <time>2015-07-17T13:22:07Z</time>
      </trkpt>
      <trkpt lat="49.28451" lon="0.98836">
        <ele>126.07</ele>
        <time>2015-07-17T13:22:38Z</time>
      </trkpt>
      <trkpt lat="49.28451" lon="0.98836">
        <ele>126.07</ele>
        <time>2015-07-17T13:23:05Z</time>
      </trkpt>
      <trkpt lat="49.28453" lon="0.98837">
        <ele>125.59</ele>
        <time>2015-07-17T13:23:07Z</time>
      </trkpt>
      <trkpt lat="49.28454" lon="0.98839">
        <ele>125.11</ele>
        <time>2015-07-17T13:23:08Z</time>
      </trkpt>
      <trkpt lat="49.28455" lon="0.9884">
        <ele>125.11</ele>
        <time>2015-07-17T13:23:09Z</time>
      </trkpt>
      <trkpt lat="49.28456" lon="0.98843">
        <ele>124.63</ele>
        <time>2015-07-17T13:23:10Z</time>
      </trkpt>
      <trkpt lat="49.28458" lon="0.98846">
        <ele>124.15</ele>
        <time>2015-07-17T13:23:11Z</time>
      </trkpt>
      <trkpt lat="49.2846" lon="0.98849">
        <ele>123.67</ele>
        <time>2015-07-17T13:23:12Z</time>
      </trkpt>
      <trkpt lat="49.28462" lon="0.98852">
        <ele>123.19</ele>
        <time>2015-07-17T13:23:13Z</time>
      </trkpt>
      <trkpt lat="49.28465" lon="0.98856">
        <ele>123.19</ele>
        <time>2015-07-17T13:23:14Z</time>
      </trkpt>
      <trkpt lat="49.28486" lon="0.98886">
        <ele>120.78</ele>
        <time>2015-07-17T13:23:19Z</time>
      </trkpt>
      <trkpt lat="49.28508" lon="0.98914">
        <ele>117.42</ele>
        <time>2015-07-17T13:23:23Z</time>
      </trkpt>
      <trkpt lat="49.28535" lon="0.9895">
        <ele>114.05</ele>
        <time>2015-07-17T13:23:27Z</time>
      </trkpt>
      <trkpt lat="49.28572" lon="0.98984">
        <ele>110.21</ele>
        <time>2015-07-17T13:23:31Z</time>
      </trkpt>
      <trkpt lat="49.28593" lon="0.98999">
        <ele>106.36</ele>
        <time>2015-07-17T13:23:33Z</time>
      </trkpt>
      <trkpt lat="49.28613" lon="0.99011">
        <ele>103.96</ele>
        <time>2015-07-17T13:23:35Z</time>
      </trkpt>
      <trkpt lat="49.28643" lon="0.99018">
        <ele>101.08</ele>
        <time>2015-07-17T13:23:38Z</time>
      </trkpt>
      <trkpt lat="49.28669" lon="0.99019">
        <ele>98.19</ele>
        <time>2015-07-17T13:23:41Z</time>
      </trkpt>
      <trkpt lat="49.28692" lon="0.99021">
        <ele>95.79</ele>
        <time>2015-07-17T13:23:43Z</time>
      </trkpt>
      <trkpt lat="49.28704" lon="0.99023">
        <ele>94.83</ele>
        <time>2015-07-17T13:23:44Z</time>
      </trkpt>
      <trkpt lat="49.28714" lon="0.99027">
        <ele>93.87</ele>
        <time>2015-07-17T13:23:45Z</time>
      </trkpt>
      <trkpt lat="49.28723" lon="0.99031">
        <ele>93.87</ele>
        <time>2015-07-17T13:23:46Z</time>
      </trkpt>
      <trkpt lat="49.2873" lon="0.99032">
        <ele>93.39</ele>
        <time>2015-07-17T13:23:47Z</time>
      </trkpt>
      <trkpt lat="49.28734" lon="0.99031">
        <ele>93.39</ele>
        <time>2015-07-17T13:23:48Z</time>
      </trkpt>
      <trkpt lat="49.28736" lon="0.99031">
        <ele>93.39</ele>
        <time>2015-07-17T13:23:49Z</time>
      </trkpt>
      <trkpt lat="49.28738" lon="0.99032">
        <ele>93.39</ele>
        <time>2015-07-17T13:23:50Z</time>
      </trkpt>
      <trkpt lat="49.28743" lon="0.9903">
        <ele>93.39</ele>
        <time>2015-07-17T13:24:05Z</time>
      </trkpt>
      <trkpt lat="49.28742" lon="0.99029">
        <ele>93.39</ele>
        <time>2015-07-17T13:24:06Z</time>
      </trkpt>
      <trkpt lat="49.28753" lon="0.99018">
        <ele>89.06</ele>
        <time>2015-07-17T13:24:10Z</time>
      </trkpt>
      <trkpt lat="49.28756" lon="0.99014">
        <ele>87.62</ele>
        <time>2015-07-17T13:24:11Z</time>
      </trkpt>
      <trkpt lat="49.28759" lon="0.99012">
        <ele>86.18</ele>
        <time>2015-07-17T13:24:12Z</time>
      </trkpt>
      <trkpt lat="49.28761" lon="0.99007">
        <ele>83.77</ele>
        <time>2015-07-17T13:24:15Z</time>
      </trkpt>
      <trkpt lat="49.28754" lon="0.98986">
        <ele>82.33</ele>
        <time>2015-07-17T13:24:26Z</time>
      </trkpt>
      <trkpt lat="49.28753" lon="0.98982">
        <ele>82.33</ele>
        <time>2015-07-17T13:24:27Z</time>
      </trkpt>
      <trkpt lat="49.28745" lon="0.98965">
        <ele>79.45</ele>
        <time>2015-07-17T13:24:31Z</time>
      </trkpt>
      <trkpt lat="49.28741" lon="0.9896">
        <ele>78.48</ele>
        <time>2015-07-17T13:24:32Z</time>
      </trkpt>
      <trkpt lat="49.28737" lon="0.98953">
        <ele>77.52</ele>
        <time>2015-07-17T13:24:33Z</time>
      </trkpt>
      <trkpt lat="49.28733" lon="0.98945">
        <ele>76.56</ele>
        <time>2015-07-17T13:24:34Z</time>
      </trkpt>
      <trkpt lat="49.28717" lon="0.98916">
        <ele>73.68</ele>
        <time>2015-07-17T13:24:37Z</time>
      </trkpt>
      <trkpt lat="49.28696" lon="0.98884">
        <ele>69.83</ele>
        <time>2015-07-17T13:24:40Z</time>
      </trkpt>
      <trkpt lat="49.28676" lon="0.98847">
        <ele>66.47</ele>
        <time>2015-07-17T13:24:43Z</time>
      </trkpt>
      <trkpt lat="49.28666" lon="0.9882">
        <ele>63.58</ele>
        <time>2015-07-17T13:24:45Z</time>
      </trkpt>
      <trkpt lat="49.28663" lon="0.98806">
        <ele>60.22</ele>
        <time>2015-07-17T13:24:46Z</time>
      </trkpt>
      <trkpt lat="49.28661" lon="0.98791">
        <ele>58.78</ele>
        <time>2015-07-17T13:24:47Z</time>
      </trkpt>
      <trkpt lat="49.28659" lon="0.98776">
        <ele>57.34</ele>
        <time>2015-07-17T13:24:48Z</time>
      </trkpt>
      <trkpt lat="49.28656" lon="0.98763">
        <ele>56.37</ele>
        <time>2015-07-17T13:24:49Z</time>
      </trkpt>
      <trkpt lat="49.28654" lon="0.98753">
        <ele>55.89</ele>
        <time>2015-07-17T13:24:50Z</time>
      </trkpt>
      <trkpt lat="49.28652" lon="0.98744">
        <ele>55.89</ele>
        <time>2015-07-17T13:24:51Z</time>
      </trkpt>
      <trkpt lat="49.28651" lon="0.98737">
        <ele>55.41</ele>
        <time>2015-07-17T13:24:52Z</time>
      </trkpt>
      <trkpt lat="49.28653" lon="0.98726">
        <ele>54.93</ele>
        <time>2015-07-17T13:24:59Z</time>
      </trkpt>
      <trkpt lat="49.28655" lon="0.98726">
        <ele>54.93</ele>
        <time>2015-07-17T13:25:13Z</time>
      </trkpt>
      <trkpt lat="49.28658" lon="0.98731">
        <ele>54.45</ele>
        <time>2015-07-17T13:25:16Z</time>
      </trkpt>
      <trkpt lat="49.28658" lon="0.98734">
        <ele>54.45</ele>
        <time>2015-07-17T13:25:17Z</time>
      </trkpt>
      <trkpt lat="49.28658" lon="0.98736">
        <ele>53.97</ele>
        <time>2015-07-17T13:25:18Z</time>
      </trkpt>
      <trkpt lat="49.28659" lon="0.9874">
        <ele>53.97</ele>
        <time>2015-07-17T13:25:20Z</time>
      </trkpt>
      <trkpt lat="49.28666" lon="0.98756">
        <ele>53.49</ele>
        <time>2015-07-17T13:25:24Z</time>
      </trkpt>
      <trkpt lat="49.28668" lon="0.9876">
        <ele>53.01</ele>
        <time>2015-07-17T13:25:25Z</time>
      </trkpt>
      <trkpt lat="49.28674" lon="0.9877">
        <ele>52.05</ele>
        <time>2015-07-17T13:25:27Z</time>
      </trkpt>
      <trkpt lat="49.28687" lon="0.98781">
        <ele>49.16</ele>
        <time>2015-07-17T13:25:30Z</time>
      </trkpt>
      <trkpt lat="49.28692" lon="0.98786">
        <ele>48.2</ele>
        <time>2015-07-17T13:25:31Z</time>
      </trkpt>
      <trkpt lat="49.28707" lon="0.98796">
        <ele>46.76</ele>
        <time>2015-07-17T13:25:33Z</time>
      </trkpt>
      <trkpt lat="49.28714" lon="0.988">
        <ele>46.76</ele>
        <time>2015-07-17T13:25:34Z</time>
      </trkpt>
      <trkpt lat="49.28734" lon="0.9881">
        <ele>46.76</ele>
        <time>2015-07-17T13:25:37Z</time>
      </trkpt>
      <trkpt lat="49.28746" lon="0.98815">
        <ele>46.76</ele>
        <time>2015-07-17T13:25:39Z</time>
      </trkpt>
      <trkpt lat="49.28779" lon="0.98829">
        <ele>46.76</ele>
        <time>2015-07-17T13:25:46Z</time>
      </trkpt>
      <trkpt lat="49.28787" lon="0.98835">
        <ele>46.76</ele>
        <time>2015-07-17T13:25:47Z</time>
      </trkpt>
      <trkpt lat="49.28804" lon="0.98848">
        <ele>46.76</ele>
        <time>2015-07-17T13:25:49Z</time>
      </trkpt>
      <trkpt lat="49.28815" lon="0.98859">
        <ele>46.76</ele>
        <time>2015-07-17T13:25:51Z</time>
      </trkpt>
      <trkpt lat="49.28818" lon="0.98865">
        <ele>46.76</ele>
        <time>2015-07-17T13:25:52Z</time>
      </trkpt>
      <trkpt lat="49.28822" lon="0.98871">
        <ele>47.24</ele>
        <time>2015-07-17T13:25:53Z</time>
      </trkpt>
      <trkpt lat="49.28825" lon="0.98878">
        <ele>47.24</ele>
        <time>2015-07-17T13:25:54Z</time>
      </trkpt>
      <trkpt lat="49.28827" lon="0.98884">
        <ele>47.24</ele>
        <time>2015-07-17T13:25:55Z</time>
      </trkpt>
      <trkpt lat="49.28844" lon="0.98913">
        <ele>47.24</ele>
        <time>2015-07-17T13:26:05Z</time>
      </trkpt>
      <trkpt lat="49.28856" lon="0.98946">
        <ele>45.8</ele>
        <time>2015-07-17T13:26:14Z</time>
      </trkpt>
      <trkpt lat="49.28888" lon="0.99024">
        <ele>44.36</ele>
        <time>2015-07-17T13:26:25Z</time>
      </trkpt>
      <trkpt lat="49.28899" lon="0.9905">
        <ele>43.88</ele>
        <time>2015-07-17T13:26:29Z</time>
      </trkpt>
      <trkpt lat="49.28903" lon="0.99056">
        <ele>43.88</ele>
        <time>2015-07-17T13:26:30Z</time>
      </trkpt>
      <trkpt lat="49.28938" lon="0.99107">
        <ele>42.92</ele>
        <time>2015-07-17T13:26:39Z</time>
      </trkpt>
      <trkpt lat="49.2894" lon="0.99115">
        <ele>42.92</ele>
        <time>2015-07-17T13:26:40Z</time>
      </trkpt>
      <trkpt lat="49.28941" lon="0.99124">
        <ele>42.92</ele>
        <time>2015-07-17T13:26:41Z</time>
      </trkpt>
      <trkpt lat="49.28941" lon="0.99133">
        <ele>42.92</ele>
        <time>2015-07-17T13:26:42Z</time>
      </trkpt>
      <trkpt lat="49.2894" lon="0.99142">
        <ele>42.44</ele>
        <time>2015-07-17T13:26:43Z</time>
      </trkpt>
      <trkpt lat="49.28939" lon="0.9915">
        <ele>42.44</ele>
        <time>2015-07-17T13:26:44Z</time>
      </trkpt>
      <trkpt lat="49.28928" lon="0.99221">
        <ele>41.95</ele>
        <time>2015-07-17T13:26:52Z</time>
      </trkpt>
      <trkpt lat="49.28927" lon="0.9923">
        <ele>41.47</ele>
        <time>2015-07-17T13:26:53Z</time>
      </trkpt>
      <trkpt lat="49.28924" lon="0.99256">
        <ele>40.99</ele>
        <time>2015-07-17T13:26:56Z</time>
      </trkpt>
      <trkpt lat="49.28922" lon="0.99264">
        <ele>40.99</ele>
        <time>2015-07-17T13:26:57Z</time>
      </trkpt>
      <trkpt lat="49.2892" lon="0.99273">
        <ele>40.99</ele>
        <time>2015-07-17T13:26:58Z</time>
      </trkpt>
      <trkpt lat="49.28918" lon="0.99282">
        <ele>40.99</ele>
        <time>2015-07-17T13:26:59Z</time>
      </trkpt>
      <trkpt lat="49.28916" lon="0.9929">
        <ele>40.99</ele>
        <time>2015-07-17T13:27:00Z</time>
      </trkpt>
      <trkpt lat="49.28911" lon="0.99315">
        <ele>40.03</ele>
        <time>2015-07-17T13:27:03Z</time>
      </trkpt>
      <trkpt lat="49.28906" lon="0.99349">
        <ele>39.55</ele>
        <time>2015-07-17T13:27:07Z</time>
      </trkpt>
      <trkpt lat="49.28905" lon="0.99358">
        <ele>39.55</ele>
        <time>2015-07-17T13:27:08Z</time>
      </trkpt>
      <trkpt lat="49.28906" lon="0.99366">
        <ele>39.55</ele>
        <time>2015-07-17T13:27:09Z</time>
      </trkpt>
      <trkpt lat="49.28906" lon="0.99374">
        <ele>39.55</ele>
        <time>2015-07-17T13:27:10Z</time>
      </trkpt>
      <trkpt lat="49.28907" lon="0.9938">
        <ele>39.55</ele>
        <time>2015-07-17T13:27:11Z</time>
      </trkpt>
      <trkpt lat="49.28913" lon="0.99402">
        <ele>39.07</ele>
        <time>2015-07-17T13:27:17Z</time>
      </trkpt>
      <trkpt lat="49.28917" lon="0.99403">
        <ele>39.07</ele>
        <time>2015-07-17T13:27:18Z</time>
      </trkpt>
      <trkpt lat="49.2892" lon="0.99401">
        <ele>39.07</ele>
        <time>2015-07-17T13:27:19Z</time>
      </trkpt>
      <trkpt lat="49.28923" lon="0.99397">
        <ele>39.07</ele>
        <time>2015-07-17T13:27:20Z</time>
      </trkpt>
      <trkpt lat="49.28927" lon="0.99393">
        <ele>39.07</ele>
        <time>2015-07-17T13:27:21Z</time>
      </trkpt>
      <trkpt lat="49.28935" lon="0.99378">
        <ele>39.55</ele>
        <time>2015-07-17T13:27:24Z</time>
      </trkpt>
      <trkpt lat="49.28945" lon="0.99349">
        <ele>40.51</ele>
        <time>2015-07-17T13:27:29Z</time>
      </trkpt>
      <trkpt lat="49.28959" lon="0.99298">
        <ele>42.92</ele>
        <time>2015-07-17T13:27:38Z</time>
      </trkpt>
      <trkpt lat="49.28972" lon="0.99244">
        <ele>43.88</ele>
        <time>2015-07-17T13:27:48Z</time>
      </trkpt>
      <trkpt lat="49.28974" lon="0.99238">
        <ele>44.36</ele>
        <time>2015-07-17T13:27:49Z</time>
      </trkpt>
      <trkpt lat="49.28993" lon="0.99155">
        <ele>47.24</ele>
        <time>2015-07-17T13:28:04Z</time>
      </trkpt>
      <trkpt lat="49.28981" lon="0.99067">
        <ele>49.16</ele>
        <time>2015-07-17T13:28:19Z</time>
      </trkpt>
      <trkpt lat="49.28974" lon="0.9905">
        <ele>49.16</ele>
        <time>2015-07-17T13:28:22Z</time>
      </trkpt>
      <trkpt lat="49.2894" lon="0.98971">
        <ele>50.61</ele>
        <time>2015-07-17T13:28:36Z</time>
      </trkpt>
      <trkpt lat="49.28905" lon="0.98886">
        <ele>51.57</ele>
        <time>2015-07-17T13:28:51Z</time>
      </trkpt>
      <trkpt lat="49.28894" lon="0.98849">
        <ele>53.01</ele>
        <time>2015-07-17T13:28:58Z</time>
      </trkpt>
      <trkpt lat="49.28899" lon="0.98828">
        <ele>53.97</ele>
        <time>2015-07-17T13:29:02Z</time>
      </trkpt>
      <trkpt lat="49.28901" lon="0.98823">
        <ele>53.97</ele>
        <time>2015-07-17T13:29:03Z</time>
      </trkpt>
      <trkpt lat="49.28903" lon="0.98818">
        <ele>53.49</ele>
        <time>2015-07-17T13:29:04Z</time>
      </trkpt>
      <trkpt lat="49.28906" lon="0.98813">
        <ele>54.93</ele>
        <time>2015-07-17T13:29:05Z</time>
      </trkpt>
      <trkpt lat="49.28909" lon="0.98809">
        <ele>54.93</ele>
        <time>2015-07-17T13:29:06Z</time>
      </trkpt>
      <trkpt lat="49.28941" lon="0.9876">
        <ele>57.82</ele>
        <time>2015-07-17T13:29:18Z</time>
      </trkpt>
      <trkpt lat="49.28969" lon="0.98718">
        <ele>61.18</ele>
        <time>2015-07-17T13:29:29Z</time>
      </trkpt>
      <trkpt lat="49.28997" lon="0.98675">
        <ele>64.07</ele>
        <time>2015-07-17T13:29:41Z</time>
      </trkpt>
      <trkpt lat="49.29026" lon="0.98636">
        <ele>66.95</ele>
        <time>2015-07-17T13:29:53Z</time>
      </trkpt>
      <trkpt lat="49.29045" lon="0.98606">
        <ele>68.87</ele>
        <time>2015-07-17T13:30:02Z</time>
      </trkpt>
      <trkpt lat="49.29071" lon="0.98561">
        <ele>72.24</ele>
        <time>2015-07-17T13:30:14Z</time>
      </trkpt>
      <trkpt lat="49.29085" lon="0.98512">
        <ele>75.12</ele>
        <time>2015-07-17T13:30:26Z</time>
      </trkpt>
      <trkpt lat="49.2909" lon="0.98469">
        <ele>78</ele>
        <time>2015-07-17T13:30:36Z</time>
      </trkpt>
      <trkpt lat="49.29089" lon="0.98412">
        <ele>80.89</ele>
        <time>2015-07-17T13:30:49Z</time>
      </trkpt>
      <trkpt lat="49.29084" lon="0.98355">
        <ele>84.25</ele>
        <time>2015-07-17T13:31:01Z</time>
      </trkpt>
      <trkpt lat="49.29105" lon="0.98294">
        <ele>87.14</ele>
        <time>2015-07-17T13:31:13Z</time>
      </trkpt>
      <trkpt lat="49.29111" lon="0.98279">
        <ele>88.1</ele>
        <time>2015-07-17T13:31:16Z</time>
      </trkpt>
      <trkpt lat="49.29113" lon="0.98276">
        <ele>88.1</ele>
        <time>2015-07-17T13:31:17Z</time>
      </trkpt>
      <trkpt lat="49.29116" lon="0.98272">
        <ele>88.58</ele>
        <time>2015-07-17T13:31:18Z</time>
      </trkpt>
      <trkpt lat="49.29118" lon="0.98268">
        <ele>89.06</ele>
        <time>2015-07-17T13:31:19Z</time>
      </trkpt>
      <trkpt lat="49.2912" lon="0.98265">
        <ele>89.06</ele>
        <time>2015-07-17T13:31:20Z</time>
      </trkpt>
      <trkpt lat="49.2915" lon="0.98244">
        <ele>92.42</ele>
        <time>2015-07-17T13:31:31Z</time>
      </trkpt>
      <trkpt lat="49.29176" lon="0.98223">
        <ele>94.83</ele>
        <time>2015-07-17T13:31:41Z</time>
      </trkpt>
      <trkpt lat="49.29209" lon="0.98197">
        <ele>97.71</ele>
        <time>2015-07-17T13:31:52Z</time>
      </trkpt>
      <trkpt lat="49.2924" lon="0.98167">
        <ele>100.11</ele>
        <time>2015-07-17T13:32:03Z</time>
      </trkpt>
      <trkpt lat="49.2927" lon="0.98135">
        <ele>102.52</ele>
        <time>2015-07-17T13:32:13Z</time>
      </trkpt>
      <trkpt lat="49.29306" lon="0.9811">
        <ele>106.84</ele>
        <time>2015-07-17T13:32:24Z</time>
      </trkpt>
      <trkpt lat="49.29353" lon="0.98096">
        <ele>108.29</ele>
        <time>2015-07-17T13:32:38Z</time>
      </trkpt>
      <trkpt lat="49.29359" lon="0.98094">
        <ele>108.77</ele>
        <time>2015-07-17T13:32:40Z</time>
      </trkpt>
      <trkpt lat="49.29361" lon="0.98094">
        <ele>108.77</ele>
        <time>2015-07-17T13:32:41Z</time>
      </trkpt>
      <trkpt lat="49.29364" lon="0.98093">
        <ele>109.25</ele>
        <time>2015-07-17T13:32:42Z</time>
      </trkpt>
      <trkpt lat="49.29367" lon="0.98093">
        <ele>109.25</ele>
        <time>2015-07-17T13:32:43Z</time>
      </trkpt>
      <trkpt lat="49.29371" lon="0.98093">
        <ele>109.25</ele>
        <time>2015-07-17T13:32:44Z</time>
      </trkpt>
      <trkpt lat="49.29414" lon="0.98084">
        <ele>112.13</ele>
        <time>2015-07-17T13:32:57Z</time>
      </trkpt>
      <trkpt lat="49.29444" lon="0.98053">
        <ele>113.57</ele>
        <time>2015-07-17T13:33:06Z</time>
      </trkpt>
      <trkpt lat="49.29476" lon="0.97993">
        <ele>116.94</ele>
        <time>2015-07-17T13:33:19Z</time>
      </trkpt>
      <trkpt lat="49.2951" lon="0.97953">
        <ele>119.82</ele>
        <time>2015-07-17T13:33:32Z</time>
      </trkpt>
      <trkpt lat="49.29539" lon="0.97922">
        <ele>121.74</ele>
        <time>2015-07-17T13:33:42Z</time>
      </trkpt>
      <trkpt lat="49.29574" lon="0.97888">
        <ele>124.15</ele>
        <time>2015-07-17T13:33:54Z</time>
      </trkpt>
      <trkpt lat="49.29608" lon="0.97858">
        <ele>126.55</ele>
        <time>2015-07-17T13:34:05Z</time>
      </trkpt>
      <trkpt lat="49.29635" lon="0.9784">
        <ele>128.47</ele>
        <time>2015-07-17T13:34:14Z</time>
      </trkpt>
      <trkpt lat="49.29638" lon="0.97841">
        <ele>128.95</ele>
        <time>2015-07-17T13:34:15Z</time>
      </trkpt>
      <trkpt lat="49.2964" lon="0.97845">
        <ele>128.95</ele>
        <time>2015-07-17T13:34:16Z</time>
      </trkpt>
      <trkpt lat="49.2964" lon="0.97849">
        <ele>128.95</ele>
        <time>2015-07-17T13:34:17Z</time>
      </trkpt>
      <trkpt lat="49.2964" lon="0.97852">
        <ele>128.95</ele>
        <time>2015-07-17T13:34:18Z</time>
      </trkpt>
      <trkpt lat="49.29639" lon="0.97856">
        <ele>129.43</ele>
        <time>2015-07-17T13:34:19Z</time>
      </trkpt>
      <trkpt lat="49.29637" lon="0.97861">
        <ele>129.43</ele>
        <time>2015-07-17T13:34:20Z</time>
      </trkpt>
      <trkpt lat="49.29636" lon="0.97865">
        <ele>129.43</ele>
        <time>2015-07-17T13:34:21Z</time>
      </trkpt>
      <trkpt lat="49.2962" lon="0.9792">
        <ele>130.88</ele>
        <time>2015-07-17T13:34:33Z</time>
      </trkpt>
      <trkpt lat="49.29617" lon="0.97985">
        <ele>132.32</ele>
        <time>2015-07-17T13:34:44Z</time>
      </trkpt>
      <trkpt lat="49.2962" lon="0.9805">
        <ele>133.28</ele>
        <time>2015-07-17T13:34:55Z</time>
      </trkpt>
      <trkpt lat="49.2962" lon="0.98113">
        <ele>133.76</ele>
        <time>2015-07-17T13:35:06Z</time>
      </trkpt>
      <trkpt lat="49.29615" lon="0.98169">
        <ele>133.76</ele>
        <time>2015-07-17T13:35:15Z</time>
      </trkpt>
      <trkpt lat="49.29607" lon="0.98208">
        <ele>133.76</ele>
        <time>2015-07-17T13:35:21Z</time>
      </trkpt>
      <trkpt lat="49.29606" lon="0.98214">
        <ele>134.24</ele>
        <time>2015-07-17T13:35:22Z</time>
      </trkpt>
      <trkpt lat="49.29605" lon="0.98221">
        <ele>134.24</ele>
        <time>2015-07-17T13:35:23Z</time>
      </trkpt>
      <trkpt lat="49.29603" lon="0.98228">
        <ele>134.24</ele>
        <time>2015-07-17T13:35:24Z</time>
      </trkpt>
      <trkpt lat="49.29602" lon="0.98234">
        <ele>134.24</ele>
        <time>2015-07-17T13:35:25Z</time>
      </trkpt>
      <trkpt lat="49.29601" lon="0.9824">
        <ele>134.24</ele>
        <time>2015-07-17T13:35:26Z</time>
      </trkpt>
      <trkpt lat="49.296" lon="0.98246">
        <ele>134.24</ele>
        <time>2015-07-17T13:35:27Z</time>
      </trkpt>
      <trkpt lat="49.29596" lon="0.98264">
        <ele>134.72</ele>
        <time>2015-07-17T13:35:30Z</time>
      </trkpt>
      <trkpt lat="49.29593" lon="0.98276">
        <ele>134.72</ele>
        <time>2015-07-17T13:35:32Z</time>
      </trkpt>
      <trkpt lat="49.29589" lon="0.98296">
        <ele>134.72</ele>
        <time>2015-07-17T13:35:35Z</time>
      </trkpt>
      <trkpt lat="49.29585" lon="0.98338">
        <ele>134.72</ele>
        <time>2015-07-17T13:35:41Z</time>
      </trkpt>
      <trkpt lat="49.29583" lon="0.98352">
        <ele>134.72</ele>
        <time>2015-07-17T13:35:43Z</time>
      </trkpt>
      <trkpt lat="49.29579" lon="0.98365">
        <ele>135.2</ele>
        <time>2015-07-17T13:35:45Z</time>
      </trkpt>
      <trkpt lat="49.29561" lon="0.98411">
        <ele>134.24</ele>
        <time>2015-07-17T13:35:52Z</time>
      </trkpt>
      <trkpt lat="49.29558" lon="0.98418">
        <ele>134.24</ele>
        <time>2015-07-17T13:35:53Z</time>
      </trkpt>
      <trkpt lat="49.29555" lon="0.98424">
        <ele>134.24</ele>
        <time>2015-07-17T13:35:54Z</time>
      </trkpt>
      <trkpt lat="49.29552" lon="0.9843">
        <ele>134.24</ele>
        <time>2015-07-17T13:35:55Z</time>
      </trkpt>
      <trkpt lat="49.29549" lon="0.98435">
        <ele>133.76</ele>
        <time>2015-07-17T13:35:56Z</time>
      </trkpt>
      <trkpt lat="49.29546" lon="0.98442">
        <ele>133.76</ele>
        <time>2015-07-17T13:35:57Z</time>
      </trkpt>
      <trkpt lat="49.29543" lon="0.98448">
        <ele>133.76</ele>
        <time>2015-07-17T13:35:58Z</time>
      </trkpt>
      <trkpt lat="49.29537" lon="0.98458">
        <ele>133.28</ele>
        <time>2015-07-17T13:36:00Z</time>
      </trkpt>
      <trkpt lat="49.29521" lon="0.98478">
        <ele>133.28</ele>
        <time>2015-07-17T13:36:04Z</time>
      </trkpt>
      <trkpt lat="49.29518" lon="0.98482">
        <ele>133.28</ele>
        <time>2015-07-17T13:36:05Z</time>
      </trkpt>
      <trkpt lat="49.29507" lon="0.98498">
        <ele>133.28</ele>
        <time>2015-07-17T13:36:08Z</time>
      </trkpt>
      <trkpt lat="49.29503" lon="0.98504">
        <ele>133.28</ele>
        <time>2015-07-17T13:36:09Z</time>
      </trkpt>
      <trkpt lat="49.295" lon="0.98509">
        <ele>133.28</ele>
        <time>2015-07-17T13:36:10Z</time>
      </trkpt>
      <trkpt lat="49.29497" lon="0.98515">
        <ele>132.8</ele>
        <time>2015-07-17T13:36:11Z</time>
      </trkpt>
      <trkpt lat="49.29494" lon="0.98521">
        <ele>133.28</ele>
        <time>2015-07-17T13:36:12Z</time>
      </trkpt>
      <trkpt lat="49.29491" lon="0.98527">
        <ele>132.8</ele>
        <time>2015-07-17T13:36:13Z</time>
      </trkpt>
      <trkpt lat="49.29488" lon="0.98533">
        <ele>133.28</ele>
        <time>2015-07-17T13:36:14Z</time>
      </trkpt>
      <trkpt lat="49.29458" lon="0.98604">
        <ele>131.84</ele>
        <time>2015-07-17T13:36:24Z</time>
      </trkpt>
      <trkpt lat="49.29454" lon="0.98611">
        <ele>131.84</ele>
        <time>2015-07-17T13:36:25Z</time>
      </trkpt>
      <trkpt lat="49.29451" lon="0.98617">
        <ele>131.84</ele>
        <time>2015-07-17T13:36:26Z</time>
      </trkpt>
      <trkpt lat="49.29438" lon="0.98647">
        <ele>131.36</ele>
        <time>2015-07-17T13:36:30Z</time>
      </trkpt>
      <trkpt lat="49.29426" lon="0.98674">
        <ele>131.36</ele>
        <time>2015-07-17T13:36:34Z</time>
      </trkpt>
      <trkpt lat="49.29407" lon="0.9872">
        <ele>131.36</ele>
        <time>2015-07-17T13:36:41Z</time>
      </trkpt>
      <trkpt lat="49.29404" lon="0.98725">
        <ele>131.36</ele>
        <time>2015-07-17T13:36:42Z</time>
      </trkpt>
      <trkpt lat="49.29391" lon="0.98748">
        <ele>131.36</ele>
        <time>2015-07-17T13:36:46Z</time>
      </trkpt>
      <trkpt lat="49.29379" lon="0.98778">
        <ele>131.36</ele>
        <time>2015-07-17T13:36:51Z</time>
      </trkpt>
      <trkpt lat="49.29377" lon="0.98784">
        <ele>131.84</ele>
        <time>2015-07-17T13:36:52Z</time>
      </trkpt>
      <trkpt lat="49.29349" lon="0.98868">
        <ele>132.32</ele>
        <time>2015-07-17T13:37:05Z</time>
      </trkpt>
      <trkpt lat="49.29347" lon="0.98874">
        <ele>131.84</ele>
        <time>2015-07-17T13:37:06Z</time>
      </trkpt>
      <trkpt lat="49.29345" lon="0.98881">
        <ele>131.84</ele>
        <time>2015-07-17T13:37:07Z</time>
      </trkpt>
      <trkpt lat="49.29342" lon="0.98887">
        <ele>131.84</ele>
        <time>2015-07-17T13:37:08Z</time>
      </trkpt>
      <trkpt lat="49.29339" lon="0.98892">
        <ele>131.84</ele>
        <time>2015-07-17T13:37:09Z</time>
      </trkpt>
      <trkpt lat="49.29336" lon="0.98898">
        <ele>131.84</ele>
        <time>2015-07-17T13:37:10Z</time>
      </trkpt>
      <trkpt lat="49.2933" lon="0.9891">
        <ele>131.84</ele>
        <time>2015-07-17T13:37:12Z</time>
      </trkpt>
      <trkpt lat="49.29328" lon="0.98916">
        <ele>130.4</ele>
        <time>2015-07-17T13:37:13Z</time>
      </trkpt>
      <trkpt lat="49.29323" lon="0.98928">
        <ele>131.84</ele>
        <time>2015-07-17T13:37:15Z</time>
      </trkpt>
      <trkpt lat="49.2929" lon="0.98986">
        <ele>130.4</ele>
        <time>2015-07-17T13:37:25Z</time>
      </trkpt>
      <trkpt lat="49.29283" lon="0.98996">
        <ele>130.4</ele>
        <time>2015-07-17T13:37:27Z</time>
      </trkpt>
      <trkpt lat="49.29279" lon="0.99001">
        <ele>129.92</ele>
        <time>2015-07-17T13:37:28Z</time>
      </trkpt>
      <trkpt lat="49.29275" lon="0.99005">
        <ele>129.92</ele>
        <time>2015-07-17T13:37:29Z</time>
      </trkpt>
      <trkpt lat="49.29272" lon="0.9901">
        <ele>129.43</ele>
        <time>2015-07-17T13:37:30Z</time>
      </trkpt>
      <trkpt lat="49.29269" lon="0.99015">
        <ele>128.95</ele>
        <time>2015-07-17T13:37:31Z</time>
      </trkpt>
      <trkpt lat="49.29263" lon="0.99026">
        <ele>128.95</ele>
        <time>2015-07-17T13:37:39Z</time>
      </trkpt>
      <trkpt lat="49.29261" lon="0.99031">
        <ele>128.47</ele>
        <time>2015-07-17T13:38:02Z</time>
      </trkpt>
      <trkpt lat="49.29262" lon="0.99029">
        <ele>128.47</ele>
        <time>2015-07-17T13:38:03Z</time>
      </trkpt>
      <trkpt lat="49.29264" lon="0.99023">
        <ele>128.47</ele>
        <time>2015-07-17T13:38:07Z</time>
      </trkpt>
      <trkpt lat="49.29265" lon="0.99021">
        <ele>128.95</ele>
        <time>2015-07-17T13:38:08Z</time>
      </trkpt>
      <trkpt lat="49.29266" lon="0.99019">
        <ele>128.95</ele>
        <time>2015-07-17T13:38:09Z</time>
      </trkpt>
      <trkpt lat="49.29267" lon="0.99017">
        <ele>129.43</ele>
        <time>2015-07-17T13:38:10Z</time>
      </trkpt>
      <trkpt lat="49.29269" lon="0.99015">
        <ele>129.43</ele>
        <time>2015-07-17T13:38:11Z</time>
      </trkpt>
      <trkpt lat="49.2927" lon="0.99013">
        <ele>129.43</ele>
        <time>2015-07-17T13:38:12Z</time>
      </trkpt>
      <trkpt lat="49.29272" lon="0.99012">
        <ele>129.43</ele>
        <time>2015-07-17T13:38:13Z</time>
      </trkpt>
      <trkpt lat="49.29275" lon="0.9901">
        <ele>129.92</ele>
        <time>2015-07-17T13:38:14Z</time>
      </trkpt>
      <trkpt lat="49.29278" lon="0.99007">
        <ele>129.92</ele>
        <time>2015-07-17T13:38:15Z</time>
      </trkpt>
      <trkpt lat="49.29281" lon="0.99004">
        <ele>129.92</ele>
        <time>2015-07-17T13:38:16Z</time>
      </trkpt>
      <trkpt lat="49.29283" lon="0.99001">
        <ele>129.92</ele>
        <time>2015-07-17T13:38:17Z</time>
      </trkpt>
      <trkpt lat="49.29316" lon="0.9895">
        <ele>130.88</ele>
        <time>2015-07-17T13:38:29Z</time>
      </trkpt>
      <trkpt lat="49.29322" lon="0.98939">
        <ele>131.84</ele>
        <time>2015-07-17T13:38:36Z</time>
      </trkpt>
      <trkpt lat="49.29321" lon="0.9894">
        <ele>131.84</ele>
        <time>2015-07-17T13:38:37Z</time>
      </trkpt>
      <trkpt lat="49.2932" lon="0.98941">
        <ele>131.36</ele>
        <time>2015-07-17T13:38:38Z</time>
      </trkpt>
      <trkpt lat="49.29321" lon="0.98943">
        <ele>131.36</ele>
        <time>2015-07-17T13:38:39Z</time>
      </trkpt>
      <trkpt lat="49.2932" lon="0.98945">
        <ele>131.36</ele>
        <time>2015-07-17T13:38:50Z</time>
      </trkpt>
      <trkpt lat="49.2932" lon="0.98945">
        <ele>131.36</ele>
        <time>2015-07-17T13:38:57Z</time>
      </trkpt>
      <trkpt lat="49.29321" lon="0.98944">
        <ele>131.36</ele>
        <time>2015-07-17T13:38:58Z</time>
      </trkpt>
      <trkpt lat="49.29322" lon="0.98942">
        <ele>131.36</ele>
        <time>2015-07-17T13:38:59Z</time>
      </trkpt>
      <trkpt lat="49.29323" lon="0.9894">
        <ele>130.88</ele>
        <time>2015-07-17T13:39:00Z</time>
      </trkpt>
      <trkpt lat="49.29325" lon="0.98937">
        <ele>131.36</ele>
        <time>2015-07-17T13:39:01Z</time>
      </trkpt>
      <trkpt lat="49.29327" lon="0.98934">
        <ele>130.88</ele>
        <time>2015-07-17T13:39:02Z</time>
      </trkpt>
      <trkpt lat="49.29329" lon="0.9893">
        <ele>132.32</ele>
        <time>2015-07-17T13:39:03Z</time>
      </trkpt>
      <trkpt lat="49.29331" lon="0.98926">
        <ele>131.36</ele>
        <time>2015-07-17T13:39:04Z</time>
      </trkpt>
      <trkpt lat="49.29333" lon="0.98921">
        <ele>131.36</ele>
        <time>2015-07-17T13:39:05Z</time>
      </trkpt>
      <trkpt lat="49.29335" lon="0.98917">
        <ele>130.88</ele>
        <time>2015-07-17T13:39:06Z</time>
      </trkpt>
      <trkpt lat="49.29338" lon="0.98912">
        <ele>131.36</ele>
        <time>2015-07-17T13:39:07Z</time>
      </trkpt>
      <trkpt lat="49.29364" lon="0.98856">
        <ele>131.36</ele>
        <time>2015-07-17T13:39:19Z</time>
      </trkpt>
      <trkpt lat="49.29365" lon="0.9885">
        <ele>130.88</ele>
        <time>2015-07-17T13:39:20Z</time>
      </trkpt>
      <trkpt lat="49.29365" lon="0.98843">
        <ele>130.88</ele>
        <time>2015-07-17T13:39:21Z</time>
      </trkpt>
      <trkpt lat="49.29367" lon="0.98837">
        <ele>130.88</ele>
        <time>2015-07-17T13:39:22Z</time>
      </trkpt>
      <trkpt lat="49.29369" lon="0.98832">
        <ele>130.88</ele>
        <time>2015-07-17T13:39:23Z</time>
      </trkpt>
      <trkpt lat="49.29375" lon="0.98814">
        <ele>130.88</ele>
        <time>2015-07-17T13:39:26Z</time>
      </trkpt>
      <trkpt lat="49.29383" lon="0.9879">
        <ele>130.4</ele>
        <time>2015-07-17T13:39:30Z</time>
      </trkpt>
      <trkpt lat="49.29385" lon="0.98783">
        <ele>130.4</ele>
        <time>2015-07-17T13:39:31Z</time>
      </trkpt>
      <trkpt lat="49.29387" lon="0.98777">
        <ele>130.4</ele>
        <time>2015-07-17T13:39:32Z</time>
      </trkpt>
      <trkpt lat="49.2939" lon="0.9877">
        <ele>129.92</ele>
        <time>2015-07-17T13:39:33Z</time>
      </trkpt>
      <trkpt lat="49.29393" lon="0.98764">
        <ele>130.4</ele>
        <time>2015-07-17T13:39:34Z</time>
      </trkpt>
      <trkpt lat="49.29395" lon="0.98758">
        <ele>130.4</ele>
        <time>2015-07-17T13:39:35Z</time>
      </trkpt>
      <trkpt lat="49.29398" lon="0.98752">
        <ele>130.4</ele>
        <time>2015-07-17T13:39:36Z</time>
      </trkpt>
      <trkpt lat="49.29401" lon="0.98747">
        <ele>130.4</ele>
        <time>2015-07-17T13:39:37Z</time>
      </trkpt>
      <trkpt lat="49.29416" lon="0.98716">
        <ele>130.4</ele>
        <time>2015-07-17T13:39:43Z</time>
      </trkpt>
      <trkpt lat="49.29426" lon="0.98695">
        <ele>129.92</ele>
        <time>2015-07-17T13:39:47Z</time>
      </trkpt>
      <trkpt lat="49.29429" lon="0.9869">
        <ele>129.92</ele>
        <time>2015-07-17T13:39:48Z</time>
      </trkpt>
      <trkpt lat="49.29432" lon="0.98685">
        <ele>129.92</ele>
        <time>2015-07-17T13:39:49Z</time>
      </trkpt>
      <trkpt lat="49.29434" lon="0.9868">
        <ele>129.92</ele>
        <time>2015-07-17T13:39:50Z</time>
      </trkpt>
      <trkpt lat="49.29436" lon="0.98675">
        <ele>129.92</ele>
        <time>2015-07-17T13:39:51Z</time>
      </trkpt>
      <trkpt lat="49.29438" lon="0.98669">
        <ele>129.92</ele>
        <time>2015-07-17T13:39:52Z</time>
      </trkpt>
      <trkpt lat="49.2944" lon="0.98664">
        <ele>129.92</ele>
        <time>2015-07-17T13:39:53Z</time>
      </trkpt>
      <trkpt lat="49.29442" lon="0.98658">
        <ele>129.92</ele>
        <time>2015-07-17T13:39:54Z</time>
      </trkpt>
      <trkpt lat="49.29444" lon="0.98653">
        <ele>129.92</ele>
        <time>2015-07-17T13:39:55Z</time>
      </trkpt>
      <trkpt lat="49.29447" lon="0.98649">
        <ele>129.92</ele>
        <time>2015-07-17T13:39:56Z</time>
      </trkpt>
      <trkpt lat="49.29448" lon="0.98644">
        <ele>130.4</ele>
        <time>2015-07-17T13:39:57Z</time>
      </trkpt>
      <trkpt lat="49.2945" lon="0.9864">
        <ele>130.4</ele>
        <time>2015-07-17T13:39:58Z</time>
      </trkpt>
      <trkpt lat="49.29452" lon="0.98635">
        <ele>130.4</ele>
        <time>2015-07-17T13:39:59Z</time>
      </trkpt>
      <trkpt lat="49.29453" lon="0.98629">
        <ele>129.92</ele>
        <time>2015-07-17T13:40:00Z</time>
      </trkpt>
      <trkpt lat="49.29455" lon="0.98624">
        <ele>130.4</ele>
        <time>2015-07-17T13:40:01Z</time>
      </trkpt>
      <trkpt lat="49.29456" lon="0.98619">
        <ele>130.4</ele>
        <time>2015-07-17T13:40:02Z</time>
      </trkpt>
      <trkpt lat="49.29458" lon="0.98614">
        <ele>129.92</ele>
        <time>2015-07-17T13:40:03Z</time>
      </trkpt>
      <trkpt lat="49.29477" lon="0.98571">
        <ele>131.36</ele>
        <time>2015-07-17T13:40:12Z</time>
      </trkpt>
      <trkpt lat="49.29484" lon="0.98548">
        <ele>131.36</ele>
        <time>2015-07-17T13:40:16Z</time>
      </trkpt>
      <trkpt lat="49.29489" lon="0.98538">
        <ele>131.36</ele>
        <time>2015-07-17T13:40:18Z</time>
      </trkpt>
      <trkpt lat="49.29492" lon="0.98533">
        <ele>131.36</ele>
        <time>2015-07-17T13:40:19Z</time>
      </trkpt>
      <trkpt lat="49.29494" lon="0.98528">
        <ele>131.36</ele>
        <time>2015-07-17T13:40:20Z</time>
      </trkpt>
      <trkpt lat="49.29496" lon="0.98522">
        <ele>131.36</ele>
        <time>2015-07-17T13:40:21Z</time>
      </trkpt>
      <trkpt lat="49.29497" lon="0.98516">
        <ele>131.36</ele>
        <time>2015-07-17T13:40:22Z</time>
      </trkpt>
      <trkpt lat="49.29498" lon="0.98512">
        <ele>131.36</ele>
        <time>2015-07-17T13:40:23Z</time>
      </trkpt>
      <trkpt lat="49.29499" lon="0.9851">
        <ele>131.36</ele>
        <time>2015-07-17T13:40:24Z</time>
      </trkpt>
      <trkpt lat="49.295" lon="0.98511">
        <ele>131.36</ele>
        <time>2015-07-17T13:40:25Z</time>
      </trkpt>
      <trkpt lat="49.29501" lon="0.98514">
        <ele>131.36</ele>
        <time>2015-07-17T13:40:26Z</time>
      </trkpt>
      <trkpt lat="49.29502" lon="0.98517">
        <ele>131.84</ele>
        <time>2015-07-17T13:40:27Z</time>
      </trkpt>
      <trkpt lat="49.29503" lon="0.9852">
        <ele>131.84</ele>
        <time>2015-07-17T13:40:28Z</time>
      </trkpt>
      <trkpt lat="49.29503" lon="0.98522">
        <ele>131.84</ele>
        <time>2015-07-17T13:40:29Z</time>
      </trkpt>
      <trkpt lat="49.29504" lon="0.98526">
        <ele>131.84</ele>
        <time>2015-07-17T13:40:31Z</time>
      </trkpt>
      <trkpt lat="49.29505" lon="0.98526">
        <ele>131.84</ele>
        <time>2015-07-17T13:40:34Z</time>
      </trkpt>
      <trkpt lat="49.29506" lon="0.98527">
        <ele>131.84</ele>
        <time>2015-07-17T13:40:35Z</time>
      </trkpt>
      <trkpt lat="49.29508" lon="0.98528">
        <ele>132.32</ele>
        <time>2015-07-17T13:40:36Z</time>
      </trkpt>
      <trkpt lat="49.2951" lon="0.98531">
        <ele>132.32</ele>
        <time>2015-07-17T13:40:37Z</time>
      </trkpt>
      <trkpt lat="49.29511" lon="0.98533">
        <ele>132.32</ele>
        <time>2015-07-17T13:40:38Z</time>
      </trkpt>
      <trkpt lat="49.29513" lon="0.98535">
        <ele>132.32</ele>
        <time>2015-07-17T13:40:39Z</time>
      </trkpt>
      <trkpt lat="49.29515" lon="0.98537">
        <ele>132.32</ele>
        <time>2015-07-17T13:40:40Z</time>
      </trkpt>
      <trkpt lat="49.29518" lon="0.98539">
        <ele>132.32</ele>
        <time>2015-07-17T13:40:42Z</time>
      </trkpt>
      <trkpt lat="49.2952" lon="0.98541">
        <ele>132.32</ele>
        <time>2015-07-17T13:40:43Z</time>
      </trkpt>
      <trkpt lat="49.29522" lon="0.98542">
        <ele>132.8</ele>
        <time>2015-07-17T13:40:44Z</time>
      </trkpt>
      <trkpt lat="49.29524" lon="0.98542">
        <ele>132.8</ele>
        <time>2015-07-17T13:40:45Z</time>
      </trkpt>
      <trkpt lat="49.29525" lon="0.98543">
        <ele>132.8</ele>
        <time>2015-07-17T13:40:46Z</time>
      </trkpt>
      <trkpt lat="49.29527" lon="0.98545">
        <ele>132.8</ele>
        <time>2015-07-17T13:40:47Z</time>
      </trkpt>
      <trkpt lat="49.29529" lon="0.98547">
        <ele>132.8</ele>
        <time>2015-07-17T13:40:48Z</time>
      </trkpt>
      <trkpt lat="49.29546" lon="0.98566">
        <ele>132.8</ele>
        <time>2015-07-17T13:40:59Z</time>
      </trkpt>
      <trkpt lat="49.29572" lon="0.98593">
        <ele>133.76</ele>
        <time>2015-07-17T13:41:12Z</time>
      </trkpt>
      <trkpt lat="49.29584" lon="0.98605">
        <ele>134.24</ele>
        <time>2015-07-17T13:41:17Z</time>
      </trkpt>
      <trkpt lat="49.29587" lon="0.98609">
        <ele>134.24</ele>
        <time>2015-07-17T13:41:18Z</time>
      </trkpt>
      <trkpt lat="49.29591" lon="0.98612">
        <ele>134.24</ele>
        <time>2015-07-17T13:41:19Z</time>
      </trkpt>
      <trkpt lat="49.2962" lon="0.98639">
        <ele>134.24</ele>
        <time>2015-07-17T13:41:27Z</time>
      </trkpt>
      <trkpt lat="49.29624" lon="0.98642">
        <ele>134.24</ele>
        <time>2015-07-17T13:41:28Z</time>
      </trkpt>
      <trkpt lat="49.29627" lon="0.98645">
        <ele>134.24</ele>
        <time>2015-07-17T13:41:29Z</time>
      </trkpt>
      <trkpt lat="49.2963" lon="0.98648">
        <ele>134.24</ele>
        <time>2015-07-17T13:41:30Z</time>
      </trkpt>
      <trkpt lat="49.29633" lon="0.98651">
        <ele>134.24</ele>
        <time>2015-07-17T13:41:31Z</time>
      </trkpt>
      <trkpt lat="49.29636" lon="0.98653">
        <ele>134.24</ele>
        <time>2015-07-17T13:41:32Z</time>
      </trkpt>
      <trkpt lat="49.29639" lon="0.98656">
        <ele>134.24</ele>
        <time>2015-07-17T13:41:33Z</time>
      </trkpt>
      <trkpt lat="49.29646" lon="0.9866">
        <ele>134.24</ele>
        <time>2015-07-17T13:41:35Z</time>
      </trkpt>
      <trkpt lat="49.29649" lon="0.98661">
        <ele>134.24</ele>
        <time>2015-07-17T13:41:36Z</time>
      </trkpt>
      <trkpt lat="49.29677" lon="0.9867">
        <ele>133.76</ele>
        <time>2015-07-17T13:41:45Z</time>
      </trkpt>
      <trkpt lat="49.29679" lon="0.9867">
        <ele>133.76</ele>
        <time>2015-07-17T13:41:46Z</time>
      </trkpt>
      <trkpt lat="49.29681" lon="0.9867">
        <ele>133.76</ele>
        <time>2015-07-17T13:41:47Z</time>
      </trkpt>
      <trkpt lat="49.2969" lon="0.98671">
        <ele>133.76</ele>
        <time>2015-07-17T13:41:57Z</time>
      </trkpt>
      <trkpt lat="49.29697" lon="0.98671">
        <ele>133.76</ele>
        <time>2015-07-17T13:42:08Z</time>
      </trkpt>
      <trkpt lat="49.29699" lon="0.9867">
        <ele>133.76</ele>
        <time>2015-07-17T13:42:09Z</time>
      </trkpt>
      <trkpt lat="49.29701" lon="0.98669">
        <ele>133.76</ele>
        <time>2015-07-17T13:42:10Z</time>
      </trkpt>
      <trkpt lat="49.29704" lon="0.98667">
        <ele>133.76</ele>
        <time>2015-07-17T13:42:11Z</time>
      </trkpt>
      <trkpt lat="49.29707" lon="0.98666">
        <ele>133.28</ele>
        <time>2015-07-17T13:42:12Z</time>
      </trkpt>
      <trkpt lat="49.2971" lon="0.98666">
        <ele>133.76</ele>
        <time>2015-07-17T13:42:13Z</time>
      </trkpt>
      <trkpt lat="49.2972" lon="0.98671">
        <ele>134.24</ele>
        <time>2015-07-17T13:42:22Z</time>
      </trkpt>
      <trkpt lat="49.29727" lon="0.98674">
        <ele>133.76</ele>
        <time>2015-07-17T13:42:36Z</time>
      </trkpt>
      <trkpt lat="49.29731" lon="0.98682">
        <ele>132.8</ele>
        <time>2015-07-17T13:42:41Z</time>
      </trkpt>
      <trkpt lat="49.29734" lon="0.98686">
        <ele>133.76</ele>
        <time>2015-07-17T13:42:48Z</time>
      </trkpt>
      <trkpt lat="49.29733" lon="0.98702">
        <ele>133.76</ele>
        <time>2015-07-17T13:42:54Z</time>
      </trkpt>
      <trkpt lat="49.29728" lon="0.98751">
        <ele>134.72</ele>
        <time>2015-07-17T13:43:04Z</time>
      </trkpt>
      <trkpt lat="49.29728" lon="0.9876">
        <ele>133.28</ele>
        <time>2015-07-17T13:43:06Z</time>
      </trkpt>
      <trkpt lat="49.29744" lon="0.9877">
        <ele>133.76</ele>
        <time>2015-07-17T13:43:13Z</time>
      </trkpt>
      <trkpt lat="49.29795" lon="0.98753">
        <ele>133.28</ele>
        <time>2015-07-17T13:43:25Z</time>
      </trkpt>
      <trkpt lat="49.29842" lon="0.98732">
        <ele>128.95</ele>
        <time>2015-07-17T13:43:35Z</time>
      </trkpt>
      <trkpt lat="49.2987" lon="0.9872">
        <ele>128.47</ele>
        <time>2015-07-17T13:43:39Z</time>
      </trkpt>
      <trkpt lat="49.29901" lon="0.98707">
        <ele>129.43</ele>
        <time>2015-07-17T13:43:45Z</time>
      </trkpt>
      <trkpt lat="49.29911" lon="0.98704">
        <ele>129.43</ele>
        <time>2015-07-17T13:43:47Z</time>
      </trkpt>
      <trkpt lat="49.29916" lon="0.98703">
        <ele>129.92</ele>
        <time>2015-07-17T13:43:48Z</time>
      </trkpt>
      <trkpt lat="49.29921" lon="0.98701">
        <ele>129.92</ele>
        <time>2015-07-17T13:43:49Z</time>
      </trkpt>
      <trkpt lat="49.2993" lon="0.98699">
        <ele>130.4</ele>
        <time>2015-07-17T13:43:51Z</time>
      </trkpt>
      <trkpt lat="49.29934" lon="0.98699">
        <ele>130.88</ele>
        <time>2015-07-17T13:43:52Z</time>
      </trkpt>
      <trkpt lat="49.29964" lon="0.98706">
        <ele>131.84</ele>
        <time>2015-07-17T13:44:01Z</time>
      </trkpt>
      <trkpt lat="49.29999" lon="0.98714">
        <ele>133.28</ele>
        <time>2015-07-17T13:44:11Z</time>
      </trkpt>
      <trkpt lat="49.30048" lon="0.98727">
        <ele>132.8</ele>
        <time>2015-07-17T13:44:22Z</time>
      </trkpt>
      <trkpt lat="49.30053" lon="0.98729">
        <ele>132.8</ele>
        <time>2015-07-17T13:44:23Z</time>
      </trkpt>
      <trkpt lat="49.30057" lon="0.98731">
        <ele>132.32</ele>
        <time>2015-07-17T13:44:24Z</time>
      </trkpt>
      <trkpt lat="49.30114" lon="0.98751">
        <ele>132.32</ele>
        <time>2015-07-17T13:44:36Z</time>
      </trkpt>
      <trkpt lat="49.30147" lon="0.9876">
        <ele>131.84</ele>
        <time>2015-07-17T13:44:43Z</time>
      </trkpt>
      <trkpt lat="49.30166" lon="0.98768">
        <ele>130.88</ele>
        <time>2015-07-17T13:44:47Z</time>
      </trkpt>
      <trkpt lat="49.30172" lon="0.9877">
        <ele>130.88</ele>
        <time>2015-07-17T13:44:48Z</time>
      </trkpt>
      <trkpt lat="49.30179" lon="0.98772">
        <ele>130.4</ele>
        <time>2015-07-17T13:44:49Z</time>
      </trkpt>
      <trkpt lat="49.30186" lon="0.98773">
        <ele>130.4</ele>
        <time>2015-07-17T13:44:50Z</time>
      </trkpt>
      <trkpt lat="49.30192" lon="0.98776">
        <ele>129.92</ele>
        <time>2015-07-17T13:44:51Z</time>
      </trkpt>
      <trkpt lat="49.30219" lon="0.98786">
        <ele>128.47</ele>
        <time>2015-07-17T13:44:55Z</time>
      </trkpt>
      <trkpt lat="49.30226" lon="0.98788">
        <ele>127.51</ele>
        <time>2015-07-17T13:44:56Z</time>
      </trkpt>
      <trkpt lat="49.30241" lon="0.98793">
        <ele>127.03</ele>
        <time>2015-07-17T13:44:58Z</time>
      </trkpt>
      <trkpt lat="49.30249" lon="0.98795">
        <ele>127.03</ele>
        <time>2015-07-17T13:44:59Z</time>
      </trkpt>
      <trkpt lat="49.30256" lon="0.98797">
        <ele>127.03</ele>
        <time>2015-07-17T13:45:00Z</time>
      </trkpt>
      <trkpt lat="49.30263" lon="0.98799">
        <ele>127.03</ele>
        <time>2015-07-17T13:45:01Z</time>
      </trkpt>
      <trkpt lat="49.30271" lon="0.988">
        <ele>127.03</ele>
        <time>2015-07-17T13:45:02Z</time>
      </trkpt>
      <trkpt lat="49.30278" lon="0.98802">
        <ele>127.03</ele>
        <time>2015-07-17T13:45:03Z</time>
      </trkpt>
      <trkpt lat="49.30284" lon="0.98804">
        <ele>127.99</ele>
        <time>2015-07-17T13:45:04Z</time>
      </trkpt>
      <trkpt lat="49.30309" lon="0.98811">
        <ele>127.03</ele>
        <time>2015-07-17T13:45:08Z</time>
      </trkpt>
      <trkpt lat="49.30377" lon="0.98833">
        <ele>127.03</ele>
        <time>2015-07-17T13:45:17Z</time>
      </trkpt>
      <trkpt lat="49.30384" lon="0.98838">
        <ele>127.03</ele>
        <time>2015-07-17T13:45:18Z</time>
      </trkpt>
      <trkpt lat="49.30448" lon="0.98905">
        <ele>127.51</ele>
        <time>2015-07-17T13:45:30Z</time>
      </trkpt>
      <trkpt lat="49.3047" lon="0.98931">
        <ele>127.03</ele>
        <time>2015-07-17T13:45:35Z</time>
      </trkpt>
      <trkpt lat="49.30474" lon="0.98932">
        <ele>127.03</ele>
        <time>2015-07-17T13:45:36Z</time>
      </trkpt>
      <trkpt lat="49.30479" lon="0.98931">
        <ele>127.03</ele>
        <time>2015-07-17T13:45:37Z</time>
      </trkpt>
      <trkpt lat="49.30482" lon="0.98929">
        <ele>127.51</ele>
        <time>2015-07-17T13:45:38Z</time>
      </trkpt>
      <trkpt lat="49.30486" lon="0.98926">
        <ele>127.51</ele>
        <time>2015-07-17T13:45:39Z</time>
      </trkpt>
      <trkpt lat="49.30489" lon="0.98923">
        <ele>127.99</ele>
        <time>2015-07-17T13:45:40Z</time>
      </trkpt>
      <trkpt lat="49.30491" lon="0.98919">
        <ele>127.51</ele>
        <time>2015-07-17T13:45:41Z</time>
      </trkpt>
      <trkpt lat="49.30519" lon="0.98873">
        <ele>126.55</ele>
        <time>2015-07-17T13:45:53Z</time>
      </trkpt>
      <trkpt lat="49.30523" lon="0.98874">
        <ele>126.55</ele>
        <time>2015-07-17T13:45:54Z</time>
      </trkpt>
      <trkpt lat="49.30527" lon="0.98877">
        <ele>126.55</ele>
        <time>2015-07-17T13:45:55Z</time>
      </trkpt>
      <trkpt lat="49.30565" lon="0.98916">
        <ele>126.55</ele>
        <time>2015-07-17T13:46:08Z</time>
      </trkpt>
      <trkpt lat="49.30588" lon="0.98965">
        <ele>126.07</ele>
        <time>2015-07-17T13:46:21Z</time>
      </trkpt>
      <trkpt lat="49.30619" lon="0.98977">
        <ele>126.07</ele>
        <time>2015-07-17T13:46:30Z</time>
      </trkpt>
      <trkpt lat="49.30628" lon="0.98977">
        <ele>126.07</ele>
        <time>2015-07-17T13:46:32Z</time>
      </trkpt>
      <trkpt lat="49.30632" lon="0.98977">
        <ele>126.07</ele>
        <time>2015-07-17T13:46:33Z</time>
      </trkpt>
      <trkpt lat="49.30636" lon="0.98977">
        <ele>126.07</ele>
        <time>2015-07-17T13:46:34Z</time>
      </trkpt>
      <trkpt lat="49.3067" lon="0.98977">
        <ele>126.07</ele>
        <time>2015-07-17T13:46:42Z</time>
      </trkpt>
      <trkpt lat="49.30678" lon="0.98982">
        <ele>126.07</ele>
        <time>2015-07-17T13:46:44Z</time>
      </trkpt>
      <trkpt lat="49.30683" lon="0.98982">
        <ele>126.07</ele>
        <time>2015-07-17T13:46:45Z</time>
      </trkpt>
      <trkpt lat="49.30722" lon="0.98987">
        <ele>125.59</ele>
        <time>2015-07-17T13:46:54Z</time>
      </trkpt>
      <trkpt lat="49.30763" lon="0.98998">
        <ele>126.55</ele>
        <time>2015-07-17T13:47:04Z</time>
      </trkpt>
      <trkpt lat="49.30805" lon="0.99018">
        <ele>125.11</ele>
        <time>2015-07-17T13:47:15Z</time>
      </trkpt>
      <trkpt lat="49.30841" lon="0.99047">
        <ele>124.63</ele>
        <time>2015-07-17T13:47:25Z</time>
      </trkpt>
      <trkpt lat="49.30891" lon="0.99089">
        <ele>122.71</ele>
        <time>2015-07-17T13:47:38Z</time>
      </trkpt>
      <trkpt lat="49.30921" lon="0.99121">
        <ele>120.3</ele>
        <time>2015-07-17T13:47:46Z</time>
      </trkpt>
      <trkpt lat="49.30926" lon="0.99124">
        <ele>120.3</ele>
        <time>2015-07-17T13:47:47Z</time>
      </trkpt>
      <trkpt lat="49.3093" lon="0.99125">
        <ele>119.82</ele>
        <time>2015-07-17T13:47:48Z</time>
      </trkpt>
      <trkpt lat="49.30936" lon="0.99125">
        <ele>119.34</ele>
        <time>2015-07-17T13:47:49Z</time>
      </trkpt>
      <trkpt lat="49.30941" lon="0.99124">
        <ele>121.74</ele>
        <time>2015-07-17T13:47:50Z</time>
      </trkpt>
      <trkpt lat="49.30953" lon="0.99121">
        <ele>118.86</ele>
        <time>2015-07-17T13:47:52Z</time>
      </trkpt>
      <trkpt lat="49.30991" lon="0.99107">
        <ele>117.42</ele>
        <time>2015-07-17T13:47:59Z</time>
      </trkpt>
      <trkpt lat="49.31011" lon="0.99096">
        <ele>117.42</ele>
        <time>2015-07-17T13:48:08Z</time>
      </trkpt>
      <trkpt lat="49.31016" lon="0.9909">
        <ele>117.9</ele>
        <time>2015-07-17T13:48:39Z</time>
      </trkpt>
      <trkpt lat="49.31017" lon="0.99092">
        <ele>117.42</ele>
        <time>2015-07-17T13:49:08Z</time>
      </trkpt>
      <trkpt lat="49.31018" lon="0.99092">
        <ele>117.42</ele>
        <time>2015-07-17T13:49:39Z</time>
      </trkpt>
      <trkpt lat="49.31018" lon="0.99093">
        <ele>117.42</ele>
        <time>2015-07-17T13:49:48Z</time>
      </trkpt>
      <trkpt lat="49.31019" lon="0.99094">
        <ele>117.42</ele>
        <time>2015-07-17T13:49:49Z</time>
      </trkpt>
      <trkpt lat="49.31021" lon="0.99095">
        <ele>116.94</ele>
        <time>2015-07-17T13:49:50Z</time>
      </trkpt>
      <trkpt lat="49.31023" lon="0.99096">
        <ele>116.46</ele>
        <time>2015-07-17T13:49:51Z</time>
      </trkpt>
      <trkpt lat="49.31025" lon="0.99097">
        <ele>115.5</ele>
        <time>2015-07-17T13:49:52Z</time>
      </trkpt>
      <trkpt lat="49.31027" lon="0.991">
        <ele>115.5</ele>
        <time>2015-07-17T13:49:53Z</time>
      </trkpt>
      <trkpt lat="49.31028" lon="0.99102">
        <ele>114.53</ele>
        <time>2015-07-17T13:49:54Z</time>
      </trkpt>
      <trkpt lat="49.31031" lon="0.99105">
        <ele>114.05</ele>
        <time>2015-07-17T13:49:55Z</time>
      </trkpt>
      <trkpt lat="49.31035" lon="0.99108">
        <ele>114.05</ele>
        <time>2015-07-17T13:49:56Z</time>
      </trkpt>
      <trkpt lat="49.31041" lon="0.99115">
        <ele>114.05</ele>
        <time>2015-07-17T13:49:58Z</time>
      </trkpt>
      <trkpt lat="49.31044" lon="0.9912">
        <ele>114.05</ele>
        <time>2015-07-17T13:49:59Z</time>
      </trkpt>
      <trkpt lat="49.3105" lon="0.99131">
        <ele>112.61</ele>
        <time>2015-07-17T13:50:01Z</time>
      </trkpt>
      <trkpt lat="49.31053" lon="0.99136">
        <ele>112.13</ele>
        <time>2015-07-17T13:50:02Z</time>
      </trkpt>
      <trkpt lat="49.31057" lon="0.9914">
        <ele>111.65</ele>
        <time>2015-07-17T13:50:03Z</time>
      </trkpt>
      <trkpt lat="49.31061" lon="0.99143">
        <ele>111.65</ele>
        <time>2015-07-17T13:50:04Z</time>
      </trkpt>
      <trkpt lat="49.31066" lon="0.99144">
        <ele>111.65</ele>
        <time>2015-07-17T13:50:05Z</time>
      </trkpt>
      <trkpt lat="49.31088" lon="0.9915">
        <ele>110.69</ele>
        <time>2015-07-17T13:50:09Z</time>
      </trkpt>
      <trkpt lat="49.31094" lon="0.99152">
        <ele>110.69</ele>
        <time>2015-07-17T13:50:10Z</time>
      </trkpt>
      <trkpt lat="49.311" lon="0.99155">
        <ele>110.21</ele>
        <time>2015-07-17T13:50:11Z</time>
      </trkpt>
      <trkpt lat="49.31116" lon="0.99163">
        <ele>109.73</ele>
        <time>2015-07-17T13:50:13Z</time>
      </trkpt>
      <trkpt lat="49.31125" lon="0.99163">
        <ele>109.25</ele>
        <time>2015-07-17T13:50:14Z</time>
      </trkpt>
      <trkpt lat="49.31152" lon="0.9916">
        <ele>109.25</ele>
        <time>2015-07-17T13:50:17Z</time>
      </trkpt>
      <trkpt lat="49.3116" lon="0.99161">
        <ele>108.77</ele>
        <time>2015-07-17T13:50:18Z</time>
      </trkpt>
      <trkpt lat="49.31168" lon="0.99162">
        <ele>108.77</ele>
        <time>2015-07-17T13:50:19Z</time>
      </trkpt>
      <trkpt lat="49.31217" lon="0.99162">
        <ele>106.84</ele>
        <time>2015-07-17T13:50:25Z</time>
      </trkpt>
      <trkpt lat="49.31226" lon="0.99162">
        <ele>106.36</ele>
        <time>2015-07-17T13:50:26Z</time>
      </trkpt>
      <trkpt lat="49.31233" lon="0.9916">
        <ele>105.88</ele>
        <time>2015-07-17T13:50:27Z</time>
      </trkpt>
      <trkpt lat="49.31241" lon="0.99158">
        <ele>105.88</ele>
        <time>2015-07-17T13:50:28Z</time>
      </trkpt>
      <trkpt lat="49.31249" lon="0.99154">
        <ele>104.92</ele>
        <time>2015-07-17T13:50:29Z</time>
      </trkpt>
      <trkpt lat="49.31264" lon="0.99146">
        <ele>104.44</ele>
        <time>2015-07-17T13:50:31Z</time>
      </trkpt>
      <trkpt lat="49.31292" lon="0.99139">
        <ele>102.52</ele>
        <time>2015-07-17T13:50:34Z</time>
      </trkpt>
      <trkpt lat="49.31301" lon="0.99139">
        <ele>101.08</ele>
        <time>2015-07-17T13:50:35Z</time>
      </trkpt>
      <trkpt lat="49.31311" lon="0.99139">
        <ele>100.11</ele>
        <time>2015-07-17T13:50:36Z</time>
      </trkpt>
      <trkpt lat="49.31341" lon="0.99141">
        <ele>97.23</ele>
        <time>2015-07-17T13:50:39Z</time>
      </trkpt>
      <trkpt lat="49.31351" lon="0.99139">
        <ele>96.75</ele>
        <time>2015-07-17T13:50:40Z</time>
      </trkpt>
      <trkpt lat="49.31371" lon="0.99135">
        <ele>95.31</ele>
        <time>2015-07-17T13:50:42Z</time>
      </trkpt>
      <trkpt lat="49.31396" lon="0.9913">
        <ele>95.79</ele>
        <time>2015-07-17T13:50:48Z</time>
      </trkpt>
      <trkpt lat="49.31403" lon="0.99128">
        <ele>94.35</ele>
        <time>2015-07-17T13:51:11Z</time>
      </trkpt>
      <trkpt lat="49.31408" lon="0.99128">
        <ele>93.87</ele>
        <time>2015-07-17T13:51:19Z</time>
      </trkpt>
      <trkpt lat="49.31414" lon="0.9913">
        <ele>93.87</ele>
        <time>2015-07-17T13:51:23Z</time>
      </trkpt>
      <trkpt lat="49.31416" lon="0.99131">
        <ele>93.87</ele>
        <time>2015-07-17T13:51:24Z</time>
      </trkpt>
      <trkpt lat="49.31421" lon="0.99133">
        <ele>93.87</ele>
        <time>2015-07-17T13:51:27Z</time>
      </trkpt>
      <trkpt lat="49.31424" lon="0.99134">
        <ele>93.87</ele>
        <time>2015-07-17T13:51:28Z</time>
      </trkpt>
      <trkpt lat="49.31426" lon="0.99135">
        <ele>93.87</ele>
        <time>2015-07-17T13:51:29Z</time>
      </trkpt>
      <trkpt lat="49.3143" lon="0.99136">
        <ele>93.87</ele>
        <time>2015-07-17T13:51:30Z</time>
      </trkpt>
      <trkpt lat="49.31434" lon="0.99137">
        <ele>93.87</ele>
        <time>2015-07-17T13:51:31Z</time>
      </trkpt>
      <trkpt lat="49.31438" lon="0.99137">
        <ele>93.87</ele>
        <time>2015-07-17T13:51:32Z</time>
      </trkpt>
      <trkpt lat="49.31443" lon="0.99139">
        <ele>93.87</ele>
        <time>2015-07-17T13:51:33Z</time>
      </trkpt>
      <trkpt lat="49.31447" lon="0.99141">
        <ele>93.87</ele>
        <time>2015-07-17T13:51:34Z</time>
      </trkpt>
      <trkpt lat="49.31451" lon="0.99142">
        <ele>93.39</ele>
        <time>2015-07-17T13:51:35Z</time>
      </trkpt>
      <trkpt lat="49.31457" lon="0.99143">
        <ele>93.39</ele>
        <time>2015-07-17T13:51:36Z</time>
      </trkpt>
      <trkpt lat="49.31502" lon="0.99149">
        <ele>91.46</ele>
        <time>2015-07-17T13:51:43Z</time>
      </trkpt>
      <trkpt lat="49.31508" lon="0.9915">
        <ele>91.46</ele>
        <time>2015-07-17T13:51:44Z</time>
      </trkpt>
      <trkpt lat="49.31516" lon="0.99151">
        <ele>90.98</ele>
        <time>2015-07-17T13:51:45Z</time>
      </trkpt>
      <trkpt lat="49.31522" lon="0.99153">
        <ele>90.02</ele>
        <time>2015-07-17T13:51:46Z</time>
      </trkpt>
      <trkpt lat="49.3153" lon="0.99155">
        <ele>89.54</ele>
        <time>2015-07-17T13:51:47Z</time>
      </trkpt>
      <trkpt lat="49.31553" lon="0.99158">
        <ele>87.62</ele>
        <time>2015-07-17T13:51:50Z</time>
      </trkpt>
      <trkpt lat="49.3156" lon="0.99156">
        <ele>86.66</ele>
        <time>2015-07-17T13:51:51Z</time>
      </trkpt>
      <trkpt lat="49.31586" lon="0.99151">
        <ele>83.29</ele>
        <time>2015-07-17T13:51:54Z</time>
      </trkpt>
      <trkpt lat="49.31605" lon="0.99149">
        <ele>79.45</ele>
        <time>2015-07-17T13:51:56Z</time>
      </trkpt>
      <trkpt lat="49.31624" lon="0.99145">
        <ele>76.08</ele>
        <time>2015-07-17T13:51:58Z</time>
      </trkpt>
      <trkpt lat="49.31652" lon="0.99134">
        <ele>72.24</ele>
        <time>2015-07-17T13:52:01Z</time>
      </trkpt>
      <trkpt lat="49.31671" lon="0.99123">
        <ele>68.87</ele>
        <time>2015-07-17T13:52:03Z</time>
      </trkpt>
      <trkpt lat="49.31678" lon="0.99115">
        <ele>66.95</ele>
        <time>2015-07-17T13:52:04Z</time>
      </trkpt>
      <trkpt lat="49.31688" lon="0.99102">
        <ele>64.55</ele>
        <time>2015-07-17T13:52:06Z</time>
      </trkpt>
      <trkpt lat="49.31689" lon="0.99095">
        <ele>64.07</ele>
        <time>2015-07-17T13:52:07Z</time>
      </trkpt>
      <trkpt lat="49.31689" lon="0.99076">
        <ele>62.62</ele>
        <time>2015-07-17T13:52:15Z</time>
      </trkpt>
      <trkpt lat="49.31688" lon="0.99067">
        <ele>61.18</ele>
        <time>2015-07-17T13:52:16Z</time>
      </trkpt>
      <trkpt lat="49.31686" lon="0.99057">
        <ele>60.22</ele>
        <time>2015-07-17T13:52:17Z</time>
      </trkpt>
      <trkpt lat="49.31683" lon="0.99047">
        <ele>59.26</ele>
        <time>2015-07-17T13:52:18Z</time>
      </trkpt>
      <trkpt lat="49.31679" lon="0.99037">
        <ele>58.3</ele>
        <time>2015-07-17T13:52:19Z</time>
      </trkpt>
      <trkpt lat="49.31674" lon="0.99027">
        <ele>54.93</ele>
        <time>2015-07-17T13:52:20Z</time>
      </trkpt>
      <trkpt lat="49.31661" lon="0.98997">
        <ele>51.57</ele>
        <time>2015-07-17T13:52:23Z</time>
      </trkpt>
      <trkpt lat="49.31659" lon="0.98986">
        <ele>50.13</ele>
        <time>2015-07-17T13:52:24Z</time>
      </trkpt>
      <trkpt lat="49.31659" lon="0.98975">
        <ele>49.65</ele>
        <time>2015-07-17T13:52:25Z</time>
      </trkpt>
      <trkpt lat="49.31658" lon="0.98954">
        <ele>49.16</ele>
        <time>2015-07-17T13:52:28Z</time>
      </trkpt>
      <trkpt lat="49.31661" lon="0.98953">
        <ele>48.68</ele>
        <time>2015-07-17T13:52:31Z</time>
      </trkpt>
      <trkpt lat="49.31666" lon="0.98956">
        <ele>48.2</ele>
        <time>2015-07-17T13:52:34Z</time>
      </trkpt>
      <trkpt lat="49.31667" lon="0.98956">
        <ele>47.72</ele>
        <time>2015-07-17T13:52:35Z</time>
      </trkpt>
      <trkpt lat="49.31672" lon="0.98958">
        <ele>46.76</ele>
        <time>2015-07-17T13:52:38Z</time>
      </trkpt>
      <trkpt lat="49.31674" lon="0.9896">
        <ele>46.76</ele>
        <time>2015-07-17T13:52:39Z</time>
      </trkpt>
      <trkpt lat="49.31682" lon="0.9898">
        <ele>43.4</ele>
        <time>2015-07-17T13:52:45Z</time>
      </trkpt>
      <trkpt lat="49.3169" lon="0.98993">
        <ele>41.95</ele>
        <time>2015-07-17T13:52:47Z</time>
      </trkpt>
      <trkpt lat="49.31695" lon="0.98999">
        <ele>41.47</ele>
        <time>2015-07-17T13:52:48Z</time>
      </trkpt>
      <trkpt lat="49.317" lon="0.99007">
        <ele>40.99</ele>
        <time>2015-07-17T13:52:49Z</time>
      </trkpt>
      <trkpt lat="49.31723" lon="0.99043">
        <ele>39.07</ele>
        <time>2015-07-17T13:52:53Z</time>
      </trkpt>
      <trkpt lat="49.31731" lon="0.99059">
        <ele>38.11</ele>
        <time>2015-07-17T13:52:55Z</time>
      </trkpt>
      <trkpt lat="49.31751" lon="0.99098">
        <ele>34.74</ele>
        <time>2015-07-17T13:52:59Z</time>
      </trkpt>
      <trkpt lat="49.3177" lon="0.99128">
        <ele>31.86</ele>
        <time>2015-07-17T13:53:02Z</time>
      </trkpt>
      <trkpt lat="49.31777" lon="0.99137">
        <ele>30.9</ele>
        <time>2015-07-17T13:53:03Z</time>
      </trkpt>
      <trkpt lat="49.31783" lon="0.99145">
        <ele>29.94</ele>
        <time>2015-07-17T13:53:04Z</time>
      </trkpt>
      <trkpt lat="49.31789" lon="0.99153">
        <ele>30.42</ele>
        <time>2015-07-17T13:53:05Z</time>
      </trkpt>
      <trkpt lat="49.31795" lon="0.9916">
        <ele>28.5</ele>
        <time>2015-07-17T13:53:06Z</time>
      </trkpt>
      <trkpt lat="49.31799" lon="0.99168">
        <ele>27.53</ele>
        <time>2015-07-17T13:53:07Z</time>
      </trkpt>
      <trkpt lat="49.31808" lon="0.9918">
        <ele>27.05</ele>
        <time>2015-07-17T13:53:09Z</time>
      </trkpt>
      <trkpt lat="49.31823" lon="0.99192">
        <ele>26.09</ele>
        <time>2015-07-17T13:53:12Z</time>
      </trkpt>
      <trkpt lat="49.31825" lon="0.99197">
        <ele>26.09</ele>
        <time>2015-07-17T13:53:13Z</time>
      </trkpt>
      <trkpt lat="49.31828" lon="0.99201">
        <ele>26.09</ele>
        <time>2015-07-17T13:53:14Z</time>
      </trkpt>
      <trkpt lat="49.31834" lon="0.99205">
        <ele>26.09</ele>
        <time>2015-07-17T13:53:24Z</time>
      </trkpt>
      <trkpt lat="49.31836" lon="0.9921">
        <ele>25.61</ele>
        <time>2015-07-17T13:53:41Z</time>
      </trkpt>
      <trkpt lat="49.31838" lon="0.9921">
        <ele>26.09</ele>
        <time>2015-07-17T13:53:46Z</time>
      </trkpt>
      <trkpt lat="49.31838" lon="0.99209">
        <ele>25.61</ele>
        <time>2015-07-17T13:53:54Z</time>
      </trkpt>
      <trkpt lat="49.31838" lon="0.99208">
        <ele>25.61</ele>
        <time>2015-07-17T13:54:14Z</time>
      </trkpt>
      <trkpt lat="49.31841" lon="0.99212">
        <ele>25.61</ele>
        <time>2015-07-17T13:54:23Z</time>
      </trkpt>
      <trkpt lat="49.31842" lon="0.99214">
        <ele>25.13</ele>
        <time>2015-07-17T13:54:24Z</time>
      </trkpt>
      <trkpt lat="49.31842" lon="0.99218">
        <ele>25.13</ele>
        <time>2015-07-17T13:54:25Z</time>
      </trkpt>
      <trkpt lat="49.31842" lon="0.99223">
        <ele>25.13</ele>
        <time>2015-07-17T13:54:26Z</time>
      </trkpt>
      <trkpt lat="49.31839" lon="0.99267">
        <ele>24.65</ele>
        <time>2015-07-17T13:54:34Z</time>
      </trkpt>
      <trkpt lat="49.31838" lon="0.99274">
        <ele>24.65</ele>
        <time>2015-07-17T13:54:35Z</time>
      </trkpt>
      <trkpt lat="49.31836" lon="0.99281">
        <ele>23.69</ele>
        <time>2015-07-17T13:54:36Z</time>
      </trkpt>
      <trkpt lat="49.31831" lon="0.99308">
        <ele>23.21</ele>
        <time>2015-07-17T13:54:40Z</time>
      </trkpt>
      <trkpt lat="49.31831" lon="0.99316">
        <ele>23.21</ele>
        <time>2015-07-17T13:54:41Z</time>
      </trkpt>
      <trkpt lat="49.31833" lon="0.99323">
        <ele>23.21</ele>
        <time>2015-07-17T13:54:42Z</time>
      </trkpt>
      <trkpt lat="49.31835" lon="0.9933">
        <ele>22.73</ele>
        <time>2015-07-17T13:54:43Z</time>
      </trkpt>
      <trkpt lat="49.31837" lon="0.99336">
        <ele>22.73</ele>
        <time>2015-07-17T13:54:44Z</time>
      </trkpt>
      <trkpt lat="49.31841" lon="0.99342">
        <ele>22.25</ele>
        <time>2015-07-17T13:54:45Z</time>
      </trkpt>
      <trkpt lat="49.31843" lon="0.99349">
        <ele>22.25</ele>
        <time>2015-07-17T13:54:46Z</time>
      </trkpt>
      <trkpt lat="49.31845" lon="0.99357">
        <ele>21.77</ele>
        <time>2015-07-17T13:54:47Z</time>
      </trkpt>
      <trkpt lat="49.31848" lon="0.99372">
        <ele>21.77</ele>
        <time>2015-07-17T13:54:49Z</time>
      </trkpt>
      <trkpt lat="49.3185" lon="0.99378">
        <ele>21.77</ele>
        <time>2015-07-17T13:54:50Z</time>
      </trkpt>
      <trkpt lat="49.31852" lon="0.99384">
        <ele>22.25</ele>
        <time>2015-07-17T13:54:51Z</time>
      </trkpt>
      <trkpt lat="49.3186" lon="0.99398">
        <ele>22.73</ele>
        <time>2015-07-17T13:54:54Z</time>
      </trkpt>
      <trkpt lat="49.3186" lon="0.99403">
        <ele>22.25</ele>
        <time>2015-07-17T13:54:55Z</time>
      </trkpt>
      <trkpt lat="49.31858" lon="0.99409">
        <ele>21.77</ele>
        <time>2015-07-17T13:54:56Z</time>
      </trkpt>
      <trkpt lat="49.31854" lon="0.99413">
        <ele>21.77</ele>
        <time>2015-07-17T13:54:57Z</time>
      </trkpt>
      <trkpt lat="49.31851" lon="0.99416">
        <ele>21.29</ele>
        <time>2015-07-17T13:54:58Z</time>
      </trkpt>
      <trkpt lat="49.31811" lon="0.99455">
        <ele>19.84</ele>
        <time>2015-07-17T13:55:10Z</time>
      </trkpt>
      <trkpt lat="49.31792" lon="0.99491">
        <ele>20.32</ele>
        <time>2015-07-17T13:55:20Z</time>
      </trkpt>
      <trkpt lat="49.31763" lon="0.99544">
        <ele>22.73</ele>
        <time>2015-07-17T13:55:35Z</time>
      </trkpt>
      <trkpt lat="49.31736" lon="0.99581">
        <ele>25.13</ele>
        <time>2015-07-17T13:55:49Z</time>
      </trkpt>
      <trkpt lat="49.31732" lon="0.99592">
        <ele>26.09</ele>
        <time>2015-07-17T13:55:53Z</time>
      </trkpt>
      <trkpt lat="49.31731" lon="0.99595">
        <ele>26.57</ele>
        <time>2015-07-17T13:55:54Z</time>
      </trkpt>
      <trkpt lat="49.31731" lon="0.99598">
        <ele>26.57</ele>
        <time>2015-07-17T13:55:55Z</time>
      </trkpt>
      <trkpt lat="49.31723" lon="0.99631">
        <ele>29.94</ele>
        <time>2015-07-17T13:56:07Z</time>
      </trkpt>
      <trkpt lat="49.31719" lon="0.99641">
        <ele>31.38</ele>
        <time>2015-07-17T13:56:12Z</time>
      </trkpt>
      <trkpt lat="49.3172" lon="0.99643">
        <ele>31.86</ele>
        <time>2015-07-17T13:56:13Z</time>
      </trkpt>
      <trkpt lat="49.31721" lon="0.99645">
        <ele>32.34</ele>
        <time>2015-07-17T13:56:14Z</time>
      </trkpt>
      <trkpt lat="49.31724" lon="0.99646">
        <ele>32.34</ele>
        <time>2015-07-17T13:56:17Z</time>
      </trkpt>
      <trkpt lat="49.31725" lon="0.99645">
        <ele>32.82</ele>
        <time>2015-07-17T13:56:18Z</time>
      </trkpt>
      <trkpt lat="49.31727" lon="0.99644">
        <ele>32.82</ele>
        <time>2015-07-17T13:56:19Z</time>
      </trkpt>
      <trkpt lat="49.31728" lon="0.99644">
        <ele>33.3</ele>
        <time>2015-07-17T13:56:20Z</time>
      </trkpt>
      <trkpt lat="49.3173" lon="0.99647">
        <ele>33.78</ele>
        <time>2015-07-17T13:56:22Z</time>
      </trkpt>
      <trkpt lat="49.31731" lon="0.99649">
        <ele>34.26</ele>
        <time>2015-07-17T13:56:23Z</time>
      </trkpt>
      <trkpt lat="49.31736" lon="0.99666">
        <ele>36.67</ele>
        <time>2015-07-17T13:56:32Z</time>
      </trkpt>
      <trkpt lat="49.31741" lon="0.99671">
        <ele>38.11</ele>
        <time>2015-07-17T13:56:37Z</time>
      </trkpt>
      <trkpt lat="49.31745" lon="0.99674">
        <ele>39.07</ele>
        <time>2015-07-17T13:56:40Z</time>
      </trkpt>
      <trkpt lat="49.31748" lon="0.99684">
        <ele>40.03</ele>
        <time>2015-07-17T13:56:45Z</time>
      </trkpt>
      <trkpt lat="49.3176" lon="0.99709">
        <ele>42.92</ele>
        <time>2015-07-17T13:56:58Z</time>
      </trkpt>
      <trkpt lat="49.31769" lon="0.99724">
        <ele>46.28</ele>
        <time>2015-07-17T13:57:09Z</time>
      </trkpt>
      <trkpt lat="49.31783" lon="0.99743">
        <ele>49.65</ele>
        <time>2015-07-17T13:57:20Z</time>
      </trkpt>
      <trkpt lat="49.3179" lon="0.99755">
        <ele>52.53</ele>
        <time>2015-07-17T13:57:29Z</time>
      </trkpt>
      <trkpt lat="49.3179" lon="0.99757">
        <ele>53.01</ele>
        <time>2015-07-17T13:57:31Z</time>
      </trkpt>
      <trkpt lat="49.31809" lon="0.99789">
        <ele>55.41</ele>
        <time>2015-07-17T13:57:43Z</time>
      </trkpt>
      <trkpt lat="49.31816" lon="0.99811">
        <ele>57.34</ele>
        <time>2015-07-17T13:57:55Z</time>
      </trkpt>
      <trkpt lat="49.31814" lon="0.99812">
        <ele>56.86</ele>
        <time>2015-07-17T13:58:15Z</time>
      </trkpt>
      <trkpt lat="49.31806" lon="0.99827">
        <ele>54.93</ele>
        <time>2015-07-17T13:58:19Z</time>
      </trkpt>
      <trkpt lat="49.31803" lon="0.99833">
        <ele>54.93</ele>
        <time>2015-07-17T13:58:20Z</time>
      </trkpt>
      <trkpt lat="49.318" lon="0.99839">
        <ele>54.45</ele>
        <time>2015-07-17T13:58:21Z</time>
      </trkpt>
      <trkpt lat="49.31797" lon="0.99844">
        <ele>54.93</ele>
        <time>2015-07-17T13:58:22Z</time>
      </trkpt>
      <trkpt lat="49.31787" lon="0.99872">
        <ele>57.34</ele>
        <time>2015-07-17T13:58:30Z</time>
      </trkpt>
      <trkpt lat="49.31788" lon="0.99903">
        <ele>61.18</ele>
        <time>2015-07-17T13:58:38Z</time>
      </trkpt>
      <trkpt lat="49.31789" lon="0.99907">
        <ele>61.18</ele>
        <time>2015-07-17T13:58:39Z</time>
      </trkpt>
      <trkpt lat="49.31789" lon="0.9991">
        <ele>61.66</ele>
        <time>2015-07-17T13:58:40Z</time>
      </trkpt>
      <trkpt lat="49.31789" lon="0.99914">
        <ele>61.66</ele>
        <time>2015-07-17T13:58:41Z</time>
      </trkpt>
      <trkpt lat="49.31789" lon="0.99918">
        <ele>62.14</ele>
        <time>2015-07-17T13:58:42Z</time>
      </trkpt>
      <trkpt lat="49.31789" lon="0.99922">
        <ele>62.62</ele>
        <time>2015-07-17T13:58:43Z</time>
      </trkpt>
      <trkpt lat="49.31789" lon="0.99923">
        <ele>63.1</ele>
        <time>2015-07-17T13:58:44Z</time>
      </trkpt>
      <trkpt lat="49.31775" lon="0.99961">
        <ele>64.55</ele>
        <time>2015-07-17T13:58:54Z</time>
      </trkpt>
      <trkpt lat="49.31763" lon="0.99996">
        <ele>68.39</ele>
        <time>2015-07-17T13:59:04Z</time>
      </trkpt>
      <trkpt lat="49.31752" lon="1.00022">
        <ele>71.27</ele>
        <time>2015-07-17T13:59:12Z</time>
      </trkpt>
      <trkpt lat="49.31729" lon="1.00052">
        <ele>73.2</ele>
        <time>2015-07-17T13:59:22Z</time>
      </trkpt>
      <trkpt lat="49.31714" lon="1.00092">
        <ele>75.6</ele>
        <time>2015-07-17T13:59:34Z</time>
      </trkpt>
      <trkpt lat="49.31713" lon="1.00105">
        <ele>75.12</ele>
        <time>2015-07-17T13:59:44Z</time>
      </trkpt>
      <trkpt lat="49.31715" lon="1.00106">
        <ele>75.12</ele>
        <time>2015-07-17T13:59:58Z</time>
      </trkpt>
      <trkpt lat="49.31712" lon="1.0013">
        <ele>73.2</ele>
        <time>2015-07-17T14:00:04Z</time>
      </trkpt>
      <trkpt lat="49.31713" lon="1.00144">
        <ele>71.27</ele>
        <time>2015-07-17T14:00:06Z</time>
      </trkpt>
      <trkpt lat="49.31714" lon="1.00152">
        <ele>70.79</ele>
        <time>2015-07-17T14:00:07Z</time>
      </trkpt>
      <trkpt lat="49.31718" lon="1.0016">
        <ele>69.83</ele>
        <time>2015-07-17T14:00:08Z</time>
      </trkpt>
      <trkpt lat="49.3172" lon="1.00167">
        <ele>68.87</ele>
        <time>2015-07-17T14:00:09Z</time>
      </trkpt>
      <trkpt lat="49.31723" lon="1.00173">
        <ele>67.91</ele>
        <time>2015-07-17T14:00:10Z</time>
      </trkpt>
      <trkpt lat="49.31726" lon="1.00183">
        <ele>66.95</ele>
        <time>2015-07-17T14:00:12Z</time>
      </trkpt>
      <trkpt lat="49.31732" lon="1.00196">
        <ele>67.43</ele>
        <time>2015-07-17T14:00:16Z</time>
      </trkpt>
      <trkpt lat="49.31751" lon="1.00212">
        <ele>69.35</ele>
        <time>2015-07-17T14:00:25Z</time>
      </trkpt>
      <trkpt lat="49.31765" lon="1.00227">
        <ele>71.76</ele>
        <time>2015-07-17T14:00:36Z</time>
      </trkpt>
      <trkpt lat="49.31769" lon="1.00224">
        <ele>72.24</ele>
        <time>2015-07-17T14:00:49Z</time>
      </trkpt>
      <trkpt lat="49.3177" lon="1.00222">
        <ele>72.72</ele>
        <time>2015-07-17T14:00:50Z</time>
      </trkpt>
      <trkpt lat="49.31771" lon="1.00232">
        <ele>72.72</ele>
        <time>2015-07-17T14:00:58Z</time>
      </trkpt>
      <trkpt lat="49.31773" lon="1.00236">
        <ele>72.24</ele>
        <time>2015-07-17T14:00:59Z</time>
      </trkpt>
      <trkpt lat="49.31775" lon="1.00238">
        <ele>72.24</ele>
        <time>2015-07-17T14:01:00Z</time>
      </trkpt>
      <trkpt lat="49.31781" lon="1.00246">
        <ele>73.68</ele>
        <time>2015-07-17T14:01:04Z</time>
      </trkpt>
      <trkpt lat="49.31789" lon="1.00261">
        <ele>72.72</ele>
        <time>2015-07-17T14:01:16Z</time>
      </trkpt>
      <trkpt lat="49.31789" lon="1.00264">
        <ele>72.72</ele>
        <time>2015-07-17T14:01:17Z</time>
      </trkpt>
      <trkpt lat="49.3179" lon="1.00268">
        <ele>72.72</ele>
        <time>2015-07-17T14:01:18Z</time>
      </trkpt>
      <trkpt lat="49.31791" lon="1.00272">
        <ele>72.24</ele>
        <time>2015-07-17T14:01:19Z</time>
      </trkpt>
      <trkpt lat="49.31791" lon="1.00277">
        <ele>71.76</ele>
        <time>2015-07-17T14:01:20Z</time>
      </trkpt>
      <trkpt lat="49.318" lon="1.0029">
        <ele>71.27</ele>
        <time>2015-07-17T14:01:23Z</time>
      </trkpt>
      <trkpt lat="49.31821" lon="1.00309">
        <ele>72.24</ele>
        <time>2015-07-17T14:01:30Z</time>
      </trkpt>
      <trkpt lat="49.31849" lon="1.00316">
        <ele>75.6</ele>
        <time>2015-07-17T14:01:42Z</time>
      </trkpt>
      <trkpt lat="49.31851" lon="1.00315">
        <ele>75.6</ele>
        <time>2015-07-17T14:01:43Z</time>
      </trkpt>
      <trkpt lat="49.31867" lon="1.00343">
        <ele>75.6</ele>
        <time>2015-07-17T14:02:07Z</time>
      </trkpt>
      <trkpt lat="49.31863" lon="1.00346">
        <ele>75.6</ele>
        <time>2015-07-17T14:02:09Z</time>
      </trkpt>
      <trkpt lat="49.31858" lon="1.0035">
        <ele>75.12</ele>
        <time>2015-07-17T14:02:11Z</time>
      </trkpt>
      <trkpt lat="49.31858" lon="1.00355">
        <ele>75.12</ele>
        <time>2015-07-17T14:02:13Z</time>
      </trkpt>
      <trkpt lat="49.31858" lon="1.00367">
        <ele>75.6</ele>
        <time>2015-07-17T14:02:17Z</time>
      </trkpt>
      <trkpt lat="49.31865" lon="1.004">
        <ele>77.52</ele>
        <time>2015-07-17T14:02:28Z</time>
      </trkpt>
      <trkpt lat="49.31867" lon="1.00404">
        <ele>77.04</ele>
        <time>2015-07-17T14:02:30Z</time>
      </trkpt>
      <trkpt lat="49.31869" lon="1.00412">
        <ele>76.08</ele>
        <time>2015-07-17T14:02:32Z</time>
      </trkpt>
      <trkpt lat="49.31876" lon="1.00419">
        <ele>75.6</ele>
        <time>2015-07-17T14:02:35Z</time>
      </trkpt>
      <trkpt lat="49.3188" lon="1.0042">
        <ele>75.6</ele>
        <time>2015-07-17T14:02:36Z</time>
      </trkpt>
      <trkpt lat="49.31885" lon="1.00422">
        <ele>75.12</ele>
        <time>2015-07-17T14:02:37Z</time>
      </trkpt>
      <trkpt lat="49.31902" lon="1.00424">
        <ele>76.08</ele>
        <time>2015-07-17T14:02:42Z</time>
      </trkpt>
      <trkpt lat="49.31909" lon="1.00437">
        <ele>76.56</ele>
        <time>2015-07-17T14:02:52Z</time>
      </trkpt>
      <trkpt lat="49.31911" lon="1.00447">
        <ele>76.56</ele>
        <time>2015-07-17T14:03:05Z</time>
      </trkpt>
      <trkpt lat="49.3191" lon="1.00449">
        <ele>76.56</ele>
        <time>2015-07-17T14:03:08Z</time>
      </trkpt>
      <trkpt lat="49.31909" lon="1.00451">
        <ele>76.08</ele>
        <time>2015-07-17T14:03:09Z</time>
      </trkpt>
      <trkpt lat="49.31907" lon="1.00478">
        <ele>72.24</ele>
        <time>2015-07-17T14:03:15Z</time>
      </trkpt>
      <trkpt lat="49.31908" lon="1.00483">
        <ele>72.24</ele>
        <time>2015-07-17T14:03:16Z</time>
      </trkpt>
      <trkpt lat="49.31909" lon="1.00486">
        <ele>72.72</ele>
        <time>2015-07-17T14:03:17Z</time>
      </trkpt>
      <trkpt lat="49.31912" lon="1.00501">
        <ele>72.24</ele>
        <time>2015-07-17T14:03:21Z</time>
      </trkpt>
      <trkpt lat="49.31913" lon="1.00504">
        <ele>72.24</ele>
        <time>2015-07-17T14:03:22Z</time>
      </trkpt>
      <trkpt lat="49.31914" lon="1.00505">
        <ele>72.24</ele>
        <time>2015-07-17T14:03:23Z</time>
      </trkpt>
      <trkpt lat="49.31921" lon="1.00506">
        <ele>73.68</ele>
        <time>2015-07-17T14:03:30Z</time>
      </trkpt>
      <trkpt lat="49.31931" lon="1.00509">
        <ele>73.68</ele>
        <time>2015-07-17T14:03:38Z</time>
      </trkpt>
      <trkpt lat="49.31935" lon="1.00511">
        <ele>72.72</ele>
        <time>2015-07-17T14:03:40Z</time>
      </trkpt>
      <trkpt lat="49.31937" lon="1.00513">
        <ele>71.27</ele>
        <time>2015-07-17T14:03:41Z</time>
      </trkpt>
      <trkpt lat="49.31938" lon="1.00517">
        <ele>69.83</ele>
        <time>2015-07-17T14:03:42Z</time>
      </trkpt>
      <trkpt lat="49.31938" lon="1.00523">
        <ele>72.24</ele>
        <time>2015-07-17T14:03:44Z</time>
      </trkpt>
      <trkpt lat="49.31939" lon="1.00534">
        <ele>75.12</ele>
        <time>2015-07-17T14:03:50Z</time>
      </trkpt>
      <trkpt lat="49.31938" lon="1.00537">
        <ele>75.6</ele>
        <time>2015-07-17T14:03:52Z</time>
      </trkpt>
      <trkpt lat="49.31934" lon="1.0055">
        <ele>74.64</ele>
        <time>2015-07-17T14:04:04Z</time>
      </trkpt>
      <trkpt lat="49.31942" lon="1.00553">
        <ele>75.6</ele>
        <time>2015-07-17T14:04:19Z</time>
      </trkpt>
      <trkpt lat="49.31949" lon="1.00575">
        <ele>74.64</ele>
        <time>2015-07-17T14:04:26Z</time>
      </trkpt>
      <trkpt lat="49.31951" lon="1.00586">
        <ele>75.12</ele>
        <time>2015-07-17T14:04:29Z</time>
      </trkpt>
      <trkpt lat="49.31964" lon="1.00608">
        <ele>75.12</ele>
        <time>2015-07-17T14:04:34Z</time>
      </trkpt>
      <trkpt lat="49.31973" lon="1.00612">
        <ele>72.72</ele>
        <time>2015-07-17T14:04:40Z</time>
      </trkpt>
      <trkpt lat="49.31992" lon="1.00612">
        <ele>73.68</ele>
        <time>2015-07-17T14:04:46Z</time>
      </trkpt>
      <trkpt lat="49.32007" lon="1.0062">
        <ele>74.64</ele>
        <time>2015-07-17T14:04:52Z</time>
      </trkpt>
      <trkpt lat="49.32007" lon="1.00637">
        <ele>73.2</ele>
        <time>2015-07-17T14:04:57Z</time>
      </trkpt>
      <trkpt lat="49.32005" lon="1.00644">
        <ele>71.76</ele>
        <time>2015-07-17T14:04:58Z</time>
      </trkpt>
      <trkpt lat="49.32004" lon="1.00652">
        <ele>71.76</ele>
        <time>2015-07-17T14:04:59Z</time>
      </trkpt>
      <trkpt lat="49.32004" lon="1.0066">
        <ele>71.76</ele>
        <time>2015-07-17T14:05:00Z</time>
      </trkpt>
      <trkpt lat="49.32003" lon="1.00663">
        <ele>70.79</ele>
        <time>2015-07-17T14:05:01Z</time>
      </trkpt>
      <trkpt lat="49.32009" lon="1.00678">
        <ele>69.83</ele>
        <time>2015-07-17T14:05:03Z</time>
      </trkpt>
      <trkpt lat="49.32012" lon="1.00683">
        <ele>68.87</ele>
        <time>2015-07-17T14:05:04Z</time>
      </trkpt>
      <trkpt lat="49.32016" lon="1.00686">
        <ele>67.43</ele>
        <time>2015-07-17T14:05:05Z</time>
      </trkpt>
      <trkpt lat="49.32042" lon="1.00716">
        <ele>65.03</ele>
        <time>2015-07-17T14:05:11Z</time>
      </trkpt>
      <trkpt lat="49.3205" lon="1.00739">
        <ele>67.91</ele>
        <time>2015-07-17T14:05:16Z</time>
      </trkpt>
      <trkpt lat="49.32051" lon="1.00744">
        <ele>69.35</ele>
        <time>2015-07-17T14:05:19Z</time>
      </trkpt>
      <trkpt lat="49.32054" lon="1.00754">
        <ele>69.35</ele>
        <time>2015-07-17T14:05:40Z</time>
      </trkpt>
      <trkpt lat="49.32055" lon="1.00758">
        <ele>69.35</ele>
        <time>2015-07-17T14:05:48Z</time>
      </trkpt>
      <trkpt lat="49.32056" lon="1.00758">
        <ele>69.35</ele>
        <time>2015-07-17T14:05:49Z</time>
      </trkpt>
      <trkpt lat="49.32059" lon="1.00758">
        <ele>69.35</ele>
        <time>2015-07-17T14:05:50Z</time>
      </trkpt>
      <trkpt lat="49.32061" lon="1.00758">
        <ele>69.83</ele>
        <time>2015-07-17T14:05:51Z</time>
      </trkpt>
      <trkpt lat="49.32063" lon="1.00758">
        <ele>70.31</ele>
        <time>2015-07-17T14:05:52Z</time>
      </trkpt>
      <trkpt lat="49.32065" lon="1.00757">
        <ele>70.79</ele>
        <time>2015-07-17T14:05:53Z</time>
      </trkpt>
      <trkpt lat="49.32067" lon="1.00756">
        <ele>72.24</ele>
        <time>2015-07-17T14:05:54Z</time>
      </trkpt>
      <trkpt lat="49.32068" lon="1.00755">
        <ele>72.72</ele>
        <time>2015-07-17T14:05:55Z</time>
      </trkpt>
      <trkpt lat="49.3207" lon="1.00756">
        <ele>73.2</ele>
        <time>2015-07-17T14:05:57Z</time>
      </trkpt>
      <trkpt lat="49.32082" lon="1.00751">
        <ele>75.12</ele>
        <time>2015-07-17T14:06:06Z</time>
      </trkpt>
      <trkpt lat="49.3209" lon="1.00734">
        <ele>75.6</ele>
        <time>2015-07-17T14:06:18Z</time>
      </trkpt>
      <trkpt lat="49.32092" lon="1.00729">
        <ele>74.64</ele>
        <time>2015-07-17T14:06:39Z</time>
      </trkpt>
      <trkpt lat="49.321" lon="1.00722">
        <ele>72.24</ele>
        <time>2015-07-17T14:06:43Z</time>
      </trkpt>
      <trkpt lat="49.32102" lon="1.0072">
        <ele>73.2</ele>
        <time>2015-07-17T14:06:45Z</time>
      </trkpt>
      <trkpt lat="49.32113" lon="1.00719">
        <ele>69.83</ele>
        <time>2015-07-17T14:06:49Z</time>
      </trkpt>
      <trkpt lat="49.32115" lon="1.00718">
        <ele>69.83</ele>
        <time>2015-07-17T14:06:50Z</time>
      </trkpt>
      <trkpt lat="49.32128" lon="1.00711">
        <ele>71.76</ele>
        <time>2015-07-17T14:07:00Z</time>
      </trkpt>
      <trkpt lat="49.32136" lon="1.00703">
        <ele>73.2</ele>
        <time>2015-07-17T14:07:08Z</time>
      </trkpt>
      <trkpt lat="49.3213" lon="1.00691">
        <ele>73.68</ele>
        <time>2015-07-17T14:07:19Z</time>
      </trkpt>
      <trkpt lat="49.32132" lon="1.0069">
        <ele>73.2</ele>
        <time>2015-07-17T14:07:30Z</time>
      </trkpt>
      <trkpt lat="49.32133" lon="1.00691">
        <ele>73.2</ele>
        <time>2015-07-17T14:07:57Z</time>
      </trkpt>
      <trkpt lat="49.32139" lon="1.0069">
        <ele>73.2</ele>
        <time>2015-07-17T14:08:20Z</time>
      </trkpt>
      <trkpt lat="49.32145" lon="1.0069">
        <ele>73.2</ele>
        <time>2015-07-17T14:08:55Z</time>
      </trkpt>
      <trkpt lat="49.32148" lon="1.00689">
        <ele>73.68</ele>
        <time>2015-07-17T14:09:29Z</time>
      </trkpt>
      <trkpt lat="49.32147" lon="1.00691">
        <ele>73.68</ele>
        <time>2015-07-17T14:09:57Z</time>
      </trkpt>
      <trkpt lat="49.32147" lon="1.00691">
        <ele>74.16</ele>
        <time>2015-07-17T14:10:27Z</time>
      </trkpt>
      <trkpt lat="49.32149" lon="1.0069">
        <ele>74.16</ele>
        <time>2015-07-17T14:10:57Z</time>
      </trkpt>
      <trkpt lat="49.32149" lon="1.00687">
        <ele>74.16</ele>
        <time>2015-07-17T14:11:24Z</time>
      </trkpt>
      <trkpt lat="49.3215" lon="1.00688">
        <ele>74.64</ele>
        <time>2015-07-17T14:11:55Z</time>
      </trkpt>
      <trkpt lat="49.32148" lon="1.00688">
        <ele>75.12</ele>
        <time>2015-07-17T14:12:25Z</time>
      </trkpt>
      <trkpt lat="49.32147" lon="1.00687">
        <ele>75.12</ele>
        <time>2015-07-17T14:12:54Z</time>
      </trkpt>
      <trkpt lat="49.32146" lon="1.00692">
        <ele>74.64</ele>
        <time>2015-07-17T14:12:58Z</time>
      </trkpt>
      <trkpt lat="49.3214" lon="1.00712">
        <ele>71.27</ele>
        <time>2015-07-17T14:13:08Z</time>
      </trkpt>
      <trkpt lat="49.32136" lon="1.00717">
        <ele>70.31</ele>
        <time>2015-07-17T14:13:10Z</time>
      </trkpt>
      <trkpt lat="49.32129" lon="1.00732">
        <ele>65.99</ele>
        <time>2015-07-17T14:13:15Z</time>
      </trkpt>
      <trkpt lat="49.32123" lon="1.00751">
        <ele>62.14</ele>
        <time>2015-07-17T14:13:19Z</time>
      </trkpt>
      <trkpt lat="49.32119" lon="1.00767">
        <ele>59.26</ele>
        <time>2015-07-17T14:13:22Z</time>
      </trkpt>
      <trkpt lat="49.32115" lon="1.00781">
        <ele>55.41</ele>
        <time>2015-07-17T14:13:26Z</time>
      </trkpt>
      <trkpt lat="49.32112" lon="1.00789">
        <ele>51.57</ele>
        <time>2015-07-17T14:13:29Z</time>
      </trkpt>
      <trkpt lat="49.32107" lon="1.00797">
        <ele>48.2</ele>
        <time>2015-07-17T14:13:32Z</time>
      </trkpt>
      <trkpt lat="49.32102" lon="1.00808">
        <ele>45.32</ele>
        <time>2015-07-17T14:13:37Z</time>
      </trkpt>
      <trkpt lat="49.32103" lon="1.00826">
        <ele>45.32</ele>
        <time>2015-07-17T14:13:51Z</time>
      </trkpt>
      <trkpt lat="49.32099" lon="1.00833">
        <ele>45.8</ele>
        <time>2015-07-17T14:14:12Z</time>
      </trkpt>
      <trkpt lat="49.32099" lon="1.00836">
        <ele>46.28</ele>
        <time>2015-07-17T14:14:38Z</time>
      </trkpt>
      <trkpt lat="49.32102" lon="1.00836">
        <ele>46.76</ele>
        <time>2015-07-17T14:15:08Z</time>
      </trkpt>
      <trkpt lat="49.32101" lon="1.00836">
        <ele>47.24</ele>
        <time>2015-07-17T14:15:38Z</time>
      </trkpt>
      <trkpt lat="49.32102" lon="1.00836">
        <ele>47.24</ele>
        <time>2015-07-17T14:16:00Z</time>
      </trkpt>
      <trkpt lat="49.32102" lon="1.00836">
        <ele>47.72</ele>
        <time>2015-07-17T14:16:27Z</time>
      </trkpt>
      <trkpt lat="49.32103" lon="1.00836">
        <ele>47.72</ele>
        <time>2015-07-17T14:16:55Z</time>
      </trkpt>
      <trkpt lat="49.32103" lon="1.00837">
        <ele>48.2</ele>
        <time>2015-07-17T14:17:18Z</time>
      </trkpt>
      <trkpt lat="49.32104" lon="1.00837">
        <ele>48.68</ele>
        <time>2015-07-17T14:17:45Z</time>
      </trkpt>
      <trkpt lat="49.32104" lon="1.00837">
        <ele>48.68</ele>
        <time>2015-07-17T14:18:09Z</time>
      </trkpt>
      <trkpt lat="49.32104" lon="1.00838">
        <ele>48.68</ele>
        <time>2015-07-17T14:18:41Z</time>
      </trkpt>
      <trkpt lat="49.32103" lon="1.00839">
        <ele>48.68</ele>
        <time>2015-07-17T14:19:11Z</time>
      </trkpt>
      <trkpt lat="49.32103" lon="1.00838">
        <ele>49.16</ele>
        <time>2015-07-17T14:19:38Z</time>
      </trkpt>
      <trkpt lat="49.32103" lon="1.00838">
        <ele>49.16</ele>
        <time>2015-07-17T14:20:09Z</time>
      </trkpt>
      <trkpt lat="49.32102" lon="1.00838">
        <ele>49.16</ele>
        <time>2015-07-17T14:20:36Z</time>
      </trkpt>
      <trkpt lat="49.32099" lon="1.00845">
        <ele>50.13</ele>
        <time>2015-07-17T14:20:48Z</time>
      </trkpt>
      <trkpt lat="49.32096" lon="1.00847">
        <ele>49.65</ele>
        <time>2015-07-17T14:21:07Z</time>
      </trkpt>
      <trkpt lat="49.32093" lon="1.00848">
        <ele>48.2</ele>
        <time>2015-07-17T14:21:30Z</time>
      </trkpt>
      <trkpt lat="49.32093" lon="1.00844">
        <ele>47.72</ele>
        <time>2015-07-17T14:21:41Z</time>
      </trkpt>
      <trkpt lat="49.32089" lon="1.00843">
        <ele>44.84</ele>
        <time>2015-07-17T14:21:51Z</time>
      </trkpt>
      <trkpt lat="49.32084" lon="1.0085">
        <ele>41.95</ele>
        <time>2015-07-17T14:21:55Z</time>
      </trkpt>
      <trkpt lat="49.3208" lon="1.00861">
        <ele>38.59</ele>
        <time>2015-07-17T14:22:09Z</time>
      </trkpt>
      <trkpt lat="49.32079" lon="1.00863">
        <ele>37.63</ele>
        <time>2015-07-17T14:22:17Z</time>
      </trkpt>
      <trkpt lat="49.3208" lon="1.00872">
        <ele>39.55</ele>
        <time>2015-07-17T14:22:31Z</time>
      </trkpt>
      <trkpt lat="49.32083" lon="1.00876">
        <ele>40.99</ele>
        <time>2015-07-17T14:22:42Z</time>
      </trkpt>
      <trkpt lat="49.32091" lon="1.00887">
        <ele>44.36</ele>
        <time>2015-07-17T14:22:50Z</time>
      </trkpt>
      <trkpt lat="49.32094" lon="1.00892">
        <ele>46.28</ele>
        <time>2015-07-17T14:22:53Z</time>
      </trkpt>
      <trkpt lat="49.32097" lon="1.00903">
        <ele>48.2</ele>
        <time>2015-07-17T14:22:58Z</time>
      </trkpt>
      <trkpt lat="49.32101" lon="1.00913">
        <ele>49.65</ele>
        <time>2015-07-17T14:23:02Z</time>
      </trkpt>
      <trkpt lat="49.32105" lon="1.00925">
        <ele>52.05</ele>
        <time>2015-07-17T14:23:08Z</time>
      </trkpt>
      <trkpt lat="49.32112" lon="1.00937">
        <ele>52.53</ele>
        <time>2015-07-17T14:23:15Z</time>
      </trkpt>
      <trkpt lat="49.32115" lon="1.0094">
        <ele>53.49</ele>
        <time>2015-07-17T14:23:18Z</time>
      </trkpt>
      <trkpt lat="49.3212" lon="1.00945">
        <ele>55.41</ele>
        <time>2015-07-17T14:23:33Z</time>
      </trkpt>
      <trkpt lat="49.32125" lon="1.0095">
        <ele>57.34</ele>
        <time>2015-07-17T14:23:54Z</time>
      </trkpt>
      <trkpt lat="49.32125" lon="1.0095">
        <ele>57.82</ele>
        <time>2015-07-17T14:23:55Z</time>
      </trkpt>
      <trkpt lat="49.32134" lon="1.00949">
        <ele>60.7</ele>
        <time>2015-07-17T14:24:06Z</time>
      </trkpt>
      <trkpt lat="49.32136" lon="1.0095">
        <ele>60.7</ele>
        <time>2015-07-17T14:24:17Z</time>
      </trkpt>
      <trkpt lat="49.32137" lon="1.00949">
        <ele>61.66</ele>
        <time>2015-07-17T14:24:26Z</time>
      </trkpt>
      <trkpt lat="49.32143" lon="1.00951">
        <ele>63.58</ele>
        <time>2015-07-17T14:24:36Z</time>
      </trkpt>
      <trkpt lat="49.32148" lon="1.00953">
        <ele>65.03</ele>
        <time>2015-07-17T14:24:46Z</time>
      </trkpt>
      <trkpt lat="49.32152" lon="1.00957">
        <ele>66.95</ele>
        <time>2015-07-17T14:24:55Z</time>
      </trkpt>
      <trkpt lat="49.32154" lon="1.00964">
        <ele>67.43</ele>
        <time>2015-07-17T14:25:04Z</time>
      </trkpt>
      <trkpt lat="49.32154" lon="1.00969">
        <ele>67.43</ele>
        <time>2015-07-17T14:25:23Z</time>
      </trkpt>
      <trkpt lat="49.32155" lon="1.00969">
        <ele>66.95</ele>
        <time>2015-07-17T14:25:47Z</time>
      </trkpt>
      <trkpt lat="49.32154" lon="1.00969">
        <ele>67.43</ele>
        <time>2015-07-17T14:26:07Z</time>
      </trkpt>
      <trkpt lat="49.32155" lon="1.00969">
        <ele>66.95</ele>
        <time>2015-07-17T14:26:20Z</time>
      </trkpt>
      <trkpt lat="49.32157" lon="1.00975">
        <ele>67.43</ele>
        <time>2015-07-17T14:26:24Z</time>
      </trkpt>
      <trkpt lat="49.32158" lon="1.00982">
        <ele>67.91</ele>
        <time>2015-07-17T14:26:28Z</time>
      </trkpt>
      <trkpt lat="49.32158" lon="1.00986">
        <ele>68.39</ele>
        <time>2015-07-17T14:26:30Z</time>
      </trkpt>
      <trkpt lat="49.32157" lon="1.00994">
        <ele>69.35</ele>
        <time>2015-07-17T14:26:35Z</time>
      </trkpt>
      <trkpt lat="49.32159" lon="1.00999">
        <ele>71.27</ele>
        <time>2015-07-17T14:26:39Z</time>
      </trkpt>
      <trkpt lat="49.32162" lon="1.01">
        <ele>74.16</ele>
        <time>2015-07-17T14:26:49Z</time>
      </trkpt>
      <trkpt lat="49.32165" lon="1.01">
        <ele>74.16</ele>
        <time>2015-07-17T14:26:54Z</time>
      </trkpt>
      <trkpt lat="49.32175" lon="1.01004">
        <ele>77.04</ele>
        <time>2015-07-17T14:27:07Z</time>
      </trkpt>
      <trkpt lat="49.32183" lon="1.01011">
        <ele>79.93</ele>
        <time>2015-07-17T14:27:17Z</time>
      </trkpt>
      <trkpt lat="49.32191" lon="1.01014">
        <ele>81.85</ele>
        <time>2015-07-17T14:27:23Z</time>
      </trkpt>
      <trkpt lat="49.32198" lon="1.01022">
        <ele>83.77</ele>
        <time>2015-07-17T14:27:29Z</time>
      </trkpt>
      <trkpt lat="49.32202" lon="1.01037">
        <ele>87.62</ele>
        <time>2015-07-17T14:27:38Z</time>
      </trkpt>
      <trkpt lat="49.32214" lon="1.01067">
        <ele>90.02</ele>
        <time>2015-07-17T14:27:52Z</time>
      </trkpt>
      <trkpt lat="49.32221" lon="1.01093">
        <ele>91.94</ele>
        <time>2015-07-17T14:28:06Z</time>
      </trkpt>
      <trkpt lat="49.32223" lon="1.01101">
        <ele>91.94</ele>
        <time>2015-07-17T14:28:10Z</time>
      </trkpt>
      <trkpt lat="49.32221" lon="1.01109">
        <ele>90.98</ele>
        <time>2015-07-17T14:28:24Z</time>
      </trkpt>
      <trkpt lat="49.32221" lon="1.0111">
        <ele>90.98</ele>
        <time>2015-07-17T14:28:38Z</time>
      </trkpt>
      <trkpt lat="49.32228" lon="1.01115">
        <ele>91.94</ele>
        <time>2015-07-17T14:28:45Z</time>
      </trkpt>
      <trkpt lat="49.32244" lon="1.01114">
        <ele>94.35</ele>
        <time>2015-07-17T14:28:57Z</time>
      </trkpt>
      <trkpt lat="49.32257" lon="1.01112">
        <ele>96.27</ele>
        <time>2015-07-17T14:29:05Z</time>
      </trkpt>
      <trkpt lat="49.32272" lon="1.01115">
        <ele>98.19</ele>
        <time>2015-07-17T14:29:12Z</time>
      </trkpt>
      <trkpt lat="49.32287" lon="1.01126">
        <ele>101.56</ele>
        <time>2015-07-17T14:29:24Z</time>
      </trkpt>
      <trkpt lat="49.32303" lon="1.01136">
        <ele>104.92</ele>
        <time>2015-07-17T14:29:36Z</time>
      </trkpt>
      <trkpt lat="49.32307" lon="1.01139">
        <ele>106.36</ele>
        <time>2015-07-17T14:29:40Z</time>
      </trkpt>
      <trkpt lat="49.32311" lon="1.01141">
        <ele>106.84</ele>
        <time>2015-07-17T14:29:43Z</time>
      </trkpt>
      <trkpt lat="49.32323" lon="1.01158">
        <ele>109.25</ele>
        <time>2015-07-17T14:29:53Z</time>
      </trkpt>
      <trkpt lat="49.32329" lon="1.0117">
        <ele>109.73</ele>
        <time>2015-07-17T14:29:59Z</time>
      </trkpt>
      <trkpt lat="49.32333" lon="1.01186">
        <ele>111.17</ele>
        <time>2015-07-17T14:30:07Z</time>
      </trkpt>
      <trkpt lat="49.32343" lon="1.01211">
        <ele>114.05</ele>
        <time>2015-07-17T14:30:19Z</time>
      </trkpt>
      <trkpt lat="49.32344" lon="1.01215">
        <ele>115.01</ele>
        <time>2015-07-17T14:30:21Z</time>
      </trkpt>
      <trkpt lat="49.32348" lon="1.01225">
        <ele>116.94</ele>
        <time>2015-07-17T14:30:26Z</time>
      </trkpt>
      <trkpt lat="49.32355" lon="1.0124">
        <ele>119.82</ele>
        <time>2015-07-17T14:30:35Z</time>
      </trkpt>
      <trkpt lat="49.32365" lon="1.01255">
        <ele>121.74</ele>
        <time>2015-07-17T14:30:46Z</time>
      </trkpt>
      <trkpt lat="49.32373" lon="1.01262">
        <ele>122.22</ele>
        <time>2015-07-17T14:30:55Z</time>
      </trkpt>
      <trkpt lat="49.32378" lon="1.01272">
        <ele>122.71</ele>
        <time>2015-07-17T14:31:04Z</time>
      </trkpt>
      <trkpt lat="49.32377" lon="1.01305">
        <ele>123.67</ele>
        <time>2015-07-17T14:31:15Z</time>
      </trkpt>
      <trkpt lat="49.32377" lon="1.01335">
        <ele>124.15</ele>
        <time>2015-07-17T14:31:24Z</time>
      </trkpt>
      <trkpt lat="49.32383" lon="1.01354">
        <ele>124.15</ele>
        <time>2015-07-17T14:31:30Z</time>
      </trkpt>
      <trkpt lat="49.32403" lon="1.01409">
        <ele>125.11</ele>
        <time>2015-07-17T14:31:43Z</time>
      </trkpt>
      <trkpt lat="49.32424" lon="1.01435">
        <ele>124.63</ele>
        <time>2015-07-17T14:31:52Z</time>
      </trkpt>
      <trkpt lat="49.32441" lon="1.01466">
        <ele>124.63</ele>
        <time>2015-07-17T14:32:01Z</time>
      </trkpt>
      <trkpt lat="49.32448" lon="1.01478">
        <ele>124.63</ele>
        <time>2015-07-17T14:32:04Z</time>
      </trkpt>
      <trkpt lat="49.32485" lon="1.01526">
        <ele>123.67</ele>
        <time>2015-07-17T14:32:17Z</time>
      </trkpt>
      <trkpt lat="49.32507" lon="1.01561">
        <ele>123.19</ele>
        <time>2015-07-17T14:32:26Z</time>
      </trkpt>
      <trkpt lat="49.3253" lon="1.01588">
        <ele>122.22</ele>
        <time>2015-07-17T14:32:35Z</time>
      </trkpt>
      <trkpt lat="49.32541" lon="1.01602">
        <ele>123.19</ele>
        <time>2015-07-17T14:32:40Z</time>
      </trkpt>
      <trkpt lat="49.32566" lon="1.01651">
        <ele>125.11</ele>
        <time>2015-07-17T14:32:51Z</time>
      </trkpt>
      <trkpt lat="49.32569" lon="1.01656">
        <ele>125.11</ele>
        <time>2015-07-17T14:32:52Z</time>
      </trkpt>
      <trkpt lat="49.32572" lon="1.01662">
        <ele>125.59</ele>
        <time>2015-07-17T14:32:53Z</time>
      </trkpt>
      <trkpt lat="49.32592" lon="1.01716">
        <ele>127.51</ele>
        <time>2015-07-17T14:33:04Z</time>
      </trkpt>
      <trkpt lat="49.32611" lon="1.01755">
        <ele>128.47</ele>
        <time>2015-07-17T14:33:14Z</time>
      </trkpt>
      <trkpt lat="49.32636" lon="1.01809">
        <ele>129.43</ele>
        <time>2015-07-17T14:33:25Z</time>
      </trkpt>
      <trkpt lat="49.32642" lon="1.01838">
        <ele>129.43</ele>
        <time>2015-07-17T14:33:30Z</time>
      </trkpt>
      <trkpt lat="49.32647" lon="1.01887">
        <ele>129.92</ele>
        <time>2015-07-17T14:33:38Z</time>
      </trkpt>
      <trkpt lat="49.32646" lon="1.01895">
        <ele>129.92</ele>
        <time>2015-07-17T14:33:39Z</time>
      </trkpt>
      <trkpt lat="49.32646" lon="1.01902">
        <ele>129.92</ele>
        <time>2015-07-17T14:33:40Z</time>
      </trkpt>
      <trkpt lat="49.32646" lon="1.01908">
        <ele>129.92</ele>
        <time>2015-07-17T14:33:41Z</time>
      </trkpt>
      <trkpt lat="49.32647" lon="1.01915">
        <ele>129.92</ele>
        <time>2015-07-17T14:33:42Z</time>
      </trkpt>
      <trkpt lat="49.32653" lon="1.01948">
        <ele>129.92</ele>
        <time>2015-07-17T14:33:47Z</time>
      </trkpt>
      <trkpt lat="49.32658" lon="1.0196">
        <ele>129.92</ele>
        <time>2015-07-17T14:33:49Z</time>
      </trkpt>
      <trkpt lat="49.3266" lon="1.01966">
        <ele>130.4</ele>
        <time>2015-07-17T14:33:50Z</time>
      </trkpt>
      <trkpt lat="49.32669" lon="1.01983">
        <ele>130.4</ele>
        <time>2015-07-17T14:33:53Z</time>
      </trkpt>
      <trkpt lat="49.32693" lon="1.02032">
        <ele>130.88</ele>
        <time>2015-07-17T14:34:01Z</time>
      </trkpt>
      <trkpt lat="49.32695" lon="1.02039">
        <ele>130.88</ele>
        <time>2015-07-17T14:34:02Z</time>
      </trkpt>
      <trkpt lat="49.32703" lon="1.02065">
        <ele>131.36</ele>
        <time>2015-07-17T14:34:06Z</time>
      </trkpt>
      <trkpt lat="49.32705" lon="1.02071">
        <ele>131.36</ele>
        <time>2015-07-17T14:34:07Z</time>
      </trkpt>
      <trkpt lat="49.32707" lon="1.02076">
        <ele>131.36</ele>
        <time>2015-07-17T14:34:08Z</time>
      </trkpt>
      <trkpt lat="49.32711" lon="1.02081">
        <ele>131.84</ele>
        <time>2015-07-17T14:34:09Z</time>
      </trkpt>
      <trkpt lat="49.32714" lon="1.02086">
        <ele>131.36</ele>
        <time>2015-07-17T14:34:10Z</time>
      </trkpt>
      <trkpt lat="49.32718" lon="1.02091">
        <ele>131.36</ele>
        <time>2015-07-17T14:34:11Z</time>
      </trkpt>
      <trkpt lat="49.3272" lon="1.02097">
        <ele>131.36</ele>
        <time>2015-07-17T14:34:12Z</time>
      </trkpt>
      <trkpt lat="49.32722" lon="1.02104">
        <ele>131.36</ele>
        <time>2015-07-17T14:34:13Z</time>
      </trkpt>
      <trkpt lat="49.32725" lon="1.02109">
        <ele>131.84</ele>
        <time>2015-07-17T14:34:14Z</time>
      </trkpt>
      <trkpt lat="49.32727" lon="1.02115">
        <ele>131.84</ele>
        <time>2015-07-17T14:34:15Z</time>
      </trkpt>
      <trkpt lat="49.3273" lon="1.02121">
        <ele>131.84</ele>
        <time>2015-07-17T14:34:16Z</time>
      </trkpt>
      <trkpt lat="49.32735" lon="1.02136">
        <ele>131.36</ele>
        <time>2015-07-17T14:34:18Z</time>
      </trkpt>
      <trkpt lat="49.32736" lon="1.02144">
        <ele>131.36</ele>
        <time>2015-07-17T14:34:19Z</time>
      </trkpt>
      <trkpt lat="49.32737" lon="1.02151">
        <ele>131.36</ele>
        <time>2015-07-17T14:34:20Z</time>
      </trkpt>
      <trkpt lat="49.32738" lon="1.02159">
        <ele>130.88</ele>
        <time>2015-07-17T14:34:21Z</time>
      </trkpt>
      <trkpt lat="49.32739" lon="1.02167">
        <ele>130.88</ele>
        <time>2015-07-17T14:34:22Z</time>
      </trkpt>
      <trkpt lat="49.3274" lon="1.02182">
        <ele>130.88</ele>
        <time>2015-07-17T14:34:24Z</time>
      </trkpt>
      <trkpt lat="49.32741" lon="1.02191">
        <ele>130.88</ele>
        <time>2015-07-17T14:34:25Z</time>
      </trkpt>
      <trkpt lat="49.32742" lon="1.02199">
        <ele>130.88</ele>
        <time>2015-07-17T14:34:26Z</time>
      </trkpt>
      <trkpt lat="49.32742" lon="1.02208">
        <ele>130.88</ele>
        <time>2015-07-17T14:34:27Z</time>
      </trkpt>
      <trkpt lat="49.32741" lon="1.02216">
        <ele>131.36</ele>
        <time>2015-07-17T14:34:28Z</time>
      </trkpt>
      <trkpt lat="49.32742" lon="1.02224">
        <ele>131.36</ele>
        <time>2015-07-17T14:34:29Z</time>
      </trkpt>
      <trkpt lat="49.32742" lon="1.02232">
        <ele>131.36</ele>
        <time>2015-07-17T14:34:30Z</time>
      </trkpt>
      <trkpt lat="49.32743" lon="1.0224">
        <ele>131.36</ele>
        <time>2015-07-17T14:34:31Z</time>
      </trkpt>
      <trkpt lat="49.32743" lon="1.02248">
        <ele>131.36</ele>
        <time>2015-07-17T14:34:32Z</time>
      </trkpt>
      <trkpt lat="49.32742" lon="1.02256">
        <ele>131.36</ele>
        <time>2015-07-17T14:34:33Z</time>
      </trkpt>
      <trkpt lat="49.32742" lon="1.02264">
        <ele>131.36</ele>
        <time>2015-07-17T14:34:34Z</time>
      </trkpt>
      <trkpt lat="49.32742" lon="1.02271">
        <ele>131.36</ele>
        <time>2015-07-17T14:34:35Z</time>
      </trkpt>
      <trkpt lat="49.32744" lon="1.02278">
        <ele>131.84</ele>
        <time>2015-07-17T14:34:36Z</time>
      </trkpt>
      <trkpt lat="49.32745" lon="1.02283">
        <ele>131.84</ele>
        <time>2015-07-17T14:34:37Z</time>
      </trkpt>
      <trkpt lat="49.32746" lon="1.02287">
        <ele>132.32</ele>
        <time>2015-07-17T14:34:38Z</time>
      </trkpt>
      <trkpt lat="49.32747" lon="1.0229">
        <ele>131.84</ele>
        <time>2015-07-17T14:34:48Z</time>
      </trkpt>
      <trkpt lat="49.32748" lon="1.02288">
        <ele>132.32</ele>
        <time>2015-07-17T14:34:56Z</time>
      </trkpt>
      <trkpt lat="49.32747" lon="1.02285">
        <ele>131.84</ele>
        <time>2015-07-17T14:34:57Z</time>
      </trkpt>
      <trkpt lat="49.32746" lon="1.02282">
        <ele>131.84</ele>
        <time>2015-07-17T14:34:58Z</time>
      </trkpt>
      <trkpt lat="49.32745" lon="1.02279">
        <ele>131.84</ele>
        <time>2015-07-17T14:34:59Z</time>
      </trkpt>
      <trkpt lat="49.32744" lon="1.02277">
        <ele>132.32</ele>
        <time>2015-07-17T14:35:00Z</time>
      </trkpt>
      <trkpt lat="49.32743" lon="1.02276">
        <ele>132.32</ele>
        <time>2015-07-17T14:35:01Z</time>
      </trkpt>
      <trkpt lat="49.32738" lon="1.02277">
        <ele>131.84</ele>
        <time>2015-07-17T14:35:09Z</time>
      </trkpt>
      <trkpt lat="49.32729" lon="1.02283">
        <ele>128.47</ele>
        <time>2015-07-17T14:35:12Z</time>
      </trkpt>
      <trkpt lat="49.32717" lon="1.0229">
        <ele>125.59</ele>
        <time>2015-07-17T14:35:15Z</time>
      </trkpt>
      <trkpt lat="49.3271" lon="1.02294">
        <ele>123.67</ele>
        <time>2015-07-17T14:35:17Z</time>
      </trkpt>
      <trkpt lat="49.32709" lon="1.02297">
        <ele>123.19</ele>
        <time>2015-07-17T14:35:18Z</time>
      </trkpt>
      <trkpt lat="49.32708" lon="1.023">
        <ele>122.22</ele>
        <time>2015-07-17T14:35:19Z</time>
      </trkpt>
      <trkpt lat="49.32709" lon="1.02302">
        <ele>122.22</ele>
        <time>2015-07-17T14:35:20Z</time>
      </trkpt>
      <trkpt lat="49.32704" lon="1.02316">
        <ele>122.22</ele>
        <time>2015-07-17T14:35:38Z</time>
      </trkpt>
      <trkpt lat="49.32704" lon="1.02318">
        <ele>121.74</ele>
        <time>2015-07-17T14:35:39Z</time>
      </trkpt>
      <trkpt lat="49.32705" lon="1.0232">
        <ele>122.22</ele>
        <time>2015-07-17T14:35:40Z</time>
      </trkpt>
      <trkpt lat="49.32706" lon="1.02324">
        <ele>122.22</ele>
        <time>2015-07-17T14:35:41Z</time>
      </trkpt>
      <trkpt lat="49.32707" lon="1.02328">
        <ele>121.74</ele>
        <time>2015-07-17T14:35:42Z</time>
      </trkpt>
      <trkpt lat="49.32713" lon="1.02353">
        <ele>117.42</ele>
        <time>2015-07-17T14:35:45Z</time>
      </trkpt>
      <trkpt lat="49.32718" lon="1.02374">
        <ele>113.57</ele>
        <time>2015-07-17T14:35:47Z</time>
      </trkpt>
      <trkpt lat="49.32729" lon="1.02436">
        <ele>112.13</ele>
        <time>2015-07-17T14:35:53Z</time>
      </trkpt>
      <trkpt lat="49.32731" lon="1.02442">
        <ele>113.09</ele>
        <time>2015-07-17T14:35:54Z</time>
      </trkpt>
      <trkpt lat="49.32732" lon="1.02447">
        <ele>113.57</ele>
        <time>2015-07-17T14:35:55Z</time>
      </trkpt>
      <trkpt lat="49.32733" lon="1.02451">
        <ele>113.57</ele>
        <time>2015-07-17T14:35:56Z</time>
      </trkpt>
      <trkpt lat="49.32733" lon="1.02455">
        <ele>114.05</ele>
        <time>2015-07-17T14:35:57Z</time>
      </trkpt>
      <trkpt lat="49.32734" lon="1.02457">
        <ele>114.05</ele>
        <time>2015-07-17T14:35:58Z</time>
      </trkpt>
      <trkpt lat="49.32735" lon="1.02463">
        <ele>114.53</ele>
        <time>2015-07-17T14:36:00Z</time>
      </trkpt>
      <trkpt lat="49.32735" lon="1.02465">
        <ele>115.01</ele>
        <time>2015-07-17T14:36:01Z</time>
      </trkpt>
      <trkpt lat="49.32736" lon="1.02467">
        <ele>115.5</ele>
        <time>2015-07-17T14:36:02Z</time>
      </trkpt>
      <trkpt lat="49.32741" lon="1.0249">
        <ele>118.86</ele>
        <time>2015-07-17T14:36:12Z</time>
      </trkpt>
      <trkpt lat="49.32743" lon="1.02497">
        <ele>119.82</ele>
        <time>2015-07-17T14:36:15Z</time>
      </trkpt>
      <trkpt lat="49.32744" lon="1.0252">
        <ele>119.82</ele>
        <time>2015-07-17T14:36:27Z</time>
      </trkpt>
      <trkpt lat="49.32742" lon="1.02525">
        <ele>119.82</ele>
        <time>2015-07-17T14:36:39Z</time>
      </trkpt>
      <trkpt lat="49.32742" lon="1.02528">
        <ele>119.34</ele>
        <time>2015-07-17T14:36:40Z</time>
      </trkpt>
      <trkpt lat="49.32743" lon="1.02531">
        <ele>117.9</ele>
        <time>2015-07-17T14:36:41Z</time>
      </trkpt>
      <trkpt lat="49.32743" lon="1.02535">
        <ele>116.94</ele>
        <time>2015-07-17T14:36:42Z</time>
      </trkpt>
      <trkpt lat="49.32743" lon="1.0254">
        <ele>115.5</ele>
        <time>2015-07-17T14:36:43Z</time>
      </trkpt>
      <trkpt lat="49.32744" lon="1.02545">
        <ele>114.05</ele>
        <time>2015-07-17T14:36:44Z</time>
      </trkpt>
      <trkpt lat="49.32746" lon="1.0256">
        <ele>110.21</ele>
        <time>2015-07-17T14:36:46Z</time>
      </trkpt>
      <trkpt lat="49.3275" lon="1.02585">
        <ele>104.92</ele>
        <time>2015-07-17T14:36:48Z</time>
      </trkpt>
      <trkpt lat="49.32752" lon="1.02599">
        <ele>102.04</ele>
        <time>2015-07-17T14:36:49Z</time>
      </trkpt>
      <trkpt lat="49.32753" lon="1.02614">
        <ele>98.67</ele>
        <time>2015-07-17T14:36:50Z</time>
      </trkpt>
      <trkpt lat="49.32756" lon="1.02643">
        <ele>94.35</ele>
        <time>2015-07-17T14:36:52Z</time>
      </trkpt>
      <trkpt lat="49.3276" lon="1.02672">
        <ele>90.98</ele>
        <time>2015-07-17T14:36:54Z</time>
      </trkpt>
      <trkpt lat="49.32762" lon="1.02686">
        <ele>90.02</ele>
        <time>2015-07-17T14:36:55Z</time>
      </trkpt>
      <trkpt lat="49.32765" lon="1.02701">
        <ele>90.02</ele>
        <time>2015-07-17T14:36:56Z</time>
      </trkpt>
      <trkpt lat="49.32769" lon="1.02719">
        <ele>92.9</ele>
        <time>2015-07-17T14:36:58Z</time>
      </trkpt>
      <trkpt lat="49.32772" lon="1.02729">
        <ele>95.79</ele>
        <time>2015-07-17T14:37:01Z</time>
      </trkpt>
      <trkpt lat="49.32775" lon="1.02733">
        <ele>96.75</ele>
        <time>2015-07-17T14:37:15Z</time>
      </trkpt>
      <trkpt lat="49.32772" lon="1.02732">
        <ele>99.63</ele>
        <time>2015-07-17T14:37:28Z</time>
      </trkpt>
      <trkpt lat="49.32771" lon="1.02734">
        <ele>103</ele>
        <time>2015-07-17T14:37:43Z</time>
      </trkpt>
      <trkpt lat="49.32769" lon="1.02737">
        <ele>105.4</ele>
        <time>2015-07-17T14:37:55Z</time>
      </trkpt>
      <trkpt lat="49.32769" lon="1.02741">
        <ele>108.29</ele>
        <time>2015-07-17T14:38:09Z</time>
      </trkpt>
      <trkpt lat="49.32767" lon="1.02747">
        <ele>110.21</ele>
        <time>2015-07-17T14:38:22Z</time>
      </trkpt>
      <trkpt lat="49.32765" lon="1.02758">
        <ele>112.61</ele>
        <time>2015-07-17T14:38:34Z</time>
      </trkpt>
      <trkpt lat="49.32762" lon="1.0277">
        <ele>115.01</ele>
        <time>2015-07-17T14:38:48Z</time>
      </trkpt>
      <trkpt lat="49.32756" lon="1.02786">
        <ele>117.42</ele>
        <time>2015-07-17T14:39:01Z</time>
      </trkpt>
      <trkpt lat="49.32751" lon="1.02798">
        <ele>118.86</ele>
        <time>2015-07-17T14:39:13Z</time>
      </trkpt>
      <trkpt lat="49.3275" lon="1.02799">
        <ele>119.82</ele>
        <time>2015-07-17T14:39:16Z</time>
      </trkpt>
      <trkpt lat="49.32749" lon="1.02805">
        <ele>119.82</ele>
        <time>2015-07-17T14:39:24Z</time>
      </trkpt>
      <trkpt lat="49.32747" lon="1.02807">
        <ele>118.86</ele>
        <time>2015-07-17T14:39:46Z</time>
      </trkpt>
      <trkpt lat="49.32746" lon="1.0281">
        <ele>119.82</ele>
        <time>2015-07-17T14:39:49Z</time>
      </trkpt>
      <trkpt lat="49.32745" lon="1.02812">
        <ele>119.82</ele>
        <time>2015-07-17T14:39:50Z</time>
      </trkpt>
      <trkpt lat="49.32745" lon="1.02813">
        <ele>120.78</ele>
        <time>2015-07-17T14:39:51Z</time>
      </trkpt>
      <trkpt lat="49.32744" lon="1.02816">
        <ele>120.78</ele>
        <time>2015-07-17T14:39:52Z</time>
      </trkpt>
      <trkpt lat="49.32743" lon="1.02818">
        <ele>121.26</ele>
        <time>2015-07-17T14:39:53Z</time>
      </trkpt>
      <trkpt lat="49.32742" lon="1.02828">
        <ele>121.74</ele>
        <time>2015-07-17T14:40:02Z</time>
      </trkpt>
      <trkpt lat="49.32741" lon="1.0283">
        <ele>122.71</ele>
        <time>2015-07-17T14:40:03Z</time>
      </trkpt>
      <trkpt lat="49.3274" lon="1.02834">
        <ele>122.71</ele>
        <time>2015-07-17T14:40:05Z</time>
      </trkpt>
      <trkpt lat="49.32739" lon="1.02838">
        <ele>122.22</ele>
        <time>2015-07-17T14:40:07Z</time>
      </trkpt>
      <trkpt lat="49.32739" lon="1.02841">
        <ele>122.22</ele>
        <time>2015-07-17T14:40:08Z</time>
      </trkpt>
      <trkpt lat="49.32739" lon="1.02843">
        <ele>122.22</ele>
        <time>2015-07-17T14:40:09Z</time>
      </trkpt>
      <trkpt lat="49.32738" lon="1.02852">
        <ele>122.22</ele>
        <time>2015-07-17T14:40:25Z</time>
      </trkpt>
      <trkpt lat="49.32737" lon="1.0285">
        <ele>121.74</ele>
        <time>2015-07-17T14:40:48Z</time>
      </trkpt>
      <trkpt lat="49.32738" lon="1.02851">
        <ele>122.22</ele>
        <time>2015-07-17T14:41:11Z</time>
      </trkpt>
      <trkpt lat="49.32739" lon="1.02853">
        <ele>122.22</ele>
        <time>2015-07-17T14:41:44Z</time>
      </trkpt>
      <trkpt lat="49.32739" lon="1.02854">
        <ele>121.74</ele>
        <time>2015-07-17T14:42:14Z</time>
      </trkpt>
      <trkpt lat="49.32739" lon="1.02855">
        <ele>121.74</ele>
        <time>2015-07-17T14:42:15Z</time>
      </trkpt>
      <trkpt lat="49.3274" lon="1.02868">
        <ele>119.34</ele>
        <time>2015-07-17T14:42:19Z</time>
      </trkpt>
      <trkpt lat="49.32743" lon="1.02879">
        <ele>118.86</ele>
        <time>2015-07-17T14:42:21Z</time>
      </trkpt>
      <trkpt lat="49.32746" lon="1.02886">
        <ele>117.9</ele>
        <time>2015-07-17T14:42:22Z</time>
      </trkpt>
      <trkpt lat="49.3275" lon="1.02893">
        <ele>116.94</ele>
        <time>2015-07-17T14:42:23Z</time>
      </trkpt>
      <trkpt lat="49.32754" lon="1.029">
        <ele>116.46</ele>
        <time>2015-07-17T14:42:24Z</time>
      </trkpt>
      <trkpt lat="49.32758" lon="1.02907">
        <ele>115.5</ele>
        <time>2015-07-17T14:42:25Z</time>
      </trkpt>
      <trkpt lat="49.32762" lon="1.02916">
        <ele>115.01</ele>
        <time>2015-07-17T14:42:27Z</time>
      </trkpt>
      <trkpt lat="49.32767" lon="1.02925">
        <ele>113.57</ele>
        <time>2015-07-17T14:42:29Z</time>
      </trkpt>
      <trkpt lat="49.3277" lon="1.0293">
        <ele>113.09</ele>
        <time>2015-07-17T14:42:30Z</time>
      </trkpt>
      <trkpt lat="49.32772" lon="1.02934">
        <ele>113.09</ele>
        <time>2015-07-17T14:42:31Z</time>
      </trkpt>
      <trkpt lat="49.32774" lon="1.02938">
        <ele>114.05</ele>
        <time>2015-07-17T14:42:32Z</time>
      </trkpt>
      <trkpt lat="49.32775" lon="1.0294">
        <ele>114.53</ele>
        <time>2015-07-17T14:42:33Z</time>
      </trkpt>
      <trkpt lat="49.32776" lon="1.02942">
        <ele>114.53</ele>
        <time>2015-07-17T14:42:34Z</time>
      </trkpt>
      <trkpt lat="49.32784" lon="1.02958">
        <ele>115.98</ele>
        <time>2015-07-17T14:42:40Z</time>
      </trkpt>
      <trkpt lat="49.32785" lon="1.02961">
        <ele>115.98</ele>
        <time>2015-07-17T14:42:41Z</time>
      </trkpt>
      <trkpt lat="49.32786" lon="1.02964">
        <ele>116.46</ele>
        <time>2015-07-17T14:42:42Z</time>
      </trkpt>
      <trkpt lat="49.32796" lon="1.02998">
        <ele>117.9</ele>
        <time>2015-07-17T14:42:54Z</time>
      </trkpt>
      <trkpt lat="49.32796" lon="1.03">
        <ele>117.9</ele>
        <time>2015-07-17T14:42:55Z</time>
      </trkpt>
      <trkpt lat="49.32797" lon="1.03004">
        <ele>118.38</ele>
        <time>2015-07-17T14:42:56Z</time>
      </trkpt>
      <trkpt lat="49.32797" lon="1.03006">
        <ele>118.86</ele>
        <time>2015-07-17T14:42:57Z</time>
      </trkpt>
      <trkpt lat="49.328" lon="1.03021">
        <ele>119.82</ele>
        <time>2015-07-17T14:43:02Z</time>
      </trkpt>
      <trkpt lat="49.32801" lon="1.03024">
        <ele>119.82</ele>
        <time>2015-07-17T14:43:03Z</time>
      </trkpt>
      <trkpt lat="49.32802" lon="1.03028">
        <ele>119.82</ele>
        <time>2015-07-17T14:43:04Z</time>
      </trkpt>
      <trkpt lat="49.32802" lon="1.03031">
        <ele>119.82</ele>
        <time>2015-07-17T14:43:05Z</time>
      </trkpt>
      <trkpt lat="49.32803" lon="1.03034">
        <ele>120.3</ele>
        <time>2015-07-17T14:43:06Z</time>
      </trkpt>
      <trkpt lat="49.32807" lon="1.03061">
        <ele>122.22</ele>
        <time>2015-07-17T14:43:14Z</time>
      </trkpt>
      <trkpt lat="49.32807" lon="1.03064">
        <ele>122.22</ele>
        <time>2015-07-17T14:43:15Z</time>
      </trkpt>
      <trkpt lat="49.32806" lon="1.03067">
        <ele>122.71</ele>
        <time>2015-07-17T14:43:16Z</time>
      </trkpt>
      <trkpt lat="49.32806" lon="1.0307">
        <ele>123.19</ele>
        <time>2015-07-17T14:43:17Z</time>
      </trkpt>
      <trkpt lat="49.32806" lon="1.03073">
        <ele>123.19</ele>
        <time>2015-07-17T14:43:18Z</time>
      </trkpt>
      <trkpt lat="49.32806" lon="1.03075">
        <ele>123.67</ele>
        <time>2015-07-17T14:43:19Z</time>
      </trkpt>
      <trkpt lat="49.32806" lon="1.03078">
        <ele>123.67</ele>
        <time>2015-07-17T14:43:20Z</time>
      </trkpt>
      <trkpt lat="49.32806" lon="1.03082">
        <ele>122.71</ele>
        <time>2015-07-17T14:43:21Z</time>
      </trkpt>
      <trkpt lat="49.32805" lon="1.03086">
        <ele>123.19</ele>
        <time>2015-07-17T14:43:22Z</time>
      </trkpt>
      <trkpt lat="49.32811" lon="1.03115">
        <ele>125.59</ele>
        <time>2015-07-17T14:43:33Z</time>
      </trkpt>
      <trkpt lat="49.32836" lon="1.03153">
        <ele>124.15</ele>
        <time>2015-07-17T14:43:43Z</time>
      </trkpt>
      <trkpt lat="49.32841" lon="1.03159">
        <ele>124.63</ele>
        <time>2015-07-17T14:43:45Z</time>
      </trkpt>
      <trkpt lat="49.32843" lon="1.03162">
        <ele>124.15</ele>
        <time>2015-07-17T14:43:46Z</time>
      </trkpt>
      <trkpt lat="49.32844" lon="1.03167">
        <ele>124.15</ele>
        <time>2015-07-17T14:43:47Z</time>
      </trkpt>
      <trkpt lat="49.32846" lon="1.03171">
        <ele>124.15</ele>
        <time>2015-07-17T14:43:48Z</time>
      </trkpt>
      <trkpt lat="49.32847" lon="1.03174">
        <ele>123.67</ele>
        <time>2015-07-17T14:43:49Z</time>
      </trkpt>
      <trkpt lat="49.32849" lon="1.03178">
        <ele>123.19</ele>
        <time>2015-07-17T14:43:50Z</time>
      </trkpt>
      <trkpt lat="49.3285" lon="1.0318">
        <ele>123.67</ele>
        <time>2015-07-17T14:43:51Z</time>
      </trkpt>
      <trkpt lat="49.32851" lon="1.03182">
        <ele>123.67</ele>
        <time>2015-07-17T14:43:52Z</time>
      </trkpt>
      <trkpt lat="49.32851" lon="1.03184">
        <ele>123.67</ele>
        <time>2015-07-17T14:43:53Z</time>
      </trkpt>
      <trkpt lat="49.32853" lon="1.03222">
        <ele>121.74</ele>
        <time>2015-07-17T14:44:02Z</time>
      </trkpt>
      <trkpt lat="49.32854" lon="1.03228">
        <ele>121.74</ele>
        <time>2015-07-17T14:44:03Z</time>
      </trkpt>
      <trkpt lat="49.32855" lon="1.03232">
        <ele>122.22</ele>
        <time>2015-07-17T14:44:04Z</time>
      </trkpt>
      <trkpt lat="49.32856" lon="1.03236">
        <ele>123.19</ele>
        <time>2015-07-17T14:44:05Z</time>
      </trkpt>
      <trkpt lat="49.32856" lon="1.0324">
        <ele>122.71</ele>
        <time>2015-07-17T14:44:06Z</time>
      </trkpt>
      <trkpt lat="49.32856" lon="1.03244">
        <ele>122.22</ele>
        <time>2015-07-17T14:44:07Z</time>
      </trkpt>
      <trkpt lat="49.32854" lon="1.03249">
        <ele>122.22</ele>
        <time>2015-07-17T14:44:08Z</time>
      </trkpt>
      <trkpt lat="49.32852" lon="1.03268">
        <ele>122.71</ele>
        <time>2015-07-17T14:44:11Z</time>
      </trkpt>
      <trkpt lat="49.3285" lon="1.03275">
        <ele>122.71</ele>
        <time>2015-07-17T14:44:12Z</time>
      </trkpt>
      <trkpt lat="49.32849" lon="1.03283">
        <ele>122.71</ele>
        <time>2015-07-17T14:44:13Z</time>
      </trkpt>
      <trkpt lat="49.32848" lon="1.0329">
        <ele>122.71</ele>
        <time>2015-07-17T14:44:14Z</time>
      </trkpt>
      <trkpt lat="49.32846" lon="1.03296">
        <ele>122.71</ele>
        <time>2015-07-17T14:44:15Z</time>
      </trkpt>
      <trkpt lat="49.32841" lon="1.03331">
        <ele>124.63</ele>
        <time>2015-07-17T14:44:22Z</time>
      </trkpt>
      <trkpt lat="49.32839" lon="1.03335">
        <ele>124.63</ele>
        <time>2015-07-17T14:44:23Z</time>
      </trkpt>
      <trkpt lat="49.32838" lon="1.03342">
        <ele>124.63</ele>
        <time>2015-07-17T14:44:24Z</time>
      </trkpt>
      <trkpt lat="49.32837" lon="1.03349">
        <ele>125.11</ele>
        <time>2015-07-17T14:44:25Z</time>
      </trkpt>
      <trkpt lat="49.32836" lon="1.03355">
        <ele>125.11</ele>
        <time>2015-07-17T14:44:26Z</time>
      </trkpt>
      <trkpt lat="49.32835" lon="1.03363">
        <ele>124.63</ele>
        <time>2015-07-17T14:44:27Z</time>
      </trkpt>
      <trkpt lat="49.32834" lon="1.0339">
        <ele>127.03</ele>
        <time>2015-07-17T14:44:36Z</time>
      </trkpt>
      <trkpt lat="49.32838" lon="1.03392">
        <ele>126.55</ele>
        <time>2015-07-17T14:45:04Z</time>
      </trkpt>
      <trkpt lat="49.32844" lon="1.03416">
        <ele>124.15</ele>
        <time>2015-07-17T14:45:08Z</time>
      </trkpt>
      <trkpt lat="49.32846" lon="1.03425">
        <ele>123.19</ele>
        <time>2015-07-17T14:45:09Z</time>
      </trkpt>
      <trkpt lat="49.32849" lon="1.03435">
        <ele>123.19</ele>
        <time>2015-07-17T14:45:10Z</time>
      </trkpt>
      <trkpt lat="49.32854" lon="1.03454">
        <ele>120.78</ele>
        <time>2015-07-17T14:45:12Z</time>
      </trkpt>
      <trkpt lat="49.32861" lon="1.03482">
        <ele>118.38</ele>
        <time>2015-07-17T14:45:15Z</time>
      </trkpt>
      <trkpt lat="49.32863" lon="1.0349">
        <ele>118.86</ele>
        <time>2015-07-17T14:45:16Z</time>
      </trkpt>
      <trkpt lat="49.32865" lon="1.03499">
        <ele>118.86</ele>
        <time>2015-07-17T14:45:17Z</time>
      </trkpt>
      <trkpt lat="49.32865" lon="1.03508">
        <ele>118.38</ele>
        <time>2015-07-17T14:45:18Z</time>
      </trkpt>
      <trkpt lat="49.32865" lon="1.03518">
        <ele>117.42</ele>
        <time>2015-07-17T14:45:19Z</time>
      </trkpt>
      <trkpt lat="49.32865" lon="1.03528">
        <ele>116.94</ele>
        <time>2015-07-17T14:45:20Z</time>
      </trkpt>
      <trkpt lat="49.32862" lon="1.0356">
        <ele>116.46</ele>
        <time>2015-07-17T14:45:23Z</time>
      </trkpt>
      <trkpt lat="49.32861" lon="1.03568">
        <ele>116.94</ele>
        <time>2015-07-17T14:45:24Z</time>
      </trkpt>
      <trkpt lat="49.3286" lon="1.03585">
        <ele>119.82</ele>
        <time>2015-07-17T14:45:27Z</time>
      </trkpt>
      <trkpt lat="49.3286" lon="1.03589">
        <ele>119.82</ele>
        <time>2015-07-17T14:45:28Z</time>
      </trkpt>
      <trkpt lat="49.32859" lon="1.03594">
        <ele>120.3</ele>
        <time>2015-07-17T14:45:29Z</time>
      </trkpt>
      <trkpt lat="49.32856" lon="1.03617">
        <ele>122.71</ele>
        <time>2015-07-17T14:45:34Z</time>
      </trkpt>
      <trkpt lat="49.3286" lon="1.03622">
        <ele>124.15</ele>
        <time>2015-07-17T14:45:39Z</time>
      </trkpt>
      <trkpt lat="49.32861" lon="1.03622">
        <ele>124.15</ele>
        <time>2015-07-17T14:45:40Z</time>
      </trkpt>
      <trkpt lat="49.32867" lon="1.03618">
        <ele>125.11</ele>
        <time>2015-07-17T14:45:44Z</time>
      </trkpt>
      <trkpt lat="49.32868" lon="1.03617">
        <ele>125.59</ele>
        <time>2015-07-17T14:45:45Z</time>
      </trkpt>
      <trkpt lat="49.32881" lon="1.0361">
        <ele>128.95</ele>
        <time>2015-07-17T14:45:54Z</time>
      </trkpt>
      <trkpt lat="49.32894" lon="1.0361">
        <ele>130.4</ele>
        <time>2015-07-17T14:46:07Z</time>
      </trkpt>
      <trkpt lat="49.32903" lon="1.03622">
        <ele>130.4</ele>
        <time>2015-07-17T14:46:22Z</time>
      </trkpt>
      <trkpt lat="49.32911" lon="1.03628">
        <ele>130.88</ele>
        <time>2015-07-17T14:46:33Z</time>
      </trkpt>
      <trkpt lat="49.32921" lon="1.03635">
        <ele>130.88</ele>
        <time>2015-07-17T14:46:45Z</time>
      </trkpt>
      <trkpt lat="49.32927" lon="1.03636">
        <ele>130.4</ele>
        <time>2015-07-17T14:46:53Z</time>
      </trkpt>
      <trkpt lat="49.32929" lon="1.03635">
        <ele>130.4</ele>
        <time>2015-07-17T14:46:54Z</time>
      </trkpt>
      <trkpt lat="49.32932" lon="1.03634">
        <ele>130.4</ele>
        <time>2015-07-17T14:46:55Z</time>
      </trkpt>
      <trkpt lat="49.32936" lon="1.03633">
        <ele>130.4</ele>
        <time>2015-07-17T14:46:56Z</time>
      </trkpt>
      <trkpt lat="49.32939" lon="1.03633">
        <ele>130.4</ele>
        <time>2015-07-17T14:46:57Z</time>
      </trkpt>
      <trkpt lat="49.32942" lon="1.03635">
        <ele>130.4</ele>
        <time>2015-07-17T14:46:58Z</time>
      </trkpt>
      <trkpt lat="49.32945" lon="1.03637">
        <ele>130.4</ele>
        <time>2015-07-17T14:46:59Z</time>
      </trkpt>
      <trkpt lat="49.32947" lon="1.0364">
        <ele>130.4</ele>
        <time>2015-07-17T14:47:00Z</time>
      </trkpt>
      <trkpt lat="49.32948" lon="1.03644">
        <ele>130.4</ele>
        <time>2015-07-17T14:47:01Z</time>
      </trkpt>
      <trkpt lat="49.32949" lon="1.03646">
        <ele>130.4</ele>
        <time>2015-07-17T14:47:02Z</time>
      </trkpt>
      <trkpt lat="49.3295" lon="1.03649">
        <ele>130.4</ele>
        <time>2015-07-17T14:47:03Z</time>
      </trkpt>
      <trkpt lat="49.32961" lon="1.03673">
        <ele>130.4</ele>
        <time>2015-07-17T14:47:12Z</time>
      </trkpt>
      <trkpt lat="49.32962" lon="1.03675">
        <ele>129.92</ele>
        <time>2015-07-17T14:47:13Z</time>
      </trkpt>
      <trkpt lat="49.32961" lon="1.03678">
        <ele>129.92</ele>
        <time>2015-07-17T14:47:14Z</time>
      </trkpt>
      <trkpt lat="49.32961" lon="1.03681">
        <ele>129.92</ele>
        <time>2015-07-17T14:47:15Z</time>
      </trkpt>
      <trkpt lat="49.3296" lon="1.03683">
        <ele>130.4</ele>
        <time>2015-07-17T14:47:16Z</time>
      </trkpt>
      <trkpt lat="49.32959" lon="1.03686">
        <ele>129.92</ele>
        <time>2015-07-17T14:47:17Z</time>
      </trkpt>
      <trkpt lat="49.32959" lon="1.03689">
        <ele>129.92</ele>
        <time>2015-07-17T14:47:18Z</time>
      </trkpt>
      <trkpt lat="49.32958" lon="1.03697">
        <ele>130.4</ele>
        <time>2015-07-17T14:47:20Z</time>
      </trkpt>
      <trkpt lat="49.32959" lon="1.03701">
        <ele>130.4</ele>
        <time>2015-07-17T14:47:21Z</time>
      </trkpt>
      <trkpt lat="49.3296" lon="1.03705">
        <ele>129.92</ele>
        <time>2015-07-17T14:47:22Z</time>
      </trkpt>
      <trkpt lat="49.3297" lon="1.03764">
        <ele>130.4</ele>
        <time>2015-07-17T14:47:34Z</time>
      </trkpt>
      <trkpt lat="49.32972" lon="1.03828">
        <ele>130.4</ele>
        <time>2015-07-17T14:47:45Z</time>
      </trkpt>
      <trkpt lat="49.32974" lon="1.03839">
        <ele>129.92</ele>
        <time>2015-07-17T14:47:47Z</time>
      </trkpt>
      <trkpt lat="49.32973" lon="1.03844">
        <ele>129.92</ele>
        <time>2015-07-17T14:47:48Z</time>
      </trkpt>
      <trkpt lat="49.32971" lon="1.03848">
        <ele>130.4</ele>
        <time>2015-07-17T14:47:49Z</time>
      </trkpt>
      <trkpt lat="49.32969" lon="1.03852">
        <ele>129.92</ele>
        <time>2015-07-17T14:47:50Z</time>
      </trkpt>
      <trkpt lat="49.32968" lon="1.03855">
        <ele>130.4</ele>
        <time>2015-07-17T14:47:51Z</time>
      </trkpt>
      <trkpt lat="49.32968" lon="1.03859">
        <ele>130.4</ele>
        <time>2015-07-17T14:47:52Z</time>
      </trkpt>
      <trkpt lat="49.32964" lon="1.03883">
        <ele>129.92</ele>
        <time>2015-07-17T14:47:58Z</time>
      </trkpt>
      <trkpt lat="49.32963" lon="1.03887">
        <ele>130.4</ele>
        <time>2015-07-17T14:47:59Z</time>
      </trkpt>
      <trkpt lat="49.32962" lon="1.03892">
        <ele>130.4</ele>
        <time>2015-07-17T14:48:00Z</time>
      </trkpt>
      <trkpt lat="49.32961" lon="1.03896">
        <ele>130.4</ele>
        <time>2015-07-17T14:48:01Z</time>
      </trkpt>
      <trkpt lat="49.32961" lon="1.03901">
        <ele>129.92</ele>
        <time>2015-07-17T14:48:02Z</time>
      </trkpt>
      <trkpt lat="49.32962" lon="1.03907">
        <ele>130.4</ele>
        <time>2015-07-17T14:48:03Z</time>
      </trkpt>
      <trkpt lat="49.32962" lon="1.03913">
        <ele>129.92</ele>
        <time>2015-07-17T14:48:04Z</time>
      </trkpt>
      <trkpt lat="49.32962" lon="1.03918">
        <ele>129.92</ele>
        <time>2015-07-17T14:48:05Z</time>
      </trkpt>
      <trkpt lat="49.32963" lon="1.03924">
        <ele>130.4</ele>
        <time>2015-07-17T14:48:06Z</time>
      </trkpt>
      <trkpt lat="49.32963" lon="1.03929">
        <ele>130.4</ele>
        <time>2015-07-17T14:48:07Z</time>
      </trkpt>
      <trkpt lat="49.32963" lon="1.03935">
        <ele>129.92</ele>
        <time>2015-07-17T14:48:08Z</time>
      </trkpt>
      <trkpt lat="49.32962" lon="1.0394">
        <ele>129.92</ele>
        <time>2015-07-17T14:48:09Z</time>
      </trkpt>
      <trkpt lat="49.32953" lon="1.03996">
        <ele>129.92</ele>
        <time>2015-07-17T14:48:20Z</time>
      </trkpt>
      <trkpt lat="49.32938" lon="1.04046">
        <ele>129.43</ele>
        <time>2015-07-17T14:48:30Z</time>
      </trkpt>
      <trkpt lat="49.32928" lon="1.04066">
        <ele>129.43</ele>
        <time>2015-07-17T14:48:35Z</time>
      </trkpt>
      <trkpt lat="49.32925" lon="1.04067">
        <ele>129.43</ele>
        <time>2015-07-17T14:48:36Z</time>
      </trkpt>
      <trkpt lat="49.32888" lon="1.04084">
        <ele>127.99</ele>
        <time>2015-07-17T14:48:48Z</time>
      </trkpt>
      <trkpt lat="49.32862" lon="1.04094">
        <ele>124.63</ele>
        <time>2015-07-17T14:48:56Z</time>
      </trkpt>
      <trkpt lat="49.32859" lon="1.04094">
        <ele>124.15</ele>
        <time>2015-07-17T14:48:57Z</time>
      </trkpt>
      <trkpt lat="49.32846" lon="1.041">
        <ele>122.71</ele>
        <time>2015-07-17T14:49:00Z</time>
      </trkpt>
      <trkpt lat="49.32842" lon="1.04104">
        <ele>122.22</ele>
        <time>2015-07-17T14:49:01Z</time>
      </trkpt>
      <trkpt lat="49.32838" lon="1.0411">
        <ele>122.22</ele>
        <time>2015-07-17T14:49:02Z</time>
      </trkpt>
      <trkpt lat="49.32836" lon="1.04118">
        <ele>122.71</ele>
        <time>2015-07-17T14:49:03Z</time>
      </trkpt>
      <trkpt lat="49.32834" lon="1.04125">
        <ele>123.67</ele>
        <time>2015-07-17T14:49:04Z</time>
      </trkpt>
      <trkpt lat="49.32833" lon="1.04131">
        <ele>124.15</ele>
        <time>2015-07-17T14:49:05Z</time>
      </trkpt>
      <trkpt lat="49.32833" lon="1.04135">
        <ele>124.63</ele>
        <time>2015-07-17T14:49:06Z</time>
      </trkpt>
      <trkpt lat="49.32831" lon="1.0414">
        <ele>125.11</ele>
        <time>2015-07-17T14:49:07Z</time>
      </trkpt>
      <trkpt lat="49.32826" lon="1.04147">
        <ele>124.63</ele>
        <time>2015-07-17T14:49:08Z</time>
      </trkpt>
      <trkpt lat="49.32823" lon="1.04155">
        <ele>123.67</ele>
        <time>2015-07-17T14:49:09Z</time>
      </trkpt>
      <trkpt lat="49.32821" lon="1.04164">
        <ele>122.71</ele>
        <time>2015-07-17T14:49:10Z</time>
      </trkpt>
      <trkpt lat="49.3282" lon="1.04173">
        <ele>123.19</ele>
        <time>2015-07-17T14:49:11Z</time>
      </trkpt>
      <trkpt lat="49.32818" lon="1.04181">
        <ele>122.71</ele>
        <time>2015-07-17T14:49:12Z</time>
      </trkpt>
      <trkpt lat="49.32816" lon="1.04189">
        <ele>122.71</ele>
        <time>2015-07-17T14:49:13Z</time>
      </trkpt>
      <trkpt lat="49.32815" lon="1.04196">
        <ele>122.22</ele>
        <time>2015-07-17T14:49:14Z</time>
      </trkpt>
      <trkpt lat="49.32813" lon="1.04202">
        <ele>122.22</ele>
        <time>2015-07-17T14:49:15Z</time>
      </trkpt>
      <trkpt lat="49.32812" lon="1.04234">
        <ele>121.26</ele>
        <time>2015-07-17T14:49:24Z</time>
      </trkpt>
      <trkpt lat="49.32812" lon="1.04241">
        <ele>120.3</ele>
        <time>2015-07-17T14:49:25Z</time>
      </trkpt>
      <trkpt lat="49.32814" lon="1.04249">
        <ele>119.34</ele>
        <time>2015-07-17T14:49:26Z</time>
      </trkpt>
      <trkpt lat="49.32817" lon="1.04278">
        <ele>116.46</ele>
        <time>2015-07-17T14:49:29Z</time>
      </trkpt>
      <trkpt lat="49.32819" lon="1.04288">
        <ele>115.5</ele>
        <time>2015-07-17T14:49:30Z</time>
      </trkpt>
      <trkpt lat="49.32822" lon="1.04298">
        <ele>116.46</ele>
        <time>2015-07-17T14:49:31Z</time>
      </trkpt>
      <trkpt lat="49.32825" lon="1.04315">
        <ele>117.9</ele>
        <time>2015-07-17T14:49:33Z</time>
      </trkpt>
      <trkpt lat="49.32824" lon="1.04324">
        <ele>117.42</ele>
        <time>2015-07-17T14:49:34Z</time>
      </trkpt>
      <trkpt lat="49.32824" lon="1.04334">
        <ele>115.98</ele>
        <time>2015-07-17T14:49:35Z</time>
      </trkpt>
      <trkpt lat="49.32825" lon="1.04344">
        <ele>115.5</ele>
        <time>2015-07-17T14:49:36Z</time>
      </trkpt>
      <trkpt lat="49.32826" lon="1.04353">
        <ele>116.46</ele>
        <time>2015-07-17T14:49:37Z</time>
      </trkpt>
      <trkpt lat="49.32833" lon="1.044">
        <ele>117.9</ele>
        <time>2015-07-17T14:49:44Z</time>
      </trkpt>
      <trkpt lat="49.32829" lon="1.04439">
        <ele>114.05</ele>
        <time>2015-07-17T14:49:48Z</time>
      </trkpt>
      <trkpt lat="49.3283" lon="1.04458">
        <ele>113.09</ele>
        <time>2015-07-17T14:49:50Z</time>
      </trkpt>
      <trkpt lat="49.32834" lon="1.04492">
        <ele>109.73</ele>
        <time>2015-07-17T14:49:53Z</time>
      </trkpt>
      <trkpt lat="49.32834" lon="1.04503">
        <ele>108.77</ele>
        <time>2015-07-17T14:49:54Z</time>
      </trkpt>
      <trkpt lat="49.32834" lon="1.04533">
        <ele>105.4</ele>
        <time>2015-07-17T14:49:58Z</time>
      </trkpt>
      <trkpt lat="49.32835" lon="1.04539">
        <ele>104.44</ele>
        <time>2015-07-17T14:49:59Z</time>
      </trkpt>
      <trkpt lat="49.32837" lon="1.04546">
        <ele>103.48</ele>
        <time>2015-07-17T14:50:00Z</time>
      </trkpt>
      <trkpt lat="49.3285" lon="1.04583">
        <ele>102.04</ele>
        <time>2015-07-17T14:50:05Z</time>
      </trkpt>
      <trkpt lat="49.3286" lon="1.04607">
        <ele>103</ele>
        <time>2015-07-17T14:50:09Z</time>
      </trkpt>
      <trkpt lat="49.32863" lon="1.04612">
        <ele>103.48</ele>
        <time>2015-07-17T14:50:10Z</time>
      </trkpt>
      <trkpt lat="49.32866" lon="1.04616">
        <ele>103.96</ele>
        <time>2015-07-17T14:50:11Z</time>
      </trkpt>
      <trkpt lat="49.32868" lon="1.0462">
        <ele>103.96</ele>
        <time>2015-07-17T14:50:12Z</time>
      </trkpt>
      <trkpt lat="49.32871" lon="1.04623">
        <ele>103.96</ele>
        <time>2015-07-17T14:50:13Z</time>
      </trkpt>
      <trkpt lat="49.32874" lon="1.04627">
        <ele>103.96</ele>
        <time>2015-07-17T14:50:14Z</time>
      </trkpt>
      <trkpt lat="49.32877" lon="1.04632">
        <ele>103.96</ele>
        <time>2015-07-17T14:50:15Z</time>
      </trkpt>
      <trkpt lat="49.32888" lon="1.0466">
        <ele>104.92</ele>
        <time>2015-07-17T14:50:23Z</time>
      </trkpt>
      <trkpt lat="49.3289" lon="1.04667">
        <ele>104.92</ele>
        <time>2015-07-17T14:50:44Z</time>
      </trkpt>
      <trkpt lat="49.32889" lon="1.04668">
        <ele>104.92</ele>
        <time>2015-07-17T14:51:18Z</time>
      </trkpt>
      <trkpt lat="49.3289" lon="1.04667">
        <ele>105.4</ele>
        <time>2015-07-17T14:51:53Z</time>
      </trkpt>
      <trkpt lat="49.32891" lon="1.04669">
        <ele>105.4</ele>
        <time>2015-07-17T14:52:17Z</time>
      </trkpt>
      <trkpt lat="49.32893" lon="1.04671">
        <ele>105.4</ele>
        <time>2015-07-17T14:52:33Z</time>
      </trkpt>
      <trkpt lat="49.32899" lon="1.04669">
        <ele>107.81</ele>
        <time>2015-07-17T14:52:39Z</time>
      </trkpt>
      <trkpt lat="49.329" lon="1.04668">
        <ele>108.29</ele>
        <time>2015-07-17T14:52:40Z</time>
      </trkpt>
      <trkpt lat="49.32904" lon="1.04667">
        <ele>108.77</ele>
        <time>2015-07-17T14:52:43Z</time>
      </trkpt>
      <trkpt lat="49.32909" lon="1.04666">
        <ele>110.21</ele>
        <time>2015-07-17T14:52:47Z</time>
      </trkpt>
      <trkpt lat="49.3291" lon="1.04664">
        <ele>110.69</ele>
        <time>2015-07-17T14:52:48Z</time>
      </trkpt>
      <trkpt lat="49.32911" lon="1.04662">
        <ele>110.69</ele>
        <time>2015-07-17T14:52:49Z</time>
      </trkpt>
      <trkpt lat="49.32913" lon="1.04661">
        <ele>111.17</ele>
        <time>2015-07-17T14:52:50Z</time>
      </trkpt>
      <trkpt lat="49.32914" lon="1.0466">
        <ele>111.17</ele>
        <time>2015-07-17T14:52:51Z</time>
      </trkpt>
      <trkpt lat="49.32915" lon="1.04659">
        <ele>112.13</ele>
        <time>2015-07-17T14:52:52Z</time>
      </trkpt>
      <trkpt lat="49.32916" lon="1.04658">
        <ele>112.13</ele>
        <time>2015-07-17T14:52:53Z</time>
      </trkpt>
      <trkpt lat="49.32922" lon="1.04653">
        <ele>113.57</ele>
        <time>2015-07-17T14:52:58Z</time>
      </trkpt>
      <trkpt lat="49.32924" lon="1.04651">
        <ele>113.57</ele>
        <time>2015-07-17T14:52:59Z</time>
      </trkpt>
      <trkpt lat="49.32931" lon="1.04644">
        <ele>115.5</ele>
        <time>2015-07-17T14:53:06Z</time>
      </trkpt>
      <trkpt lat="49.32939" lon="1.04634">
        <ele>117.42</ele>
        <time>2015-07-17T14:53:16Z</time>
      </trkpt>
      <trkpt lat="49.3294" lon="1.04633">
        <ele>117.42</ele>
        <time>2015-07-17T14:53:17Z</time>
      </trkpt>
      <trkpt lat="49.32947" lon="1.04628">
        <ele>118.38</ele>
        <time>2015-07-17T14:53:23Z</time>
      </trkpt>
      <trkpt lat="49.32953" lon="1.04624">
        <ele>119.82</ele>
        <time>2015-07-17T14:53:28Z</time>
      </trkpt>
      <trkpt lat="49.32955" lon="1.04622">
        <ele>119.82</ele>
        <time>2015-07-17T14:53:29Z</time>
      </trkpt>
      <trkpt lat="49.32969" lon="1.04611">
        <ele>121.26</ele>
        <time>2015-07-17T14:53:40Z</time>
      </trkpt>
      <trkpt lat="49.3297" lon="1.0461">
        <ele>121.74</ele>
        <time>2015-07-17T14:53:41Z</time>
      </trkpt>
      <trkpt lat="49.32984" lon="1.04602">
        <ele>123.67</ele>
        <time>2015-07-17T14:53:53Z</time>
      </trkpt>
      <trkpt lat="49.33002" lon="1.04586">
        <ele>125.11</ele>
        <time>2015-07-17T14:54:05Z</time>
      </trkpt>
      <trkpt lat="49.33007" lon="1.04581">
        <ele>125.59</ele>
        <time>2015-07-17T14:54:09Z</time>
      </trkpt>
      <trkpt lat="49.33009" lon="1.04579">
        <ele>126.07</ele>
        <time>2015-07-17T14:54:10Z</time>
      </trkpt>
      <trkpt lat="49.3301" lon="1.04577">
        <ele>126.07</ele>
        <time>2015-07-17T14:54:11Z</time>
      </trkpt>
      <trkpt lat="49.33011" lon="1.04576">
        <ele>126.07</ele>
        <time>2015-07-17T14:54:12Z</time>
      </trkpt>
      <trkpt lat="49.33013" lon="1.04574">
        <ele>126.07</ele>
        <time>2015-07-17T14:54:13Z</time>
      </trkpt>
      <trkpt lat="49.33021" lon="1.0457">
        <ele>126.55</ele>
        <time>2015-07-17T14:54:18Z</time>
      </trkpt>
      <trkpt lat="49.33023" lon="1.04568">
        <ele>127.03</ele>
        <time>2015-07-17T14:54:19Z</time>
      </trkpt>
      <trkpt lat="49.33044" lon="1.04555">
        <ele>127.03</ele>
        <time>2015-07-17T14:54:27Z</time>
      </trkpt>
      <trkpt lat="49.33046" lon="1.04553">
        <ele>127.51</ele>
        <time>2015-07-17T14:54:28Z</time>
      </trkpt>
      <trkpt lat="49.33048" lon="1.04551">
        <ele>127.51</ele>
        <time>2015-07-17T14:54:29Z</time>
      </trkpt>
      <trkpt lat="49.3305" lon="1.0455">
        <ele>127.51</ele>
        <time>2015-07-17T14:54:30Z</time>
      </trkpt>
      <trkpt lat="49.33053" lon="1.04548">
        <ele>127.51</ele>
        <time>2015-07-17T14:54:31Z</time>
      </trkpt>
      <trkpt lat="49.33055" lon="1.04545">
        <ele>127.51</ele>
        <time>2015-07-17T14:54:32Z</time>
      </trkpt>
      <trkpt lat="49.33059" lon="1.04544">
        <ele>127.99</ele>
        <time>2015-07-17T14:54:33Z</time>
      </trkpt>
      <trkpt lat="49.33062" lon="1.04542">
        <ele>127.51</ele>
        <time>2015-07-17T14:54:34Z</time>
      </trkpt>
      <trkpt lat="49.33065" lon="1.0454">
        <ele>127.51</ele>
        <time>2015-07-17T14:54:35Z</time>
      </trkpt>
      <trkpt lat="49.33068" lon="1.04538">
        <ele>127.99</ele>
        <time>2015-07-17T14:54:36Z</time>
      </trkpt>
      <trkpt lat="49.33071" lon="1.04536">
        <ele>127.99</ele>
        <time>2015-07-17T14:54:37Z</time>
      </trkpt>
      <trkpt lat="49.33074" lon="1.04533">
        <ele>127.99</ele>
        <time>2015-07-17T14:54:38Z</time>
      </trkpt>
      <trkpt lat="49.33077" lon="1.0453">
        <ele>127.51</ele>
        <time>2015-07-17T14:54:39Z</time>
      </trkpt>
      <trkpt lat="49.3308" lon="1.04526">
        <ele>127.99</ele>
        <time>2015-07-17T14:54:40Z</time>
      </trkpt>
      <trkpt lat="49.33082" lon="1.04523">
        <ele>127.99</ele>
        <time>2015-07-17T14:54:41Z</time>
      </trkpt>
      <trkpt lat="49.33086" lon="1.04521">
        <ele>127.99</ele>
        <time>2015-07-17T14:54:42Z</time>
      </trkpt>
      <trkpt lat="49.33089" lon="1.04521">
        <ele>127.99</ele>
        <time>2015-07-17T14:54:43Z</time>
      </trkpt>
      <trkpt lat="49.33092" lon="1.0452">
        <ele>127.99</ele>
        <time>2015-07-17T14:54:44Z</time>
      </trkpt>
      <trkpt lat="49.33095" lon="1.04519">
        <ele>127.99</ele>
        <time>2015-07-17T14:54:45Z</time>
      </trkpt>
      <trkpt lat="49.33097" lon="1.04518">
        <ele>127.99</ele>
        <time>2015-07-17T14:54:46Z</time>
      </trkpt>
      <trkpt lat="49.33099" lon="1.04515">
        <ele>128.47</ele>
        <time>2015-07-17T14:54:47Z</time>
      </trkpt>
      <trkpt lat="49.3313" lon="1.0449">
        <ele>128.47</ele>
        <time>2015-07-17T14:54:57Z</time>
      </trkpt>
      <trkpt lat="49.33164" lon="1.04464">
        <ele>127.99</ele>
        <time>2015-07-17T14:55:06Z</time>
      </trkpt>
      <trkpt lat="49.33181" lon="1.04453">
        <ele>127.99</ele>
        <time>2015-07-17T14:55:10Z</time>
      </trkpt>
      <trkpt lat="49.33213" lon="1.04431">
        <ele>127.99</ele>
        <time>2015-07-17T14:55:18Z</time>
      </trkpt>
      <trkpt lat="49.33229" lon="1.04418">
        <ele>128.47</ele>
        <time>2015-07-17T14:55:23Z</time>
      </trkpt>
      <trkpt lat="49.33232" lon="1.04419">
        <ele>128.47</ele>
        <time>2015-07-17T14:55:24Z</time>
      </trkpt>
      <trkpt lat="49.33234" lon="1.04421">
        <ele>128.47</ele>
        <time>2015-07-17T14:55:25Z</time>
      </trkpt>
      <trkpt lat="49.33236" lon="1.04424">
        <ele>128.47</ele>
        <time>2015-07-17T14:55:26Z</time>
      </trkpt>
      <trkpt lat="49.33237" lon="1.04428">
        <ele>128.95</ele>
        <time>2015-07-17T14:55:27Z</time>
      </trkpt>
      <trkpt lat="49.33237" lon="1.04431">
        <ele>128.95</ele>
        <time>2015-07-17T14:55:28Z</time>
      </trkpt>
      <trkpt lat="49.33237" lon="1.04435">
        <ele>128.95</ele>
        <time>2015-07-17T14:55:29Z</time>
      </trkpt>
      <trkpt lat="49.33238" lon="1.04456">
        <ele>125.59</ele>
        <time>2015-07-17T14:55:34Z</time>
      </trkpt>
      <trkpt lat="49.33238" lon="1.04462">
        <ele>130.4</ele>
        <time>2015-07-17T14:55:35Z</time>
      </trkpt>
      <trkpt lat="49.3324" lon="1.04493">
        <ele>127.99</ele>
        <time>2015-07-17T14:55:40Z</time>
      </trkpt>
      <trkpt lat="49.33241" lon="1.045">
        <ele>127.99</ele>
        <time>2015-07-17T14:55:41Z</time>
      </trkpt>
      <trkpt lat="49.33264" lon="1.04568">
        <ele>128.47</ele>
        <time>2015-07-17T14:55:51Z</time>
      </trkpt>
      <trkpt lat="49.33267" lon="1.04575">
        <ele>127.99</ele>
        <time>2015-07-17T14:55:52Z</time>
      </trkpt>
      <trkpt lat="49.33271" lon="1.04582">
        <ele>127.99</ele>
        <time>2015-07-17T14:55:53Z</time>
      </trkpt>
      <trkpt lat="49.33273" lon="1.04589">
        <ele>127.99</ele>
        <time>2015-07-17T14:55:54Z</time>
      </trkpt>
      <trkpt lat="49.33276" lon="1.04596">
        <ele>127.99</ele>
        <time>2015-07-17T14:55:55Z</time>
      </trkpt>
      <trkpt lat="49.33291" lon="1.04633">
        <ele>127.99</ele>
        <time>2015-07-17T14:56:00Z</time>
      </trkpt>
      <trkpt lat="49.33298" lon="1.04648">
        <ele>127.51</ele>
        <time>2015-07-17T14:56:02Z</time>
      </trkpt>
      <trkpt lat="49.33303" lon="1.04663">
        <ele>127.51</ele>
        <time>2015-07-17T14:56:04Z</time>
      </trkpt>
      <trkpt lat="49.33306" lon="1.0467">
        <ele>127.51</ele>
        <time>2015-07-17T14:56:05Z</time>
      </trkpt>
      <trkpt lat="49.33309" lon="1.04678">
        <ele>127.51</ele>
        <time>2015-07-17T14:56:06Z</time>
      </trkpt>
      <trkpt lat="49.33316" lon="1.04718">
        <ele>127.51</ele>
        <time>2015-07-17T14:56:11Z</time>
      </trkpt>
      <trkpt lat="49.33317" lon="1.04726">
        <ele>127.51</ele>
        <time>2015-07-17T14:56:12Z</time>
      </trkpt>
      <trkpt lat="49.33317" lon="1.04734">
        <ele>127.51</ele>
        <time>2015-07-17T14:56:13Z</time>
      </trkpt>
      <trkpt lat="49.33318" lon="1.04742">
        <ele>127.51</ele>
        <time>2015-07-17T14:56:14Z</time>
      </trkpt>
      <trkpt lat="49.33318" lon="1.04751">
        <ele>127.51</ele>
        <time>2015-07-17T14:56:15Z</time>
      </trkpt>
      <trkpt lat="49.33319" lon="1.048">
        <ele>127.51</ele>
        <time>2015-07-17T14:56:21Z</time>
      </trkpt>
      <trkpt lat="49.33304" lon="1.0492">
        <ele>127.51</ele>
        <time>2015-07-17T14:56:35Z</time>
      </trkpt>
      <trkpt lat="49.33304" lon="1.04937">
        <ele>127.51</ele>
        <time>2015-07-17T14:56:37Z</time>
      </trkpt>
      <trkpt lat="49.333" lon="1.04997">
        <ele>127.03</ele>
        <time>2015-07-17T14:56:44Z</time>
      </trkpt>
      <trkpt lat="49.33299" lon="1.05075">
        <ele>126.07</ele>
        <time>2015-07-17T14:56:53Z</time>
      </trkpt>
      <trkpt lat="49.33299" lon="1.05083">
        <ele>126.07</ele>
        <time>2015-07-17T14:56:54Z</time>
      </trkpt>
      <trkpt lat="49.333" lon="1.05091">
        <ele>126.07</ele>
        <time>2015-07-17T14:56:55Z</time>
      </trkpt>
      <trkpt lat="49.33301" lon="1.05098">
        <ele>126.07</ele>
        <time>2015-07-17T14:56:56Z</time>
      </trkpt>
      <trkpt lat="49.33302" lon="1.05104">
        <ele>126.07</ele>
        <time>2015-07-17T14:56:57Z</time>
      </trkpt>
      <trkpt lat="49.33303" lon="1.05111">
        <ele>126.07</ele>
        <time>2015-07-17T14:56:58Z</time>
      </trkpt>
      <trkpt lat="49.33305" lon="1.05117">
        <ele>126.07</ele>
        <time>2015-07-17T14:56:59Z</time>
      </trkpt>
      <trkpt lat="49.33306" lon="1.05122">
        <ele>126.07</ele>
        <time>2015-07-17T14:57:00Z</time>
      </trkpt>
      <trkpt lat="49.3331" lon="1.05133">
        <ele>126.07</ele>
        <time>2015-07-17T14:57:02Z</time>
      </trkpt>
      <trkpt lat="49.33313" lon="1.05139">
        <ele>125.59</ele>
        <time>2015-07-17T14:57:03Z</time>
      </trkpt>
      <trkpt lat="49.33329" lon="1.05188">
        <ele>126.07</ele>
        <time>2015-07-17T14:57:12Z</time>
      </trkpt>
      <trkpt lat="49.33332" lon="1.05194">
        <ele>124.63</ele>
        <time>2015-07-17T14:57:13Z</time>
      </trkpt>
      <trkpt lat="49.33334" lon="1.052">
        <ele>125.11</ele>
        <time>2015-07-17T14:57:14Z</time>
      </trkpt>
      <trkpt lat="49.33336" lon="1.05206">
        <ele>124.63</ele>
        <time>2015-07-17T14:57:15Z</time>
      </trkpt>
      <trkpt lat="49.33338" lon="1.05212">
        <ele>124.63</ele>
        <time>2015-07-17T14:57:16Z</time>
      </trkpt>
      <trkpt lat="49.33339" lon="1.05219">
        <ele>124.15</ele>
        <time>2015-07-17T14:57:17Z</time>
      </trkpt>
      <trkpt lat="49.33346" lon="1.05244">
        <ele>123.67</ele>
        <time>2015-07-17T14:57:21Z</time>
      </trkpt>
      <trkpt lat="49.33348" lon="1.05251">
        <ele>123.67</ele>
        <time>2015-07-17T14:57:22Z</time>
      </trkpt>
      <trkpt lat="49.33368" lon="1.05331">
        <ele>121.74</ele>
        <time>2015-07-17T14:57:32Z</time>
      </trkpt>
      <trkpt lat="49.33371" lon="1.05339">
        <ele>121.74</ele>
        <time>2015-07-17T14:57:33Z</time>
      </trkpt>
      <trkpt lat="49.3338" lon="1.05364">
        <ele>121.74</ele>
        <time>2015-07-17T14:57:41Z</time>
      </trkpt>
      <trkpt lat="49.33381" lon="1.05369">
        <ele>121.74</ele>
        <time>2015-07-17T14:58:09Z</time>
      </trkpt>
      <trkpt lat="49.33384" lon="1.05368">
        <ele>121.74</ele>
        <time>2015-07-17T14:58:33Z</time>
      </trkpt>
      <trkpt lat="49.33383" lon="1.05372">
        <ele>121.74</ele>
        <time>2015-07-17T14:58:40Z</time>
      </trkpt>
      <trkpt lat="49.33383" lon="1.05374">
        <ele>121.26</ele>
        <time>2015-07-17T14:58:41Z</time>
      </trkpt>
      <trkpt lat="49.33381" lon="1.05376">
        <ele>121.26</ele>
        <time>2015-07-17T14:58:42Z</time>
      </trkpt>
      <trkpt lat="49.33379" lon="1.05379">
        <ele>120.78</ele>
        <time>2015-07-17T14:58:43Z</time>
      </trkpt>
      <trkpt lat="49.33376" lon="1.05382">
        <ele>120.78</ele>
        <time>2015-07-17T14:58:44Z</time>
      </trkpt>
      <trkpt lat="49.33373" lon="1.05385">
        <ele>120.3</ele>
        <time>2015-07-17T14:58:45Z</time>
      </trkpt>
      <trkpt lat="49.33371" lon="1.05388">
        <ele>120.3</ele>
        <time>2015-07-17T14:58:46Z</time>
      </trkpt>
      <trkpt lat="49.3337" lon="1.05393">
        <ele>119.82</ele>
        <time>2015-07-17T14:58:47Z</time>
      </trkpt>
      <trkpt lat="49.3337" lon="1.054">
        <ele>119.82</ele>
        <time>2015-07-17T14:58:48Z</time>
      </trkpt>
      <trkpt lat="49.33369" lon="1.05407">
        <ele>119.34</ele>
        <time>2015-07-17T14:58:49Z</time>
      </trkpt>
      <trkpt lat="49.33366" lon="1.05411">
        <ele>118.86</ele>
        <time>2015-07-17T14:58:50Z</time>
      </trkpt>
      <trkpt lat="49.33363" lon="1.05414">
        <ele>118.86</ele>
        <time>2015-07-17T14:58:51Z</time>
      </trkpt>
      <trkpt lat="49.33361" lon="1.05417">
        <ele>118.38</ele>
        <time>2015-07-17T14:58:52Z</time>
      </trkpt>
      <trkpt lat="49.33355" lon="1.05423">
        <ele>117.9</ele>
        <time>2015-07-17T14:58:54Z</time>
      </trkpt>
      <trkpt lat="49.33354" lon="1.05427">
        <ele>117.42</ele>
        <time>2015-07-17T14:58:55Z</time>
      </trkpt>
      <trkpt lat="49.33354" lon="1.05431">
        <ele>117.42</ele>
        <time>2015-07-17T14:58:56Z</time>
      </trkpt>
      <trkpt lat="49.33353" lon="1.05434">
        <ele>116.94</ele>
        <time>2015-07-17T14:58:57Z</time>
      </trkpt>
      <trkpt lat="49.33342" lon="1.0544">
        <ele>116.46</ele>
        <time>2015-07-17T14:59:01Z</time>
      </trkpt>
      <trkpt lat="49.33337" lon="1.05443">
        <ele>115.98</ele>
        <time>2015-07-17T14:59:02Z</time>
      </trkpt>
      <trkpt lat="49.33332" lon="1.05444">
        <ele>115.5</ele>
        <time>2015-07-17T14:59:03Z</time>
      </trkpt>
      <trkpt lat="49.33328" lon="1.05447">
        <ele>115.01</ele>
        <time>2015-07-17T14:59:04Z</time>
      </trkpt>
      <trkpt lat="49.33318" lon="1.05454">
        <ele>113.57</ele>
        <time>2015-07-17T14:59:06Z</time>
      </trkpt>
      <trkpt lat="49.33312" lon="1.05454">
        <ele>112.61</ele>
        <time>2015-07-17T14:59:07Z</time>
      </trkpt>
      <trkpt lat="49.33307" lon="1.05452">
        <ele>112.13</ele>
        <time>2015-07-17T14:59:08Z</time>
      </trkpt>
      <trkpt lat="49.33303" lon="1.05449">
        <ele>111.65</ele>
        <time>2015-07-17T14:59:09Z</time>
      </trkpt>
      <trkpt lat="49.333" lon="1.05446">
        <ele>112.13</ele>
        <time>2015-07-17T14:59:10Z</time>
      </trkpt>
      <trkpt lat="49.33296" lon="1.05445">
        <ele>112.61</ele>
        <time>2015-07-17T14:59:11Z</time>
      </trkpt>
      <trkpt lat="49.33292" lon="1.05446">
        <ele>113.09</ele>
        <time>2015-07-17T14:59:12Z</time>
      </trkpt>
      <trkpt lat="49.33288" lon="1.05445">
        <ele>111.65</ele>
        <time>2015-07-17T14:59:13Z</time>
      </trkpt>
      <trkpt lat="49.33284" lon="1.05442">
        <ele>111.65</ele>
        <time>2015-07-17T14:59:14Z</time>
      </trkpt>
      <trkpt lat="49.3328" lon="1.05439">
        <ele>111.65</ele>
        <time>2015-07-17T14:59:15Z</time>
      </trkpt>
      <trkpt lat="49.33276" lon="1.05437">
        <ele>111.65</ele>
        <time>2015-07-17T14:59:16Z</time>
      </trkpt>
      <trkpt lat="49.33259" lon="1.05424">
        <ele>112.13</ele>
        <time>2015-07-17T14:59:21Z</time>
      </trkpt>
      <trkpt lat="49.33255" lon="1.05427">
        <ele>111.65</ele>
        <time>2015-07-17T14:59:22Z</time>
      </trkpt>
      <trkpt lat="49.33251" lon="1.0543">
        <ele>110.69</ele>
        <time>2015-07-17T14:59:23Z</time>
      </trkpt>
      <trkpt lat="49.33242" lon="1.05436">
        <ele>109.73</ele>
        <time>2015-07-17T14:59:25Z</time>
      </trkpt>
      <trkpt lat="49.33238" lon="1.05438">
        <ele>109.25</ele>
        <time>2015-07-17T14:59:26Z</time>
      </trkpt>
      <trkpt lat="49.33234" lon="1.05442">
        <ele>108.29</ele>
        <time>2015-07-17T14:59:27Z</time>
      </trkpt>
      <trkpt lat="49.33229" lon="1.05443">
        <ele>107.81</ele>
        <time>2015-07-17T14:59:28Z</time>
      </trkpt>
      <trkpt lat="49.33224" lon="1.05443">
        <ele>107.32</ele>
        <time>2015-07-17T14:59:29Z</time>
      </trkpt>
      <trkpt lat="49.33219" lon="1.05445">
        <ele>106.36</ele>
        <time>2015-07-17T14:59:30Z</time>
      </trkpt>
      <trkpt lat="49.33214" lon="1.05446">
        <ele>105.4</ele>
        <time>2015-07-17T14:59:31Z</time>
      </trkpt>
      <trkpt lat="49.3321" lon="1.05447">
        <ele>104.44</ele>
        <time>2015-07-17T14:59:32Z</time>
      </trkpt>
      <trkpt lat="49.33206" lon="1.05446">
        <ele>104.44</ele>
        <time>2015-07-17T14:59:33Z</time>
      </trkpt>
      <trkpt lat="49.33201" lon="1.05444">
        <ele>103</ele>
        <time>2015-07-17T14:59:34Z</time>
      </trkpt>
      <trkpt lat="49.33197" lon="1.05442">
        <ele>103</ele>
        <time>2015-07-17T14:59:35Z</time>
      </trkpt>
      <trkpt lat="49.3318" lon="1.05429">
        <ele>102.52</ele>
        <time>2015-07-17T14:59:40Z</time>
      </trkpt>
      <trkpt lat="49.33158" lon="1.0541">
        <ele>103</ele>
        <time>2015-07-17T14:59:49Z</time>
      </trkpt>
      <trkpt lat="49.33145" lon="1.05407">
        <ele>101.08</ele>
        <time>2015-07-17T14:59:52Z</time>
      </trkpt>
      <trkpt lat="49.33132" lon="1.05413">
        <ele>97.71</ele>
        <time>2015-07-17T14:59:57Z</time>
      </trkpt>
      <trkpt lat="49.3314" lon="1.05445">
        <ele>95.79</ele>
        <time>2015-07-17T15:00:02Z</time>
      </trkpt>
      <trkpt lat="49.33152" lon="1.05472">
        <ele>95.31</ele>
        <time>2015-07-17T15:00:11Z</time>
      </trkpt>
      <trkpt lat="49.33152" lon="1.05476">
        <ele>95.79</ele>
        <time>2015-07-17T15:00:24Z</time>
      </trkpt>
      <trkpt lat="49.33157" lon="1.05495">
        <ele>93.87</ele>
        <time>2015-07-17T15:00:38Z</time>
      </trkpt>
      <trkpt lat="49.33157" lon="1.05508">
        <ele>91.94</ele>
        <time>2015-07-17T15:00:40Z</time>
      </trkpt>
      <trkpt lat="49.33157" lon="1.05531">
        <ele>88.58</ele>
        <time>2015-07-17T15:00:44Z</time>
      </trkpt>
      <trkpt lat="49.33162" lon="1.05549">
        <ele>88.1</ele>
        <time>2015-07-17T15:00:48Z</time>
      </trkpt>
      <trkpt lat="49.3316" lon="1.05559">
        <ele>86.66</ele>
        <time>2015-07-17T15:00:51Z</time>
      </trkpt>
      <trkpt lat="49.33158" lon="1.05588">
        <ele>83.29</ele>
        <time>2015-07-17T15:00:55Z</time>
      </trkpt>
      <trkpt lat="49.33157" lon="1.05617">
        <ele>80.41</ele>
        <time>2015-07-17T15:00:58Z</time>
      </trkpt>
      <trkpt lat="49.33147" lon="1.05633">
        <ele>76.56</ele>
        <time>2015-07-17T15:01:04Z</time>
      </trkpt>
      <trkpt lat="49.33133" lon="1.05603">
        <ele>74.64</ele>
        <time>2015-07-17T15:01:14Z</time>
      </trkpt>
      <trkpt lat="49.33125" lon="1.05608">
        <ele>71.27</ele>
        <time>2015-07-17T15:01:17Z</time>
      </trkpt>
      <trkpt lat="49.33113" lon="1.0561">
        <ele>67.91</ele>
        <time>2015-07-17T15:01:20Z</time>
      </trkpt>
      <trkpt lat="49.33109" lon="1.05609">
        <ele>67.91</ele>
        <time>2015-07-17T15:01:21Z</time>
      </trkpt>
      <trkpt lat="49.331" lon="1.05622">
        <ele>64.55</ele>
        <time>2015-07-17T15:01:25Z</time>
      </trkpt>
      <trkpt lat="49.33095" lon="1.0563">
        <ele>62.62</ele>
        <time>2015-07-17T15:01:27Z</time>
      </trkpt>
      <trkpt lat="49.33082" lon="1.05629">
        <ele>58.3</ele>
        <time>2015-07-17T15:01:30Z</time>
      </trkpt>
      <trkpt lat="49.33071" lon="1.05617">
        <ele>55.89</ele>
        <time>2015-07-17T15:01:33Z</time>
      </trkpt>
      <trkpt lat="49.33058" lon="1.0563">
        <ele>51.57</ele>
        <time>2015-07-17T15:01:37Z</time>
      </trkpt>
      <trkpt lat="49.33048" lon="1.05658">
        <ele>46.28</ele>
        <time>2015-07-17T15:01:41Z</time>
      </trkpt>
      <trkpt lat="49.33047" lon="1.05664">
        <ele>44.84</ele>
        <time>2015-07-17T15:01:42Z</time>
      </trkpt>
      <trkpt lat="49.33033" lon="1.05669">
        <ele>40.51</ele>
        <time>2015-07-17T15:01:47Z</time>
      </trkpt>
      <trkpt lat="49.33024" lon="1.05659">
        <ele>38.59</ele>
        <time>2015-07-17T15:01:49Z</time>
      </trkpt>
      <trkpt lat="49.33016" lon="1.05643">
        <ele>37.15</ele>
        <time>2015-07-17T15:01:51Z</time>
      </trkpt>
      <trkpt lat="49.33011" lon="1.05635">
        <ele>37.63</ele>
        <time>2015-07-17T15:01:56Z</time>
      </trkpt>
      <trkpt lat="49.3301" lon="1.05636">
        <ele>37.63</ele>
        <time>2015-07-17T15:02:28Z</time>
      </trkpt>
      <trkpt lat="49.3301" lon="1.05637">
        <ele>37.15</ele>
        <time>2015-07-17T15:02:47Z</time>
      </trkpt>
      <trkpt lat="49.33009" lon="1.05637">
        <ele>37.15</ele>
        <time>2015-07-17T15:03:01Z</time>
      </trkpt>
      <trkpt lat="49.33006" lon="1.05637">
        <ele>36.19</ele>
        <time>2015-07-17T15:03:03Z</time>
      </trkpt>
      <trkpt lat="49.33005" lon="1.05639">
        <ele>35.71</ele>
        <time>2015-07-17T15:03:04Z</time>
      </trkpt>
      <trkpt lat="49.32998" lon="1.05646">
        <ele>33.3</ele>
        <time>2015-07-17T15:03:07Z</time>
      </trkpt>
      <trkpt lat="49.32995" lon="1.05649">
        <ele>31.86</ele>
        <time>2015-07-17T15:03:08Z</time>
      </trkpt>
      <trkpt lat="49.32984" lon="1.05654">
        <ele>28.98</ele>
        <time>2015-07-17T15:03:11Z</time>
      </trkpt>
      <trkpt lat="49.32982" lon="1.05653">
        <ele>28.02</ele>
        <time>2015-07-17T15:03:12Z</time>
      </trkpt>
      <trkpt lat="49.32981" lon="1.05653">
        <ele>27.53</ele>
        <time>2015-07-17T15:03:13Z</time>
      </trkpt>
      <trkpt lat="49.32979" lon="1.05654">
        <ele>27.53</ele>
        <time>2015-07-17T15:03:14Z</time>
      </trkpt>
      <trkpt lat="49.32978" lon="1.05656">
        <ele>27.05</ele>
        <time>2015-07-17T15:03:15Z</time>
      </trkpt>
      <trkpt lat="49.32977" lon="1.0566">
        <ele>26.09</ele>
        <time>2015-07-17T15:03:16Z</time>
      </trkpt>
      <trkpt lat="49.32977" lon="1.05664">
        <ele>25.61</ele>
        <time>2015-07-17T15:03:17Z</time>
      </trkpt>
      <trkpt lat="49.32977" lon="1.05668">
        <ele>24.65</ele>
        <time>2015-07-17T15:03:18Z</time>
      </trkpt>
      <trkpt lat="49.32977" lon="1.0567">
        <ele>23.69</ele>
        <time>2015-07-17T15:03:19Z</time>
      </trkpt>
      <trkpt lat="49.32976" lon="1.05672">
        <ele>23.69</ele>
        <time>2015-07-17T15:03:20Z</time>
      </trkpt>
      <trkpt lat="49.32975" lon="1.05671">
        <ele>23.21</ele>
        <time>2015-07-17T15:03:21Z</time>
      </trkpt>
      <trkpt lat="49.32974" lon="1.05669">
        <ele>23.21</ele>
        <time>2015-07-17T15:03:22Z</time>
      </trkpt>
      <trkpt lat="49.32973" lon="1.05667">
        <ele>22.73</ele>
        <time>2015-07-17T15:03:23Z</time>
      </trkpt>
      <trkpt lat="49.32972" lon="1.05665">
        <ele>22.73</ele>
        <time>2015-07-17T15:03:24Z</time>
      </trkpt>
      <trkpt lat="49.3297" lon="1.05664">
        <ele>22.25</ele>
        <time>2015-07-17T15:03:25Z</time>
      </trkpt>
      <trkpt lat="49.32969" lon="1.05664">
        <ele>22.25</ele>
        <time>2015-07-17T15:03:26Z</time>
      </trkpt>
      <trkpt lat="49.32967" lon="1.05664">
        <ele>21.77</ele>
        <time>2015-07-17T15:03:27Z</time>
      </trkpt>
      <trkpt lat="49.32965" lon="1.05666">
        <ele>21.29</ele>
        <time>2015-07-17T15:03:28Z</time>
      </trkpt>
      <trkpt lat="49.32963" lon="1.05668">
        <ele>20.81</ele>
        <time>2015-07-17T15:03:29Z</time>
      </trkpt>
      <trkpt lat="49.32943" lon="1.05682">
        <ele>17.92</ele>
        <time>2015-07-17T15:03:39Z</time>
      </trkpt>
      <trkpt lat="49.32894" lon="1.05707">
        <ele>15.52</ele>
        <time>2015-07-17T15:03:50Z</time>
      </trkpt>
      <trkpt lat="49.32862" lon="1.05722">
        <ele>15.52</ele>
        <time>2015-07-17T15:03:57Z</time>
      </trkpt>
      <trkpt lat="49.32858" lon="1.05724">
        <ele>15.52</ele>
        <time>2015-07-17T15:03:58Z</time>
      </trkpt>
      <trkpt lat="49.32842" lon="1.05731">
        <ele>15.52</ele>
        <time>2015-07-17T15:04:03Z</time>
      </trkpt>
      <trkpt lat="49.32842" lon="1.05736">
        <ele>15.52</ele>
        <time>2015-07-17T15:04:04Z</time>
      </trkpt>
      <trkpt lat="49.32843" lon="1.05741">
        <ele>15.52</ele>
        <time>2015-07-17T15:04:05Z</time>
      </trkpt>
      <trkpt lat="49.32849" lon="1.05756">
        <ele>15.52</ele>
        <time>2015-07-17T15:04:08Z</time>
      </trkpt>
      <trkpt lat="49.32862" lon="1.05815">
        <ele>15.04</ele>
        <time>2015-07-17T15:04:17Z</time>
      </trkpt>
      <trkpt lat="49.32864" lon="1.05822">
        <ele>15.52</ele>
        <time>2015-07-17T15:04:18Z</time>
      </trkpt>
      <trkpt lat="49.32866" lon="1.05829">
        <ele>15.04</ele>
        <time>2015-07-17T15:04:19Z</time>
      </trkpt>
      <trkpt lat="49.32871" lon="1.05858">
        <ele>15.04</ele>
        <time>2015-07-17T15:04:23Z</time>
      </trkpt>
      <trkpt lat="49.32873" lon="1.05865">
        <ele>15.04</ele>
        <time>2015-07-17T15:04:24Z</time>
      </trkpt>
      <trkpt lat="49.32898" lon="1.05962">
        <ele>15.52</ele>
        <time>2015-07-17T15:04:37Z</time>
      </trkpt>
      <trkpt lat="49.32901" lon="1.05969">
        <ele>15.04</ele>
        <time>2015-07-17T15:04:38Z</time>
      </trkpt>
      <trkpt lat="49.32903" lon="1.05977">
        <ele>15.04</ele>
        <time>2015-07-17T15:04:39Z</time>
      </trkpt>
      <trkpt lat="49.32908" lon="1.05992">
        <ele>15.04</ele>
        <time>2015-07-17T15:04:41Z</time>
      </trkpt>
      <trkpt lat="49.32918" lon="1.06025">
        <ele>15.04</ele>
        <time>2015-07-17T15:04:45Z</time>
      </trkpt>
      <trkpt lat="49.3292" lon="1.06033">
        <ele>14.56</ele>
        <time>2015-07-17T15:04:46Z</time>
      </trkpt>
      <trkpt lat="49.32922" lon="1.06041">
        <ele>15.04</ele>
        <time>2015-07-17T15:04:47Z</time>
      </trkpt>
      <trkpt lat="49.32927" lon="1.06064">
        <ele>15.04</ele>
        <time>2015-07-17T15:04:50Z</time>
      </trkpt>
      <trkpt lat="49.3295" lon="1.06147">
        <ele>15.04</ele>
        <time>2015-07-17T15:05:01Z</time>
      </trkpt>
      <trkpt lat="49.32954" lon="1.06162">
        <ele>15.04</ele>
        <time>2015-07-17T15:05:03Z</time>
      </trkpt>
      <trkpt lat="49.32957" lon="1.0617">
        <ele>14.56</ele>
        <time>2015-07-17T15:05:04Z</time>
      </trkpt>
      <trkpt lat="49.32969" lon="1.0621">
        <ele>15.04</ele>
        <time>2015-07-17T15:05:09Z</time>
      </trkpt>
      <trkpt lat="49.32972" lon="1.06217">
        <ele>14.56</ele>
        <time>2015-07-17T15:05:10Z</time>
      </trkpt>
      <trkpt lat="49.32991" lon="1.06269">
        <ele>14.56</ele>
        <time>2015-07-17T15:05:17Z</time>
      </trkpt>
      <trkpt lat="49.32993" lon="1.06276">
        <ele>14.56</ele>
        <time>2015-07-17T15:05:18Z</time>
      </trkpt>
      <trkpt lat="49.32997" lon="1.06283">
        <ele>14.56</ele>
        <time>2015-07-17T15:05:19Z</time>
      </trkpt>
      <trkpt lat="49.33" lon="1.0629">
        <ele>14.56</ele>
        <time>2015-07-17T15:05:20Z</time>
      </trkpt>
      <trkpt lat="49.33003" lon="1.06298">
        <ele>14.56</ele>
        <time>2015-07-17T15:05:21Z</time>
      </trkpt>
      <trkpt lat="49.33007" lon="1.06305">
        <ele>14.56</ele>
        <time>2015-07-17T15:05:22Z</time>
      </trkpt>
      <trkpt lat="49.3301" lon="1.06312">
        <ele>14.56</ele>
        <time>2015-07-17T15:05:23Z</time>
      </trkpt>
      <trkpt lat="49.33016" lon="1.06327">
        <ele>14.56</ele>
        <time>2015-07-17T15:05:25Z</time>
      </trkpt>
      <trkpt lat="49.33034" lon="1.0638">
        <ele>15.04</ele>
        <time>2015-07-17T15:05:32Z</time>
      </trkpt>
      <trkpt lat="49.33039" lon="1.06393">
        <ele>15.04</ele>
        <time>2015-07-17T15:05:34Z</time>
      </trkpt>
      <trkpt lat="49.33041" lon="1.064">
        <ele>15.04</ele>
        <time>2015-07-17T15:05:35Z</time>
      </trkpt>
      <trkpt lat="49.33044" lon="1.06409">
        <ele>15.04</ele>
        <time>2015-07-17T15:05:37Z</time>
      </trkpt>
      <trkpt lat="49.33046" lon="1.06413">
        <ele>15.04</ele>
        <time>2015-07-17T15:05:38Z</time>
      </trkpt>
      <trkpt lat="49.33065" lon="1.06465">
        <ele>15.04</ele>
        <time>2015-07-17T15:05:48Z</time>
      </trkpt>
      <trkpt lat="49.33072" lon="1.06485">
        <ele>15.04</ele>
        <time>2015-07-17T15:05:51Z</time>
      </trkpt>
      <trkpt lat="49.33087" lon="1.06516">
        <ele>15.04</ele>
        <time>2015-07-17T15:05:55Z</time>
      </trkpt>
      <trkpt lat="49.33106" lon="1.06568">
        <ele>15.52</ele>
        <time>2015-07-17T15:06:03Z</time>
      </trkpt>
      <trkpt lat="49.3311" lon="1.0658">
        <ele>15.52</ele>
        <time>2015-07-17T15:06:05Z</time>
      </trkpt>
      <trkpt lat="49.33114" lon="1.06593">
        <ele>15.04</ele>
        <time>2015-07-17T15:06:07Z</time>
      </trkpt>
      <trkpt lat="49.33116" lon="1.06599">
        <ele>14.56</ele>
        <time>2015-07-17T15:06:08Z</time>
      </trkpt>
      <trkpt lat="49.33119" lon="1.06607">
        <ele>15.04</ele>
        <time>2015-07-17T15:06:09Z</time>
      </trkpt>
      <trkpt lat="49.33143" lon="1.06676">
        <ele>14.56</ele>
        <time>2015-07-17T15:06:18Z</time>
      </trkpt>
      <trkpt lat="49.33157" lon="1.0671">
        <ele>14.56</ele>
        <time>2015-07-17T15:06:23Z</time>
      </trkpt>
      <trkpt lat="49.3319" lon="1.06795">
        <ele>14.56</ele>
        <time>2015-07-17T15:06:35Z</time>
      </trkpt>
      <trkpt lat="49.33192" lon="1.06802">
        <ele>15.04</ele>
        <time>2015-07-17T15:06:36Z</time>
      </trkpt>
      <trkpt lat="49.33193" lon="1.06809">
        <ele>14.56</ele>
        <time>2015-07-17T15:06:37Z</time>
      </trkpt>
      <trkpt lat="49.33194" lon="1.06817">
        <ele>15.04</ele>
        <time>2015-07-17T15:06:38Z</time>
      </trkpt>
      <trkpt lat="49.33196" lon="1.06824">
        <ele>15.04</ele>
        <time>2015-07-17T15:06:39Z</time>
      </trkpt>
      <trkpt lat="49.33199" lon="1.06831">
        <ele>14.56</ele>
        <time>2015-07-17T15:06:40Z</time>
      </trkpt>
      <trkpt lat="49.33204" lon="1.06846">
        <ele>14.56</ele>
        <time>2015-07-17T15:06:42Z</time>
      </trkpt>
      <trkpt lat="49.33207" lon="1.06855">
        <ele>14.56</ele>
        <time>2015-07-17T15:06:43Z</time>
      </trkpt>
      <trkpt lat="49.3321" lon="1.06866">
        <ele>14.56</ele>
        <time>2015-07-17T15:06:44Z</time>
      </trkpt>
      <trkpt lat="49.33213" lon="1.06883">
        <ele>14.56</ele>
        <time>2015-07-17T15:06:46Z</time>
      </trkpt>
      <trkpt lat="49.33217" lon="1.06899">
        <ele>14.56</ele>
        <time>2015-07-17T15:06:48Z</time>
      </trkpt>
      <trkpt lat="49.33233" lon="1.06958">
        <ele>14.56</ele>
        <time>2015-07-17T15:06:56Z</time>
      </trkpt>
      <trkpt lat="49.33234" lon="1.06967">
        <ele>14.56</ele>
        <time>2015-07-17T15:06:57Z</time>
      </trkpt>
      <trkpt lat="49.33267" lon="1.07088">
        <ele>15.04</ele>
        <time>2015-07-17T15:07:11Z</time>
      </trkpt>
      <trkpt lat="49.33281" lon="1.07138">
        <ele>14.56</ele>
        <time>2015-07-17T15:07:17Z</time>
      </trkpt>
      <trkpt lat="49.33305" lon="1.07262">
        <ele>14.56</ele>
        <time>2015-07-17T15:07:31Z</time>
      </trkpt>
      <trkpt lat="49.3333" lon="1.07396">
        <ele>14.56</ele>
        <time>2015-07-17T15:07:46Z</time>
      </trkpt>
      <trkpt lat="49.33354" lon="1.07527">
        <ele>14.08</ele>
        <time>2015-07-17T15:08:00Z</time>
      </trkpt>
      <trkpt lat="49.33361" lon="1.07566">
        <ele>13.6</ele>
        <time>2015-07-17T15:08:04Z</time>
      </trkpt>
      <trkpt lat="49.33374" lon="1.07631">
        <ele>14.08</ele>
        <time>2015-07-17T15:08:11Z</time>
      </trkpt>
      <trkpt lat="49.33375" lon="1.0764">
        <ele>14.08</ele>
        <time>2015-07-17T15:08:12Z</time>
      </trkpt>
      <trkpt lat="49.33375" lon="1.0765">
        <ele>13.6</ele>
        <time>2015-07-17T15:08:13Z</time>
      </trkpt>
      <trkpt lat="49.33376" lon="1.07659">
        <ele>13.6</ele>
        <time>2015-07-17T15:08:14Z</time>
      </trkpt>
      <trkpt lat="49.33378" lon="1.07668">
        <ele>13.6</ele>
        <time>2015-07-17T15:08:15Z</time>
      </trkpt>
      <trkpt lat="49.33385" lon="1.07703">
        <ele>13.6</ele>
        <time>2015-07-17T15:08:19Z</time>
      </trkpt>
      <trkpt lat="49.33393" lon="1.07736">
        <ele>13.12</ele>
        <time>2015-07-17T15:08:23Z</time>
      </trkpt>
      <trkpt lat="49.33398" lon="1.07757">
        <ele>13.6</ele>
        <time>2015-07-17T15:08:26Z</time>
      </trkpt>
      <trkpt lat="49.33398" lon="1.07764">
        <ele>13.6</ele>
        <time>2015-07-17T15:08:27Z</time>
      </trkpt>
      <trkpt lat="49.33397" lon="1.0777">
        <ele>13.6</ele>
        <time>2015-07-17T15:08:28Z</time>
      </trkpt>
      <trkpt lat="49.33404" lon="1.07814">
        <ele>14.08</ele>
        <time>2015-07-17T15:08:35Z</time>
      </trkpt>
      <trkpt lat="49.33406" lon="1.07821">
        <ele>13.6</ele>
        <time>2015-07-17T15:08:36Z</time>
      </trkpt>
      <trkpt lat="49.33407" lon="1.07828">
        <ele>13.6</ele>
        <time>2015-07-17T15:08:37Z</time>
      </trkpt>
      <trkpt lat="49.33413" lon="1.0786">
        <ele>14.08</ele>
        <time>2015-07-17T15:08:42Z</time>
      </trkpt>
      <trkpt lat="49.33419" lon="1.07882">
        <ele>13.6</ele>
        <time>2015-07-17T15:08:45Z</time>
      </trkpt>
      <trkpt lat="49.33425" lon="1.07925">
        <ele>14.56</ele>
        <time>2015-07-17T15:08:51Z</time>
      </trkpt>
      <trkpt lat="49.33425" lon="1.0794">
        <ele>14.56</ele>
        <time>2015-07-17T15:08:53Z</time>
      </trkpt>
      <trkpt lat="49.33442" lon="1.08041">
        <ele>13.6</ele>
        <time>2015-07-17T15:09:06Z</time>
      </trkpt>
      <trkpt lat="49.33444" lon="1.08049">
        <ele>13.6</ele>
        <time>2015-07-17T15:09:07Z</time>
      </trkpt>
      <trkpt lat="49.33445" lon="1.08056">
        <ele>13.6</ele>
        <time>2015-07-17T15:09:08Z</time>
      </trkpt>
      <trkpt lat="49.3345" lon="1.08086">
        <ele>13.12</ele>
        <time>2015-07-17T15:09:12Z</time>
      </trkpt>
      <trkpt lat="49.33451" lon="1.08093">
        <ele>13.6</ele>
        <time>2015-07-17T15:09:13Z</time>
      </trkpt>
      <trkpt lat="49.33459" lon="1.0814">
        <ele>13.6</ele>
        <time>2015-07-17T15:09:19Z</time>
      </trkpt>
      <trkpt lat="49.33462" lon="1.08155">
        <ele>13.6</ele>
        <time>2015-07-17T15:09:21Z</time>
      </trkpt>
      <trkpt lat="49.33481" lon="1.08256">
        <ele>13.6</ele>
        <time>2015-07-17T15:09:33Z</time>
      </trkpt>
      <trkpt lat="49.33493" lon="1.08334">
        <ele>13.6</ele>
        <time>2015-07-17T15:09:42Z</time>
      </trkpt>
      <trkpt lat="49.33495" lon="1.08343">
        <ele>13.6</ele>
        <time>2015-07-17T15:09:43Z</time>
      </trkpt>
      <trkpt lat="49.33517" lon="1.08457">
        <ele>13.6</ele>
        <time>2015-07-17T15:09:57Z</time>
      </trkpt>
      <trkpt lat="49.33529" lon="1.08523">
        <ele>13.6</ele>
        <time>2015-07-17T15:10:05Z</time>
      </trkpt>
      <trkpt lat="49.33531" lon="1.08531">
        <ele>13.6</ele>
        <time>2015-07-17T15:10:06Z</time>
      </trkpt>
      <trkpt lat="49.33535" lon="1.08555">
        <ele>13.6</ele>
        <time>2015-07-17T15:10:09Z</time>
      </trkpt>
      <trkpt lat="49.33536" lon="1.08562">
        <ele>13.6</ele>
        <time>2015-07-17T15:10:10Z</time>
      </trkpt>
      <trkpt lat="49.33537" lon="1.0857">
        <ele>13.6</ele>
        <time>2015-07-17T15:10:11Z</time>
      </trkpt>
      <trkpt lat="49.33541" lon="1.08593">
        <ele>13.6</ele>
        <time>2015-07-17T15:10:14Z</time>
      </trkpt>
      <trkpt lat="49.33545" lon="1.08607">
        <ele>13.6</ele>
        <time>2015-07-17T15:10:16Z</time>
      </trkpt>
      <trkpt lat="49.33546" lon="1.08614">
        <ele>13.6</ele>
        <time>2015-07-17T15:10:17Z</time>
      </trkpt>
      <trkpt lat="49.33548" lon="1.08623">
        <ele>13.6</ele>
        <time>2015-07-17T15:10:18Z</time>
      </trkpt>
      <trkpt lat="49.33551" lon="1.08632">
        <ele>13.6</ele>
        <time>2015-07-17T15:10:19Z</time>
      </trkpt>
      <trkpt lat="49.33554" lon="1.0864">
        <ele>13.6</ele>
        <time>2015-07-17T15:10:20Z</time>
      </trkpt>
      <trkpt lat="49.33581" lon="1.08732">
        <ele>12.63</ele>
        <time>2015-07-17T15:10:31Z</time>
      </trkpt>
      <trkpt lat="49.33601" lon="1.08828">
        <ele>12.63</ele>
        <time>2015-07-17T15:10:42Z</time>
      </trkpt>
      <trkpt lat="49.33603" lon="1.08836">
        <ele>12.63</ele>
        <time>2015-07-17T15:10:43Z</time>
      </trkpt>
      <trkpt lat="49.33605" lon="1.08844">
        <ele>12.63</ele>
        <time>2015-07-17T15:10:44Z</time>
      </trkpt>
      <trkpt lat="49.33632" lon="1.08963">
        <ele>13.12</ele>
        <time>2015-07-17T15:10:59Z</time>
      </trkpt>
      <trkpt lat="49.33644" lon="1.09013">
        <ele>14.08</ele>
        <time>2015-07-17T15:11:10Z</time>
      </trkpt>
      <trkpt lat="49.33646" lon="1.09016">
        <ele>13.6</ele>
        <time>2015-07-17T15:11:12Z</time>
      </trkpt>
      <trkpt lat="49.33648" lon="1.09018">
        <ele>14.08</ele>
        <time>2015-07-17T15:11:13Z</time>
      </trkpt>
      <trkpt lat="49.3365" lon="1.09021">
        <ele>13.6</ele>
        <time>2015-07-17T15:11:14Z</time>
      </trkpt>
      <trkpt lat="49.33662" lon="1.09029">
        <ele>13.6</ele>
        <time>2015-07-17T15:11:17Z</time>
      </trkpt>
      <trkpt lat="49.33664" lon="1.09035">
        <ele>13.12</ele>
        <time>2015-07-17T15:11:18Z</time>
      </trkpt>
      <trkpt lat="49.33666" lon="1.09042">
        <ele>13.12</ele>
        <time>2015-07-17T15:11:19Z</time>
      </trkpt>
      <trkpt lat="49.33667" lon="1.09057">
        <ele>13.12</ele>
        <time>2015-07-17T15:11:21Z</time>
      </trkpt>
      <trkpt lat="49.33669" lon="1.09064">
        <ele>13.12</ele>
        <time>2015-07-17T15:11:22Z</time>
      </trkpt>
      <trkpt lat="49.33672" lon="1.09071">
        <ele>13.12</ele>
        <time>2015-07-17T15:11:23Z</time>
      </trkpt>
      <trkpt lat="49.33676" lon="1.09076">
        <ele>13.6</ele>
        <time>2015-07-17T15:11:24Z</time>
      </trkpt>
      <trkpt lat="49.33679" lon="1.09081">
        <ele>13.12</ele>
        <time>2015-07-17T15:11:25Z</time>
      </trkpt>
      <trkpt lat="49.33684" lon="1.09084">
        <ele>13.12</ele>
        <time>2015-07-17T15:11:26Z</time>
      </trkpt>
      <trkpt lat="49.33688" lon="1.09086">
        <ele>13.12</ele>
        <time>2015-07-17T15:11:27Z</time>
      </trkpt>
      <trkpt lat="49.33692" lon="1.09088">
        <ele>13.12</ele>
        <time>2015-07-17T15:11:28Z</time>
      </trkpt>
      <trkpt lat="49.33696" lon="1.09091">
        <ele>13.12</ele>
        <time>2015-07-17T15:11:29Z</time>
      </trkpt>
      <trkpt lat="49.33699" lon="1.09095">
        <ele>13.6</ele>
        <time>2015-07-17T15:11:30Z</time>
      </trkpt>
      <trkpt lat="49.33702" lon="1.09099">
        <ele>13.6</ele>
        <time>2015-07-17T15:11:31Z</time>
      </trkpt>
      <trkpt lat="49.33712" lon="1.09112">
        <ele>13.6</ele>
        <time>2015-07-17T15:11:34Z</time>
      </trkpt>
      <trkpt lat="49.33733" lon="1.09149">
        <ele>13.12</ele>
        <time>2015-07-17T15:11:41Z</time>
      </trkpt>
      <trkpt lat="49.33738" lon="1.09161">
        <ele>12.63</ele>
        <time>2015-07-17T15:11:43Z</time>
      </trkpt>
      <trkpt lat="49.3374" lon="1.09167">
        <ele>12.63</ele>
        <time>2015-07-17T15:11:44Z</time>
      </trkpt>
      <trkpt lat="49.33747" lon="1.09184">
        <ele>13.12</ele>
        <time>2015-07-17T15:11:47Z</time>
      </trkpt>
      <trkpt lat="49.33751" lon="1.09189">
        <ele>13.12</ele>
        <time>2015-07-17T15:11:48Z</time>
      </trkpt>
      <trkpt lat="49.33779" lon="1.09227">
        <ele>13.6</ele>
        <time>2015-07-17T15:11:56Z</time>
      </trkpt>
      <trkpt lat="49.33816" lon="1.09297">
        <ele>13.12</ele>
        <time>2015-07-17T15:12:08Z</time>
      </trkpt>
      <trkpt lat="49.33819" lon="1.09302">
        <ele>13.12</ele>
        <time>2015-07-17T15:12:09Z</time>
      </trkpt>
      <trkpt lat="49.33821" lon="1.09308">
        <ele>13.6</ele>
        <time>2015-07-17T15:12:10Z</time>
      </trkpt>
      <trkpt lat="49.33823" lon="1.09313">
        <ele>13.12</ele>
        <time>2015-07-17T15:12:11Z</time>
      </trkpt>
      <trkpt lat="49.33825" lon="1.09319">
        <ele>13.12</ele>
        <time>2015-07-17T15:12:12Z</time>
      </trkpt>
      <trkpt lat="49.33853" lon="1.0943">
        <ele>13.6</ele>
        <time>2015-07-17T15:12:30Z</time>
      </trkpt>
      <trkpt lat="49.33847" lon="1.09468">
        <ele>14.08</ele>
        <time>2015-07-17T15:12:38Z</time>
      </trkpt>
      <trkpt lat="49.33848" lon="1.09471">
        <ele>14.56</ele>
        <time>2015-07-17T15:12:48Z</time>
      </trkpt>
      <trkpt lat="49.33848" lon="1.09472">
        <ele>14.08</ele>
        <time>2015-07-17T15:13:19Z</time>
      </trkpt>
      <trkpt lat="49.33847" lon="1.09475">
        <ele>14.08</ele>
        <time>2015-07-17T15:13:52Z</time>
      </trkpt>
      <trkpt lat="49.33845" lon="1.09476">
        <ele>13.6</ele>
        <time>2015-07-17T15:14:26Z</time>
      </trkpt>
      <trkpt lat="49.33845" lon="1.09476">
        <ele>14.08</ele>
        <time>2015-07-17T15:14:56Z</time>
      </trkpt>
      <trkpt lat="49.33845" lon="1.09477">
        <ele>14.08</ele>
        <time>2015-07-17T15:15:29Z</time>
      </trkpt>
      <trkpt lat="49.33844" lon="1.09477">
        <ele>13.6</ele>
        <time>2015-07-17T15:15:58Z</time>
      </trkpt>
      <trkpt lat="49.33844" lon="1.09477">
        <ele>14.08</ele>
        <time>2015-07-17T15:16:26Z</time>
      </trkpt>
      <trkpt lat="49.33844" lon="1.09477">
        <ele>13.6</ele>
        <time>2015-07-17T15:16:52Z</time>
      </trkpt>
      <trkpt lat="49.33844" lon="1.09479">
        <ele>13.12</ele>
        <time>2015-07-17T15:17:16Z</time>
      </trkpt>
      <trkpt lat="49.33845" lon="1.0948">
        <ele>13.12</ele>
        <time>2015-07-17T15:17:45Z</time>
      </trkpt>
      <trkpt lat="49.33845" lon="1.0948">
        <ele>13.6</ele>
        <time>2015-07-17T15:18:10Z</time>
      </trkpt>
      <trkpt lat="49.33849" lon="1.09494">
        <ele>13.12</ele>
        <time>2015-07-17T15:18:18Z</time>
      </trkpt>
      <trkpt lat="49.3385" lon="1.09499">
        <ele>13.12</ele>
        <time>2015-07-17T15:18:19Z</time>
      </trkpt>
      <trkpt lat="49.3385" lon="1.09504">
        <ele>13.12</ele>
        <time>2015-07-17T15:18:20Z</time>
      </trkpt>
      <trkpt lat="49.33851" lon="1.09509">
        <ele>13.12</ele>
        <time>2015-07-17T15:18:21Z</time>
      </trkpt>
      <trkpt lat="49.33851" lon="1.09514">
        <ele>13.12</ele>
        <time>2015-07-17T15:18:22Z</time>
      </trkpt>
      <trkpt lat="49.33858" lon="1.09604">
        <ele>13.12</ele>
        <time>2015-07-17T15:18:38Z</time>
      </trkpt>
      <trkpt lat="49.33868" lon="1.09673">
        <ele>13.6</ele>
        <time>2015-07-17T15:18:49Z</time>
      </trkpt>
      <trkpt lat="49.33869" lon="1.0968">
        <ele>13.12</ele>
        <time>2015-07-17T15:18:50Z</time>
      </trkpt>
      <trkpt lat="49.33869" lon="1.09687">
        <ele>13.12</ele>
        <time>2015-07-17T15:18:51Z</time>
      </trkpt>
      <trkpt lat="49.3388" lon="1.09774">
        <ele>13.12</ele>
        <time>2015-07-17T15:19:04Z</time>
      </trkpt>
      <trkpt lat="49.33896" lon="1.09887">
        <ele>12.63</ele>
        <time>2015-07-17T15:19:20Z</time>
      </trkpt>
      <trkpt lat="49.33914" lon="1.10011">
        <ele>13.12</ele>
        <time>2015-07-17T15:19:37Z</time>
      </trkpt>
      <trkpt lat="49.3393" lon="1.10111">
        <ele>13.12</ele>
        <time>2015-07-17T15:19:51Z</time>
      </trkpt>
      <trkpt lat="49.33945" lon="1.10171">
        <ele>12.63</ele>
        <time>2015-07-17T15:20:02Z</time>
      </trkpt>
      <trkpt lat="49.33947" lon="1.10171">
        <ele>12.63</ele>
        <time>2015-07-17T15:20:03Z</time>
      </trkpt>
      <trkpt lat="49.33949" lon="1.10169">
        <ele>12.63</ele>
        <time>2015-07-17T15:20:04Z</time>
      </trkpt>
      <trkpt lat="49.33951" lon="1.10166">
        <ele>12.63</ele>
        <time>2015-07-17T15:20:05Z</time>
      </trkpt>
      <trkpt lat="49.33952" lon="1.10163">
        <ele>13.12</ele>
        <time>2015-07-17T15:20:06Z</time>
      </trkpt>
      <trkpt lat="49.33954" lon="1.10162">
        <ele>13.12</ele>
        <time>2015-07-17T15:20:07Z</time>
      </trkpt>
      <trkpt lat="49.33956" lon="1.10161">
        <ele>13.12</ele>
        <time>2015-07-17T15:20:08Z</time>
      </trkpt>
      <trkpt lat="49.33957" lon="1.10163">
        <ele>13.12</ele>
        <time>2015-07-17T15:20:09Z</time>
      </trkpt>
      <trkpt lat="49.33958" lon="1.10167">
        <ele>13.6</ele>
        <time>2015-07-17T15:20:10Z</time>
      </trkpt>
      <trkpt lat="49.33957" lon="1.1017">
        <ele>13.6</ele>
        <time>2015-07-17T15:20:11Z</time>
      </trkpt>
      <trkpt lat="49.33956" lon="1.10172">
        <ele>13.12</ele>
        <time>2015-07-17T15:20:12Z</time>
      </trkpt>
      <trkpt lat="49.33956" lon="1.10176">
        <ele>13.6</ele>
        <time>2015-07-17T15:20:23Z</time>
      </trkpt>
      <trkpt lat="49.33957" lon="1.10173">
        <ele>16.48</ele>
        <time>2015-07-17T15:20:36Z</time>
      </trkpt>
      <trkpt lat="49.33963" lon="1.10176">
        <ele>19.36</ele>
        <time>2015-07-17T15:20:49Z</time>
      </trkpt>
      <trkpt lat="49.33966" lon="1.10181">
        <ele>19.84</ele>
        <time>2015-07-17T15:20:59Z</time>
      </trkpt>
      <trkpt lat="49.33966" lon="1.10181">
        <ele>19.84</ele>
        <time>2015-07-17T15:21:04Z</time>
      </trkpt>
      <trkpt lat="49.33965" lon="1.10181">
        <ele>19.84</ele>
        <time>2015-07-17T15:21:05Z</time>
      </trkpt>
      <trkpt lat="49.33933" lon="1.10187">
        <ele>20.32</ele>
        <time>2015-07-17T15:21:15Z</time>
      </trkpt>
      <trkpt lat="49.33863" lon="1.10196">
        <ele>22.73</ele>
        <time>2015-07-17T15:21:31Z</time>
      </trkpt>
      <trkpt lat="49.33778" lon="1.10207">
        <ele>20.32</ele>
        <time>2015-07-17T15:21:48Z</time>
      </trkpt>
      <trkpt lat="49.33671" lon="1.10215">
        <ele>17.44</ele>
        <time>2015-07-17T15:22:05Z</time>
      </trkpt>
      <trkpt lat="49.33592" lon="1.10185">
        <ele>18.88</ele>
        <time>2015-07-17T15:22:18Z</time>
      </trkpt>
      <trkpt lat="49.33499" lon="1.10121">
        <ele>20.81</ele>
        <time>2015-07-17T15:22:36Z</time>
      </trkpt>
      <trkpt lat="49.33416" lon="1.10064">
        <ele>19.84</ele>
        <time>2015-07-17T15:22:51Z</time>
      </trkpt>
      <trkpt lat="49.33331" lon="1.10025">
        <ele>16.96</ele>
        <time>2015-07-17T15:23:04Z</time>
      </trkpt>
      <trkpt lat="49.33284" lon="1.10032">
        <ele>14.56</ele>
        <time>2015-07-17T15:23:10Z</time>
      </trkpt>
      <trkpt lat="49.33253" lon="1.10043">
        <ele>14.08</ele>
        <time>2015-07-17T15:23:14Z</time>
      </trkpt>
      <trkpt lat="49.33245" lon="1.10045">
        <ele>13.12</ele>
        <time>2015-07-17T15:23:15Z</time>
      </trkpt>
      <trkpt lat="49.33237" lon="1.10044">
        <ele>12.63</ele>
        <time>2015-07-17T15:23:16Z</time>
      </trkpt>
      <trkpt lat="49.3323" lon="1.10042">
        <ele>12.63</ele>
        <time>2015-07-17T15:23:17Z</time>
      </trkpt>
      <trkpt lat="49.33222" lon="1.10039">
        <ele>12.63</ele>
        <time>2015-07-17T15:23:18Z</time>
      </trkpt>
      <trkpt lat="49.33216" lon="1.10035">
        <ele>12.15</ele>
        <time>2015-07-17T15:23:19Z</time>
      </trkpt>
      <trkpt lat="49.3321" lon="1.10029">
        <ele>12.15</ele>
        <time>2015-07-17T15:23:20Z</time>
      </trkpt>
      <trkpt lat="49.33204" lon="1.10023">
        <ele>12.63</ele>
        <time>2015-07-17T15:23:21Z</time>
      </trkpt>
      <trkpt lat="49.33198" lon="1.10018">
        <ele>12.63</ele>
        <time>2015-07-17T15:23:22Z</time>
      </trkpt>
      <trkpt lat="49.33191" lon="1.10015">
        <ele>12.63</ele>
        <time>2015-07-17T15:23:23Z</time>
      </trkpt>
      <trkpt lat="49.33184" lon="1.10016">
        <ele>12.15</ele>
        <time>2015-07-17T15:23:24Z</time>
      </trkpt>
      <trkpt lat="49.33178" lon="1.10021">
        <ele>12.15</ele>
        <time>2015-07-17T15:23:25Z</time>
      </trkpt>
      <trkpt lat="49.33173" lon="1.10028">
        <ele>12.15</ele>
        <time>2015-07-17T15:23:26Z</time>
      </trkpt>
      <trkpt lat="49.33169" lon="1.10037">
        <ele>12.63</ele>
        <time>2015-07-17T15:23:27Z</time>
      </trkpt>
      <trkpt lat="49.33165" lon="1.10046">
        <ele>12.63</ele>
        <time>2015-07-17T15:23:28Z</time>
      </trkpt>
      <trkpt lat="49.3316" lon="1.10053">
        <ele>12.63</ele>
        <time>2015-07-17T15:23:29Z</time>
      </trkpt>
      <trkpt lat="49.33154" lon="1.10058">
        <ele>12.63</ele>
        <time>2015-07-17T15:23:30Z</time>
      </trkpt>
      <trkpt lat="49.33148" lon="1.10063">
        <ele>12.63</ele>
        <time>2015-07-17T15:23:31Z</time>
      </trkpt>
      <trkpt lat="49.33044" lon="1.10126">
        <ele>12.15</ele>
        <time>2015-07-17T15:23:47Z</time>
      </trkpt>
      <trkpt lat="49.32939" lon="1.10167">
        <ele>12.63</ele>
        <time>2015-07-17T15:24:03Z</time>
      </trkpt>
      <trkpt lat="49.32921" lon="1.10173">
        <ele>12.15</ele>
        <time>2015-07-17T15:24:06Z</time>
      </trkpt>
      <trkpt lat="49.32898" lon="1.10167">
        <ele>12.63</ele>
        <time>2015-07-17T15:24:12Z</time>
      </trkpt>
      <trkpt lat="49.32895" lon="1.10162">
        <ele>12.63</ele>
        <time>2015-07-17T15:24:13Z</time>
      </trkpt>
      <trkpt lat="49.32892" lon="1.10156">
        <ele>12.63</ele>
        <time>2015-07-17T15:24:14Z</time>
      </trkpt>
      <trkpt lat="49.32887" lon="1.1015">
        <ele>12.15</ele>
        <time>2015-07-17T15:24:15Z</time>
      </trkpt>
      <trkpt lat="49.32881" lon="1.10147">
        <ele>12.15</ele>
        <time>2015-07-17T15:24:16Z</time>
      </trkpt>
      <trkpt lat="49.32875" lon="1.10148">
        <ele>12.15</ele>
        <time>2015-07-17T15:24:17Z</time>
      </trkpt>
      <trkpt lat="49.32869" lon="1.10151">
        <ele>12.63</ele>
        <time>2015-07-17T15:24:18Z</time>
      </trkpt>
      <trkpt lat="49.32864" lon="1.10157">
        <ele>12.15</ele>
        <time>2015-07-17T15:24:19Z</time>
      </trkpt>
      <trkpt lat="49.32861" lon="1.10165">
        <ele>12.63</ele>
        <time>2015-07-17T15:24:20Z</time>
      </trkpt>
      <trkpt lat="49.32859" lon="1.10174">
        <ele>12.63</ele>
        <time>2015-07-17T15:24:21Z</time>
      </trkpt>
      <trkpt lat="49.3286" lon="1.10184">
        <ele>12.63</ele>
        <time>2015-07-17T15:24:22Z</time>
      </trkpt>
      <trkpt lat="49.32861" lon="1.10194">
        <ele>12.63</ele>
        <time>2015-07-17T15:24:23Z</time>
      </trkpt>
      <trkpt lat="49.32864" lon="1.10203">
        <ele>12.15</ele>
        <time>2015-07-17T15:24:24Z</time>
      </trkpt>
      <trkpt lat="49.32866" lon="1.10214">
        <ele>12.15</ele>
        <time>2015-07-17T15:24:25Z</time>
      </trkpt>
      <trkpt lat="49.32866" lon="1.10225">
        <ele>11.67</ele>
        <time>2015-07-17T15:24:26Z</time>
      </trkpt>
      <trkpt lat="49.32865" lon="1.10236">
        <ele>11.67</ele>
        <time>2015-07-17T15:24:27Z</time>
      </trkpt>
      <trkpt lat="49.32863" lon="1.10247">
        <ele>11.19</ele>
        <time>2015-07-17T15:24:28Z</time>
      </trkpt>
      <trkpt lat="49.32854" lon="1.10315">
        <ele>10.71</ele>
        <time>2015-07-17T15:24:34Z</time>
      </trkpt>
      <trkpt lat="49.32854" lon="1.10325">
        <ele>11.67</ele>
        <time>2015-07-17T15:24:35Z</time>
      </trkpt>
      <trkpt lat="49.32854" lon="1.10334">
        <ele>11.67</ele>
        <time>2015-07-17T15:24:36Z</time>
      </trkpt>
      <trkpt lat="49.32853" lon="1.10343">
        <ele>11.67</ele>
        <time>2015-07-17T15:24:37Z</time>
      </trkpt>
      <trkpt lat="49.32852" lon="1.10351">
        <ele>11.67</ele>
        <time>2015-07-17T15:24:38Z</time>
      </trkpt>
      <trkpt lat="49.32851" lon="1.10358">
        <ele>11.67</ele>
        <time>2015-07-17T15:24:39Z</time>
      </trkpt>
      <trkpt lat="49.3285" lon="1.10366">
        <ele>11.67</ele>
        <time>2015-07-17T15:24:40Z</time>
      </trkpt>
      <trkpt lat="49.32849" lon="1.10373">
        <ele>11.67</ele>
        <time>2015-07-17T15:24:41Z</time>
      </trkpt>
      <trkpt lat="49.32847" lon="1.1038">
        <ele>11.67</ele>
        <time>2015-07-17T15:24:42Z</time>
      </trkpt>
      <trkpt lat="49.32844" lon="1.10386">
        <ele>11.67</ele>
        <time>2015-07-17T15:24:43Z</time>
      </trkpt>
      <trkpt lat="49.3284" lon="1.10392">
        <ele>11.67</ele>
        <time>2015-07-17T15:24:44Z</time>
      </trkpt>
      <trkpt lat="49.32837" lon="1.10398">
        <ele>11.67</ele>
        <time>2015-07-17T15:24:45Z</time>
      </trkpt>
      <trkpt lat="49.32833" lon="1.10404">
        <ele>11.67</ele>
        <time>2015-07-17T15:24:46Z</time>
      </trkpt>
      <trkpt lat="49.32823" lon="1.10423">
        <ele>12.15</ele>
        <time>2015-07-17T15:24:49Z</time>
      </trkpt>
      <trkpt lat="49.32819" lon="1.10428">
        <ele>12.15</ele>
        <time>2015-07-17T15:24:50Z</time>
      </trkpt>
      <trkpt lat="49.32816" lon="1.10434">
        <ele>12.63</ele>
        <time>2015-07-17T15:24:51Z</time>
      </trkpt>
      <trkpt lat="49.32779" lon="1.10505">
        <ele>15.52</ele>
        <time>2015-07-17T15:25:04Z</time>
      </trkpt>
      <trkpt lat="49.32772" lon="1.10524">
        <ele>16.96</ele>
        <time>2015-07-17T15:25:09Z</time>
      </trkpt>
      <trkpt lat="49.3277" lon="1.10526">
        <ele>16.96</ele>
        <time>2015-07-17T15:25:10Z</time>
      </trkpt>
      <trkpt lat="49.32768" lon="1.10529">
        <ele>17.44</ele>
        <time>2015-07-17T15:25:11Z</time>
      </trkpt>
      <trkpt lat="49.32767" lon="1.10532">
        <ele>17.92</ele>
        <time>2015-07-17T15:25:12Z</time>
      </trkpt>
      <trkpt lat="49.32767" lon="1.10536">
        <ele>17.92</ele>
        <time>2015-07-17T15:25:13Z</time>
      </trkpt>
      <trkpt lat="49.32766" lon="1.1054">
        <ele>17.92</ele>
        <time>2015-07-17T15:25:14Z</time>
      </trkpt>
      <trkpt lat="49.32765" lon="1.10544">
        <ele>18.4</ele>
        <time>2015-07-17T15:25:15Z</time>
      </trkpt>
      <trkpt lat="49.32764" lon="1.10548">
        <ele>18.4</ele>
        <time>2015-07-17T15:25:16Z</time>
      </trkpt>
      <trkpt lat="49.32762" lon="1.10552">
        <ele>18.88</ele>
        <time>2015-07-17T15:25:17Z</time>
      </trkpt>
      <trkpt lat="49.32748" lon="1.10594">
        <ele>21.77</ele>
        <time>2015-07-17T15:25:28Z</time>
      </trkpt>
      <trkpt lat="49.3274" lon="1.10632">
        <ele>25.13</ele>
        <time>2015-07-17T15:25:39Z</time>
      </trkpt>
      <trkpt lat="49.32727" lon="1.10674">
        <ele>28.02</ele>
        <time>2015-07-17T15:25:52Z</time>
      </trkpt>
      <trkpt lat="49.32712" lon="1.10712">
        <ele>31.38</ele>
        <time>2015-07-17T15:26:04Z</time>
      </trkpt>
      <trkpt lat="49.32694" lon="1.10747">
        <ele>34.74</ele>
        <time>2015-07-17T15:26:16Z</time>
      </trkpt>
      <trkpt lat="49.32671" lon="1.10788">
        <ele>37.63</ele>
        <time>2015-07-17T15:26:30Z</time>
      </trkpt>
      <trkpt lat="49.32638" lon="1.10842">
        <ele>40.51</ele>
        <time>2015-07-17T15:26:47Z</time>
      </trkpt>
      <trkpt lat="49.32608" lon="1.10892">
        <ele>43.88</ele>
        <time>2015-07-17T15:27:02Z</time>
      </trkpt>
      <trkpt lat="49.32585" lon="1.1094">
        <ele>47.24</ele>
        <time>2015-07-17T15:27:15Z</time>
      </trkpt>
      <trkpt lat="49.32562" lon="1.11004">
        <ele>50.13</ele>
        <time>2015-07-17T15:27:30Z</time>
      </trkpt>
      <trkpt lat="49.32542" lon="1.11056">
        <ele>53.01</ele>
        <time>2015-07-17T15:27:42Z</time>
      </trkpt>
      <trkpt lat="49.3252" lon="1.11112">
        <ele>56.37</ele>
        <time>2015-07-17T15:27:55Z</time>
      </trkpt>
      <trkpt lat="49.32501" lon="1.11159">
        <ele>59.26</ele>
        <time>2015-07-17T15:28:06Z</time>
      </trkpt>
      <trkpt lat="49.32481" lon="1.11217">
        <ele>62.14</ele>
        <time>2015-07-17T15:28:19Z</time>
      </trkpt>
      <trkpt lat="49.32459" lon="1.11272">
        <ele>65.51</ele>
        <time>2015-07-17T15:28:33Z</time>
      </trkpt>
      <trkpt lat="49.32441" lon="1.11334">
        <ele>68.39</ele>
        <time>2015-07-17T15:28:47Z</time>
      </trkpt>
      <trkpt lat="49.32423" lon="1.11384">
        <ele>70.79</ele>
        <time>2015-07-17T15:29:00Z</time>
      </trkpt>
      <trkpt lat="49.32404" lon="1.11436">
        <ele>73.68</ele>
        <time>2015-07-17T15:29:13Z</time>
      </trkpt>
      <trkpt lat="49.32405" lon="1.115">
        <ele>75.6</ele>
        <time>2015-07-17T15:29:26Z</time>
      </trkpt>
      <trkpt lat="49.3242" lon="1.11575">
        <ele>78.48</ele>
        <time>2015-07-17T15:29:41Z</time>
      </trkpt>
      <trkpt lat="49.32435" lon="1.11658">
        <ele>79.93</ele>
        <time>2015-07-17T15:29:55Z</time>
      </trkpt>
      <trkpt lat="49.32436" lon="1.11664">
        <ele>79.93</ele>
        <time>2015-07-17T15:29:56Z</time>
      </trkpt>
      <trkpt lat="49.3246" lon="1.11788">
        <ele>81.85</ele>
        <time>2015-07-17T15:30:15Z</time>
      </trkpt>
      <trkpt lat="49.32461" lon="1.11795">
        <ele>82.33</ele>
        <time>2015-07-17T15:30:16Z</time>
      </trkpt>
      <trkpt lat="49.32463" lon="1.11802">
        <ele>82.33</ele>
        <time>2015-07-17T15:30:17Z</time>
      </trkpt>
      <trkpt lat="49.32469" lon="1.1183">
        <ele>82.33</ele>
        <time>2015-07-17T15:30:21Z</time>
      </trkpt>
      <trkpt lat="49.32471" lon="1.11838">
        <ele>82.81</ele>
        <time>2015-07-17T15:30:22Z</time>
      </trkpt>
      <trkpt lat="49.32472" lon="1.11845">
        <ele>82.81</ele>
        <time>2015-07-17T15:30:23Z</time>
      </trkpt>
      <trkpt lat="49.32474" lon="1.11853">
        <ele>82.81</ele>
        <time>2015-07-17T15:30:24Z</time>
      </trkpt>
      <trkpt lat="49.32475" lon="1.1186">
        <ele>82.81</ele>
        <time>2015-07-17T15:30:25Z</time>
      </trkpt>
      <trkpt lat="49.32478" lon="1.11874">
        <ele>83.29</ele>
        <time>2015-07-17T15:30:27Z</time>
      </trkpt>
      <trkpt lat="49.32482" lon="1.11887">
        <ele>82.81</ele>
        <time>2015-07-17T15:30:29Z</time>
      </trkpt>
      <trkpt lat="49.32483" lon="1.11894">
        <ele>83.29</ele>
        <time>2015-07-17T15:30:30Z</time>
      </trkpt>
      <trkpt lat="49.3249" lon="1.11936">
        <ele>83.29</ele>
        <time>2015-07-17T15:30:36Z</time>
      </trkpt>
      <trkpt lat="49.3249" lon="1.11943">
        <ele>83.29</ele>
        <time>2015-07-17T15:30:37Z</time>
      </trkpt>
      <trkpt lat="49.32489" lon="1.1195">
        <ele>83.29</ele>
        <time>2015-07-17T15:30:38Z</time>
      </trkpt>
      <trkpt lat="49.32489" lon="1.1197">
        <ele>83.77</ele>
        <time>2015-07-17T15:30:41Z</time>
      </trkpt>
      <trkpt lat="49.32488" lon="1.11977">
        <ele>83.77</ele>
        <time>2015-07-17T15:30:42Z</time>
      </trkpt>
      <trkpt lat="49.32474" lon="1.12058">
        <ele>84.25</ele>
        <time>2015-07-17T15:30:53Z</time>
      </trkpt>
      <trkpt lat="49.32473" lon="1.12065">
        <ele>84.73</ele>
        <time>2015-07-17T15:30:54Z</time>
      </trkpt>
      <trkpt lat="49.32464" lon="1.12135">
        <ele>85.21</ele>
        <time>2015-07-17T15:31:04Z</time>
      </trkpt>
      <trkpt lat="49.32463" lon="1.12148">
        <ele>85.21</ele>
        <time>2015-07-17T15:31:06Z</time>
      </trkpt>
      <trkpt lat="49.32463" lon="1.12155">
        <ele>85.69</ele>
        <time>2015-07-17T15:31:07Z</time>
      </trkpt>
      <trkpt lat="49.3246" lon="1.12184">
        <ele>85.21</ele>
        <time>2015-07-17T15:31:11Z</time>
      </trkpt>
      <trkpt lat="49.32459" lon="1.12191">
        <ele>85.21</ele>
        <time>2015-07-17T15:31:12Z</time>
      </trkpt>
      <trkpt lat="49.32457" lon="1.12213">
        <ele>85.69</ele>
        <time>2015-07-17T15:31:15Z</time>
      </trkpt>
      <trkpt lat="49.3245" lon="1.12247">
        <ele>85.21</ele>
        <time>2015-07-17T15:31:20Z</time>
      </trkpt>
      <trkpt lat="49.3245" lon="1.12255">
        <ele>84.73</ele>
        <time>2015-07-17T15:31:21Z</time>
      </trkpt>
      <trkpt lat="49.32449" lon="1.12262">
        <ele>84.73</ele>
        <time>2015-07-17T15:31:22Z</time>
      </trkpt>
      <trkpt lat="49.32448" lon="1.1227">
        <ele>84.73</ele>
        <time>2015-07-17T15:31:23Z</time>
      </trkpt>
      <trkpt lat="49.32448" lon="1.12278">
        <ele>85.21</ele>
        <time>2015-07-17T15:31:24Z</time>
      </trkpt>
      <trkpt lat="49.32444" lon="1.12335">
        <ele>84.73</ele>
        <time>2015-07-17T15:31:31Z</time>
      </trkpt>
      <trkpt lat="49.32442" lon="1.12342">
        <ele>85.21</ele>
        <time>2015-07-17T15:31:32Z</time>
      </trkpt>
      <trkpt lat="49.32438" lon="1.12357">
        <ele>84.73</ele>
        <time>2015-07-17T15:31:34Z</time>
      </trkpt>
      <trkpt lat="49.32435" lon="1.12364">
        <ele>84.73</ele>
        <time>2015-07-17T15:31:35Z</time>
      </trkpt>
      <trkpt lat="49.32432" lon="1.12371">
        <ele>85.21</ele>
        <time>2015-07-17T15:31:36Z</time>
      </trkpt>
      <trkpt lat="49.32371" lon="1.12441">
        <ele>85.69</ele>
        <time>2015-07-17T15:31:50Z</time>
      </trkpt>
      <trkpt lat="49.32347" lon="1.12466">
        <ele>85.69</ele>
        <time>2015-07-17T15:31:55Z</time>
      </trkpt>
      <trkpt lat="49.32319" lon="1.12498">
        <ele>85.21</ele>
        <time>2015-07-17T15:32:01Z</time>
      </trkpt>
      <trkpt lat="49.32314" lon="1.12504">
        <ele>85.21</ele>
        <time>2015-07-17T15:32:02Z</time>
      </trkpt>
      <trkpt lat="49.32309" lon="1.12509">
        <ele>84.73</ele>
        <time>2015-07-17T15:32:03Z</time>
      </trkpt>
      <trkpt lat="49.32304" lon="1.12514">
        <ele>84.25</ele>
        <time>2015-07-17T15:32:04Z</time>
      </trkpt>
      <trkpt lat="49.32298" lon="1.12519">
        <ele>84.73</ele>
        <time>2015-07-17T15:32:05Z</time>
      </trkpt>
      <trkpt lat="49.32288" lon="1.12529">
        <ele>83.77</ele>
        <time>2015-07-17T15:32:07Z</time>
      </trkpt>
      <trkpt lat="49.32285" lon="1.12534">
        <ele>83.77</ele>
        <time>2015-07-17T15:32:08Z</time>
      </trkpt>
      <trkpt lat="49.32282" lon="1.12538">
        <ele>83.29</ele>
        <time>2015-07-17T15:32:09Z</time>
      </trkpt>
      <trkpt lat="49.32281" lon="1.1254">
        <ele>83.29</ele>
        <time>2015-07-17T15:32:10Z</time>
      </trkpt>
      <trkpt lat="49.32277" lon="1.12546">
        <ele>82.81</ele>
        <time>2015-07-17T15:32:14Z</time>
      </trkpt>
      <trkpt lat="49.32277" lon="1.12549">
        <ele>82.81</ele>
        <time>2015-07-17T15:32:15Z</time>
      </trkpt>
      <trkpt lat="49.32278" lon="1.12553">
        <ele>82.81</ele>
        <time>2015-07-17T15:32:16Z</time>
      </trkpt>
      <trkpt lat="49.3228" lon="1.12557">
        <ele>82.81</ele>
        <time>2015-07-17T15:32:17Z</time>
      </trkpt>
      <trkpt lat="49.32282" lon="1.12561">
        <ele>82.81</ele>
        <time>2015-07-17T15:32:18Z</time>
      </trkpt>
      <trkpt lat="49.32284" lon="1.12565">
        <ele>82.81</ele>
        <time>2015-07-17T15:32:19Z</time>
      </trkpt>
      <trkpt lat="49.32285" lon="1.1257">
        <ele>83.29</ele>
        <time>2015-07-17T15:32:20Z</time>
      </trkpt>
      <trkpt lat="49.32287" lon="1.12575">
        <ele>83.29</ele>
        <time>2015-07-17T15:32:21Z</time>
      </trkpt>
      <trkpt lat="49.3229" lon="1.12587">
        <ele>83.77</ele>
        <time>2015-07-17T15:32:23Z</time>
      </trkpt>
      <trkpt lat="49.32297" lon="1.12611">
        <ele>84.25</ele>
        <time>2015-07-17T15:32:27Z</time>
      </trkpt>
      <trkpt lat="49.32299" lon="1.12617">
        <ele>84.73</ele>
        <time>2015-07-17T15:32:28Z</time>
      </trkpt>
      <trkpt lat="49.32301" lon="1.12623">
        <ele>85.21</ele>
        <time>2015-07-17T15:32:29Z</time>
      </trkpt>
      <trkpt lat="49.32303" lon="1.12629">
        <ele>85.69</ele>
        <time>2015-07-17T15:32:30Z</time>
      </trkpt>
      <trkpt lat="49.32305" lon="1.12634">
        <ele>85.69</ele>
        <time>2015-07-17T15:32:31Z</time>
      </trkpt>
      <trkpt lat="49.32317" lon="1.12662">
        <ele>86.18</ele>
        <time>2015-07-17T15:32:36Z</time>
      </trkpt>
      <trkpt lat="49.32322" lon="1.12673">
        <ele>86.18</ele>
        <time>2015-07-17T15:32:38Z</time>
      </trkpt>
      <trkpt lat="49.32324" lon="1.1268">
        <ele>86.66</ele>
        <time>2015-07-17T15:32:39Z</time>
      </trkpt>
      <trkpt lat="49.32325" lon="1.12686">
        <ele>86.66</ele>
        <time>2015-07-17T15:32:40Z</time>
      </trkpt>
      <trkpt lat="49.32343" lon="1.12785">
        <ele>88.1</ele>
        <time>2015-07-17T15:32:53Z</time>
      </trkpt>
      <trkpt lat="49.32358" lon="1.12863">
        <ele>88.58</ele>
        <time>2015-07-17T15:33:04Z</time>
      </trkpt>
      <trkpt lat="49.3236" lon="1.1287">
        <ele>88.58</ele>
        <time>2015-07-17T15:33:05Z</time>
      </trkpt>
      <trkpt lat="49.32383" lon="1.12964">
        <ele>88.58</ele>
        <time>2015-07-17T15:33:17Z</time>
      </trkpt>
      <trkpt lat="49.3241" lon="1.13079">
        <ele>89.06</ele>
        <time>2015-07-17T15:33:31Z</time>
      </trkpt>
      <trkpt lat="49.32427" lon="1.13151">
        <ele>89.06</ele>
        <time>2015-07-17T15:33:40Z</time>
      </trkpt>
      <trkpt lat="49.3243" lon="1.13159">
        <ele>89.54</ele>
        <time>2015-07-17T15:33:41Z</time>
      </trkpt>
      <trkpt lat="49.32439" lon="1.13199">
        <ele>89.54</ele>
        <time>2015-07-17T15:33:46Z</time>
      </trkpt>
      <trkpt lat="49.3244" lon="1.13207">
        <ele>89.54</ele>
        <time>2015-07-17T15:33:47Z</time>
      </trkpt>
      <trkpt lat="49.32441" lon="1.13216">
        <ele>89.54</ele>
        <time>2015-07-17T15:33:48Z</time>
      </trkpt>
      <trkpt lat="49.32442" lon="1.13224">
        <ele>89.54</ele>
        <time>2015-07-17T15:33:49Z</time>
      </trkpt>
      <trkpt lat="49.32443" lon="1.13232">
        <ele>89.54</ele>
        <time>2015-07-17T15:33:50Z</time>
      </trkpt>
      <trkpt lat="49.32445" lon="1.1324">
        <ele>89.54</ele>
        <time>2015-07-17T15:33:51Z</time>
      </trkpt>
      <trkpt lat="49.32471" lon="1.13365">
        <ele>90.5</ele>
        <time>2015-07-17T15:34:07Z</time>
      </trkpt>
      <trkpt lat="49.325" lon="1.13515">
        <ele>90.02</ele>
        <time>2015-07-17T15:34:26Z</time>
      </trkpt>
      <trkpt lat="49.32504" lon="1.13531">
        <ele>89.54</ele>
        <time>2015-07-17T15:34:28Z</time>
      </trkpt>
      <trkpt lat="49.32538" lon="1.13631">
        <ele>89.06</ele>
        <time>2015-07-17T15:34:42Z</time>
      </trkpt>
      <trkpt lat="49.32548" lon="1.1366">
        <ele>89.06</ele>
        <time>2015-07-17T15:34:46Z</time>
      </trkpt>
      <trkpt lat="49.3257" lon="1.13692">
        <ele>88.58</ele>
        <time>2015-07-17T15:34:55Z</time>
      </trkpt>
      <trkpt lat="49.32582" lon="1.13698">
        <ele>88.1</ele>
        <time>2015-07-17T15:34:58Z</time>
      </trkpt>
      <trkpt lat="49.32591" lon="1.13703">
        <ele>88.1</ele>
        <time>2015-07-17T15:35:00Z</time>
      </trkpt>
      <trkpt lat="49.32595" lon="1.13706">
        <ele>88.1</ele>
        <time>2015-07-17T15:35:01Z</time>
      </trkpt>
      <trkpt lat="49.32599" lon="1.13711">
        <ele>88.1</ele>
        <time>2015-07-17T15:35:02Z</time>
      </trkpt>
      <trkpt lat="49.32651" lon="1.13769">
        <ele>87.14</ele>
        <time>2015-07-17T15:35:15Z</time>
      </trkpt>
      <trkpt lat="49.32656" lon="1.13774">
        <ele>87.62</ele>
        <time>2015-07-17T15:35:16Z</time>
      </trkpt>
      <trkpt lat="49.3266" lon="1.13778">
        <ele>87.14</ele>
        <time>2015-07-17T15:35:17Z</time>
      </trkpt>
      <trkpt lat="49.32702" lon="1.1383">
        <ele>86.18</ele>
        <time>2015-07-17T15:35:28Z</time>
      </trkpt>
      <trkpt lat="49.32719" lon="1.1385">
        <ele>86.18</ele>
        <time>2015-07-17T15:35:32Z</time>
      </trkpt>
      <trkpt lat="49.32724" lon="1.13854">
        <ele>86.18</ele>
        <time>2015-07-17T15:35:33Z</time>
      </trkpt>
      <trkpt lat="49.3273" lon="1.13857">
        <ele>86.18</ele>
        <time>2015-07-17T15:35:34Z</time>
      </trkpt>
      <trkpt lat="49.32735" lon="1.13859">
        <ele>85.69</ele>
        <time>2015-07-17T15:35:35Z</time>
      </trkpt>
      <trkpt lat="49.32741" lon="1.13859">
        <ele>85.69</ele>
        <time>2015-07-17T15:35:36Z</time>
      </trkpt>
      <trkpt lat="49.32786" lon="1.13868">
        <ele>85.69</ele>
        <time>2015-07-17T15:35:45Z</time>
      </trkpt>
      <trkpt lat="49.32796" lon="1.1387">
        <ele>85.69</ele>
        <time>2015-07-17T15:35:47Z</time>
      </trkpt>
      <trkpt lat="49.32806" lon="1.13871">
        <ele>85.69</ele>
        <time>2015-07-17T15:35:49Z</time>
      </trkpt>
      <trkpt lat="49.32835" lon="1.13872">
        <ele>86.18</ele>
        <time>2015-07-17T15:35:55Z</time>
      </trkpt>
      <trkpt lat="49.3284" lon="1.13872">
        <ele>86.18</ele>
        <time>2015-07-17T15:35:56Z</time>
      </trkpt>
      <trkpt lat="49.32897" lon="1.13874">
        <ele>86.66</ele>
        <time>2015-07-17T15:36:07Z</time>
      </trkpt>
      <trkpt lat="49.32902" lon="1.13876">
        <ele>87.14</ele>
        <time>2015-07-17T15:36:08Z</time>
      </trkpt>
      <trkpt lat="49.32906" lon="1.13878">
        <ele>86.66</ele>
        <time>2015-07-17T15:36:09Z</time>
      </trkpt>
      <trkpt lat="49.3291" lon="1.13882">
        <ele>87.14</ele>
        <time>2015-07-17T15:36:10Z</time>
      </trkpt>
      <trkpt lat="49.32914" lon="1.13887">
        <ele>86.66</ele>
        <time>2015-07-17T15:36:11Z</time>
      </trkpt>
      <trkpt lat="49.32918" lon="1.13893">
        <ele>86.66</ele>
        <time>2015-07-17T15:36:12Z</time>
      </trkpt>
      <trkpt lat="49.32921" lon="1.13899">
        <ele>86.66</ele>
        <time>2015-07-17T15:36:13Z</time>
      </trkpt>
      <trkpt lat="49.32928" lon="1.13916">
        <ele>86.66</ele>
        <time>2015-07-17T15:36:16Z</time>
      </trkpt>
      <trkpt lat="49.32957" lon="1.13989">
        <ele>87.14</ele>
        <time>2015-07-17T15:36:27Z</time>
      </trkpt>
      <trkpt lat="49.32982" lon="1.14061">
        <ele>86.66</ele>
        <time>2015-07-17T15:36:37Z</time>
      </trkpt>
      <trkpt lat="49.32985" lon="1.14076">
        <ele>87.14</ele>
        <time>2015-07-17T15:36:39Z</time>
      </trkpt>
      <trkpt lat="49.33" lon="1.14153">
        <ele>86.66</ele>
        <time>2015-07-17T15:36:49Z</time>
      </trkpt>
      <trkpt lat="49.33002" lon="1.14168">
        <ele>86.66</ele>
        <time>2015-07-17T15:36:51Z</time>
      </trkpt>
      <trkpt lat="49.33002" lon="1.14183">
        <ele>86.18</ele>
        <time>2015-07-17T15:36:53Z</time>
      </trkpt>
      <trkpt lat="49.33001" lon="1.14198">
        <ele>86.18</ele>
        <time>2015-07-17T15:36:55Z</time>
      </trkpt>
      <trkpt lat="49.33" lon="1.14205">
        <ele>86.18</ele>
        <time>2015-07-17T15:36:56Z</time>
      </trkpt>
      <trkpt lat="49.32998" lon="1.14221">
        <ele>85.69</ele>
        <time>2015-07-17T15:36:58Z</time>
      </trkpt>
      <trkpt lat="49.32995" lon="1.14236">
        <ele>85.69</ele>
        <time>2015-07-17T15:37:00Z</time>
      </trkpt>
      <trkpt lat="49.32994" lon="1.14243">
        <ele>85.21</ele>
        <time>2015-07-17T15:37:01Z</time>
      </trkpt>
      <trkpt lat="49.32993" lon="1.1425">
        <ele>85.21</ele>
        <time>2015-07-17T15:37:02Z</time>
      </trkpt>
      <trkpt lat="49.32992" lon="1.14257">
        <ele>85.21</ele>
        <time>2015-07-17T15:37:03Z</time>
      </trkpt>
      <trkpt lat="49.32991" lon="1.14264">
        <ele>84.73</ele>
        <time>2015-07-17T15:37:04Z</time>
      </trkpt>
      <trkpt lat="49.32991" lon="1.14271">
        <ele>84.73</ele>
        <time>2015-07-17T15:37:05Z</time>
      </trkpt>
      <trkpt lat="49.32987" lon="1.1435">
        <ele>83.77</ele>
        <time>2015-07-17T15:37:15Z</time>
      </trkpt>
      <trkpt lat="49.32986" lon="1.14357">
        <ele>84.73</ele>
        <time>2015-07-17T15:37:16Z</time>
      </trkpt>
      <trkpt lat="49.32985" lon="1.14365">
        <ele>83.77</ele>
        <time>2015-07-17T15:37:17Z</time>
      </trkpt>
      <trkpt lat="49.32961" lon="1.1446">
        <ele>82.33</ele>
        <time>2015-07-17T15:37:29Z</time>
      </trkpt>
      <trkpt lat="49.32954" lon="1.14486">
        <ele>81.85</ele>
        <time>2015-07-17T15:37:32Z</time>
      </trkpt>
      <trkpt lat="49.32923" lon="1.14578">
        <ele>78.97</ele>
        <time>2015-07-17T15:37:43Z</time>
      </trkpt>
      <trkpt lat="49.3292" lon="1.14584">
        <ele>78.97</ele>
        <time>2015-07-17T15:37:44Z</time>
      </trkpt>
      <trkpt lat="49.32907" lon="1.14612">
        <ele>77.04</ele>
        <time>2015-07-17T15:37:48Z</time>
      </trkpt>
      <trkpt lat="49.32905" lon="1.1462">
        <ele>77.04</ele>
        <time>2015-07-17T15:37:49Z</time>
      </trkpt>
      <trkpt lat="49.32902" lon="1.14627">
        <ele>76.08</ele>
        <time>2015-07-17T15:37:50Z</time>
      </trkpt>
      <trkpt lat="49.32899" lon="1.14634">
        <ele>76.08</ele>
        <time>2015-07-17T15:37:51Z</time>
      </trkpt>
      <trkpt lat="49.32896" lon="1.14641">
        <ele>75.6</ele>
        <time>2015-07-17T15:37:52Z</time>
      </trkpt>
      <trkpt lat="49.32893" lon="1.14648">
        <ele>75.12</ele>
        <time>2015-07-17T15:37:53Z</time>
      </trkpt>
      <trkpt lat="49.32891" lon="1.14656">
        <ele>73.2</ele>
        <time>2015-07-17T15:37:54Z</time>
      </trkpt>
      <trkpt lat="49.32889" lon="1.14665">
        <ele>74.16</ele>
        <time>2015-07-17T15:37:55Z</time>
      </trkpt>
      <trkpt lat="49.32887" lon="1.14673">
        <ele>73.2</ele>
        <time>2015-07-17T15:37:56Z</time>
      </trkpt>
      <trkpt lat="49.32884" lon="1.1468">
        <ele>72.72</ele>
        <time>2015-07-17T15:37:57Z</time>
      </trkpt>
      <trkpt lat="49.32883" lon="1.14688">
        <ele>72.24</ele>
        <time>2015-07-17T15:37:58Z</time>
      </trkpt>
      <trkpt lat="49.32882" lon="1.14697">
        <ele>71.76</ele>
        <time>2015-07-17T15:37:59Z</time>
      </trkpt>
      <trkpt lat="49.32881" lon="1.14708">
        <ele>70.79</ele>
        <time>2015-07-17T15:38:00Z</time>
      </trkpt>
      <trkpt lat="49.32879" lon="1.14718">
        <ele>69.83</ele>
        <time>2015-07-17T15:38:01Z</time>
      </trkpt>
      <trkpt lat="49.32878" lon="1.14728">
        <ele>69.83</ele>
        <time>2015-07-17T15:38:02Z</time>
      </trkpt>
      <trkpt lat="49.32875" lon="1.14785">
        <ele>65.99</ele>
        <time>2015-07-17T15:38:08Z</time>
      </trkpt>
      <trkpt lat="49.32876" lon="1.14819">
        <ele>64.07</ele>
        <time>2015-07-17T15:38:11Z</time>
      </trkpt>
      <trkpt lat="49.32875" lon="1.14831">
        <ele>63.58</ele>
        <time>2015-07-17T15:38:12Z</time>
      </trkpt>
      <trkpt lat="49.32871" lon="1.14855">
        <ele>62.14</ele>
        <time>2015-07-17T15:38:14Z</time>
      </trkpt>
      <trkpt lat="49.32867" lon="1.14868">
        <ele>61.66</ele>
        <time>2015-07-17T15:38:15Z</time>
      </trkpt>
      <trkpt lat="49.32863" lon="1.14879">
        <ele>61.18</ele>
        <time>2015-07-17T15:38:16Z</time>
      </trkpt>
      <trkpt lat="49.32851" lon="1.1492">
        <ele>58.78</ele>
        <time>2015-07-17T15:38:19Z</time>
      </trkpt>
      <trkpt lat="49.32848" lon="1.14934">
        <ele>57.82</ele>
        <time>2015-07-17T15:38:20Z</time>
      </trkpt>
      <trkpt lat="49.3284" lon="1.14963">
        <ele>56.86</ele>
        <time>2015-07-17T15:38:22Z</time>
      </trkpt>
      <trkpt lat="49.32818" lon="1.15036">
        <ele>53.01</ele>
        <time>2015-07-17T15:38:27Z</time>
      </trkpt>
      <trkpt lat="49.328" lon="1.15092">
        <ele>50.13</ele>
        <time>2015-07-17T15:38:31Z</time>
      </trkpt>
      <trkpt lat="49.3278" lon="1.15147">
        <ele>46.76</ele>
        <time>2015-07-17T15:38:35Z</time>
      </trkpt>
      <trkpt lat="49.32776" lon="1.1516">
        <ele>44.84</ele>
        <time>2015-07-17T15:38:36Z</time>
      </trkpt>
      <trkpt lat="49.32771" lon="1.15172">
        <ele>44.36</ele>
        <time>2015-07-17T15:38:37Z</time>
      </trkpt>
      <trkpt lat="49.32767" lon="1.15181">
        <ele>43.88</ele>
        <time>2015-07-17T15:38:38Z</time>
      </trkpt>
      <trkpt lat="49.32764" lon="1.15187">
        <ele>43.88</ele>
        <time>2015-07-17T15:38:39Z</time>
      </trkpt>
      <trkpt lat="49.3276" lon="1.15191">
        <ele>43.4</ele>
        <time>2015-07-17T15:38:40Z</time>
      </trkpt>
      <trkpt lat="49.32756" lon="1.15193">
        <ele>43.4</ele>
        <time>2015-07-17T15:38:41Z</time>
      </trkpt>
      <trkpt lat="49.32753" lon="1.15194">
        <ele>43.4</ele>
        <time>2015-07-17T15:38:42Z</time>
      </trkpt>
      <trkpt lat="49.3275" lon="1.15193">
        <ele>43.4</ele>
        <time>2015-07-17T15:38:43Z</time>
      </trkpt>
      <trkpt lat="49.32747" lon="1.15192">
        <ele>43.4</ele>
        <time>2015-07-17T15:38:44Z</time>
      </trkpt>
      <trkpt lat="49.32743" lon="1.1519">
        <ele>43.4</ele>
        <time>2015-07-17T15:38:45Z</time>
      </trkpt>
      <trkpt lat="49.3274" lon="1.15188">
        <ele>43.4</ele>
        <time>2015-07-17T15:38:46Z</time>
      </trkpt>
      <trkpt lat="49.32708" lon="1.15164">
        <ele>42.92</ele>
        <time>2015-07-17T15:38:56Z</time>
      </trkpt>
      <trkpt lat="49.32699" lon="1.15159">
        <ele>42.44</ele>
        <time>2015-07-17T15:39:05Z</time>
      </trkpt>
      <trkpt lat="49.32697" lon="1.15159">
        <ele>42.44</ele>
        <time>2015-07-17T15:39:25Z</time>
      </trkpt>
      <trkpt lat="49.32701" lon="1.1518">
        <ele>41.95</ele>
        <time>2015-07-17T15:39:31Z</time>
      </trkpt>
      <trkpt lat="49.32702" lon="1.1518">
        <ele>41.95</ele>
        <time>2015-07-17T15:39:32Z</time>
      </trkpt>
      <trkpt lat="49.32703" lon="1.15181">
        <ele>42.44</ele>
        <time>2015-07-17T15:39:33Z</time>
      </trkpt>
      <trkpt lat="49.32705" lon="1.15182">
        <ele>42.44</ele>
        <time>2015-07-17T15:39:34Z</time>
      </trkpt>
      <trkpt lat="49.32706" lon="1.15183">
        <ele>42.44</ele>
        <time>2015-07-17T15:39:35Z</time>
      </trkpt>
      <trkpt lat="49.32707" lon="1.15184">
        <ele>42.44</ele>
        <time>2015-07-17T15:39:36Z</time>
      </trkpt>
      <trkpt lat="49.32709" lon="1.15185">
        <ele>42.44</ele>
        <time>2015-07-17T15:39:37Z</time>
      </trkpt>
      <trkpt lat="49.32711" lon="1.15187">
        <ele>42.44</ele>
        <time>2015-07-17T15:39:38Z</time>
      </trkpt>
      <trkpt lat="49.32729" lon="1.15205">
        <ele>42.92</ele>
        <time>2015-07-17T15:39:50Z</time>
      </trkpt>
      <trkpt lat="49.32727" lon="1.15206">
        <ele>42.92</ele>
        <time>2015-07-17T15:39:54Z</time>
      </trkpt>
      <trkpt lat="49.32726" lon="1.15207">
        <ele>42.92</ele>
        <time>2015-07-17T15:40:03Z</time>
      </trkpt>
      <trkpt lat="49.32723" lon="1.15216">
        <ele>40.51</ele>
        <time>2015-07-17T15:40:17Z</time>
      </trkpt>
      <trkpt lat="49.32721" lon="1.15218">
        <ele>38.59</ele>
        <time>2015-07-17T15:40:26Z</time>
      </trkpt>
      <trkpt lat="49.3272" lon="1.15219">
        <ele>39.07</ele>
        <time>2015-07-17T15:40:47Z</time>
      </trkpt>
      <trkpt lat="49.32719" lon="1.1522">
        <ele>39.07</ele>
        <time>2015-07-17T15:41:13Z</time>
      </trkpt>
      <trkpt lat="49.32724" lon="1.15212">
        <ele>41.47</ele>
        <time>2015-07-17T15:41:28Z</time>
      </trkpt>
      <trkpt lat="49.32725" lon="1.15207">
        <ele>43.88</ele>
        <time>2015-07-17T15:41:33Z</time>
      </trkpt>
      <trkpt lat="49.32725" lon="1.15208">
        <ele>42.92</ele>
        <time>2015-07-17T15:41:45Z</time>
      </trkpt>
      <trkpt lat="49.32725" lon="1.1521">
        <ele>42.92</ele>
        <time>2015-07-17T15:41:50Z</time>
      </trkpt>
      <trkpt lat="49.32724" lon="1.15212">
        <ele>42.44</ele>
        <time>2015-07-17T15:41:51Z</time>
      </trkpt>
      <trkpt lat="49.32722" lon="1.15217">
        <ele>39.07</ele>
        <time>2015-07-17T15:41:55Z</time>
      </trkpt>
      <trkpt lat="49.32721" lon="1.15217">
        <ele>39.07</ele>
        <time>2015-07-17T15:42:16Z</time>
      </trkpt>
      <trkpt lat="49.32721" lon="1.15218">
        <ele>40.51</ele>
        <time>2015-07-17T15:42:36Z</time>
      </trkpt>
      <trkpt lat="49.3272" lon="1.15218">
        <ele>33.3</ele>
        <time>2015-07-17T15:42:44Z</time>
      </trkpt>
      <trkpt lat="49.3272" lon="1.15218">
        <ele>41.47</ele>
        <time>2015-07-17T15:42:45Z</time>
      </trkpt>
      <trkpt lat="49.3272" lon="1.15217">
        <ele>39.07</ele>
        <time>2015-07-17T15:43:05Z</time>
      </trkpt>
      <trkpt lat="49.3272" lon="1.15218">
        <ele>39.07</ele>
        <time>2015-07-17T15:43:28Z</time>
      </trkpt>
      <trkpt lat="49.32719" lon="1.15216">
        <ele>39.07</ele>
        <time>2015-07-17T15:43:29Z</time>
      </trkpt>
      <trkpt lat="49.32717" lon="1.15215">
        <ele>39.07</ele>
        <time>2015-07-17T15:43:30Z</time>
      </trkpt>
      <trkpt lat="49.32715" lon="1.15213">
        <ele>39.07</ele>
        <time>2015-07-17T15:43:31Z</time>
      </trkpt>
      <trkpt lat="49.32712" lon="1.1521">
        <ele>38.59</ele>
        <time>2015-07-17T15:43:32Z</time>
      </trkpt>
      <trkpt lat="49.3271" lon="1.15208">
        <ele>38.59</ele>
        <time>2015-07-17T15:43:33Z</time>
      </trkpt>
      <trkpt lat="49.32707" lon="1.15206">
        <ele>38.59</ele>
        <time>2015-07-17T15:43:34Z</time>
      </trkpt>
      <trkpt lat="49.32704" lon="1.15203">
        <ele>38.59</ele>
        <time>2015-07-17T15:43:35Z</time>
      </trkpt>
      <trkpt lat="49.32701" lon="1.15201">
        <ele>39.07</ele>
        <time>2015-07-17T15:43:36Z</time>
      </trkpt>
      <trkpt lat="49.32697" lon="1.15198">
        <ele>38.59</ele>
        <time>2015-07-17T15:43:37Z</time>
      </trkpt>
      <trkpt lat="49.32692" lon="1.15197">
        <ele>38.11</ele>
        <time>2015-07-17T15:43:38Z</time>
      </trkpt>
      <trkpt lat="49.32687" lon="1.15196">
        <ele>37.63</ele>
        <time>2015-07-17T15:43:39Z</time>
      </trkpt>
      <trkpt lat="49.32648" lon="1.15187">
        <ele>34.74</ele>
        <time>2015-07-17T15:43:46Z</time>
      </trkpt>
      <trkpt lat="49.32641" lon="1.15184">
        <ele>33.78</ele>
        <time>2015-07-17T15:43:47Z</time>
      </trkpt>
      <trkpt lat="49.32635" lon="1.1518">
        <ele>33.3</ele>
        <time>2015-07-17T15:43:48Z</time>
      </trkpt>
      <trkpt lat="49.32565" lon="1.1513">
        <ele>29.94</ele>
        <time>2015-07-17T15:43:59Z</time>
      </trkpt>
      <trkpt lat="49.325" lon="1.15096">
        <ele>29.46</ele>
        <time>2015-07-17T15:44:12Z</time>
      </trkpt>
      <trkpt lat="49.32422" lon="1.15041">
        <ele>28.02</ele>
        <time>2015-07-17T15:44:29Z</time>
      </trkpt>
      <trkpt lat="49.32355" lon="1.14977">
        <ele>28.02</ele>
        <time>2015-07-17T15:44:44Z</time>
      </trkpt>
      <trkpt lat="49.32284" lon="1.14911">
        <ele>27.53</ele>
        <time>2015-07-17T15:45:02Z</time>
      </trkpt>
      <trkpt lat="49.32275" lon="1.1489">
        <ele>27.53</ele>
        <time>2015-07-17T15:45:12Z</time>
      </trkpt>
      <trkpt lat="49.32279" lon="1.14891">
        <ele>27.53</ele>
        <time>2015-07-17T15:45:25Z</time>
      </trkpt>
      <trkpt lat="49.3228" lon="1.14904">
        <ele>28.02</ele>
        <time>2015-07-17T15:45:34Z</time>
      </trkpt>
      <trkpt lat="49.32278" lon="1.14907">
        <ele>28.02</ele>
        <time>2015-07-17T15:45:35Z</time>
      </trkpt>
      <trkpt lat="49.32277" lon="1.14909">
        <ele>28.5</ele>
        <time>2015-07-17T15:45:37Z</time>
      </trkpt>
      <trkpt lat="49.32276" lon="1.14912">
        <ele>28.98</ele>
        <time>2015-07-17T15:45:38Z</time>
      </trkpt>
      <trkpt lat="49.32275" lon="1.14914">
        <ele>29.46</ele>
        <time>2015-07-17T15:45:39Z</time>
      </trkpt>
      <trkpt lat="49.32274" lon="1.14916">
        <ele>29.94</ele>
        <time>2015-07-17T15:45:40Z</time>
      </trkpt>
      <trkpt lat="49.32273" lon="1.14918">
        <ele>30.42</ele>
        <time>2015-07-17T15:45:41Z</time>
      </trkpt>
      <trkpt lat="49.32273" lon="1.14921">
        <ele>30.42</ele>
        <time>2015-07-17T15:45:42Z</time>
      </trkpt>
      <trkpt lat="49.32272" lon="1.14929">
        <ele>31.86</ele>
        <time>2015-07-17T15:45:45Z</time>
      </trkpt>
      <trkpt lat="49.32272" lon="1.14943">
        <ele>33.3</ele>
        <time>2015-07-17T15:45:50Z</time>
      </trkpt>
      <trkpt lat="49.32271" lon="1.14945">
        <ele>33.78</ele>
        <time>2015-07-17T15:45:51Z</time>
      </trkpt>
      <trkpt lat="49.3227" lon="1.14946">
        <ele>34.26</ele>
        <time>2015-07-17T15:45:52Z</time>
      </trkpt>
      <trkpt lat="49.32269" lon="1.14947">
        <ele>34.74</ele>
        <time>2015-07-17T15:45:53Z</time>
      </trkpt>
      <trkpt lat="49.32268" lon="1.14947">
        <ele>34.74</ele>
        <time>2015-07-17T15:45:54Z</time>
      </trkpt>
      <trkpt lat="49.32267" lon="1.14946">
        <ele>34.74</ele>
        <time>2015-07-17T15:45:55Z</time>
      </trkpt>
      <trkpt lat="49.32266" lon="1.14945">
        <ele>35.23</ele>
        <time>2015-07-17T15:45:56Z</time>
      </trkpt>
      <trkpt lat="49.32265" lon="1.14944">
        <ele>35.23</ele>
        <time>2015-07-17T15:45:57Z</time>
      </trkpt>
      <trkpt lat="49.32264" lon="1.14943">
        <ele>35.71</ele>
        <time>2015-07-17T15:45:58Z</time>
      </trkpt>
      <trkpt lat="49.32263" lon="1.14941">
        <ele>35.71</ele>
        <time>2015-07-17T15:45:59Z</time>
      </trkpt>
      <trkpt lat="49.32252" lon="1.14931">
        <ele>39.07</ele>
        <time>2015-07-17T15:46:08Z</time>
      </trkpt>
      <trkpt lat="49.3225" lon="1.1493">
        <ele>39.55</ele>
        <time>2015-07-17T15:46:09Z</time>
      </trkpt>
      <trkpt lat="49.32229" lon="1.14934">
        <ele>42.44</ele>
        <time>2015-07-17T15:46:20Z</time>
      </trkpt>
      <trkpt lat="49.32211" lon="1.14947">
        <ele>45.8</ele>
        <time>2015-07-17T15:46:31Z</time>
      </trkpt>
      <trkpt lat="49.32211" lon="1.14972">
        <ele>48.68</ele>
        <time>2015-07-17T15:46:41Z</time>
      </trkpt>
      <trkpt lat="49.32211" lon="1.14983">
        <ele>49.65</ele>
        <time>2015-07-17T15:46:46Z</time>
      </trkpt>
      <trkpt lat="49.32211" lon="1.14984">
        <ele>50.13</ele>
        <time>2015-07-17T15:46:47Z</time>
      </trkpt>
      <trkpt lat="49.32212" lon="1.14998">
        <ele>50.61</ele>
        <time>2015-07-17T15:46:54Z</time>
      </trkpt>
      <trkpt lat="49.32213" lon="1.15">
        <ele>50.61</ele>
        <time>2015-07-17T15:46:55Z</time>
      </trkpt>
      <trkpt lat="49.32214" lon="1.15002">
        <ele>50.61</ele>
        <time>2015-07-17T15:46:56Z</time>
      </trkpt>
      <trkpt lat="49.32214" lon="1.15004">
        <ele>50.61</ele>
        <time>2015-07-17T15:46:57Z</time>
      </trkpt>
      <trkpt lat="49.32216" lon="1.15006">
        <ele>51.09</ele>
        <time>2015-07-17T15:46:58Z</time>
      </trkpt>
      <trkpt lat="49.32217" lon="1.15008">
        <ele>51.09</ele>
        <time>2015-07-17T15:46:59Z</time>
      </trkpt>
      <trkpt lat="49.32229" lon="1.15034">
        <ele>53.01</ele>
        <time>2015-07-17T15:47:13Z</time>
      </trkpt>
      <trkpt lat="49.32236" lon="1.15061">
        <ele>54.45</ele>
        <time>2015-07-17T15:47:24Z</time>
      </trkpt>
      <trkpt lat="49.32237" lon="1.15064">
        <ele>54.93</ele>
        <time>2015-07-17T15:47:25Z</time>
      </trkpt>
      <trkpt lat="49.32242" lon="1.15088">
        <ele>58.78</ele>
        <time>2015-07-17T15:47:34Z</time>
      </trkpt>
      <trkpt lat="49.32259" lon="1.15121">
        <ele>58.78</ele>
        <time>2015-07-17T15:47:48Z</time>
      </trkpt>
      <trkpt lat="49.32277" lon="1.1517">
        <ele>60.7</ele>
        <time>2015-07-17T15:48:04Z</time>
      </trkpt>
      <trkpt lat="49.32303" lon="1.15236">
        <ele>62.62</ele>
        <time>2015-07-17T15:48:20Z</time>
      </trkpt>
      <trkpt lat="49.32328" lon="1.15307">
        <ele>65.03</ele>
        <time>2015-07-17T15:48:36Z</time>
      </trkpt>
      <trkpt lat="49.32361" lon="1.15388">
        <ele>67.43</ele>
        <time>2015-07-17T15:48:54Z</time>
      </trkpt>
      <trkpt lat="49.32395" lon="1.15473">
        <ele>68.39</ele>
        <time>2015-07-17T15:49:11Z</time>
      </trkpt>
      <trkpt lat="49.32453" lon="1.15563">
        <ele>68.87</ele>
        <time>2015-07-17T15:49:29Z</time>
      </trkpt>
      <trkpt lat="49.32535" lon="1.1564">
        <ele>67.91</ele>
        <time>2015-07-17T15:49:47Z</time>
      </trkpt>
      <trkpt lat="49.32539" lon="1.15646">
        <ele>67.91</ele>
        <time>2015-07-17T15:49:48Z</time>
      </trkpt>
      <trkpt lat="49.32543" lon="1.15652">
        <ele>67.91</ele>
        <time>2015-07-17T15:49:49Z</time>
      </trkpt>
      <trkpt lat="49.32547" lon="1.15659">
        <ele>67.43</ele>
        <time>2015-07-17T15:49:50Z</time>
      </trkpt>
      <trkpt lat="49.32551" lon="1.15666">
        <ele>67.91</ele>
        <time>2015-07-17T15:49:51Z</time>
      </trkpt>
      <trkpt lat="49.32554" lon="1.15674">
        <ele>67.91</ele>
        <time>2015-07-17T15:49:52Z</time>
      </trkpt>
      <trkpt lat="49.32591" lon="1.15788">
        <ele>69.35</ele>
        <time>2015-07-17T15:50:07Z</time>
      </trkpt>
      <trkpt lat="49.32597" lon="1.15868">
        <ele>72.72</ele>
        <time>2015-07-17T15:50:19Z</time>
      </trkpt>
      <trkpt lat="49.3259" lon="1.1595">
        <ele>75.6</ele>
        <time>2015-07-17T15:50:32Z</time>
      </trkpt>
      <trkpt lat="49.32582" lon="1.16012">
        <ele>77.52</ele>
        <time>2015-07-17T15:50:42Z</time>
      </trkpt>
      <trkpt lat="49.32583" lon="1.16032">
        <ele>78</ele>
        <time>2015-07-17T15:50:45Z</time>
      </trkpt>
      <trkpt lat="49.32596" lon="1.16103">
        <ele>80.89</ele>
        <time>2015-07-17T15:50:58Z</time>
      </trkpt>
      <trkpt lat="49.32595" lon="1.16106">
        <ele>80.89</ele>
        <time>2015-07-17T15:50:59Z</time>
      </trkpt>
      <trkpt lat="49.32593" lon="1.16108">
        <ele>80.89</ele>
        <time>2015-07-17T15:51:00Z</time>
      </trkpt>
      <trkpt lat="49.3259" lon="1.16108">
        <ele>80.89</ele>
        <time>2015-07-17T15:51:01Z</time>
      </trkpt>
      <trkpt lat="49.32587" lon="1.16106">
        <ele>80.41</ele>
        <time>2015-07-17T15:51:02Z</time>
      </trkpt>
      <trkpt lat="49.32578" lon="1.16106">
        <ele>80.41</ele>
        <time>2015-07-17T15:51:05Z</time>
      </trkpt>
      <trkpt lat="49.32575" lon="1.16105">
        <ele>80.41</ele>
        <time>2015-07-17T15:51:06Z</time>
      </trkpt>
      <trkpt lat="49.32572" lon="1.16102">
        <ele>80.41</ele>
        <time>2015-07-17T15:51:07Z</time>
      </trkpt>
      <trkpt lat="49.32516" lon="1.16076">
        <ele>80.41</ele>
        <time>2015-07-17T15:51:22Z</time>
      </trkpt>
      <trkpt lat="49.32443" lon="1.16051">
        <ele>82.33</ele>
        <time>2015-07-17T15:51:41Z</time>
      </trkpt>
      <trkpt lat="49.32381" lon="1.16022">
        <ele>84.73</ele>
        <time>2015-07-17T15:51:58Z</time>
      </trkpt>
      <trkpt lat="49.3231" lon="1.15976">
        <ele>85.21</ele>
        <time>2015-07-17T15:52:15Z</time>
      </trkpt>
      <trkpt lat="49.32274" lon="1.15968">
        <ele>85.69</ele>
        <time>2015-07-17T15:52:23Z</time>
      </trkpt>
      <trkpt lat="49.3227" lon="1.15967">
        <ele>85.21</ele>
        <time>2015-07-17T15:52:24Z</time>
      </trkpt>
      <trkpt lat="49.32264" lon="1.15967">
        <ele>85.69</ele>
        <time>2015-07-17T15:52:31Z</time>
      </trkpt>
      <trkpt lat="49.32263" lon="1.15967">
        <ele>85.69</ele>
        <time>2015-07-17T15:53:01Z</time>
      </trkpt>
      <trkpt lat="49.32261" lon="1.15968">
        <ele>85.69</ele>
        <time>2015-07-17T15:53:02Z</time>
      </trkpt>
      <trkpt lat="49.32259" lon="1.15968">
        <ele>85.69</ele>
        <time>2015-07-17T15:53:03Z</time>
      </trkpt>
      <trkpt lat="49.32258" lon="1.15969">
        <ele>85.69</ele>
        <time>2015-07-17T15:53:04Z</time>
      </trkpt>
      <trkpt lat="49.32255" lon="1.15969">
        <ele>85.69</ele>
        <time>2015-07-17T15:53:05Z</time>
      </trkpt>
      <trkpt lat="49.32253" lon="1.15969">
        <ele>85.69</ele>
        <time>2015-07-17T15:53:06Z</time>
      </trkpt>
      <trkpt lat="49.3225" lon="1.15969">
        <ele>85.69</ele>
        <time>2015-07-17T15:53:07Z</time>
      </trkpt>
      <trkpt lat="49.32247" lon="1.1597">
        <ele>85.69</ele>
        <time>2015-07-17T15:53:08Z</time>
      </trkpt>
      <trkpt lat="49.32244" lon="1.15969">
        <ele>85.69</ele>
        <time>2015-07-17T15:53:09Z</time>
      </trkpt>
      <trkpt lat="49.32241" lon="1.15969">
        <ele>85.69</ele>
        <time>2015-07-17T15:53:10Z</time>
      </trkpt>
      <trkpt lat="49.32239" lon="1.1597">
        <ele>85.69</ele>
        <time>2015-07-17T15:53:11Z</time>
      </trkpt>
      <trkpt lat="49.32237" lon="1.1597">
        <ele>85.69</ele>
        <time>2015-07-17T15:53:12Z</time>
      </trkpt>
      <trkpt lat="49.32235" lon="1.15969">
        <ele>85.69</ele>
        <time>2015-07-17T15:53:13Z</time>
      </trkpt>
      <trkpt lat="49.32234" lon="1.1597">
        <ele>85.69</ele>
        <time>2015-07-17T15:53:14Z</time>
      </trkpt>
      <trkpt lat="49.32232" lon="1.1597">
        <ele>85.21</ele>
        <time>2015-07-17T15:53:15Z</time>
      </trkpt>
      <trkpt lat="49.32229" lon="1.1597">
        <ele>85.21</ele>
        <time>2015-07-17T15:53:16Z</time>
      </trkpt>
      <trkpt lat="49.32225" lon="1.1597">
        <ele>84.73</ele>
        <time>2015-07-17T15:53:17Z</time>
      </trkpt>
      <trkpt lat="49.32221" lon="1.15969">
        <ele>83.77</ele>
        <time>2015-07-17T15:53:18Z</time>
      </trkpt>
      <trkpt lat="49.32193" lon="1.1596">
        <ele>80.41</ele>
        <time>2015-07-17T15:53:23Z</time>
      </trkpt>
      <trkpt lat="49.32178" lon="1.15955">
        <ele>77.52</ele>
        <time>2015-07-17T15:53:26Z</time>
      </trkpt>
      <trkpt lat="49.32174" lon="1.15955">
        <ele>76.56</ele>
        <time>2015-07-17T15:53:27Z</time>
      </trkpt>
      <trkpt lat="49.32161" lon="1.15949">
        <ele>72.72</ele>
        <time>2015-07-17T15:53:31Z</time>
      </trkpt>
      <trkpt lat="49.32151" lon="1.15945">
        <ele>69.35</ele>
        <time>2015-07-17T15:53:34Z</time>
      </trkpt>
      <trkpt lat="49.3214" lon="1.15942">
        <ele>65.99</ele>
        <time>2015-07-17T15:53:37Z</time>
      </trkpt>
      <trkpt lat="49.32129" lon="1.1594">
        <ele>62.14</ele>
        <time>2015-07-17T15:53:40Z</time>
      </trkpt>
      <trkpt lat="49.32126" lon="1.1594">
        <ele>60.7</ele>
        <time>2015-07-17T15:53:41Z</time>
      </trkpt>
      <trkpt lat="49.32122" lon="1.15939">
        <ele>57.34</ele>
        <time>2015-07-17T15:53:42Z</time>
      </trkpt>
      <trkpt lat="49.32117" lon="1.15939">
        <ele>55.41</ele>
        <time>2015-07-17T15:53:43Z</time>
      </trkpt>
      <trkpt lat="49.32112" lon="1.1594">
        <ele>53.97</ele>
        <time>2015-07-17T15:53:44Z</time>
      </trkpt>
      <trkpt lat="49.32107" lon="1.15941">
        <ele>52.05</ele>
        <time>2015-07-17T15:53:45Z</time>
      </trkpt>
      <trkpt lat="49.32102" lon="1.15941">
        <ele>50.13</ele>
        <time>2015-07-17T15:53:46Z</time>
      </trkpt>
      <trkpt lat="49.3209" lon="1.15942">
        <ele>46.28</ele>
        <time>2015-07-17T15:53:48Z</time>
      </trkpt>
      <trkpt lat="49.32077" lon="1.15943">
        <ele>41.95</ele>
        <time>2015-07-17T15:53:50Z</time>
      </trkpt>
      <trkpt lat="49.32065" lon="1.15944">
        <ele>38.11</ele>
        <time>2015-07-17T15:53:53Z</time>
      </trkpt>
      <trkpt lat="49.32063" lon="1.15944">
        <ele>37.15</ele>
        <time>2015-07-17T15:53:55Z</time>
      </trkpt>
      <trkpt lat="49.32062" lon="1.15942">
        <ele>36.67</ele>
        <time>2015-07-17T15:53:56Z</time>
      </trkpt>
      <trkpt lat="49.32061" lon="1.15942">
        <ele>36.67</ele>
        <time>2015-07-17T15:53:57Z</time>
      </trkpt>
      <trkpt lat="49.32059" lon="1.15942">
        <ele>36.19</ele>
        <time>2015-07-17T15:53:58Z</time>
      </trkpt>
      <trkpt lat="49.32055" lon="1.15941">
        <ele>34.74</ele>
        <time>2015-07-17T15:54:10Z</time>
      </trkpt>
      <trkpt lat="49.32054" lon="1.15941">
        <ele>35.23</ele>
        <time>2015-07-17T15:54:39Z</time>
      </trkpt>
      <trkpt lat="49.32053" lon="1.15941">
        <ele>35.23</ele>
        <time>2015-07-17T15:55:13Z</time>
      </trkpt>
      <trkpt lat="49.32054" lon="1.15941">
        <ele>35.23</ele>
        <time>2015-07-17T15:55:42Z</time>
      </trkpt>
      <trkpt lat="49.32055" lon="1.15939">
        <ele>35.23</ele>
        <time>2015-07-17T15:56:11Z</time>
      </trkpt>
      <trkpt lat="49.32055" lon="1.15938">
        <ele>35.23</ele>
        <time>2015-07-17T15:56:37Z</time>
      </trkpt>
      <trkpt lat="49.32049" lon="1.1594">
        <ele>34.74</ele>
        <time>2015-07-17T15:57:00Z</time>
      </trkpt>
      <trkpt lat="49.32043" lon="1.1594">
        <ele>32.34</ele>
        <time>2015-07-17T15:57:01Z</time>
      </trkpt>
      <trkpt lat="49.3202" lon="1.15938">
        <ele>28.02</ele>
        <time>2015-07-17T15:57:04Z</time>
      </trkpt>
      <trkpt lat="49.32001" lon="1.15935">
        <ele>24.65</ele>
        <time>2015-07-17T15:57:06Z</time>
      </trkpt>
      <trkpt lat="49.31973" lon="1.15931">
        <ele>20.81</ele>
        <time>2015-07-17T15:57:09Z</time>
      </trkpt>
      <trkpt lat="49.31927" lon="1.15921">
        <ele>16.96</ele>
        <time>2015-07-17T15:57:14Z</time>
      </trkpt>
      <trkpt lat="49.3192" lon="1.1592">
        <ele>17.44</ele>
        <time>2015-07-17T15:57:15Z</time>
      </trkpt>
      <trkpt lat="49.31903" lon="1.15919">
        <ele>17.92</ele>
        <time>2015-07-17T15:57:22Z</time>
      </trkpt>
      <trkpt lat="49.31903" lon="1.1592">
        <ele>17.92</ele>
        <time>2015-07-17T15:57:29Z</time>
      </trkpt>
      <trkpt lat="49.31902" lon="1.15921">
        <ele>17.92</ele>
        <time>2015-07-17T15:57:30Z</time>
      </trkpt>
      <trkpt lat="49.319" lon="1.15923">
        <ele>17.44</ele>
        <time>2015-07-17T15:57:31Z</time>
      </trkpt>
      <trkpt lat="49.31899" lon="1.15926">
        <ele>17.44</ele>
        <time>2015-07-17T15:57:32Z</time>
      </trkpt>
      <trkpt lat="49.31899" lon="1.1593">
        <ele>17.92</ele>
        <time>2015-07-17T15:57:33Z</time>
      </trkpt>
      <trkpt lat="49.31899" lon="1.15935">
        <ele>17.44</ele>
        <time>2015-07-17T15:57:34Z</time>
      </trkpt>
      <trkpt lat="49.31899" lon="1.1594">
        <ele>17.44</ele>
        <time>2015-07-17T15:57:35Z</time>
      </trkpt>
      <trkpt lat="49.319" lon="1.15946">
        <ele>17.44</ele>
        <time>2015-07-17T15:57:36Z</time>
      </trkpt>
      <trkpt lat="49.319" lon="1.15952">
        <ele>17.44</ele>
        <time>2015-07-17T15:57:37Z</time>
      </trkpt>
      <trkpt lat="49.31902" lon="1.15994">
        <ele>16.96</ele>
        <time>2015-07-17T15:57:43Z</time>
      </trkpt>
      <trkpt lat="49.31906" lon="1.16129">
        <ele>17.44</ele>
        <time>2015-07-17T15:58:00Z</time>
      </trkpt>
      <trkpt lat="49.31908" lon="1.16241">
        <ele>17.44</ele>
        <time>2015-07-17T15:58:13Z</time>
      </trkpt>
      <trkpt lat="49.31918" lon="1.16362">
        <ele>18.4</ele>
        <time>2015-07-17T15:58:27Z</time>
      </trkpt>
      <trkpt lat="49.31918" lon="1.16371">
        <ele>17.92</ele>
        <time>2015-07-17T15:58:28Z</time>
      </trkpt>
      <trkpt lat="49.31927" lon="1.16505">
        <ele>17.44</ele>
        <time>2015-07-17T15:58:42Z</time>
      </trkpt>
      <trkpt lat="49.31932" lon="1.1664">
        <ele>16.96</ele>
        <time>2015-07-17T15:58:56Z</time>
      </trkpt>
      <trkpt lat="49.31947" lon="1.16782">
        <ele>17.44</ele>
        <time>2015-07-17T15:59:11Z</time>
      </trkpt>
      <trkpt lat="49.31962" lon="1.1694">
        <ele>17.44</ele>
        <time>2015-07-17T15:59:27Z</time>
      </trkpt>
      <trkpt lat="49.31966" lon="1.1696">
        <ele>17.44</ele>
        <time>2015-07-17T15:59:29Z</time>
      </trkpt>
      <trkpt lat="49.31987" lon="1.17089">
        <ele>17.44</ele>
        <time>2015-07-17T15:59:42Z</time>
      </trkpt>
      <trkpt lat="49.32014" lon="1.17264">
        <ele>18.88</ele>
        <time>2015-07-17T16:00:00Z</time>
      </trkpt>
      <trkpt lat="49.32037" lon="1.17407">
        <ele>20.81</ele>
        <time>2015-07-17T16:00:15Z</time>
      </trkpt>
      <trkpt lat="49.32045" lon="1.17462">
        <ele>21.77</ele>
        <time>2015-07-17T16:00:21Z</time>
      </trkpt>
      <trkpt lat="49.32047" lon="1.1747">
        <ele>22.25</ele>
        <time>2015-07-17T16:00:22Z</time>
      </trkpt>
      <trkpt lat="49.32066" lon="1.17544">
        <ele>23.21</ele>
        <time>2015-07-17T16:00:31Z</time>
      </trkpt>
      <trkpt lat="49.32078" lon="1.17593">
        <ele>23.69</ele>
        <time>2015-07-17T16:00:37Z</time>
      </trkpt>
      <trkpt lat="49.32079" lon="1.17602">
        <ele>23.69</ele>
        <time>2015-07-17T16:00:38Z</time>
      </trkpt>
      <trkpt lat="49.32083" lon="1.17681">
        <ele>23.21</ele>
        <time>2015-07-17T16:00:50Z</time>
      </trkpt>
      <trkpt lat="49.32083" lon="1.1768">
        <ele>23.21</ele>
        <time>2015-07-17T16:01:10Z</time>
      </trkpt>
      <trkpt lat="49.32084" lon="1.17681">
        <ele>23.21</ele>
        <time>2015-07-17T16:01:33Z</time>
      </trkpt>
      <trkpt lat="49.32084" lon="1.17683">
        <ele>23.21</ele>
        <time>2015-07-17T16:01:34Z</time>
      </trkpt>
      <trkpt lat="49.32084" lon="1.17708">
        <ele>22.73</ele>
        <time>2015-07-17T16:01:41Z</time>
      </trkpt>
      <trkpt lat="49.3209" lon="1.17801">
        <ele>22.25</ele>
        <time>2015-07-17T16:01:51Z</time>
      </trkpt>
      <trkpt lat="49.32102" lon="1.17953">
        <ele>21.77</ele>
        <time>2015-07-17T16:02:06Z</time>
      </trkpt>
      <trkpt lat="49.32111" lon="1.18138">
        <ele>21.77</ele>
        <time>2015-07-17T16:02:24Z</time>
      </trkpt>
      <trkpt lat="49.32126" lon="1.18318">
        <ele>21.29</ele>
        <time>2015-07-17T16:02:41Z</time>
      </trkpt>
      <trkpt lat="49.32147" lon="1.1848">
        <ele>22.25</ele>
        <time>2015-07-17T16:02:57Z</time>
      </trkpt>
      <trkpt lat="49.32159" lon="1.18591">
        <ele>23.69</ele>
        <time>2015-07-17T16:03:10Z</time>
      </trkpt>
      <trkpt lat="49.3216" lon="1.18598">
        <ele>24.17</ele>
        <time>2015-07-17T16:03:11Z</time>
      </trkpt>
      <trkpt lat="49.32169" lon="1.18635">
        <ele>24.65</ele>
        <time>2015-07-17T16:03:16Z</time>
      </trkpt>
      <trkpt lat="49.32192" lon="1.18791">
        <ele>25.13</ele>
        <time>2015-07-17T16:03:35Z</time>
      </trkpt>
      <trkpt lat="49.32216" lon="1.1895">
        <ele>26.57</ele>
        <time>2015-07-17T16:03:52Z</time>
      </trkpt>
      <trkpt lat="49.32221" lon="1.18988">
        <ele>26.57</ele>
        <time>2015-07-17T16:03:56Z</time>
      </trkpt>
      <trkpt lat="49.32244" lon="1.19132">
        <ele>27.05</ele>
        <time>2015-07-17T16:04:11Z</time>
      </trkpt>
      <trkpt lat="49.32272" lon="1.19307">
        <ele>27.53</ele>
        <time>2015-07-17T16:04:28Z</time>
      </trkpt>
      <trkpt lat="49.32279" lon="1.19359">
        <ele>27.53</ele>
        <time>2015-07-17T16:04:33Z</time>
      </trkpt>
      <trkpt lat="49.32302" lon="1.19513">
        <ele>28.02</ele>
        <time>2015-07-17T16:04:48Z</time>
      </trkpt>
      <trkpt lat="49.32324" lon="1.19657">
        <ele>28.98</ele>
        <time>2015-07-17T16:05:04Z</time>
      </trkpt>
      <trkpt lat="49.32324" lon="1.19664">
        <ele>28.98</ele>
        <time>2015-07-17T16:05:05Z</time>
      </trkpt>
      <trkpt lat="49.32323" lon="1.19671">
        <ele>28.98</ele>
        <time>2015-07-17T16:05:06Z</time>
      </trkpt>
      <trkpt lat="49.32321" lon="1.19677">
        <ele>29.46</ele>
        <time>2015-07-17T16:05:07Z</time>
      </trkpt>
      <trkpt lat="49.32318" lon="1.19682">
        <ele>28.98</ele>
        <time>2015-07-17T16:05:08Z</time>
      </trkpt>
      <trkpt lat="49.32315" lon="1.19688">
        <ele>28.98</ele>
        <time>2015-07-17T16:05:09Z</time>
      </trkpt>
      <trkpt lat="49.32314" lon="1.19694">
        <ele>28.98</ele>
        <time>2015-07-17T16:05:10Z</time>
      </trkpt>
      <trkpt lat="49.32315" lon="1.19701">
        <ele>28.98</ele>
        <time>2015-07-17T16:05:11Z</time>
      </trkpt>
      <trkpt lat="49.32316" lon="1.19708">
        <ele>28.98</ele>
        <time>2015-07-17T16:05:12Z</time>
      </trkpt>
      <trkpt lat="49.32319" lon="1.19713">
        <ele>28.98</ele>
        <time>2015-07-17T16:05:13Z</time>
      </trkpt>
      <trkpt lat="49.32322" lon="1.19717">
        <ele>28.98</ele>
        <time>2015-07-17T16:05:14Z</time>
      </trkpt>
      <trkpt lat="49.32326" lon="1.1972">
        <ele>28.98</ele>
        <time>2015-07-17T16:05:15Z</time>
      </trkpt>
      <trkpt lat="49.32329" lon="1.19722">
        <ele>28.98</ele>
        <time>2015-07-17T16:05:16Z</time>
      </trkpt>
      <trkpt lat="49.32332" lon="1.19725">
        <ele>29.46</ele>
        <time>2015-07-17T16:05:17Z</time>
      </trkpt>
      <trkpt lat="49.32334" lon="1.19729">
        <ele>29.94</ele>
        <time>2015-07-17T16:05:18Z</time>
      </trkpt>
      <trkpt lat="49.32336" lon="1.19733">
        <ele>30.42</ele>
        <time>2015-07-17T16:05:19Z</time>
      </trkpt>
      <trkpt lat="49.32337" lon="1.19738">
        <ele>29.94</ele>
        <time>2015-07-17T16:05:20Z</time>
      </trkpt>
      <trkpt lat="49.32338" lon="1.19744">
        <ele>29.94</ele>
        <time>2015-07-17T16:05:21Z</time>
      </trkpt>
      <trkpt lat="49.32351" lon="1.19808">
        <ele>30.42</ele>
        <time>2015-07-17T16:05:33Z</time>
      </trkpt>
      <trkpt lat="49.3235" lon="1.19809">
        <ele>30.42</ele>
        <time>2015-07-17T16:05:34Z</time>
      </trkpt>
      <trkpt lat="49.32349" lon="1.19808">
        <ele>30.42</ele>
        <time>2015-07-17T16:05:36Z</time>
      </trkpt>
      <trkpt lat="49.32348" lon="1.19806">
        <ele>30.42</ele>
        <time>2015-07-17T16:05:37Z</time>
      </trkpt>
      <trkpt lat="49.32347" lon="1.19802">
        <ele>29.94</ele>
        <time>2015-07-17T16:05:39Z</time>
      </trkpt>
      <trkpt lat="49.32348" lon="1.198">
        <ele>29.94</ele>
        <time>2015-07-17T16:05:40Z</time>
      </trkpt>
      <trkpt lat="49.32348" lon="1.19798">
        <ele>29.94</ele>
        <time>2015-07-17T16:05:41Z</time>
      </trkpt>
      <trkpt lat="49.32347" lon="1.19794">
        <ele>29.94</ele>
        <time>2015-07-17T16:05:42Z</time>
      </trkpt>
      <trkpt lat="49.32347" lon="1.1979">
        <ele>29.94</ele>
        <time>2015-07-17T16:05:43Z</time>
      </trkpt>
      <trkpt lat="49.32333" lon="1.19724">
        <ele>29.46</ele>
        <time>2015-07-17T16:05:55Z</time>
      </trkpt>
      <trkpt lat="49.3233" lon="1.19721">
        <ele>29.46</ele>
        <time>2015-07-17T16:05:56Z</time>
      </trkpt>
      <trkpt lat="49.32327" lon="1.19722">
        <ele>28.98</ele>
        <time>2015-07-17T16:05:57Z</time>
      </trkpt>
      <trkpt lat="49.32323" lon="1.19722">
        <ele>29.46</ele>
        <time>2015-07-17T16:05:58Z</time>
      </trkpt>
      <trkpt lat="49.3232" lon="1.19722">
        <ele>29.94</ele>
        <time>2015-07-17T16:05:59Z</time>
      </trkpt>
      <trkpt lat="49.32315" lon="1.1972">
        <ele>29.46</ele>
        <time>2015-07-17T16:06:01Z</time>
      </trkpt>
      <trkpt lat="49.32313" lon="1.19717">
        <ele>29.46</ele>
        <time>2015-07-17T16:06:02Z</time>
      </trkpt>
      <trkpt lat="49.32311" lon="1.19714">
        <ele>29.46</ele>
        <time>2015-07-17T16:06:03Z</time>
      </trkpt>
      <trkpt lat="49.32308" lon="1.1971">
        <ele>28.98</ele>
        <time>2015-07-17T16:06:05Z</time>
      </trkpt>
      <trkpt lat="49.32307" lon="1.1971">
        <ele>28.98</ele>
        <time>2015-07-17T16:06:06Z</time>
      </trkpt>
      <trkpt lat="49.32305" lon="1.19713">
        <ele>28.98</ele>
        <time>2015-07-17T16:06:16Z</time>
      </trkpt>
      <trkpt lat="49.32306" lon="1.19716">
        <ele>29.46</ele>
        <time>2015-07-17T16:06:33Z</time>
      </trkpt>
      <trkpt lat="49.32307" lon="1.1972">
        <ele>28.98</ele>
        <time>2015-07-17T16:06:42Z</time>
      </trkpt>
      <trkpt lat="49.32308" lon="1.19723">
        <ele>28.98</ele>
        <time>2015-07-17T16:06:43Z</time>
      </trkpt>
      <trkpt lat="49.32308" lon="1.19726">
        <ele>29.46</ele>
        <time>2015-07-17T16:06:44Z</time>
      </trkpt>
      <trkpt lat="49.32309" lon="1.19729">
        <ele>29.46</ele>
        <time>2015-07-17T16:06:45Z</time>
      </trkpt>
      <trkpt lat="49.32311" lon="1.19733">
        <ele>29.46</ele>
        <time>2015-07-17T16:06:46Z</time>
      </trkpt>
      <trkpt lat="49.32313" lon="1.19737">
        <ele>29.46</ele>
        <time>2015-07-17T16:06:47Z</time>
      </trkpt>
      <trkpt lat="49.3232" lon="1.19772">
        <ele>29.94</ele>
        <time>2015-07-17T16:06:54Z</time>
      </trkpt>
      <trkpt lat="49.32321" lon="1.19779">
        <ele>29.94</ele>
        <time>2015-07-17T16:06:55Z</time>
      </trkpt>
      <trkpt lat="49.32322" lon="1.19786">
        <ele>29.94</ele>
        <time>2015-07-17T16:06:56Z</time>
      </trkpt>
      <trkpt lat="49.32359" lon="1.19918">
        <ele>30.9</ele>
        <time>2015-07-17T16:07:15Z</time>
      </trkpt>
      <trkpt lat="49.32371" lon="1.19983">
        <ele>31.38</ele>
        <time>2015-07-17T16:07:26Z</time>
      </trkpt>
      <trkpt lat="49.32369" lon="1.19985">
        <ele>31.38</ele>
        <time>2015-07-17T16:07:27Z</time>
      </trkpt>
      <trkpt lat="49.32367" lon="1.19986">
        <ele>31.38</ele>
        <time>2015-07-17T16:07:28Z</time>
      </trkpt>
      <trkpt lat="49.32364" lon="1.19985">
        <ele>30.9</ele>
        <time>2015-07-17T16:07:29Z</time>
      </trkpt>
      <trkpt lat="49.32361" lon="1.19983">
        <ele>30.42</ele>
        <time>2015-07-17T16:07:30Z</time>
      </trkpt>
      <trkpt lat="49.32358" lon="1.1998">
        <ele>30.42</ele>
        <time>2015-07-17T16:07:31Z</time>
      </trkpt>
      <trkpt lat="49.32355" lon="1.19976">
        <ele>30.42</ele>
        <time>2015-07-17T16:07:32Z</time>
      </trkpt>
      <trkpt lat="49.3235" lon="1.19975">
        <ele>29.94</ele>
        <time>2015-07-17T16:07:33Z</time>
      </trkpt>
      <trkpt lat="49.32345" lon="1.19975">
        <ele>29.46</ele>
        <time>2015-07-17T16:07:34Z</time>
      </trkpt>
      <trkpt lat="49.3234" lon="1.19975">
        <ele>29.46</ele>
        <time>2015-07-17T16:07:35Z</time>
      </trkpt>
      <trkpt lat="49.32244" lon="1.1998">
        <ele>27.53</ele>
        <time>2015-07-17T16:07:52Z</time>
      </trkpt>
      <trkpt lat="49.32146" lon="1.19994">
        <ele>24.65</ele>
        <time>2015-07-17T16:08:07Z</time>
      </trkpt>
      <trkpt lat="49.32085" lon="1.20009">
        <ele>22.73</ele>
        <time>2015-07-17T16:08:17Z</time>
      </trkpt>
      <trkpt lat="49.32079" lon="1.2001">
        <ele>22.73</ele>
        <time>2015-07-17T16:08:18Z</time>
      </trkpt>
      <trkpt lat="49.32073" lon="1.20012">
        <ele>22.73</ele>
        <time>2015-07-17T16:08:19Z</time>
      </trkpt>
      <trkpt lat="49.32068" lon="1.20014">
        <ele>22.73</ele>
        <time>2015-07-17T16:08:20Z</time>
      </trkpt>
      <trkpt lat="49.32062" lon="1.20015">
        <ele>22.25</ele>
        <time>2015-07-17T16:08:21Z</time>
      </trkpt>
      <trkpt lat="49.31976" lon="1.20016">
        <ele>21.29</ele>
        <time>2015-07-17T16:08:36Z</time>
      </trkpt>
      <trkpt lat="49.31902" lon="1.20013">
        <ele>20.32</ele>
        <time>2015-07-17T16:08:49Z</time>
      </trkpt>
      <trkpt lat="49.31877" lon="1.20014">
        <ele>19.84</ele>
        <time>2015-07-17T16:08:53Z</time>
      </trkpt>
      <trkpt lat="49.31833" lon="1.20014">
        <ele>19.36</ele>
        <time>2015-07-17T16:09:01Z</time>
      </trkpt>
      <trkpt lat="49.31829" lon="1.20014">
        <ele>19.36</ele>
        <time>2015-07-17T16:09:02Z</time>
      </trkpt>
      <trkpt lat="49.31825" lon="1.20014">
        <ele>19.84</ele>
        <time>2015-07-17T16:09:03Z</time>
      </trkpt>
      <trkpt lat="49.31821" lon="1.20013">
        <ele>19.36</ele>
        <time>2015-07-17T16:09:04Z</time>
      </trkpt>
      <trkpt lat="49.31817" lon="1.20012">
        <ele>19.36</ele>
        <time>2015-07-17T16:09:05Z</time>
      </trkpt>
      <trkpt lat="49.31812" lon="1.20012">
        <ele>19.36</ele>
        <time>2015-07-17T16:09:06Z</time>
      </trkpt>
      <trkpt lat="49.31799" lon="1.20013">
        <ele>19.36</ele>
        <time>2015-07-17T16:09:09Z</time>
      </trkpt>
      <trkpt lat="49.31754" lon="1.20013">
        <ele>18.88</ele>
        <time>2015-07-17T16:09:18Z</time>
      </trkpt>
      <trkpt lat="49.31714" lon="1.20019">
        <ele>19.36</ele>
        <time>2015-07-17T16:09:29Z</time>
      </trkpt>
      <trkpt lat="49.3169" lon="1.20018">
        <ele>17.92</ele>
        <time>2015-07-17T16:09:35Z</time>
      </trkpt>
      <trkpt lat="49.31678" lon="1.20024">
        <ele>18.4</ele>
        <time>2015-07-17T16:09:38Z</time>
      </trkpt>
      <trkpt lat="49.31656" lon="1.20039">
        <ele>17.92</ele>
        <time>2015-07-17T16:09:43Z</time>
      </trkpt>
      <trkpt lat="49.3164" lon="1.20051">
        <ele>17.92</ele>
        <time>2015-07-17T16:09:47Z</time>
      </trkpt>
      <trkpt lat="49.31573" lon="1.20089">
        <ele>17.44</ele>
        <time>2015-07-17T16:10:01Z</time>
      </trkpt>
      <trkpt lat="49.31461" lon="1.2011">
        <ele>16.96</ele>
        <time>2015-07-17T16:10:21Z</time>
      </trkpt>
      <trkpt lat="49.3138" lon="1.20125">
        <ele>17.44</ele>
        <time>2015-07-17T16:10:36Z</time>
      </trkpt>
      <trkpt lat="49.31341" lon="1.20129">
        <ele>17.44</ele>
        <time>2015-07-17T16:10:43Z</time>
      </trkpt>
      <trkpt lat="49.31281" lon="1.20121">
        <ele>17.92</ele>
        <time>2015-07-17T16:10:57Z</time>
      </trkpt>
      <trkpt lat="49.31279" lon="1.20118">
        <ele>17.44</ele>
        <time>2015-07-17T16:10:58Z</time>
      </trkpt>
      <trkpt lat="49.31278" lon="1.20115">
        <ele>17.44</ele>
        <time>2015-07-17T16:10:59Z</time>
      </trkpt>
      <trkpt lat="49.31277" lon="1.20108">
        <ele>17.92</ele>
        <time>2015-07-17T16:11:01Z</time>
      </trkpt>
      <trkpt lat="49.31278" lon="1.20105">
        <ele>17.44</ele>
        <time>2015-07-17T16:11:02Z</time>
      </trkpt>
      <trkpt lat="49.31277" lon="1.20082">
        <ele>17.44</ele>
        <time>2015-07-17T16:11:08Z</time>
      </trkpt>
      <trkpt lat="49.31249" lon="1.20073">
        <ele>17.44</ele>
        <time>2015-07-17T16:11:18Z</time>
      </trkpt>
      <trkpt lat="49.31246" lon="1.20074">
        <ele>17.44</ele>
        <time>2015-07-17T16:11:19Z</time>
      </trkpt>
      <trkpt lat="49.31244" lon="1.20078">
        <ele>17.44</ele>
        <time>2015-07-17T16:11:20Z</time>
      </trkpt>
      <trkpt lat="49.31242" lon="1.20084">
        <ele>17.44</ele>
        <time>2015-07-17T16:11:21Z</time>
      </trkpt>
      <trkpt lat="49.31241" lon="1.20103">
        <ele>17.44</ele>
        <time>2015-07-17T16:11:24Z</time>
      </trkpt>
      <trkpt lat="49.31238" lon="1.20108">
        <ele>17.44</ele>
        <time>2015-07-17T16:11:25Z</time>
      </trkpt>
      <trkpt lat="49.31234" lon="1.20111">
        <ele>16.96</ele>
        <time>2015-07-17T16:11:26Z</time>
      </trkpt>
      <trkpt lat="49.3123" lon="1.20111">
        <ele>16.96</ele>
        <time>2015-07-17T16:11:27Z</time>
      </trkpt>
      <trkpt lat="49.31226" lon="1.2011">
        <ele>16.96</ele>
        <time>2015-07-17T16:11:28Z</time>
      </trkpt>
      <trkpt lat="49.31222" lon="1.20108">
        <ele>16.96</ele>
        <time>2015-07-17T16:11:29Z</time>
      </trkpt>
      <trkpt lat="49.31218" lon="1.20107">
        <ele>16.96</ele>
        <time>2015-07-17T16:11:30Z</time>
      </trkpt>
      <trkpt lat="49.31213" lon="1.20106">
        <ele>16.96</ele>
        <time>2015-07-17T16:11:31Z</time>
      </trkpt>
      <trkpt lat="49.31181" lon="1.20098">
        <ele>16.96</ele>
        <time>2015-07-17T16:11:39Z</time>
      </trkpt>
      <trkpt lat="49.31177" lon="1.20097">
        <ele>16.96</ele>
        <time>2015-07-17T16:11:40Z</time>
      </trkpt>
      <trkpt lat="49.31167" lon="1.20095">
        <ele>16.48</ele>
        <time>2015-07-17T16:11:42Z</time>
      </trkpt>
      <trkpt lat="49.31163" lon="1.20093">
        <ele>16.48</ele>
        <time>2015-07-17T16:11:43Z</time>
      </trkpt>
      <trkpt lat="49.31077" lon="1.20075">
        <ele>16</ele>
        <time>2015-07-17T16:12:01Z</time>
      </trkpt>
      <trkpt lat="49.31071" lon="1.20085">
        <ele>16.48</ele>
        <time>2015-07-17T16:12:04Z</time>
      </trkpt>
      <trkpt lat="49.31071" lon="1.20091">
        <ele>16</ele>
        <time>2015-07-17T16:12:05Z</time>
      </trkpt>
      <trkpt lat="49.31057" lon="1.20224">
        <ele>15.52</ele>
        <time>2015-07-17T16:12:22Z</time>
      </trkpt>
      <trkpt lat="49.31054" lon="1.20293">
        <ele>15.04</ele>
        <time>2015-07-17T16:12:30Z</time>
      </trkpt>
      <trkpt lat="49.31066" lon="1.20411">
        <ele>14.08</ele>
        <time>2015-07-17T16:12:44Z</time>
      </trkpt>
      <trkpt lat="49.3108" lon="1.20549">
        <ele>13.6</ele>
        <time>2015-07-17T16:13:00Z</time>
      </trkpt>
      <trkpt lat="49.31081" lon="1.20558">
        <ele>13.6</ele>
        <time>2015-07-17T16:13:01Z</time>
      </trkpt>
      <trkpt lat="49.31082" lon="1.20567">
        <ele>13.12</ele>
        <time>2015-07-17T16:13:02Z</time>
      </trkpt>
      <trkpt lat="49.3109" lon="1.20663">
        <ele>13.12</ele>
        <time>2015-07-17T16:13:13Z</time>
      </trkpt>
      <trkpt lat="49.31094" lon="1.20722">
        <ele>14.08</ele>
        <time>2015-07-17T16:13:22Z</time>
      </trkpt>
      <trkpt lat="49.31093" lon="1.20729">
        <ele>14.08</ele>
        <time>2015-07-17T16:13:23Z</time>
      </trkpt>
      <trkpt lat="49.31093" lon="1.20736">
        <ele>13.6</ele>
        <time>2015-07-17T16:13:24Z</time>
      </trkpt>
      <trkpt lat="49.31093" lon="1.20742">
        <ele>14.08</ele>
        <time>2015-07-17T16:13:25Z</time>
      </trkpt>
      <trkpt lat="49.31095" lon="1.20748">
        <ele>14.56</ele>
        <time>2015-07-17T16:13:26Z</time>
      </trkpt>
      <trkpt lat="49.31097" lon="1.20753">
        <ele>14.56</ele>
        <time>2015-07-17T16:13:27Z</time>
      </trkpt>
      <trkpt lat="49.31098" lon="1.2076">
        <ele>14.56</ele>
        <time>2015-07-17T16:13:28Z</time>
      </trkpt>
      <trkpt lat="49.31099" lon="1.20767">
        <ele>14.56</ele>
        <time>2015-07-17T16:13:29Z</time>
      </trkpt>
      <trkpt lat="49.31116" lon="1.20862">
        <ele>15.52</ele>
        <time>2015-07-17T16:13:44Z</time>
      </trkpt>
      <trkpt lat="49.31127" lon="1.20918">
        <ele>17.44</ele>
        <time>2015-07-17T16:13:55Z</time>
      </trkpt>
      <trkpt lat="49.31127" lon="1.20935">
        <ele>17.44</ele>
        <time>2015-07-17T16:13:58Z</time>
      </trkpt>
      <trkpt lat="49.31128" lon="1.20949">
        <ele>16.96</ele>
        <time>2015-07-17T16:14:00Z</time>
      </trkpt>
      <trkpt lat="49.31142" lon="1.21011">
        <ele>16</ele>
        <time>2015-07-17T16:14:08Z</time>
      </trkpt>
      <trkpt lat="49.31147" lon="1.21026">
        <ele>16</ele>
        <time>2015-07-17T16:14:10Z</time>
      </trkpt>
      <trkpt lat="49.31148" lon="1.21035">
        <ele>15.52</ele>
        <time>2015-07-17T16:14:11Z</time>
      </trkpt>
      <trkpt lat="49.31149" lon="1.21043">
        <ele>15.04</ele>
        <time>2015-07-17T16:14:12Z</time>
      </trkpt>
      <trkpt lat="49.3115" lon="1.2114">
        <ele>12.15</ele>
        <time>2015-07-17T16:14:23Z</time>
      </trkpt>
      <trkpt lat="49.31149" lon="1.21161">
        <ele>11.19</ele>
        <time>2015-07-17T16:14:25Z</time>
      </trkpt>
      <trkpt lat="49.31144" lon="1.21168">
        <ele>10.71</ele>
        <time>2015-07-17T16:14:26Z</time>
      </trkpt>
      <trkpt lat="49.31139" lon="1.21174">
        <ele>10.23</ele>
        <time>2015-07-17T16:14:27Z</time>
      </trkpt>
      <trkpt lat="49.3113" lon="1.21185">
        <ele>10.71</ele>
        <time>2015-07-17T16:14:29Z</time>
      </trkpt>
      <trkpt lat="49.31127" lon="1.21191">
        <ele>10.71</ele>
        <time>2015-07-17T16:14:30Z</time>
      </trkpt>
      <trkpt lat="49.31125" lon="1.21196">
        <ele>10.71</ele>
        <time>2015-07-17T16:14:31Z</time>
      </trkpt>
      <trkpt lat="49.31125" lon="1.212">
        <ele>10.71</ele>
        <time>2015-07-17T16:14:32Z</time>
      </trkpt>
      <trkpt lat="49.31126" lon="1.21204">
        <ele>11.19</ele>
        <time>2015-07-17T16:14:33Z</time>
      </trkpt>
      <trkpt lat="49.31127" lon="1.21207">
        <ele>11.19</ele>
        <time>2015-07-17T16:14:34Z</time>
      </trkpt>
      <trkpt lat="49.31128" lon="1.21211">
        <ele>11.19</ele>
        <time>2015-07-17T16:14:35Z</time>
      </trkpt>
      <trkpt lat="49.31128" lon="1.21215">
        <ele>11.19</ele>
        <time>2015-07-17T16:14:36Z</time>
      </trkpt>
      <trkpt lat="49.31129" lon="1.21226">
        <ele>11.67</ele>
        <time>2015-07-17T16:14:45Z</time>
      </trkpt>
      <trkpt lat="49.31128" lon="1.2123">
        <ele>11.67</ele>
        <time>2015-07-17T16:14:58Z</time>
      </trkpt>
      <trkpt lat="49.31128" lon="1.21232">
        <ele>11.67</ele>
        <time>2015-07-17T16:15:02Z</time>
      </trkpt>
      <trkpt lat="49.31127" lon="1.21234">
        <ele>11.67</ele>
        <time>2015-07-17T16:15:03Z</time>
      </trkpt>
      <trkpt lat="49.31127" lon="1.21236">
        <ele>12.15</ele>
        <time>2015-07-17T16:15:04Z</time>
      </trkpt>
      <trkpt lat="49.31126" lon="1.21239">
        <ele>12.15</ele>
        <time>2015-07-17T16:15:06Z</time>
      </trkpt>
      <trkpt lat="49.31126" lon="1.21242">
        <ele>12.15</ele>
        <time>2015-07-17T16:15:07Z</time>
      </trkpt>
      <trkpt lat="49.31127" lon="1.21245">
        <ele>12.15</ele>
        <time>2015-07-17T16:15:08Z</time>
      </trkpt>
      <trkpt lat="49.31127" lon="1.21248">
        <ele>12.15</ele>
        <time>2015-07-17T16:15:09Z</time>
      </trkpt>
      <trkpt lat="49.31127" lon="1.21251">
        <ele>12.15</ele>
        <time>2015-07-17T16:15:10Z</time>
      </trkpt>
      <trkpt lat="49.31127" lon="1.21256">
        <ele>11.67</ele>
        <time>2015-07-17T16:15:11Z</time>
      </trkpt>
      <trkpt lat="49.31127" lon="1.21261">
        <ele>11.67</ele>
        <time>2015-07-17T16:15:12Z</time>
      </trkpt>
      <trkpt lat="49.31126" lon="1.21265">
        <ele>12.15</ele>
        <time>2015-07-17T16:15:13Z</time>
      </trkpt>
      <trkpt lat="49.31126" lon="1.21266">
        <ele>12.15</ele>
        <time>2015-07-17T16:15:14Z</time>
      </trkpt>
      <trkpt lat="49.31126" lon="1.21269">
        <ele>12.15</ele>
        <time>2015-07-17T16:15:15Z</time>
      </trkpt>
      <trkpt lat="49.31126" lon="1.21274">
        <ele>12.15</ele>
        <time>2015-07-17T16:15:16Z</time>
      </trkpt>
      <trkpt lat="49.31125" lon="1.21279">
        <ele>11.19</ele>
        <time>2015-07-17T16:15:17Z</time>
      </trkpt>
      <trkpt lat="49.31124" lon="1.21283">
        <ele>11.19</ele>
        <time>2015-07-17T16:15:18Z</time>
      </trkpt>
      <trkpt lat="49.31124" lon="1.21288">
        <ele>11.19</ele>
        <time>2015-07-17T16:15:19Z</time>
      </trkpt>
      <trkpt lat="49.31125" lon="1.21293">
        <ele>11.67</ele>
        <time>2015-07-17T16:15:20Z</time>
      </trkpt>
      <trkpt lat="49.31126" lon="1.21299">
        <ele>10.71</ele>
        <time>2015-07-17T16:15:21Z</time>
      </trkpt>
      <trkpt lat="49.31127" lon="1.21304">
        <ele>10.23</ele>
        <time>2015-07-17T16:15:22Z</time>
      </trkpt>
      <trkpt lat="49.31126" lon="1.2131">
        <ele>10.23</ele>
        <time>2015-07-17T16:15:23Z</time>
      </trkpt>
      <trkpt lat="49.31126" lon="1.21315">
        <ele>10.71</ele>
        <time>2015-07-17T16:15:24Z</time>
      </trkpt>
      <trkpt lat="49.31126" lon="1.2132">
        <ele>10.71</ele>
        <time>2015-07-17T16:15:25Z</time>
      </trkpt>
      <trkpt lat="49.31125" lon="1.21326">
        <ele>10.71</ele>
        <time>2015-07-17T16:15:26Z</time>
      </trkpt>
      <trkpt lat="49.31124" lon="1.21332">
        <ele>10.23</ele>
        <time>2015-07-17T16:15:27Z</time>
      </trkpt>
      <trkpt lat="49.31124" lon="1.21336">
        <ele>10.23</ele>
        <time>2015-07-17T16:15:28Z</time>
      </trkpt>
      <trkpt lat="49.31124" lon="1.21341">
        <ele>10.71</ele>
        <time>2015-07-17T16:15:29Z</time>
      </trkpt>
      <trkpt lat="49.31124" lon="1.21347">
        <ele>10.71</ele>
        <time>2015-07-17T16:15:30Z</time>
      </trkpt>
      <trkpt lat="49.31124" lon="1.21352">
        <ele>10.71</ele>
        <time>2015-07-17T16:15:31Z</time>
      </trkpt>
      <trkpt lat="49.31125" lon="1.21357">
        <ele>10.71</ele>
        <time>2015-07-17T16:15:32Z</time>
      </trkpt>
      <trkpt lat="49.31125" lon="1.21362">
        <ele>11.19</ele>
        <time>2015-07-17T16:15:33Z</time>
      </trkpt>
      <trkpt lat="49.31125" lon="1.21367">
        <ele>11.19</ele>
        <time>2015-07-17T16:15:34Z</time>
      </trkpt>
      <trkpt lat="49.31125" lon="1.21372">
        <ele>11.19</ele>
        <time>2015-07-17T16:15:35Z</time>
      </trkpt>
      <trkpt lat="49.3113" lon="1.21397">
        <ele>12.63</ele>
        <time>2015-07-17T16:15:44Z</time>
      </trkpt>
      <trkpt lat="49.3113" lon="1.21403">
        <ele>12.63</ele>
        <time>2015-07-17T16:15:52Z</time>
      </trkpt>
      <trkpt lat="49.3113" lon="1.21406">
        <ele>12.63</ele>
        <time>2015-07-17T16:15:53Z</time>
      </trkpt>
      <trkpt lat="49.31131" lon="1.21409">
        <ele>12.15</ele>
        <time>2015-07-17T16:15:54Z</time>
      </trkpt>
      <trkpt lat="49.31132" lon="1.21411">
        <ele>12.15</ele>
        <time>2015-07-17T16:15:55Z</time>
      </trkpt>
      <trkpt lat="49.31133" lon="1.21414">
        <ele>12.15</ele>
        <time>2015-07-17T16:15:56Z</time>
      </trkpt>
      <trkpt lat="49.31133" lon="1.21418">
        <ele>12.15</ele>
        <time>2015-07-17T16:15:57Z</time>
      </trkpt>
      <trkpt lat="49.31133" lon="1.21422">
        <ele>12.63</ele>
        <time>2015-07-17T16:15:58Z</time>
      </trkpt>
      <trkpt lat="49.31133" lon="1.21426">
        <ele>12.63</ele>
        <time>2015-07-17T16:15:59Z</time>
      </trkpt>
      <trkpt lat="49.31134" lon="1.2143">
        <ele>12.63</ele>
        <time>2015-07-17T16:16:00Z</time>
      </trkpt>
      <trkpt lat="49.31135" lon="1.21435">
        <ele>12.63</ele>
        <time>2015-07-17T16:16:09Z</time>
      </trkpt>
      <trkpt lat="49.31136" lon="1.2143">
        <ele>12.15</ele>
        <time>2015-07-17T16:16:16Z</time>
      </trkpt>
      <trkpt lat="49.31135" lon="1.21428">
        <ele>12.15</ele>
        <time>2015-07-17T16:16:18Z</time>
      </trkpt>
      <trkpt lat="49.31134" lon="1.21413">
        <ele>12.15</ele>
        <time>2015-07-17T16:16:30Z</time>
      </trkpt>
      <trkpt lat="49.31136" lon="1.21412">
        <ele>12.15</ele>
        <time>2015-07-17T16:16:38Z</time>
      </trkpt>
      <trkpt lat="49.31138" lon="1.21412">
        <ele>12.15</ele>
        <time>2015-07-17T16:16:39Z</time>
      </trkpt>
      <trkpt lat="49.31142" lon="1.21439">
        <ele>11.67</ele>
        <time>2015-07-17T16:16:45Z</time>
      </trkpt>
      <trkpt lat="49.31142" lon="1.21445">
        <ele>11.67</ele>
        <time>2015-07-17T16:16:46Z</time>
      </trkpt>
      <trkpt lat="49.31135" lon="1.21486">
        <ele>11.67</ele>
        <time>2015-07-17T16:16:52Z</time>
      </trkpt>
      <trkpt lat="49.31134" lon="1.21493">
        <ele>11.67</ele>
        <time>2015-07-17T16:16:53Z</time>
      </trkpt>
      <trkpt lat="49.31128" lon="1.21512">
        <ele>11.67</ele>
        <time>2015-07-17T16:16:56Z</time>
      </trkpt>
      <trkpt lat="49.31121" lon="1.21535">
        <ele>11.67</ele>
        <time>2015-07-17T16:17:00Z</time>
      </trkpt>
      <trkpt lat="49.31119" lon="1.21541">
        <ele>11.67</ele>
        <time>2015-07-17T16:17:01Z</time>
      </trkpt>
      <trkpt lat="49.31107" lon="1.21567">
        <ele>12.15</ele>
        <time>2015-07-17T16:17:06Z</time>
      </trkpt>
      <trkpt lat="49.31105" lon="1.21573">
        <ele>12.15</ele>
        <time>2015-07-17T16:17:07Z</time>
      </trkpt>
      <trkpt lat="49.31103" lon="1.21579">
        <ele>12.15</ele>
        <time>2015-07-17T16:17:08Z</time>
      </trkpt>
      <trkpt lat="49.31102" lon="1.21586">
        <ele>12.15</ele>
        <time>2015-07-17T16:17:09Z</time>
      </trkpt>
      <trkpt lat="49.31101" lon="1.21593">
        <ele>11.67</ele>
        <time>2015-07-17T16:17:10Z</time>
      </trkpt>
      <trkpt lat="49.31098" lon="1.21624">
        <ele>11.67</ele>
        <time>2015-07-17T16:17:14Z</time>
      </trkpt>
      <trkpt lat="49.31098" lon="1.21631">
        <ele>11.67</ele>
        <time>2015-07-17T16:17:15Z</time>
      </trkpt>
      <trkpt lat="49.31099" lon="1.21639">
        <ele>12.15</ele>
        <time>2015-07-17T16:17:16Z</time>
      </trkpt>
      <trkpt lat="49.311" lon="1.21656">
        <ele>12.15</ele>
        <time>2015-07-17T16:17:18Z</time>
      </trkpt>
      <trkpt lat="49.31099" lon="1.21664">
        <ele>12.15</ele>
        <time>2015-07-17T16:17:19Z</time>
      </trkpt>
      <trkpt lat="49.31097" lon="1.21685">
        <ele>12.15</ele>
        <time>2015-07-17T16:17:22Z</time>
      </trkpt>
      <trkpt lat="49.31097" lon="1.21691">
        <ele>12.15</ele>
        <time>2015-07-17T16:17:23Z</time>
      </trkpt>
      <trkpt lat="49.31098" lon="1.21697">
        <ele>12.15</ele>
        <time>2015-07-17T16:17:24Z</time>
      </trkpt>
      <trkpt lat="49.31099" lon="1.21754">
        <ele>12.15</ele>
        <time>2015-07-17T16:17:34Z</time>
      </trkpt>
      <trkpt lat="49.31099" lon="1.21797">
        <ele>12.15</ele>
        <time>2015-07-17T16:17:45Z</time>
      </trkpt>
      <trkpt lat="49.31099" lon="1.21852">
        <ele>12.15</ele>
        <time>2015-07-17T16:17:56Z</time>
      </trkpt>
      <trkpt lat="49.31098" lon="1.21929">
        <ele>12.15</ele>
        <time>2015-07-17T16:18:09Z</time>
      </trkpt>
      <trkpt lat="49.31099" lon="1.21935">
        <ele>12.15</ele>
        <time>2015-07-17T16:18:10Z</time>
      </trkpt>
      <trkpt lat="49.311" lon="1.21948">
        <ele>12.15</ele>
        <time>2015-07-17T16:18:12Z</time>
      </trkpt>
      <trkpt lat="49.31105" lon="1.22008">
        <ele>12.15</ele>
        <time>2015-07-17T16:18:21Z</time>
      </trkpt>
      <trkpt lat="49.31105" lon="1.22015">
        <ele>12.15</ele>
        <time>2015-07-17T16:18:22Z</time>
      </trkpt>
      <trkpt lat="49.31113" lon="1.22081">
        <ele>12.15</ele>
        <time>2015-07-17T16:18:32Z</time>
      </trkpt>
      <trkpt lat="49.31113" lon="1.22088">
        <ele>12.15</ele>
        <time>2015-07-17T16:18:33Z</time>
      </trkpt>
      <trkpt lat="49.31113" lon="1.22095">
        <ele>12.15</ele>
        <time>2015-07-17T16:18:34Z</time>
      </trkpt>
      <trkpt lat="49.31113" lon="1.22101">
        <ele>12.15</ele>
        <time>2015-07-17T16:18:35Z</time>
      </trkpt>
      <trkpt lat="49.31113" lon="1.22108">
        <ele>12.15</ele>
        <time>2015-07-17T16:18:36Z</time>
      </trkpt>
      <trkpt lat="49.31113" lon="1.22115">
        <ele>12.15</ele>
        <time>2015-07-17T16:18:37Z</time>
      </trkpt>
      <trkpt lat="49.31113" lon="1.22122">
        <ele>12.63</ele>
        <time>2015-07-17T16:18:38Z</time>
      </trkpt>
      <trkpt lat="49.31124" lon="1.22246">
        <ele>12.63</ele>
        <time>2015-07-17T16:18:55Z</time>
      </trkpt>
      <trkpt lat="49.31127" lon="1.22284">
        <ele>12.15</ele>
        <time>2015-07-17T16:19:00Z</time>
      </trkpt>
      <trkpt lat="49.31128" lon="1.22292">
        <ele>12.63</ele>
        <time>2015-07-17T16:19:01Z</time>
      </trkpt>
      <trkpt lat="49.31141" lon="1.22374">
        <ele>12.63</ele>
        <time>2015-07-17T16:19:13Z</time>
      </trkpt>
      <trkpt lat="49.31144" lon="1.2238">
        <ele>12.63</ele>
        <time>2015-07-17T16:19:14Z</time>
      </trkpt>
      <trkpt lat="49.31147" lon="1.22386">
        <ele>12.15</ele>
        <time>2015-07-17T16:19:15Z</time>
      </trkpt>
      <trkpt lat="49.31158" lon="1.22401">
        <ele>12.15</ele>
        <time>2015-07-17T16:19:18Z</time>
      </trkpt>
      <trkpt lat="49.31178" lon="1.22424">
        <ele>12.15</ele>
        <time>2015-07-17T16:19:23Z</time>
      </trkpt>
      <trkpt lat="49.31201" lon="1.22446">
        <ele>12.15</ele>
        <time>2015-07-17T16:19:29Z</time>
      </trkpt>
      <trkpt lat="49.31212" lon="1.22459">
        <ele>12.15</ele>
        <time>2015-07-17T16:19:37Z</time>
      </trkpt>
      <trkpt lat="49.3121" lon="1.22456">
        <ele>12.63</ele>
        <time>2015-07-17T16:19:50Z</time>
      </trkpt>
      <trkpt lat="49.31211" lon="1.22457">
        <ele>12.15</ele>
        <time>2015-07-17T16:19:52Z</time>
      </trkpt>
      <trkpt lat="49.31214" lon="1.22459">
        <ele>12.15</ele>
        <time>2015-07-17T16:19:54Z</time>
      </trkpt>
      <trkpt lat="49.31216" lon="1.22462">
        <ele>12.15</ele>
        <time>2015-07-17T16:19:55Z</time>
      </trkpt>
      <trkpt lat="49.3125" lon="1.22496">
        <ele>12.15</ele>
        <time>2015-07-17T16:20:05Z</time>
      </trkpt>
      <trkpt lat="49.31261" lon="1.22507">
        <ele>12.15</ele>
        <time>2015-07-17T16:20:08Z</time>
      </trkpt>
      <trkpt lat="49.31269" lon="1.22515">
        <ele>12.15</ele>
        <time>2015-07-17T16:20:10Z</time>
      </trkpt>
      <trkpt lat="49.31281" lon="1.22526">
        <ele>12.15</ele>
        <time>2015-07-17T16:20:13Z</time>
      </trkpt>
      <trkpt lat="49.31301" lon="1.22544">
        <ele>12.15</ele>
        <time>2015-07-17T16:20:18Z</time>
      </trkpt>
      <trkpt lat="49.31312" lon="1.22554">
        <ele>12.63</ele>
        <time>2015-07-17T16:20:21Z</time>
      </trkpt>
      <trkpt lat="49.3137" lon="1.22607">
        <ele>12.15</ele>
        <time>2015-07-17T16:20:35Z</time>
      </trkpt>
      <trkpt lat="49.31414" lon="1.22652">
        <ele>12.63</ele>
        <time>2015-07-17T16:20:47Z</time>
      </trkpt>
      <trkpt lat="49.31418" lon="1.22655">
        <ele>12.63</ele>
        <time>2015-07-17T16:20:48Z</time>
      </trkpt>
      <trkpt lat="49.31437" lon="1.22676">
        <ele>13.12</ele>
        <time>2015-07-17T16:20:58Z</time>
      </trkpt>
      <trkpt lat="49.31438" lon="1.22675">
        <ele>13.12</ele>
        <time>2015-07-17T16:21:24Z</time>
      </trkpt>
      <trkpt lat="49.31439" lon="1.22677">
        <ele>12.63</ele>
        <time>2015-07-17T16:21:25Z</time>
      </trkpt>
      <trkpt lat="49.31441" lon="1.22678">
        <ele>13.12</ele>
        <time>2015-07-17T16:21:26Z</time>
      </trkpt>
      <trkpt lat="49.31443" lon="1.22681">
        <ele>13.12</ele>
        <time>2015-07-17T16:21:27Z</time>
      </trkpt>
      <trkpt lat="49.31446" lon="1.22684">
        <ele>12.63</ele>
        <time>2015-07-17T16:21:28Z</time>
      </trkpt>
      <trkpt lat="49.31461" lon="1.22703">
        <ele>13.12</ele>
        <time>2015-07-17T16:21:33Z</time>
      </trkpt>
      <trkpt lat="49.31467" lon="1.22711">
        <ele>13.12</ele>
        <time>2015-07-17T16:21:35Z</time>
      </trkpt>
      <trkpt lat="49.31506" lon="1.22755">
        <ele>13.12</ele>
        <time>2015-07-17T16:21:45Z</time>
      </trkpt>
      <trkpt lat="49.31509" lon="1.2276">
        <ele>13.12</ele>
        <time>2015-07-17T16:21:46Z</time>
      </trkpt>
      <trkpt lat="49.31511" lon="1.22764">
        <ele>13.6</ele>
        <time>2015-07-17T16:21:47Z</time>
      </trkpt>
      <trkpt lat="49.31512" lon="1.22768">
        <ele>13.6</ele>
        <time>2015-07-17T16:21:48Z</time>
      </trkpt>
      <trkpt lat="49.31511" lon="1.22772">
        <ele>13.6</ele>
        <time>2015-07-17T16:21:49Z</time>
      </trkpt>
      <trkpt lat="49.3151" lon="1.22775">
        <ele>14.08</ele>
        <time>2015-07-17T16:21:50Z</time>
      </trkpt>
      <trkpt lat="49.31508" lon="1.22778">
        <ele>14.08</ele>
        <time>2015-07-17T16:21:51Z</time>
      </trkpt>
      <trkpt lat="49.31506" lon="1.22783">
        <ele>14.08</ele>
        <time>2015-07-17T16:21:52Z</time>
      </trkpt>
      <trkpt lat="49.31495" lon="1.22807">
        <ele>14.08</ele>
        <time>2015-07-17T16:21:58Z</time>
      </trkpt>
      <trkpt lat="49.31494" lon="1.22807">
        <ele>14.08</ele>
        <time>2015-07-17T16:21:59Z</time>
      </trkpt>
      <trkpt lat="49.31491" lon="1.22805">
        <ele>13.6</ele>
        <time>2015-07-17T16:22:00Z</time>
      </trkpt>
      <trkpt lat="49.31489" lon="1.22802">
        <ele>13.6</ele>
        <time>2015-07-17T16:22:01Z</time>
      </trkpt>
      <trkpt lat="49.31486" lon="1.22797">
        <ele>13.6</ele>
        <time>2015-07-17T16:22:02Z</time>
      </trkpt>
      <trkpt lat="49.31483" lon="1.22793">
        <ele>13.6</ele>
        <time>2015-07-17T16:22:03Z</time>
      </trkpt>
      <trkpt lat="49.31477" lon="1.22784">
        <ele>13.12</ele>
        <time>2015-07-17T16:22:05Z</time>
      </trkpt>
      <trkpt lat="49.31473" lon="1.2278">
        <ele>13.12</ele>
        <time>2015-07-17T16:22:06Z</time>
      </trkpt>
      <trkpt lat="49.3147" lon="1.22777">
        <ele>13.12</ele>
        <time>2015-07-17T16:22:07Z</time>
      </trkpt>
      <trkpt lat="49.31463" lon="1.2277">
        <ele>13.12</ele>
        <time>2015-07-17T16:22:09Z</time>
      </trkpt>
      <trkpt lat="49.31453" lon="1.22756">
        <ele>13.12</ele>
        <time>2015-07-17T16:22:12Z</time>
      </trkpt>
      <trkpt lat="49.31449" lon="1.22753">
        <ele>13.12</ele>
        <time>2015-07-17T16:22:13Z</time>
      </trkpt>
      <trkpt lat="49.31445" lon="1.22749">
        <ele>13.12</ele>
        <time>2015-07-17T16:22:14Z</time>
      </trkpt>
      <trkpt lat="49.31422" lon="1.22724">
        <ele>13.12</ele>
        <time>2015-07-17T16:22:21Z</time>
      </trkpt>
      <trkpt lat="49.31418" lon="1.2272">
        <ele>13.12</ele>
        <time>2015-07-17T16:22:22Z</time>
      </trkpt>
      <trkpt lat="49.31414" lon="1.22716">
        <ele>13.12</ele>
        <time>2015-07-17T16:22:23Z</time>
      </trkpt>
      <trkpt lat="49.31387" lon="1.22691">
        <ele>13.12</ele>
        <time>2015-07-17T16:22:29Z</time>
      </trkpt>
      <trkpt lat="49.31384" lon="1.22686">
        <ele>13.12</ele>
        <time>2015-07-17T16:22:30Z</time>
      </trkpt>
      <trkpt lat="49.31378" lon="1.22678">
        <ele>13.12</ele>
        <time>2015-07-17T16:22:32Z</time>
      </trkpt>
      <trkpt lat="49.31363" lon="1.22665">
        <ele>13.12</ele>
        <time>2015-07-17T16:22:36Z</time>
      </trkpt>
      <trkpt lat="49.3136" lon="1.22665">
        <ele>13.6</ele>
        <time>2015-07-17T16:22:37Z</time>
      </trkpt>
      <trkpt lat="49.31357" lon="1.22664">
        <ele>13.6</ele>
        <time>2015-07-17T16:22:38Z</time>
      </trkpt>
      <trkpt lat="49.31343" lon="1.22649">
        <ele>13.6</ele>
        <time>2015-07-17T16:22:43Z</time>
      </trkpt>
      <trkpt lat="49.3134" lon="1.22645">
        <ele>13.6</ele>
        <time>2015-07-17T16:22:44Z</time>
      </trkpt>
      <trkpt lat="49.31332" lon="1.22637">
        <ele>13.6</ele>
        <time>2015-07-17T16:22:46Z</time>
      </trkpt>
      <trkpt lat="49.31327" lon="1.22634">
        <ele>13.6</ele>
        <time>2015-07-17T16:22:47Z</time>
      </trkpt>
      <trkpt lat="49.31323" lon="1.22631">
        <ele>13.12</ele>
        <time>2015-07-17T16:22:48Z</time>
      </trkpt>
      <trkpt lat="49.31319" lon="1.22627">
        <ele>13.12</ele>
        <time>2015-07-17T16:22:49Z</time>
      </trkpt>
      <trkpt lat="49.31315" lon="1.22623">
        <ele>13.12</ele>
        <time>2015-07-17T16:22:50Z</time>
      </trkpt>
      <trkpt lat="49.31261" lon="1.22575">
        <ele>13.6</ele>
        <time>2015-07-17T16:23:02Z</time>
      </trkpt>
      <trkpt lat="49.31257" lon="1.22571">
        <ele>13.12</ele>
        <time>2015-07-17T16:23:03Z</time>
      </trkpt>
      <trkpt lat="49.31252" lon="1.22568">
        <ele>13.12</ele>
        <time>2015-07-17T16:23:04Z</time>
      </trkpt>
      <trkpt lat="49.31188" lon="1.22514">
        <ele>13.12</ele>
        <time>2015-07-17T16:23:19Z</time>
      </trkpt>
      <trkpt lat="49.3118" lon="1.22507">
        <ele>13.6</ele>
        <time>2015-07-17T16:23:21Z</time>
      </trkpt>
      <trkpt lat="49.31176" lon="1.22503">
        <ele>13.12</ele>
        <time>2015-07-17T16:23:22Z</time>
      </trkpt>
      <trkpt lat="49.31172" lon="1.225">
        <ele>13.12</ele>
        <time>2015-07-17T16:23:23Z</time>
      </trkpt>
      <trkpt lat="49.31168" lon="1.22498">
        <ele>13.12</ele>
        <time>2015-07-17T16:23:24Z</time>
      </trkpt>
      <trkpt lat="49.31165" lon="1.22497">
        <ele>13.12</ele>
        <time>2015-07-17T16:23:25Z</time>
      </trkpt>
      <trkpt lat="49.3116" lon="1.2252">
        <ele>13.12</ele>
        <time>2015-07-17T16:23:30Z</time>
      </trkpt>
      <trkpt lat="49.31162" lon="1.22526">
        <ele>13.12</ele>
        <time>2015-07-17T16:23:31Z</time>
      </trkpt>
      <trkpt lat="49.31164" lon="1.22533">
        <ele>13.6</ele>
        <time>2015-07-17T16:23:32Z</time>
      </trkpt>
      <trkpt lat="49.31166" lon="1.2254">
        <ele>13.12</ele>
        <time>2015-07-17T16:23:33Z</time>
      </trkpt>
      <trkpt lat="49.31167" lon="1.22547">
        <ele>13.6</ele>
        <time>2015-07-17T16:23:34Z</time>
      </trkpt>
      <trkpt lat="49.31189" lon="1.22656">
        <ele>13.12</ele>
        <time>2015-07-17T16:23:48Z</time>
      </trkpt>
      <trkpt lat="49.31209" lon="1.22766">
        <ele>13.6</ele>
        <time>2015-07-17T16:24:02Z</time>
      </trkpt>
      <trkpt lat="49.31211" lon="1.22812">
        <ele>13.12</ele>
        <time>2015-07-17T16:24:08Z</time>
      </trkpt>
      <trkpt lat="49.31213" lon="1.22819">
        <ele>13.6</ele>
        <time>2015-07-17T16:24:09Z</time>
      </trkpt>
      <trkpt lat="49.31218" lon="1.22857">
        <ele>13.12</ele>
        <time>2015-07-17T16:24:14Z</time>
      </trkpt>
      <trkpt lat="49.31219" lon="1.22866">
        <ele>13.12</ele>
        <time>2015-07-17T16:24:15Z</time>
      </trkpt>
      <trkpt lat="49.3122" lon="1.22874">
        <ele>13.12</ele>
        <time>2015-07-17T16:24:16Z</time>
      </trkpt>
      <trkpt lat="49.31221" lon="1.22883">
        <ele>13.12</ele>
        <time>2015-07-17T16:24:17Z</time>
      </trkpt>
      <trkpt lat="49.31223" lon="1.22891">
        <ele>13.12</ele>
        <time>2015-07-17T16:24:18Z</time>
      </trkpt>
      <trkpt lat="49.31242" lon="1.23011">
        <ele>13.12</ele>
        <time>2015-07-17T16:24:32Z</time>
      </trkpt>
      <trkpt lat="49.31269" lon="1.23168">
        <ele>13.6</ele>
        <time>2015-07-17T16:24:51Z</time>
      </trkpt>
      <trkpt lat="49.31272" lon="1.23175">
        <ele>14.08</ele>
        <time>2015-07-17T16:24:52Z</time>
      </trkpt>
      <trkpt lat="49.31275" lon="1.2318">
        <ele>14.08</ele>
        <time>2015-07-17T16:24:53Z</time>
      </trkpt>
      <trkpt lat="49.31279" lon="1.23184">
        <ele>14.08</ele>
        <time>2015-07-17T16:24:54Z</time>
      </trkpt>
      <trkpt lat="49.31282" lon="1.23188">
        <ele>14.08</ele>
        <time>2015-07-17T16:24:55Z</time>
      </trkpt>
      <trkpt lat="49.31283" lon="1.23193">
        <ele>14.08</ele>
        <time>2015-07-17T16:24:56Z</time>
      </trkpt>
      <trkpt lat="49.31283" lon="1.23199">
        <ele>14.56</ele>
        <time>2015-07-17T16:24:57Z</time>
      </trkpt>
      <trkpt lat="49.31281" lon="1.23204">
        <ele>14.56</ele>
        <time>2015-07-17T16:24:58Z</time>
      </trkpt>
      <trkpt lat="49.31271" lon="1.23256">
        <ele>15.04</ele>
        <time>2015-07-17T16:25:06Z</time>
      </trkpt>
      <trkpt lat="49.31272" lon="1.23279">
        <ele>14.56</ele>
        <time>2015-07-17T16:25:09Z</time>
      </trkpt>
      <trkpt lat="49.31285" lon="1.23416">
        <ele>14.56</ele>
        <time>2015-07-17T16:25:25Z</time>
      </trkpt>
      <trkpt lat="49.31286" lon="1.23554">
        <ele>14.56</ele>
        <time>2015-07-17T16:25:41Z</time>
      </trkpt>
      <trkpt lat="49.31285" lon="1.23563">
        <ele>15.04</ele>
        <time>2015-07-17T16:25:42Z</time>
      </trkpt>
      <trkpt lat="49.31283" lon="1.23571">
        <ele>14.56</ele>
        <time>2015-07-17T16:25:43Z</time>
      </trkpt>
      <trkpt lat="49.31274" lon="1.23627">
        <ele>15.04</ele>
        <time>2015-07-17T16:25:50Z</time>
      </trkpt>
      <trkpt lat="49.31273" lon="1.23635">
        <ele>15.04</ele>
        <time>2015-07-17T16:25:51Z</time>
      </trkpt>
      <trkpt lat="49.31265" lon="1.23768">
        <ele>15.04</ele>
        <time>2015-07-17T16:26:08Z</time>
      </trkpt>
      <trkpt lat="49.3126" lon="1.23823">
        <ele>17.92</ele>
        <time>2015-07-17T16:26:17Z</time>
      </trkpt>
      <trkpt lat="49.3126" lon="1.2383">
        <ele>18.88</ele>
        <time>2015-07-17T16:26:19Z</time>
      </trkpt>
      <trkpt lat="49.3126" lon="1.23836">
        <ele>20.32</ele>
        <time>2015-07-17T16:26:21Z</time>
      </trkpt>
      <trkpt lat="49.31259" lon="1.23839">
        <ele>20.81</ele>
        <time>2015-07-17T16:26:23Z</time>
      </trkpt>
      <trkpt lat="49.31257" lon="1.23838">
        <ele>20.81</ele>
        <time>2015-07-17T16:26:24Z</time>
      </trkpt>
      <trkpt lat="49.31255" lon="1.23837">
        <ele>20.81</ele>
        <time>2015-07-17T16:26:25Z</time>
      </trkpt>
      <trkpt lat="49.31253" lon="1.23834">
        <ele>21.29</ele>
        <time>2015-07-17T16:26:26Z</time>
      </trkpt>
      <trkpt lat="49.3125" lon="1.23832">
        <ele>21.29</ele>
        <time>2015-07-17T16:26:27Z</time>
      </trkpt>
      <trkpt lat="49.31211" lon="1.23798">
        <ele>22.25</ele>
        <time>2015-07-17T16:26:40Z</time>
      </trkpt>
      <trkpt lat="49.3118" lon="1.23772">
        <ele>22.73</ele>
        <time>2015-07-17T16:26:52Z</time>
      </trkpt>
      <trkpt lat="49.31145" lon="1.23743">
        <ele>22.73</ele>
        <time>2015-07-17T16:27:02Z</time>
      </trkpt>
      <trkpt lat="49.31072" lon="1.23683">
        <ele>21.29</ele>
        <time>2015-07-17T16:27:16Z</time>
      </trkpt>
      <trkpt lat="49.31004" lon="1.23627">
        <ele>21.29</ele>
        <time>2015-07-17T16:27:31Z</time>
      </trkpt>
      <trkpt lat="49.30933" lon="1.23569">
        <ele>21.77</ele>
        <time>2015-07-17T16:27:46Z</time>
      </trkpt>
      <trkpt lat="49.30907" lon="1.2355">
        <ele>20.32</ele>
        <time>2015-07-17T16:27:52Z</time>
      </trkpt>
      <trkpt lat="49.30902" lon="1.23546">
        <ele>19.84</ele>
        <time>2015-07-17T16:27:53Z</time>
      </trkpt>
      <trkpt lat="49.30865" lon="1.23504">
        <ele>17.92</ele>
        <time>2015-07-17T16:28:02Z</time>
      </trkpt>
      <trkpt lat="49.30861" lon="1.23502">
        <ele>17.44</ele>
        <time>2015-07-17T16:28:03Z</time>
      </trkpt>
      <trkpt lat="49.30857" lon="1.23503">
        <ele>16.96</ele>
        <time>2015-07-17T16:28:04Z</time>
      </trkpt>
      <trkpt lat="49.30853" lon="1.23505">
        <ele>16.48</ele>
        <time>2015-07-17T16:28:05Z</time>
      </trkpt>
      <trkpt lat="49.3085" lon="1.23509">
        <ele>16.48</ele>
        <time>2015-07-17T16:28:06Z</time>
      </trkpt>
      <trkpt lat="49.30847" lon="1.23511">
        <ele>16.48</ele>
        <time>2015-07-17T16:28:07Z</time>
      </trkpt>
      <trkpt lat="49.30845" lon="1.23512">
        <ele>16.48</ele>
        <time>2015-07-17T16:28:08Z</time>
      </trkpt>
      <trkpt lat="49.30844" lon="1.23513">
        <ele>16.48</ele>
        <time>2015-07-17T16:28:09Z</time>
      </trkpt>
      <trkpt lat="49.30843" lon="1.23515">
        <ele>16.48</ele>
        <time>2015-07-17T16:28:18Z</time>
      </trkpt>
      <trkpt lat="49.30844" lon="1.23517">
        <ele>16.48</ele>
        <time>2015-07-17T16:28:53Z</time>
      </trkpt>
      <trkpt lat="49.30845" lon="1.23518">
        <ele>16.48</ele>
        <time>2015-07-17T16:29:28Z</time>
      </trkpt>
      <trkpt lat="49.30843" lon="1.23519">
        <ele>16.48</ele>
        <time>2015-07-17T16:30:12Z</time>
      </trkpt>
      <trkpt lat="49.30844" lon="1.23519">
        <ele>16</ele>
        <time>2015-07-17T16:31:00Z</time>
      </trkpt>
      <trkpt lat="49.30845" lon="1.23518">
        <ele>16</ele>
        <time>2015-07-17T16:31:20Z</time>
      </trkpt>
      <trkpt lat="49.30845" lon="1.2352">
        <ele>15.52</ele>
        <time>2015-07-17T16:31:39Z</time>
      </trkpt>
      <trkpt lat="49.30844" lon="1.23523">
        <ele>15.52</ele>
        <time>2015-07-17T16:31:40Z</time>
      </trkpt>
      <trkpt lat="49.30844" lon="1.23526">
        <ele>15.52</ele>
        <time>2015-07-17T16:31:41Z</time>
      </trkpt>
      <trkpt lat="49.30843" lon="1.2353">
        <ele>15.52</ele>
        <time>2015-07-17T16:31:42Z</time>
      </trkpt>
      <trkpt lat="49.30843" lon="1.23534">
        <ele>15.52</ele>
        <time>2015-07-17T16:31:43Z</time>
      </trkpt>
      <trkpt lat="49.30843" lon="1.23539">
        <ele>15.52</ele>
        <time>2015-07-17T16:31:44Z</time>
      </trkpt>
      <trkpt lat="49.30843" lon="1.23544">
        <ele>15.52</ele>
        <time>2015-07-17T16:31:45Z</time>
      </trkpt>
      <trkpt lat="49.30842" lon="1.23549">
        <ele>15.52</ele>
        <time>2015-07-17T16:31:46Z</time>
      </trkpt>
      <trkpt lat="49.30846" lon="1.23648">
        <ele>15.04</ele>
        <time>2015-07-17T16:32:00Z</time>
      </trkpt>
      <trkpt lat="49.30848" lon="1.23656">
        <ele>15.04</ele>
        <time>2015-07-17T16:32:01Z</time>
      </trkpt>
      <trkpt lat="49.30867" lon="1.23729">
        <ele>14.56</ele>
        <time>2015-07-17T16:32:11Z</time>
      </trkpt>
      <trkpt lat="49.30868" lon="1.23738">
        <ele>14.56</ele>
        <time>2015-07-17T16:32:12Z</time>
      </trkpt>
      <trkpt lat="49.30867" lon="1.23746">
        <ele>14.08</ele>
        <time>2015-07-17T16:32:13Z</time>
      </trkpt>
      <trkpt lat="49.30865" lon="1.23765">
        <ele>13.6</ele>
        <time>2015-07-17T16:32:15Z</time>
      </trkpt>
      <trkpt lat="49.30863" lon="1.23774">
        <ele>13.6</ele>
        <time>2015-07-17T16:32:16Z</time>
      </trkpt>
      <trkpt lat="49.30861" lon="1.23783">
        <ele>13.6</ele>
        <time>2015-07-17T16:32:17Z</time>
      </trkpt>
      <trkpt lat="49.30852" lon="1.23805">
        <ele>13.6</ele>
        <time>2015-07-17T16:32:20Z</time>
      </trkpt>
      <trkpt lat="49.30848" lon="1.23811">
        <ele>13.6</ele>
        <time>2015-07-17T16:32:21Z</time>
      </trkpt>
      <trkpt lat="49.30844" lon="1.23815">
        <ele>14.08</ele>
        <time>2015-07-17T16:32:22Z</time>
      </trkpt>
      <trkpt lat="49.30839" lon="1.23819">
        <ele>13.6</ele>
        <time>2015-07-17T16:32:23Z</time>
      </trkpt>
      <trkpt lat="49.30834" lon="1.23821">
        <ele>13.6</ele>
        <time>2015-07-17T16:32:24Z</time>
      </trkpt>
      <trkpt lat="49.30825" lon="1.23828">
        <ele>14.08</ele>
        <time>2015-07-17T16:32:26Z</time>
      </trkpt>
      <trkpt lat="49.30821" lon="1.23832">
        <ele>14.08</ele>
        <time>2015-07-17T16:32:27Z</time>
      </trkpt>
      <trkpt lat="49.30818" lon="1.23838">
        <ele>13.6</ele>
        <time>2015-07-17T16:32:28Z</time>
      </trkpt>
      <trkpt lat="49.30814" lon="1.23851">
        <ele>14.08</ele>
        <time>2015-07-17T16:32:30Z</time>
      </trkpt>
      <trkpt lat="49.30796" lon="1.23965">
        <ele>14.08</ele>
        <time>2015-07-17T16:32:44Z</time>
      </trkpt>
      <trkpt lat="49.30781" lon="1.2403">
        <ele>14.56</ele>
        <time>2015-07-17T16:32:55Z</time>
      </trkpt>
      <trkpt lat="49.30762" lon="1.24094">
        <ele>14.56</ele>
        <time>2015-07-17T16:33:05Z</time>
      </trkpt>
      <trkpt lat="49.30758" lon="1.24101">
        <ele>14.08</ele>
        <time>2015-07-17T16:33:06Z</time>
      </trkpt>
      <trkpt lat="49.30755" lon="1.24107">
        <ele>14.56</ele>
        <time>2015-07-17T16:33:07Z</time>
      </trkpt>
      <trkpt lat="49.30739" lon="1.24131">
        <ele>14.08</ele>
        <time>2015-07-17T16:33:11Z</time>
      </trkpt>
      <trkpt lat="49.30666" lon="1.24235">
        <ele>14.08</ele>
        <time>2015-07-17T16:33:28Z</time>
      </trkpt>
      <trkpt lat="49.30615" lon="1.24338">
        <ele>14.08</ele>
        <time>2015-07-17T16:33:43Z</time>
      </trkpt>
      <trkpt lat="49.30611" lon="1.24344">
        <ele>14.08</ele>
        <time>2015-07-17T16:33:44Z</time>
      </trkpt>
      <trkpt lat="49.30598" lon="1.24363">
        <ele>14.08</ele>
        <time>2015-07-17T16:33:48Z</time>
      </trkpt>
      <trkpt lat="49.30595" lon="1.2437">
        <ele>14.08</ele>
        <time>2015-07-17T16:33:49Z</time>
      </trkpt>
      <trkpt lat="49.30551" lon="1.24476">
        <ele>14.08</ele>
        <time>2015-07-17T16:34:03Z</time>
      </trkpt>
      <trkpt lat="49.30515" lon="1.24572">
        <ele>14.08</ele>
        <time>2015-07-17T16:34:15Z</time>
      </trkpt>
      <trkpt lat="49.30475" lon="1.24682">
        <ele>14.08</ele>
        <time>2015-07-17T16:34:29Z</time>
      </trkpt>
      <trkpt lat="49.30471" lon="1.24689">
        <ele>14.08</ele>
        <time>2015-07-17T16:34:30Z</time>
      </trkpt>
      <trkpt lat="49.30467" lon="1.24696">
        <ele>14.08</ele>
        <time>2015-07-17T16:34:31Z</time>
      </trkpt>
      <trkpt lat="49.30462" lon="1.24702">
        <ele>14.08</ele>
        <time>2015-07-17T16:34:32Z</time>
      </trkpt>
      <trkpt lat="49.30457" lon="1.24708">
        <ele>14.08</ele>
        <time>2015-07-17T16:34:33Z</time>
      </trkpt>
      <trkpt lat="49.30385" lon="1.24792">
        <ele>14.08</ele>
        <time>2015-07-17T16:34:48Z</time>
      </trkpt>
      <trkpt lat="49.30312" lon="1.24867">
        <ele>14.08</ele>
        <time>2015-07-17T16:35:03Z</time>
      </trkpt>
      <trkpt lat="49.30289" lon="1.24894">
        <ele>14.08</ele>
        <time>2015-07-17T16:35:08Z</time>
      </trkpt>
      <trkpt lat="49.30227" lon="1.25021">
        <ele>14.08</ele>
        <time>2015-07-17T16:35:25Z</time>
      </trkpt>
      <trkpt lat="49.30214" lon="1.25041">
        <ele>14.08</ele>
        <time>2015-07-17T16:35:28Z</time>
      </trkpt>
      <trkpt lat="49.30133" lon="1.25116">
        <ele>14.08</ele>
        <time>2015-07-17T16:35:44Z</time>
      </trkpt>
      <trkpt lat="49.3005" lon="1.25178">
        <ele>14.08</ele>
        <time>2015-07-17T16:36:00Z</time>
      </trkpt>
      <trkpt lat="49.29992" lon="1.25222">
        <ele>14.56</ele>
        <time>2015-07-17T16:36:11Z</time>
      </trkpt>
      <trkpt lat="49.29978" lon="1.25236">
        <ele>14.56</ele>
        <time>2015-07-17T16:36:14Z</time>
      </trkpt>
      <trkpt lat="49.29974" lon="1.2524">
        <ele>14.08</ele>
        <time>2015-07-17T16:36:15Z</time>
      </trkpt>
      <trkpt lat="49.29963" lon="1.25253">
        <ele>14.56</ele>
        <time>2015-07-17T16:36:18Z</time>
      </trkpt>
      <trkpt lat="49.29959" lon="1.25255">
        <ele>14.56</ele>
        <time>2015-07-17T16:36:19Z</time>
      </trkpt>
      <trkpt lat="49.29955" lon="1.25254">
        <ele>14.56</ele>
        <time>2015-07-17T16:36:20Z</time>
      </trkpt>
      <trkpt lat="49.29952" lon="1.2525">
        <ele>14.56</ele>
        <time>2015-07-17T16:36:21Z</time>
      </trkpt>
      <trkpt lat="49.29949" lon="1.25244">
        <ele>14.56</ele>
        <time>2015-07-17T16:36:22Z</time>
      </trkpt>
      <trkpt lat="49.29945" lon="1.25237">
        <ele>14.08</ele>
        <time>2015-07-17T16:36:23Z</time>
      </trkpt>
      <trkpt lat="49.29901" lon="1.25161">
        <ele>14.08</ele>
        <time>2015-07-17T16:36:35Z</time>
      </trkpt>
      <trkpt lat="49.29872" lon="1.25098">
        <ele>13.6</ele>
        <time>2015-07-17T16:36:44Z</time>
      </trkpt>
      <trkpt lat="49.29869" lon="1.25091">
        <ele>13.6</ele>
        <time>2015-07-17T16:36:45Z</time>
      </trkpt>
      <trkpt lat="49.29831" lon="1.25008">
        <ele>13.12</ele>
        <time>2015-07-17T16:36:56Z</time>
      </trkpt>
      <trkpt lat="49.29825" lon="1.24993">
        <ele>13.12</ele>
        <time>2015-07-17T16:36:58Z</time>
      </trkpt>
      <trkpt lat="49.29811" lon="1.24964">
        <ele>13.6</ele>
        <time>2015-07-17T16:37:02Z</time>
      </trkpt>
      <trkpt lat="49.29807" lon="1.24956">
        <ele>13.6</ele>
        <time>2015-07-17T16:37:03Z</time>
      </trkpt>
      <trkpt lat="49.29803" lon="1.24948">
        <ele>13.12</ele>
        <time>2015-07-17T16:37:04Z</time>
      </trkpt>
      <trkpt lat="49.29768" lon="1.24875">
        <ele>13.6</ele>
        <time>2015-07-17T16:37:14Z</time>
      </trkpt>
      <trkpt lat="49.29762" lon="1.24858">
        <ele>13.6</ele>
        <time>2015-07-17T16:37:16Z</time>
      </trkpt>
      <trkpt lat="49.29715" lon="1.24765">
        <ele>14.08</ele>
        <time>2015-07-17T16:37:29Z</time>
      </trkpt>
      <trkpt lat="49.29644" lon="1.24646">
        <ele>14.56</ele>
        <time>2015-07-17T16:37:47Z</time>
      </trkpt>
      <trkpt lat="49.29571" lon="1.24516">
        <ele>14.08</ele>
        <time>2015-07-17T16:38:05Z</time>
      </trkpt>
      <trkpt lat="49.29522" lon="1.24415">
        <ele>14.08</ele>
        <time>2015-07-17T16:38:19Z</time>
      </trkpt>
      <trkpt lat="49.29521" lon="1.24406">
        <ele>14.08</ele>
        <time>2015-07-17T16:38:20Z</time>
      </trkpt>
      <trkpt lat="49.29522" lon="1.24398">
        <ele>14.08</ele>
        <time>2015-07-17T16:38:21Z</time>
      </trkpt>
      <trkpt lat="49.29523" lon="1.2439">
        <ele>14.08</ele>
        <time>2015-07-17T16:38:22Z</time>
      </trkpt>
      <trkpt lat="49.29525" lon="1.24383">
        <ele>13.6</ele>
        <time>2015-07-17T16:38:23Z</time>
      </trkpt>
      <trkpt lat="49.29528" lon="1.24376">
        <ele>13.6</ele>
        <time>2015-07-17T16:38:24Z</time>
      </trkpt>
      <trkpt lat="49.2953" lon="1.24371">
        <ele>13.12</ele>
        <time>2015-07-17T16:38:25Z</time>
      </trkpt>
      <trkpt lat="49.29531" lon="1.24365">
        <ele>13.12</ele>
        <time>2015-07-17T16:38:26Z</time>
      </trkpt>
      <trkpt lat="49.2953" lon="1.24358">
        <ele>13.12</ele>
        <time>2015-07-17T16:38:27Z</time>
      </trkpt>
      <trkpt lat="49.29527" lon="1.24353">
        <ele>12.63</ele>
        <time>2015-07-17T16:38:28Z</time>
      </trkpt>
      <trkpt lat="49.29522" lon="1.24348">
        <ele>12.63</ele>
        <time>2015-07-17T16:38:29Z</time>
      </trkpt>
      <trkpt lat="49.29518" lon="1.24343">
        <ele>12.63</ele>
        <time>2015-07-17T16:38:30Z</time>
      </trkpt>
      <trkpt lat="49.29514" lon="1.24337">
        <ele>13.12</ele>
        <time>2015-07-17T16:38:31Z</time>
      </trkpt>
      <trkpt lat="49.2946" lon="1.24235">
        <ele>13.12</ele>
        <time>2015-07-17T16:38:46Z</time>
      </trkpt>
      <trkpt lat="49.29398" lon="1.24101">
        <ele>13.6</ele>
        <time>2015-07-17T16:39:05Z</time>
      </trkpt>
      <trkpt lat="49.29332" lon="1.23992">
        <ele>14.56</ele>
        <time>2015-07-17T16:39:22Z</time>
      </trkpt>
      <trkpt lat="49.29317" lon="1.23976">
        <ele>13.6</ele>
        <time>2015-07-17T16:39:25Z</time>
      </trkpt>
      <trkpt lat="49.29302" lon="1.23963">
        <ele>13.6</ele>
        <time>2015-07-17T16:39:28Z</time>
      </trkpt>
      <trkpt lat="49.29212" lon="1.23922">
        <ele>13.6</ele>
        <time>2015-07-17T16:39:44Z</time>
      </trkpt>
      <trkpt lat="49.29144" lon="1.2391">
        <ele>13.12</ele>
        <time>2015-07-17T16:39:55Z</time>
      </trkpt>
      <trkpt lat="49.29074" lon="1.23873">
        <ele>13.12</ele>
        <time>2015-07-17T16:40:07Z</time>
      </trkpt>
      <trkpt lat="49.28997" lon="1.23782">
        <ele>13.6</ele>
        <time>2015-07-17T16:40:23Z</time>
      </trkpt>
      <trkpt lat="49.28938" lon="1.23656">
        <ele>14.08</ele>
        <time>2015-07-17T16:40:40Z</time>
      </trkpt>
      <trkpt lat="49.28881" lon="1.23523">
        <ele>14.08</ele>
        <time>2015-07-17T16:40:58Z</time>
      </trkpt>
      <trkpt lat="49.28812" lon="1.23408">
        <ele>15.04</ele>
        <time>2015-07-17T16:41:16Z</time>
      </trkpt>
      <trkpt lat="49.28807" lon="1.23403">
        <ele>15.04</ele>
        <time>2015-07-17T16:41:17Z</time>
      </trkpt>
      <trkpt lat="49.28708" lon="1.23325">
        <ele>14.08</ele>
        <time>2015-07-17T16:41:35Z</time>
      </trkpt>
      <trkpt lat="49.28602" lon="1.23249">
        <ele>14.08</ele>
        <time>2015-07-17T16:41:54Z</time>
      </trkpt>
      <trkpt lat="49.28512" lon="1.23166">
        <ele>14.08</ele>
        <time>2015-07-17T16:42:11Z</time>
      </trkpt>
      <trkpt lat="49.28442" lon="1.23093">
        <ele>13.6</ele>
        <time>2015-07-17T16:42:25Z</time>
      </trkpt>
      <trkpt lat="49.28343" lon="1.2299">
        <ele>14.08</ele>
        <time>2015-07-17T16:42:45Z</time>
      </trkpt>
      <trkpt lat="49.28259" lon="1.22903">
        <ele>13.6</ele>
        <time>2015-07-17T16:43:02Z</time>
      </trkpt>
      <trkpt lat="49.28174" lon="1.22808">
        <ele>13.12</ele>
        <time>2015-07-17T16:43:20Z</time>
      </trkpt>
      <trkpt lat="49.28098" lon="1.22699">
        <ele>13.6</ele>
        <time>2015-07-17T16:43:40Z</time>
      </trkpt>
      <trkpt lat="49.28055" lon="1.22628">
        <ele>14.08</ele>
        <time>2015-07-17T16:43:54Z</time>
      </trkpt>
      <trkpt lat="49.28054" lon="1.22625">
        <ele>15.04</ele>
        <time>2015-07-17T16:43:55Z</time>
      </trkpt>
      <trkpt lat="49.28052" lon="1.22623">
        <ele>15.52</ele>
        <time>2015-07-17T16:43:56Z</time>
      </trkpt>
      <trkpt lat="49.28049" lon="1.22621">
        <ele>15.52</ele>
        <time>2015-07-17T16:43:57Z</time>
      </trkpt>
      <trkpt lat="49.28047" lon="1.2262">
        <ele>15.52</ele>
        <time>2015-07-17T16:43:58Z</time>
      </trkpt>
      <trkpt lat="49.28043" lon="1.2262">
        <ele>15.52</ele>
        <time>2015-07-17T16:43:59Z</time>
      </trkpt>
      <trkpt lat="49.28036" lon="1.22623">
        <ele>15.52</ele>
        <time>2015-07-17T16:44:01Z</time>
      </trkpt>
      <trkpt lat="49.28028" lon="1.22627">
        <ele>15.52</ele>
        <time>2015-07-17T16:44:03Z</time>
      </trkpt>
      <trkpt lat="49.27955" lon="1.22683">
        <ele>15.04</ele>
        <time>2015-07-17T16:44:18Z</time>
      </trkpt>
      <trkpt lat="49.27862" lon="1.22757">
        <ele>16</ele>
        <time>2015-07-17T16:44:36Z</time>
      </trkpt>
      <trkpt lat="49.27781" lon="1.2282">
        <ele>15.04</ele>
        <time>2015-07-17T16:44:51Z</time>
      </trkpt>
      <trkpt lat="49.27708" lon="1.22877">
        <ele>15.52</ele>
        <time>2015-07-17T16:45:05Z</time>
      </trkpt>
      <trkpt lat="49.27626" lon="1.22939">
        <ele>15.04</ele>
        <time>2015-07-17T16:45:20Z</time>
      </trkpt>
      <trkpt lat="49.27589" lon="1.22961">
        <ele>15.04</ele>
        <time>2015-07-17T16:45:27Z</time>
      </trkpt>
      <trkpt lat="49.27583" lon="1.22962">
        <ele>15.04</ele>
        <time>2015-07-17T16:45:28Z</time>
      </trkpt>
      <trkpt lat="49.27577" lon="1.22961">
        <ele>15.04</ele>
        <time>2015-07-17T16:45:29Z</time>
      </trkpt>
      <trkpt lat="49.27572" lon="1.22959">
        <ele>15.04</ele>
        <time>2015-07-17T16:45:30Z</time>
      </trkpt>
      <trkpt lat="49.27567" lon="1.22955">
        <ele>15.04</ele>
        <time>2015-07-17T16:45:31Z</time>
      </trkpt>
      <trkpt lat="49.27562" lon="1.2295">
        <ele>15.04</ele>
        <time>2015-07-17T16:45:32Z</time>
      </trkpt>
      <trkpt lat="49.27559" lon="1.22944">
        <ele>15.04</ele>
        <time>2015-07-17T16:45:33Z</time>
      </trkpt>
      <trkpt lat="49.27555" lon="1.22937">
        <ele>15.04</ele>
        <time>2015-07-17T16:45:34Z</time>
      </trkpt>
      <trkpt lat="49.27552" lon="1.2293">
        <ele>15.04</ele>
        <time>2015-07-17T16:45:35Z</time>
      </trkpt>
      <trkpt lat="49.27549" lon="1.22922">
        <ele>15.04</ele>
        <time>2015-07-17T16:45:36Z</time>
      </trkpt>
      <trkpt lat="49.27546" lon="1.22915">
        <ele>15.04</ele>
        <time>2015-07-17T16:45:37Z</time>
      </trkpt>
      <trkpt lat="49.27541" lon="1.22909">
        <ele>15.04</ele>
        <time>2015-07-17T16:45:38Z</time>
      </trkpt>
      <trkpt lat="49.27533" lon="1.22897">
        <ele>15.04</ele>
        <time>2015-07-17T16:45:40Z</time>
      </trkpt>
      <trkpt lat="49.27529" lon="1.22891">
        <ele>15.04</ele>
        <time>2015-07-17T16:45:41Z</time>
      </trkpt>
      <trkpt lat="49.27526" lon="1.22883">
        <ele>14.56</ele>
        <time>2015-07-17T16:45:42Z</time>
      </trkpt>
      <trkpt lat="49.27483" lon="1.22753">
        <ele>14.56</ele>
        <time>2015-07-17T16:45:59Z</time>
      </trkpt>
      <trkpt lat="49.27448" lon="1.22646">
        <ele>11.19</ele>
        <time>2015-07-17T16:46:12Z</time>
      </trkpt>
      <trkpt lat="49.27435" lon="1.22611">
        <ele>9.75</ele>
        <time>2015-07-17T16:46:16Z</time>
      </trkpt>
      <trkpt lat="49.27414" lon="1.22547">
        <ele>11.67</ele>
        <time>2015-07-17T16:46:24Z</time>
      </trkpt>
      <trkpt lat="49.27385" lon="1.22458">
        <ele>14.56</ele>
        <time>2015-07-17T16:46:37Z</time>
      </trkpt>
      <trkpt lat="49.27377" lon="1.22433">
        <ele>14.56</ele>
        <time>2015-07-17T16:46:41Z</time>
      </trkpt>
      <trkpt lat="49.27343" lon="1.2234">
        <ele>14.56</ele>
        <time>2015-07-17T16:46:56Z</time>
      </trkpt>
      <trkpt lat="49.27309" lon="1.22221">
        <ele>15.52</ele>
        <time>2015-07-17T16:47:14Z</time>
      </trkpt>
      <trkpt lat="49.27303" lon="1.22203">
        <ele>15.04</ele>
        <time>2015-07-17T16:47:17Z</time>
      </trkpt>
      <trkpt lat="49.273" lon="1.22198">
        <ele>15.04</ele>
        <time>2015-07-17T16:47:18Z</time>
      </trkpt>
      <trkpt lat="49.27297" lon="1.22197">
        <ele>15.52</ele>
        <time>2015-07-17T16:47:19Z</time>
      </trkpt>
      <trkpt lat="49.27293" lon="1.222">
        <ele>15.52</ele>
        <time>2015-07-17T16:47:20Z</time>
      </trkpt>
      <trkpt lat="49.27289" lon="1.22203">
        <ele>15.04</ele>
        <time>2015-07-17T16:47:21Z</time>
      </trkpt>
      <trkpt lat="49.27285" lon="1.22207">
        <ele>15.04</ele>
        <time>2015-07-17T16:47:22Z</time>
      </trkpt>
      <trkpt lat="49.27281" lon="1.2221">
        <ele>15.52</ele>
        <time>2015-07-17T16:47:23Z</time>
      </trkpt>
      <trkpt lat="49.27277" lon="1.22213">
        <ele>15.04</ele>
        <time>2015-07-17T16:47:24Z</time>
      </trkpt>
      <trkpt lat="49.27258" lon="1.22222">
        <ele>14.08</ele>
        <time>2015-07-17T16:47:28Z</time>
      </trkpt>
      <trkpt lat="49.27168" lon="1.22239">
        <ele>12.15</ele>
        <time>2015-07-17T16:47:44Z</time>
      </trkpt>
      <trkpt lat="49.27145" lon="1.22248">
        <ele>12.15</ele>
        <time>2015-07-17T16:47:48Z</time>
      </trkpt>
      <trkpt lat="49.27134" lon="1.2225">
        <ele>12.63</ele>
        <time>2015-07-17T16:47:50Z</time>
      </trkpt>
      <trkpt lat="49.27129" lon="1.22252">
        <ele>12.63</ele>
        <time>2015-07-17T16:47:51Z</time>
      </trkpt>
      <trkpt lat="49.27048" lon="1.22274">
        <ele>12.15</ele>
        <time>2015-07-17T16:48:05Z</time>
      </trkpt>
      <trkpt lat="49.2696" lon="1.22289">
        <ele>12.63</ele>
        <time>2015-07-17T16:48:20Z</time>
      </trkpt>
      <trkpt lat="49.26895" lon="1.22289">
        <ele>12.15</ele>
        <time>2015-07-17T16:48:32Z</time>
      </trkpt>
      <trkpt lat="49.2682" lon="1.22287">
        <ele>13.12</ele>
        <time>2015-07-17T16:48:45Z</time>
      </trkpt>
      <trkpt lat="49.26745" lon="1.22296">
        <ele>12.63</ele>
        <time>2015-07-17T16:48:58Z</time>
      </trkpt>
      <trkpt lat="49.26728" lon="1.223">
        <ele>12.63</ele>
        <time>2015-07-17T16:49:01Z</time>
      </trkpt>
      <trkpt lat="49.26699" lon="1.22304">
        <ele>13.12</ele>
        <time>2015-07-17T16:49:06Z</time>
      </trkpt>
      <trkpt lat="49.26607" lon="1.22306">
        <ele>11.67</ele>
        <time>2015-07-17T16:49:21Z</time>
      </trkpt>
      <trkpt lat="49.26588" lon="1.22305">
        <ele>11.67</ele>
        <time>2015-07-17T16:49:24Z</time>
      </trkpt>
      <trkpt lat="49.26582" lon="1.22304">
        <ele>12.15</ele>
        <time>2015-07-17T16:49:25Z</time>
      </trkpt>
      <trkpt lat="49.26577" lon="1.22301">
        <ele>11.67</ele>
        <time>2015-07-17T16:49:26Z</time>
      </trkpt>
      <trkpt lat="49.26572" lon="1.22298">
        <ele>11.67</ele>
        <time>2015-07-17T16:49:27Z</time>
      </trkpt>
      <trkpt lat="49.26566" lon="1.22295">
        <ele>11.67</ele>
        <time>2015-07-17T16:49:28Z</time>
      </trkpt>
      <trkpt lat="49.2656" lon="1.22292">
        <ele>11.19</ele>
        <time>2015-07-17T16:49:29Z</time>
      </trkpt>
      <trkpt lat="49.26554" lon="1.22289">
        <ele>11.19</ele>
        <time>2015-07-17T16:49:30Z</time>
      </trkpt>
      <trkpt lat="49.26548" lon="1.22285">
        <ele>10.71</ele>
        <time>2015-07-17T16:49:31Z</time>
      </trkpt>
      <trkpt lat="49.26543" lon="1.22282">
        <ele>11.19</ele>
        <time>2015-07-17T16:49:32Z</time>
      </trkpt>
      <trkpt lat="49.26537" lon="1.22278">
        <ele>11.19</ele>
        <time>2015-07-17T16:49:33Z</time>
      </trkpt>
      <trkpt lat="49.26469" lon="1.22233">
        <ele>11.19</ele>
        <time>2015-07-17T16:49:46Z</time>
      </trkpt>
      <trkpt lat="49.26464" lon="1.2223">
        <ele>10.71</ele>
        <time>2015-07-17T16:49:47Z</time>
      </trkpt>
      <trkpt lat="49.26404" lon="1.22198">
        <ele>11.19</ele>
        <time>2015-07-17T16:49:59Z</time>
      </trkpt>
      <trkpt lat="49.26369" lon="1.22186">
        <ele>12.15</ele>
        <time>2015-07-17T16:50:07Z</time>
      </trkpt>
      <trkpt lat="49.26368" lon="1.22189">
        <ele>13.6</ele>
        <time>2015-07-17T16:50:08Z</time>
      </trkpt>
      <trkpt lat="49.26366" lon="1.22191">
        <ele>13.6</ele>
        <time>2015-07-17T16:50:09Z</time>
      </trkpt>
      <trkpt lat="49.26364" lon="1.22191">
        <ele>13.6</ele>
        <time>2015-07-17T16:50:10Z</time>
      </trkpt>
      <trkpt lat="49.26362" lon="1.2219">
        <ele>13.6</ele>
        <time>2015-07-17T16:50:11Z</time>
      </trkpt>
      <trkpt lat="49.26359" lon="1.22187">
        <ele>13.12</ele>
        <time>2015-07-17T16:50:12Z</time>
      </trkpt>
      <trkpt lat="49.26313" lon="1.22131">
        <ele>13.12</ele>
        <time>2015-07-17T16:50:25Z</time>
      </trkpt>
      <trkpt lat="49.2626" lon="1.22068">
        <ele>12.63</ele>
        <time>2015-07-17T16:50:38Z</time>
      </trkpt>
      <trkpt lat="49.26214" lon="1.22013">
        <ele>12.63</ele>
        <time>2015-07-17T16:50:49Z</time>
      </trkpt>
      <trkpt lat="49.26143" lon="1.21924">
        <ele>13.12</ele>
        <time>2015-07-17T16:51:05Z</time>
      </trkpt>
      <trkpt lat="49.26057" lon="1.21823">
        <ele>13.12</ele>
        <time>2015-07-17T16:51:23Z</time>
      </trkpt>
      <trkpt lat="49.25988" lon="1.21762">
        <ele>13.12</ele>
        <time>2015-07-17T16:51:37Z</time>
      </trkpt>
      <trkpt lat="49.25918" lon="1.21689">
        <ele>13.6</ele>
        <time>2015-07-17T16:51:52Z</time>
      </trkpt>
      <trkpt lat="49.25899" lon="1.21657">
        <ele>13.6</ele>
        <time>2015-07-17T16:51:57Z</time>
      </trkpt>
      <trkpt lat="49.25897" lon="1.21649">
        <ele>13.6</ele>
        <time>2015-07-17T16:51:58Z</time>
      </trkpt>
      <trkpt lat="49.25893" lon="1.21632">
        <ele>13.12</ele>
        <time>2015-07-17T16:52:00Z</time>
      </trkpt>
      <trkpt lat="49.25892" lon="1.21623">
        <ele>13.12</ele>
        <time>2015-07-17T16:52:01Z</time>
      </trkpt>
      <trkpt lat="49.25881" lon="1.21485">
        <ele>13.6</ele>
        <time>2015-07-17T16:52:17Z</time>
      </trkpt>
      <trkpt lat="49.25875" lon="1.21435">
        <ele>13.6</ele>
        <time>2015-07-17T16:52:23Z</time>
      </trkpt>
      <trkpt lat="49.25872" lon="1.21427">
        <ele>13.6</ele>
        <time>2015-07-17T16:52:24Z</time>
      </trkpt>
      <trkpt lat="49.25869" lon="1.2142">
        <ele>13.6</ele>
        <time>2015-07-17T16:52:25Z</time>
      </trkpt>
      <trkpt lat="49.25856" lon="1.21395">
        <ele>14.08</ele>
        <time>2015-07-17T16:52:29Z</time>
      </trkpt>
      <trkpt lat="49.25852" lon="1.21389">
        <ele>14.08</ele>
        <time>2015-07-17T16:52:30Z</time>
      </trkpt>
      <trkpt lat="49.25783" lon="1.21296">
        <ele>14.08</ele>
        <time>2015-07-17T16:52:46Z</time>
      </trkpt>
      <trkpt lat="49.25712" lon="1.21199">
        <ele>14.08</ele>
        <time>2015-07-17T16:53:03Z</time>
      </trkpt>
      <trkpt lat="49.25683" lon="1.21147">
        <ele>13.6</ele>
        <time>2015-07-17T16:53:11Z</time>
      </trkpt>
      <trkpt lat="49.25681" lon="1.21139">
        <ele>13.6</ele>
        <time>2015-07-17T16:53:12Z</time>
      </trkpt>
      <trkpt lat="49.25667" lon="1.21093">
        <ele>14.08</ele>
        <time>2015-07-17T16:53:18Z</time>
      </trkpt>
      <trkpt lat="49.25642" lon="1.20983">
        <ele>15.52</ele>
        <time>2015-07-17T16:53:33Z</time>
      </trkpt>
      <trkpt lat="49.25637" lon="1.2094">
        <ele>16.96</ele>
        <time>2015-07-17T16:53:43Z</time>
      </trkpt>
      <trkpt lat="49.25639" lon="1.20939">
        <ele>16.96</ele>
        <time>2015-07-17T16:53:44Z</time>
      </trkpt>
      <trkpt lat="49.25641" lon="1.20938">
        <ele>16.96</ele>
        <time>2015-07-17T16:53:45Z</time>
      </trkpt>
      <trkpt lat="49.25643" lon="1.20938">
        <ele>16.48</ele>
        <time>2015-07-17T16:53:46Z</time>
      </trkpt>
      <trkpt lat="49.25644" lon="1.20939">
        <ele>16.48</ele>
        <time>2015-07-17T16:53:47Z</time>
      </trkpt>
      <trkpt lat="49.25646" lon="1.20938">
        <ele>16.48</ele>
        <time>2015-07-17T16:53:48Z</time>
      </trkpt>
      <trkpt lat="49.25648" lon="1.20938">
        <ele>16.48</ele>
        <time>2015-07-17T16:53:49Z</time>
      </trkpt>
      <trkpt lat="49.25649" lon="1.20939">
        <ele>16.48</ele>
        <time>2015-07-17T16:53:50Z</time>
      </trkpt>
      <trkpt lat="49.25651" lon="1.2094">
        <ele>16.48</ele>
        <time>2015-07-17T16:54:03Z</time>
      </trkpt>
      <trkpt lat="49.25651" lon="1.20944">
        <ele>16</ele>
        <time>2015-07-17T16:54:30Z</time>
      </trkpt>
      <trkpt lat="49.25653" lon="1.20946">
        <ele>16</ele>
        <time>2015-07-17T16:54:56Z</time>
      </trkpt>
      <trkpt lat="49.25653" lon="1.20947">
        <ele>15.52</ele>
        <time>2015-07-17T16:55:23Z</time>
      </trkpt>
      <trkpt lat="49.25653" lon="1.20946">
        <ele>15.52</ele>
        <time>2015-07-17T16:55:37Z</time>
      </trkpt>
      <trkpt lat="49.25654" lon="1.20945">
        <ele>16</ele>
        <time>2015-07-17T16:55:43Z</time>
      </trkpt>
      <trkpt lat="49.25653" lon="1.20943">
        <ele>15.52</ele>
        <time>2015-07-17T16:55:44Z</time>
      </trkpt>
      <trkpt lat="49.25653" lon="1.20939">
        <ele>15.52</ele>
        <time>2015-07-17T16:55:45Z</time>
      </trkpt>
      <trkpt lat="49.25652" lon="1.20936">
        <ele>16</ele>
        <time>2015-07-17T16:55:46Z</time>
      </trkpt>
      <trkpt lat="49.25651" lon="1.20933">
        <ele>16</ele>
        <time>2015-07-17T16:55:47Z</time>
      </trkpt>
      <trkpt lat="49.25649" lon="1.20929">
        <ele>15.52</ele>
        <time>2015-07-17T16:55:50Z</time>
      </trkpt>
      <trkpt lat="49.25648" lon="1.20928">
        <ele>15.52</ele>
        <time>2015-07-17T16:55:51Z</time>
      </trkpt>
      <trkpt lat="49.25646" lon="1.20927">
        <ele>15.52</ele>
        <time>2015-07-17T16:55:52Z</time>
      </trkpt>
      <trkpt lat="49.25643" lon="1.20927">
        <ele>15.52</ele>
        <time>2015-07-17T16:55:53Z</time>
      </trkpt>
      <trkpt lat="49.2564" lon="1.20928">
        <ele>15.52</ele>
        <time>2015-07-17T16:55:54Z</time>
      </trkpt>
      <trkpt lat="49.25633" lon="1.20925">
        <ele>15.04</ele>
        <time>2015-07-17T16:55:56Z</time>
      </trkpt>
      <trkpt lat="49.25632" lon="1.2092">
        <ele>15.04</ele>
        <time>2015-07-17T16:55:57Z</time>
      </trkpt>
      <trkpt lat="49.2563" lon="1.20914">
        <ele>14.56</ele>
        <time>2015-07-17T16:55:58Z</time>
      </trkpt>
      <trkpt lat="49.25629" lon="1.20908">
        <ele>15.04</ele>
        <time>2015-07-17T16:55:59Z</time>
      </trkpt>
      <trkpt lat="49.25628" lon="1.20901">
        <ele>15.04</ele>
        <time>2015-07-17T16:56:00Z</time>
      </trkpt>
      <trkpt lat="49.25628" lon="1.20895">
        <ele>14.56</ele>
        <time>2015-07-17T16:56:01Z</time>
      </trkpt>
      <trkpt lat="49.25627" lon="1.20888">
        <ele>14.08</ele>
        <time>2015-07-17T16:56:02Z</time>
      </trkpt>
      <trkpt lat="49.25625" lon="1.20874">
        <ele>14.56</ele>
        <time>2015-07-17T16:56:04Z</time>
      </trkpt>
      <trkpt lat="49.25623" lon="1.20867">
        <ele>14.08</ele>
        <time>2015-07-17T16:56:05Z</time>
      </trkpt>
      <trkpt lat="49.25617" lon="1.20814">
        <ele>14.08</ele>
        <time>2015-07-17T16:56:12Z</time>
      </trkpt>
      <trkpt lat="49.25616" lon="1.20799">
        <ele>14.08</ele>
        <time>2015-07-17T16:56:14Z</time>
      </trkpt>
      <trkpt lat="49.25612" lon="1.20778">
        <ele>14.08</ele>
        <time>2015-07-17T16:56:17Z</time>
      </trkpt>
      <trkpt lat="49.25603" lon="1.20742">
        <ele>13.12</ele>
        <time>2015-07-17T16:56:22Z</time>
      </trkpt>
      <trkpt lat="49.25593" lon="1.20717">
        <ele>13.12</ele>
        <time>2015-07-17T16:56:26Z</time>
      </trkpt>
      <trkpt lat="49.25556" lon="1.20622">
        <ele>12.15</ele>
        <time>2015-07-17T16:56:40Z</time>
      </trkpt>
      <trkpt lat="49.25543" lon="1.20565">
        <ele>12.63</ele>
        <time>2015-07-17T16:56:48Z</time>
      </trkpt>
      <trkpt lat="49.25541" lon="1.20557">
        <ele>13.12</ele>
        <time>2015-07-17T16:56:49Z</time>
      </trkpt>
      <trkpt lat="49.2554" lon="1.2055">
        <ele>12.63</ele>
        <time>2015-07-17T16:56:50Z</time>
      </trkpt>
      <trkpt lat="49.25538" lon="1.20542">
        <ele>12.63</ele>
        <time>2015-07-17T16:56:51Z</time>
      </trkpt>
      <trkpt lat="49.25536" lon="1.20535">
        <ele>12.63</ele>
        <time>2015-07-17T16:56:52Z</time>
      </trkpt>
      <trkpt lat="49.25526" lon="1.20501">
        <ele>12.63</ele>
        <time>2015-07-17T16:56:57Z</time>
      </trkpt>
      <trkpt lat="49.2552" lon="1.2048">
        <ele>12.15</ele>
        <time>2015-07-17T16:57:00Z</time>
      </trkpt>
      <trkpt lat="49.25518" lon="1.20472">
        <ele>12.63</ele>
        <time>2015-07-17T16:57:01Z</time>
      </trkpt>
      <trkpt lat="49.25505" lon="1.20418">
        <ele>12.15</ele>
        <time>2015-07-17T16:57:08Z</time>
      </trkpt>
      <trkpt lat="49.25504" lon="1.2041">
        <ele>12.15</ele>
        <time>2015-07-17T16:57:09Z</time>
      </trkpt>
      <trkpt lat="49.25502" lon="1.20402">
        <ele>11.67</ele>
        <time>2015-07-17T16:57:10Z</time>
      </trkpt>
      <trkpt lat="49.255" lon="1.20395">
        <ele>12.15</ele>
        <time>2015-07-17T16:57:11Z</time>
      </trkpt>
      <trkpt lat="49.25498" lon="1.20387">
        <ele>12.15</ele>
        <time>2015-07-17T16:57:12Z</time>
      </trkpt>
      <trkpt lat="49.25489" lon="1.20317">
        <ele>12.15</ele>
        <time>2015-07-17T16:57:21Z</time>
      </trkpt>
      <trkpt lat="49.25489" lon="1.2031">
        <ele>12.15</ele>
        <time>2015-07-17T16:57:22Z</time>
      </trkpt>
      <trkpt lat="49.25489" lon="1.20302">
        <ele>12.15</ele>
        <time>2015-07-17T16:57:23Z</time>
      </trkpt>
      <trkpt lat="49.25487" lon="1.20249">
        <ele>12.15</ele>
        <time>2015-07-17T16:57:30Z</time>
      </trkpt>
      <trkpt lat="49.25483" lon="1.20179">
        <ele>12.15</ele>
        <time>2015-07-17T16:57:43Z</time>
      </trkpt>
      <trkpt lat="49.25479" lon="1.2016">
        <ele>12.15</ele>
        <time>2015-07-17T16:57:48Z</time>
      </trkpt>
      <trkpt lat="49.25477" lon="1.2016">
        <ele>12.15</ele>
        <time>2015-07-17T16:57:49Z</time>
      </trkpt>
      <trkpt lat="49.25477" lon="1.20161">
        <ele>12.63</ele>
        <time>2015-07-17T16:57:58Z</time>
      </trkpt>
      <trkpt lat="49.25477" lon="1.20162">
        <ele>12.63</ele>
        <time>2015-07-17T16:58:16Z</time>
      </trkpt>
      <trkpt lat="49.25477" lon="1.20164">
        <ele>12.63</ele>
        <time>2015-07-17T16:58:27Z</time>
      </trkpt>
      <trkpt lat="49.25477" lon="1.20165">
        <ele>12.15</ele>
        <time>2015-07-17T16:58:28Z</time>
      </trkpt>
      <trkpt lat="49.25478" lon="1.20179">
        <ele>11.67</ele>
        <time>2015-07-17T16:58:35Z</time>
      </trkpt>
      <trkpt lat="49.25477" lon="1.20181">
        <ele>12.15</ele>
        <time>2015-07-17T16:58:36Z</time>
      </trkpt>
      <trkpt lat="49.25476" lon="1.20182">
        <ele>12.15</ele>
        <time>2015-07-17T16:58:37Z</time>
      </trkpt>
      <trkpt lat="49.25474" lon="1.20183">
        <ele>12.63</ele>
        <time>2015-07-17T16:58:38Z</time>
      </trkpt>
      <trkpt lat="49.25473" lon="1.20183">
        <ele>12.63</ele>
        <time>2015-07-17T16:58:39Z</time>
      </trkpt>
      <trkpt lat="49.25472" lon="1.20184">
        <ele>12.63</ele>
        <time>2015-07-17T16:58:40Z</time>
      </trkpt>
      <trkpt lat="49.25471" lon="1.20184">
        <ele>12.63</ele>
        <time>2015-07-17T16:58:41Z</time>
      </trkpt>
      <trkpt lat="49.25469" lon="1.20183">
        <ele>12.63</ele>
        <time>2015-07-17T16:58:44Z</time>
      </trkpt>
      <trkpt lat="49.25468" lon="1.20182">
        <ele>12.15</ele>
        <time>2015-07-17T16:58:45Z</time>
      </trkpt>
      <trkpt lat="49.25467" lon="1.20181">
        <ele>12.15</ele>
        <time>2015-07-17T16:58:46Z</time>
      </trkpt>
      <trkpt lat="49.25463" lon="1.20174">
        <ele>12.15</ele>
        <time>2015-07-17T16:58:59Z</time>
      </trkpt>
      <trkpt lat="49.25462" lon="1.20172">
        <ele>12.15</ele>
        <time>2015-07-17T16:59:29Z</time>
      </trkpt>
      <trkpt lat="49.25463" lon="1.20173">
        <ele>12.15</ele>
        <time>2015-07-17T16:59:57Z</time>
      </trkpt>
      <trkpt lat="49.25463" lon="1.20174">
        <ele>13.12</ele>
        <time>2015-07-17T17:00:08Z</time>
      </trkpt>
    </trkseg>
  </trk>
</gpx>